<?xml version='1.0' encoding='UTF-8'?><gpx version="1.1" creator="JPX - https://github.com/jenetics/jpx" xmlns="http://www.topografix.com/GPX/1/1"><trk><trkseg><trkpt lat="45.510985" lon="11.5072767"><ele>33.0</ele><time>2026-03-22T08:47:43.066Z</time></trkpt><trkpt lat="45.5109233" lon="11.5073067"><ele>33.0</ele><time>2026-03-22T08:49:54.066Z</time></trkpt><trkpt lat="45.51086" lon="11.5073017"><ele>33.0</ele><time>2026-03-22T08:49:58.066Z</time></trkpt><trkpt lat="45.5107783" lon="11.507265"><ele>33.0</ele><time>2026-03-22T08:50:00.066Z</time></trkpt><trkpt lat="45.5106967" lon="11.5071783"><ele>33.0</ele><time>2026-03-22T08:50:02.065Z</time></trkpt><trkpt lat="45.5106033" lon="11.5071133"><ele>33.0</ele><time>2026-03-22T08:50:04.065Z</time></trkpt><trkpt lat="45.51053" lon="11.5070717"><ele>33.0</ele><time>2026-03-22T08:50:06.066Z</time></trkpt><trkpt lat="45.5106017" lon="11.5070817"><ele>33.0</ele><time>2026-03-22T08:50:47.066Z</time></trkpt><trkpt lat="45.5106967" lon="11.507175"><ele>33.0</ele><time>2026-03-22T08:50:49.066Z</time></trkpt><trkpt lat="45.5107567" lon="11.5072033"><ele>33.0</ele><time>2026-03-22T08:50:50.066Z</time></trkpt><trkpt lat="45.51082" lon="11.5072217"><ele>33.0</ele><time>2026-03-22T08:50:51.066Z</time></trkpt><trkpt lat="45.5109067" lon="11.50726"><ele>33.0</ele><time>2026-03-22T08:50:53.066Z</time></trkpt><trkpt lat="45.5109717" lon="11.5072817"><ele>33.0</ele><time>2026-03-22T08:50:57.066Z</time></trkpt><trkpt lat="45.5109" lon="11.5072983"><ele>33.0</ele><time>2026-03-22T08:52:00.066Z</time></trkpt><trkpt lat="45.5108083" lon="11.5072983"><ele>33.0</ele><time>2026-03-22T08:52:04.066Z</time></trkpt><trkpt lat="45.5107417" lon="11.5072517"><ele>33.0</ele><time>2026-03-22T08:52:07.066Z</time></trkpt><trkpt lat="45.51067" lon="11.5071917"><ele>33.0</ele><time>2026-03-22T08:52:10.066Z</time></trkpt><trkpt lat="45.5106033" lon="11.5071683"><ele>33.0</ele><time>2026-03-22T08:52:13.066Z</time></trkpt><trkpt lat="45.510535" lon="11.5071233"><ele>33.14285714285714</ele><time>2026-03-22T08:52:17.066Z</time></trkpt><trkpt lat="45.5104883" lon="11.5070433"><ele>33.285714285714285</ele><time>2026-03-22T08:52:36.066Z</time></trkpt><trkpt lat="45.5104733" lon="11.5069533"><ele>33.42857142857143</ele><time>2026-03-22T08:52:43.066Z</time></trkpt><trkpt lat="45.5105217" lon="11.5070133"><ele>33.57142857142857</ele><time>2026-03-22T08:53:40.065Z</time></trkpt><trkpt lat="45.5104317" lon="11.5070083"><ele>33.714285714285715</ele><time>2026-03-22T08:54:37.065Z</time></trkpt><trkpt lat="45.51035" lon="11.50698"><ele>33.857142857142854</ele><time>2026-03-22T08:54:40.065Z</time></trkpt><trkpt lat="45.5102817" lon="11.50697"><ele>34.0</ele><time>2026-03-22T08:54:42.065Z</time></trkpt><trkpt lat="45.5102133" lon="11.50695"><ele>34.333333333333336</ele><time>2026-03-22T08:54:44.065Z</time></trkpt><trkpt lat="45.5101367" lon="11.5069383"><ele>34.66666666666667</ele><time>2026-03-22T08:54:47.064Z</time></trkpt><trkpt lat="45.5100433" lon="11.506915"><ele>35.0</ele><time>2026-03-22T08:54:50.065Z</time></trkpt><trkpt lat="45.5099783" lon="11.5069117"><ele>35.333333333333336</ele><time>2026-03-22T08:54:53.065Z</time></trkpt><trkpt lat="45.5100583" lon="11.5069067"><ele>35.666666666666664</ele><time>2026-03-22T08:54:59.065Z</time></trkpt><trkpt lat="45.5101267" lon="11.5068983"><ele>36.0</ele><time>2026-03-22T08:55:02.065Z</time></trkpt><trkpt lat="45.5101933" lon="11.506895"><ele>36.0</ele><time>2026-03-22T08:55:05.065Z</time></trkpt><trkpt lat="45.5102617" lon="11.506905"><ele>36.0</ele><time>2026-03-22T08:55:07.065Z</time></trkpt><trkpt lat="45.5103417" lon="11.5069217"><ele>36.0</ele><time>2026-03-22T08:55:10.065Z</time></trkpt><trkpt lat="45.5104067" lon="11.5069517"><ele>36.0</ele><time>2026-03-22T08:55:18.065Z</time></trkpt><trkpt lat="45.51048" lon="11.5069533"><ele>36.0</ele><time>2026-03-22T08:55:34.065Z</time></trkpt><trkpt lat="45.5105417" lon="11.5069333"><ele>36.0</ele><time>2026-03-22T08:55:37.065Z</time></trkpt><trkpt lat="45.5104733" lon="11.5067833"><ele>36.0</ele><time>2026-03-22T08:55:41.065Z</time></trkpt><trkpt lat="45.510415" lon="11.50672"><ele>36.0</ele><time>2026-03-22T08:55:42.065Z</time></trkpt><trkpt lat="45.5103333" lon="11.5066867"><ele>36.0</ele><time>2026-03-22T08:55:43.065Z</time></trkpt><trkpt lat="45.5102383" lon="11.5066433"><ele>36.0</ele><time>2026-03-22T08:55:44.065Z</time></trkpt><trkpt lat="45.5101267" lon="11.506605"><ele>36.0</ele><time>2026-03-22T08:55:45.065Z</time></trkpt><trkpt lat="45.510005" lon="11.50657"><ele>36.0</ele><time>2026-03-22T08:55:46.064Z</time></trkpt><trkpt lat="45.5098717" lon="11.50653"><ele>36.0</ele><time>2026-03-22T08:55:47.065Z</time></trkpt><trkpt lat="45.5097417" lon="11.5064867"><ele>36.0</ele><time>2026-03-22T08:55:48.065Z</time></trkpt><trkpt lat="45.509615" lon="11.5064683"><ele>36.0</ele><time>2026-03-22T08:55:49.065Z</time></trkpt><trkpt lat="45.509495" lon="11.5064483"><ele>35.75</ele><time>2026-03-22T08:55:50.065Z</time></trkpt><trkpt lat="45.5093717" lon="11.5064383"><ele>35.5</ele><time>2026-03-22T08:55:51.064Z</time></trkpt><trkpt lat="45.50925" lon="11.5064233"><ele>35.25</ele><time>2026-03-22T08:55:52.064Z</time></trkpt><trkpt lat="45.509125" lon="11.5063967"><ele>35.0</ele><time>2026-03-22T08:55:53.065Z</time></trkpt><trkpt lat="45.509" lon="11.5063333"><ele>35.0</ele><time>2026-03-22T08:55:54.065Z</time></trkpt><trkpt lat="45.5088733" lon="11.5062667"><ele>35.0</ele><time>2026-03-22T08:55:55.065Z</time></trkpt><trkpt lat="45.5087533" lon="11.50621"><ele>35.0</ele><time>2026-03-22T08:55:56.065Z</time></trkpt><trkpt lat="45.50862" lon="11.50617"><ele>35.0</ele><time>2026-03-22T08:55:57.065Z</time></trkpt><trkpt lat="45.5084867" lon="11.50615"><ele>42.33333333333333</ele><time>2026-03-22T08:55:58.065Z</time></trkpt><trkpt lat="45.5083383" lon="11.506115"><ele>49.666666666666664</ele><time>2026-03-22T08:55:59.065Z</time></trkpt><trkpt lat="45.5081917" lon="11.506065"><ele>57.0</ele><time>2026-03-22T08:56:00.065Z</time></trkpt><trkpt lat="45.50804" lon="11.5060067"><ele>53.666666666666664</ele><time>2026-03-22T08:56:01.065Z</time></trkpt><trkpt lat="45.50789" lon="11.5059483"><ele>50.33333333333333</ele><time>2026-03-22T08:56:02.065Z</time></trkpt><trkpt lat="45.5077367" lon="11.5058967"><ele>47.0</ele><time>2026-03-22T08:56:03.065Z</time></trkpt><trkpt lat="45.50759" lon="11.5058517"><ele>47.0</ele><time>2026-03-22T08:56:04.065Z</time></trkpt><trkpt lat="45.5074367" lon="11.505815"><ele>47.0</ele><time>2026-03-22T08:56:05.065Z</time></trkpt><trkpt lat="45.5072717" lon="11.5057433"><ele>47.0</ele><time>2026-03-22T08:56:06.065Z</time></trkpt><trkpt lat="45.50711" lon="11.50571"><ele>46.33333333333333</ele><time>2026-03-22T08:56:07.065Z</time></trkpt><trkpt lat="45.5069517" lon="11.5056917"><ele>45.666666666666664</ele><time>2026-03-22T08:56:08.065Z</time></trkpt><trkpt lat="45.5067917" lon="11.5056667"><ele>45.0</ele><time>2026-03-22T08:56:09.065Z</time></trkpt><trkpt lat="45.506635" lon="11.5056683"><ele>45.0</ele><time>2026-03-22T08:56:10.065Z</time></trkpt><trkpt lat="45.5064683" lon="11.5056767"><ele>45.0</ele><time>2026-03-22T08:56:11.065Z</time></trkpt><trkpt lat="45.5063067" lon="11.5056917"><ele>45.0</ele><time>2026-03-22T08:56:12.064Z</time></trkpt><trkpt lat="45.506145" lon="11.5056933"><ele>45.333333333333336</ele><time>2026-03-22T08:56:13.065Z</time></trkpt><trkpt lat="45.50598" lon="11.5057017"><ele>45.66666666666667</ele><time>2026-03-22T08:56:14.065Z</time></trkpt><trkpt lat="45.5058183" lon="11.5057067"><ele>46.0</ele><time>2026-03-22T08:56:15.065Z</time></trkpt><trkpt lat="45.5056583" lon="11.5057033"><ele>46.0</ele><time>2026-03-22T08:56:16.065Z</time></trkpt><trkpt lat="45.50551" lon="11.5057183"><ele>46.0</ele><time>2026-03-22T08:56:17.065Z</time></trkpt><trkpt lat="45.5053633" lon="11.5057133"><ele>46.0</ele><time>2026-03-22T08:56:18.065Z</time></trkpt><trkpt lat="45.5052217" lon="11.5057167"><ele>46.0</ele><time>2026-03-22T08:56:19.065Z</time></trkpt><trkpt lat="45.5050833" lon="11.505715"><ele>45.0</ele><time>2026-03-22T08:56:20.065Z</time></trkpt><trkpt lat="45.5049583" lon="11.5057067"><ele>44.0</ele><time>2026-03-22T08:56:21.064Z</time></trkpt><trkpt lat="45.504825" lon="11.5057"><ele>43.0</ele><time>2026-03-22T08:56:22.065Z</time></trkpt><trkpt lat="45.5046917" lon="11.5057117"><ele>42.0</ele><time>2026-03-22T08:56:23.064Z</time></trkpt><trkpt lat="45.50455" lon="11.5057167"><ele>40.75</ele><time>2026-03-22T08:56:24.065Z</time></trkpt><trkpt lat="45.50441" lon="11.5057117"><ele>39.5</ele><time>2026-03-22T08:56:25.064Z</time></trkpt><trkpt lat="45.504265" lon="11.505705"><ele>38.25</ele><time>2026-03-22T08:56:26.065Z</time></trkpt><trkpt lat="45.5041267" lon="11.505645"><ele>37.0</ele><time>2026-03-22T08:56:27.065Z</time></trkpt><trkpt lat="45.5039917" lon="11.5056067"><ele>37.0</ele><time>2026-03-22T08:56:28.065Z</time></trkpt><trkpt lat="45.50386" lon="11.5055733"><ele>37.0</ele><time>2026-03-22T08:56:29.065Z</time></trkpt><trkpt lat="45.5037267" lon="11.5055333"><ele>37.0</ele><time>2026-03-22T08:56:30.065Z</time></trkpt><trkpt lat="45.503595" lon="11.5055"><ele>37.0</ele><time>2026-03-22T08:56:31.065Z</time></trkpt><trkpt lat="45.5034667" lon="11.5054817"><ele>35.75</ele><time>2026-03-22T08:56:32.065Z</time></trkpt><trkpt lat="45.5033367" lon="11.5054667"><ele>34.5</ele><time>2026-03-22T08:56:33.065Z</time></trkpt><trkpt lat="45.5032083" lon="11.5054583"><ele>33.25</ele><time>2026-03-22T08:56:34.065Z</time></trkpt><trkpt lat="45.5030917" lon="11.505435"><ele>32.0</ele><time>2026-03-22T08:56:35.065Z</time></trkpt><trkpt lat="45.5029617" lon="11.5054183"><ele>32.0</ele><time>2026-03-22T08:56:36.064Z</time></trkpt><trkpt lat="45.5028233" lon="11.505415"><ele>32.0</ele><time>2026-03-22T08:56:37.065Z</time></trkpt><trkpt lat="45.5027033" lon="11.505385"><ele>32.0</ele><time>2026-03-22T08:56:38.065Z</time></trkpt><trkpt lat="45.5026017" lon="11.5053883"><ele>32.0</ele><time>2026-03-22T08:56:39.065Z</time></trkpt><trkpt lat="45.5025217" lon="11.5053767"><ele>32.0</ele><time>2026-03-22T08:56:40.065Z</time></trkpt><trkpt lat="45.502435" lon="11.50536"><ele>34.6</ele><time>2026-03-22T08:56:41.065Z</time></trkpt><trkpt lat="45.5023583" lon="11.5053267"><ele>37.2</ele><time>2026-03-22T08:56:42.065Z</time></trkpt><trkpt lat="45.50229" lon="11.5052767"><ele>39.8</ele><time>2026-03-22T08:56:43.065Z</time></trkpt><trkpt lat="45.5022167" lon="11.5052117"><ele>42.4</ele><time>2026-03-22T08:56:44.065Z</time></trkpt><trkpt lat="45.50216" lon="11.505075"><ele>45.0</ele><time>2026-03-22T08:56:45.065Z</time></trkpt><trkpt lat="45.5021267" lon="11.504915"><ele>45.0</ele><time>2026-03-22T08:56:46.065Z</time></trkpt><trkpt lat="45.5021033" lon="11.504725"><ele>45.0</ele><time>2026-03-22T08:56:47.065Z</time></trkpt><trkpt lat="45.5020983" lon="11.50452"><ele>45.0</ele><time>2026-03-22T08:56:48.064Z</time></trkpt><trkpt lat="45.5021233" lon="11.504335"><ele>45.0</ele><time>2026-03-22T08:56:49.065Z</time></trkpt><trkpt lat="45.5021533" lon="11.50415"><ele>44.25</ele><time>2026-03-22T08:56:50.065Z</time></trkpt><trkpt lat="45.5021883" lon="11.50399"><ele>43.5</ele><time>2026-03-22T08:56:51.065Z</time></trkpt><trkpt lat="45.5022167" lon="11.5038067"><ele>42.75</ele><time>2026-03-22T08:56:52.064Z</time></trkpt><trkpt lat="45.5022367" lon="11.5036"><ele>42.0</ele><time>2026-03-22T08:56:53.065Z</time></trkpt><trkpt lat="45.5022317" lon="11.5034167"><ele>42.0</ele><time>2026-03-22T08:56:54.065Z</time></trkpt><trkpt lat="45.502225" lon="11.5032317"><ele>42.0</ele><time>2026-03-22T08:56:55.065Z</time></trkpt><trkpt lat="45.5022067" lon="11.5030483"><ele>42.0</ele><time>2026-03-22T08:56:56.065Z</time></trkpt><trkpt lat="45.5021767" lon="11.5028567"><ele>42.0</ele><time>2026-03-22T08:56:57.065Z</time></trkpt><trkpt lat="45.5021367" lon="11.50267"><ele>41.0</ele><time>2026-03-22T08:56:58.065Z</time></trkpt><trkpt lat="45.502085" lon="11.5024917"><ele>40.0</ele><time>2026-03-22T08:56:59.065Z</time></trkpt><trkpt lat="45.5020083" lon="11.5023317"><ele>39.0</ele><time>2026-03-22T08:57:00.065Z</time></trkpt><trkpt lat="45.5019083" lon="11.5022"><ele>38.0</ele><time>2026-03-22T08:57:01.065Z</time></trkpt><trkpt lat="45.5017933" lon="11.502065"><ele>40.75</ele><time>2026-03-22T08:57:02.065Z</time></trkpt><trkpt lat="45.5016867" lon="11.50197"><ele>43.5</ele><time>2026-03-22T08:57:03.064Z</time></trkpt><trkpt lat="45.501585" lon="11.5018567"><ele>46.25</ele><time>2026-03-22T08:57:04.065Z</time></trkpt><trkpt lat="45.5015067" lon="11.501735"><ele>49.0</ele><time>2026-03-22T08:57:05.065Z</time></trkpt><trkpt lat="45.5014567" lon="11.5015833"><ele>49.0</ele><time>2026-03-22T08:57:06.065Z</time></trkpt><trkpt lat="45.5014367" lon="11.5014"><ele>49.0</ele><time>2026-03-22T08:57:07.065Z</time></trkpt><trkpt lat="45.501435" lon="11.50121"><ele>49.0</ele><time>2026-03-22T08:57:08.065Z</time></trkpt><trkpt lat="45.501445" lon="11.50102"><ele>49.0</ele><time>2026-03-22T08:57:09.064Z</time></trkpt><trkpt lat="45.5014717" lon="11.5008483"><ele>49.5</ele><time>2026-03-22T08:57:10.065Z</time></trkpt><trkpt lat="45.5015017" lon="11.5006667"><ele>50.0</ele><time>2026-03-22T08:57:11.065Z</time></trkpt><trkpt lat="45.501515" lon="11.5004817"><ele>50.5</ele><time>2026-03-22T08:57:12.065Z</time></trkpt><trkpt lat="45.5014983" lon="11.5002933"><ele>51.0</ele><time>2026-03-22T08:57:13.065Z</time></trkpt><trkpt lat="45.5014633" lon="11.5001217"><ele>51.75</ele><time>2026-03-22T08:57:14.065Z</time></trkpt><trkpt lat="45.5013983" lon="11.4999617"><ele>52.5</ele><time>2026-03-22T08:57:15.065Z</time></trkpt><trkpt lat="45.5013067" lon="11.49983"><ele>53.25</ele><time>2026-03-22T08:57:16.065Z</time></trkpt><trkpt lat="45.5011883" lon="11.4997183"><ele>54.0</ele><time>2026-03-22T08:57:17.065Z</time></trkpt><trkpt lat="45.5010667" lon="11.499625"><ele>53.0</ele><time>2026-03-22T08:57:18.065Z</time></trkpt><trkpt lat="45.500945" lon="11.4995383"><ele>52.0</ele><time>2026-03-22T08:57:19.065Z</time></trkpt><trkpt lat="45.5008217" lon="11.4994383"><ele>51.0</ele><time>2026-03-22T08:57:20.065Z</time></trkpt><trkpt lat="45.5007" lon="11.4993317"><ele>50.0</ele><time>2026-03-22T08:57:21.065Z</time></trkpt><trkpt lat="45.5005833" lon="11.4992117"><ele>50.0</ele><time>2026-03-22T08:57:22.064Z</time></trkpt><trkpt lat="45.5004817" lon="11.4990633"><ele>50.0</ele><time>2026-03-22T08:57:23.064Z</time></trkpt><trkpt lat="45.5003933" lon="11.4989017"><ele>50.0</ele><time>2026-03-22T08:57:24.065Z</time></trkpt><trkpt lat="45.5002983" lon="11.49873"><ele>50.0</ele><time>2026-03-22T08:57:25.065Z</time></trkpt><trkpt lat="45.5001917" lon="11.4985417"><ele>46.66666666666667</ele><time>2026-03-22T08:57:26.065Z</time></trkpt><trkpt lat="45.5000633" lon="11.4983717"><ele>43.333333333333336</ele><time>2026-03-22T08:57:27.065Z</time></trkpt><trkpt lat="45.4999183" lon="11.4982033"><ele>40.0</ele><time>2026-03-22T08:57:28.065Z</time></trkpt><trkpt lat="45.49977" lon="11.49805"><ele>39.333333333333336</ele><time>2026-03-22T08:57:29.065Z</time></trkpt><trkpt lat="45.49965" lon="11.49788"><ele>38.666666666666664</ele><time>2026-03-22T08:57:30.064Z</time></trkpt><trkpt lat="45.499545" lon="11.4977067"><ele>38.0</ele><time>2026-03-22T08:57:31.065Z</time></trkpt><trkpt lat="45.4994417" lon="11.49753"><ele>38.0</ele><time>2026-03-22T08:57:32.065Z</time></trkpt><trkpt lat="45.49934" lon="11.4973567"><ele>38.0</ele><time>2026-03-22T08:57:33.065Z</time></trkpt><trkpt lat="45.4992483" lon="11.497175"><ele>38.0</ele><time>2026-03-22T08:57:34.065Z</time></trkpt><trkpt lat="45.4991617" lon="11.4969883"><ele>37.666666666666664</ele><time>2026-03-22T08:57:35.065Z</time></trkpt><trkpt lat="45.4990883" lon="11.4967783"><ele>37.333333333333336</ele><time>2026-03-22T08:57:36.065Z</time></trkpt><trkpt lat="45.4990283" lon="11.4965533"><ele>37.0</ele><time>2026-03-22T08:57:37.064Z</time></trkpt><trkpt lat="45.4989717" lon="11.49633"><ele>37.0</ele><time>2026-03-22T08:57:38.064Z</time></trkpt><trkpt lat="45.498915" lon="11.4961133"><ele>37.0</ele><time>2026-03-22T08:57:39.065Z</time></trkpt><trkpt lat="45.49886" lon="11.495895"><ele>37.0</ele><time>2026-03-22T08:57:40.065Z</time></trkpt><trkpt lat="45.4988017" lon="11.4956767"><ele>37.0</ele><time>2026-03-22T08:57:41.065Z</time></trkpt><trkpt lat="45.4987217" lon="11.4954733"><ele>37.0</ele><time>2026-03-22T08:57:42.065Z</time></trkpt><trkpt lat="45.4986167" lon="11.4952967"><ele>37.0</ele><time>2026-03-22T08:57:43.065Z</time></trkpt><trkpt lat="45.498495" lon="11.4951367"><ele>37.0</ele><time>2026-03-22T08:57:44.065Z</time></trkpt><trkpt lat="45.498365" lon="11.4950033"><ele>37.0</ele><time>2026-03-22T08:57:45.065Z</time></trkpt><trkpt lat="45.4982133" lon="11.4948967"><ele>37.0</ele><time>2026-03-22T08:57:46.065Z</time></trkpt><trkpt lat="45.4980617" lon="11.4947983"><ele>35.0</ele><time>2026-03-22T08:57:47.065Z</time></trkpt><trkpt lat="45.497905" lon="11.4947"><ele>33.0</ele><time>2026-03-22T08:57:48.065Z</time></trkpt><trkpt lat="45.49775" lon="11.4946067"><ele>31.0</ele><time>2026-03-22T08:57:49.065Z</time></trkpt><trkpt lat="45.4976" lon="11.4945133"><ele>35.333333333333336</ele><time>2026-03-22T08:57:50.065Z</time></trkpt><trkpt lat="45.4974483" lon="11.4944133"><ele>39.666666666666664</ele><time>2026-03-22T08:57:51.065Z</time></trkpt><trkpt lat="45.4973" lon="11.4943383"><ele>44.0</ele><time>2026-03-22T08:57:52.064Z</time></trkpt><trkpt lat="45.4971533" lon="11.494265"><ele>43.0</ele><time>2026-03-22T08:57:53.065Z</time></trkpt><trkpt lat="45.496995" lon="11.4942233"><ele>42.0</ele><time>2026-03-22T08:57:54.065Z</time></trkpt><trkpt lat="45.4968367" lon="11.4942167"><ele>41.0</ele><time>2026-03-22T08:57:55.065Z</time></trkpt><trkpt lat="45.49668" lon="11.494175"><ele>41.0</ele><time>2026-03-22T08:57:56.064Z</time></trkpt><trkpt lat="45.4965317" lon="11.494115"><ele>41.0</ele><time>2026-03-22T08:57:57.065Z</time></trkpt><trkpt lat="45.4963783" lon="11.4940217"><ele>41.0</ele><time>2026-03-22T08:57:58.064Z</time></trkpt><trkpt lat="45.4962283" lon="11.4939083"><ele>43.33333333333333</ele><time>2026-03-22T08:57:59.065Z</time></trkpt><trkpt lat="45.49608" lon="11.49378"><ele>45.666666666666664</ele><time>2026-03-22T08:58:00.065Z</time></trkpt><trkpt lat="45.4959383" lon="11.493625"><ele>48.0</ele><time>2026-03-22T08:58:01.065Z</time></trkpt><trkpt lat="45.4957967" lon="11.4934783"><ele>48.0</ele><time>2026-03-22T08:58:02.065Z</time></trkpt><trkpt lat="45.4956533" lon="11.4933383"><ele>48.0</ele><time>2026-03-22T08:58:03.064Z</time></trkpt><trkpt lat="45.4955" lon="11.4932083"><ele>48.0</ele><time>2026-03-22T08:58:04.065Z</time></trkpt><trkpt lat="45.49535" lon="11.4930767"><ele>47.0</ele><time>2026-03-22T08:58:05.065Z</time></trkpt><trkpt lat="45.495215" lon="11.4929267"><ele>46.0</ele><time>2026-03-22T08:58:06.065Z</time></trkpt><trkpt lat="45.4950867" lon="11.4927733"><ele>45.0</ele><time>2026-03-22T08:58:07.065Z</time></trkpt><trkpt lat="45.4949633" lon="11.4926033"><ele>45.0</ele><time>2026-03-22T08:58:08.065Z</time></trkpt><trkpt lat="45.49484" lon="11.4924567"><ele>45.0</ele><time>2026-03-22T08:58:09.065Z</time></trkpt><trkpt lat="45.49472" lon="11.4923267"><ele>45.0</ele><time>2026-03-22T08:58:10.065Z</time></trkpt><trkpt lat="45.4945967" lon="11.49225"><ele>45.0</ele><time>2026-03-22T08:58:11.065Z</time></trkpt><trkpt lat="45.4944783" lon="11.4921633"><ele>47.25</ele><time>2026-03-22T08:58:12.064Z</time></trkpt><trkpt lat="45.494355" lon="11.4920783"><ele>49.5</ele><time>2026-03-22T08:58:13.065Z</time></trkpt><trkpt lat="45.4942267" lon="11.491995"><ele>51.75</ele><time>2026-03-22T08:58:14.065Z</time></trkpt><trkpt lat="45.4940917" lon="11.4919017"><ele>54.0</ele><time>2026-03-22T08:58:15.064Z</time></trkpt><trkpt lat="45.49397" lon="11.49183"><ele>54.0</ele><time>2026-03-22T08:58:16.065Z</time></trkpt><trkpt lat="45.4938567" lon="11.4917283"><ele>54.0</ele><time>2026-03-22T08:58:17.065Z</time></trkpt><trkpt lat="45.4937567" lon="11.4915983"><ele>54.0</ele><time>2026-03-22T08:58:18.065Z</time></trkpt><trkpt lat="45.4936667" lon="11.49148"><ele>54.0</ele><time>2026-03-22T08:58:19.065Z</time></trkpt><trkpt lat="45.49359" lon="11.491355"><ele>52.400000000000006</ele><time>2026-03-22T08:58:20.065Z</time></trkpt><trkpt lat="45.49352" lon="11.4912333"><ele>50.800000000000004</ele><time>2026-03-22T08:58:21.065Z</time></trkpt><trkpt lat="45.4934517" lon="11.4911183"><ele>49.2</ele><time>2026-03-22T08:58:22.065Z</time></trkpt><trkpt lat="45.4933933" lon="11.4909967"><ele>47.599999999999994</ele><time>2026-03-22T08:58:23.065Z</time></trkpt><trkpt lat="45.4933383" lon="11.4908767"><ele>46.0</ele><time>2026-03-22T08:58:24.065Z</time></trkpt><trkpt lat="45.493295" lon="11.4907467"><ele>46.0</ele><time>2026-03-22T08:58:25.065Z</time></trkpt><trkpt lat="45.4932583" lon="11.4906283"><ele>46.0</ele><time>2026-03-22T08:58:26.064Z</time></trkpt><trkpt lat="45.4932283" lon="11.490515"><ele>46.0</ele><time>2026-03-22T08:58:27.065Z</time></trkpt><trkpt lat="45.4932033" lon="11.4903983"><ele>46.0</ele><time>2026-03-22T08:58:28.065Z</time></trkpt><trkpt lat="45.4931867" lon="11.49027"><ele>46.0</ele><time>2026-03-22T08:58:29.065Z</time></trkpt><trkpt lat="45.4931733" lon="11.4901417"><ele>46.0</ele><time>2026-03-22T08:58:30.065Z</time></trkpt><trkpt lat="45.49316" lon="11.4900083"><ele>49.199999999999996</ele><time>2026-03-22T08:58:31.065Z</time></trkpt><trkpt lat="45.4931417" lon="11.489885"><ele>52.4</ele><time>2026-03-22T08:58:32.065Z</time></trkpt><trkpt lat="45.493105" lon="11.489775"><ele>55.6</ele><time>2026-03-22T08:58:33.065Z</time></trkpt><trkpt lat="45.4930483" lon="11.4896667"><ele>58.8</ele><time>2026-03-22T08:58:34.065Z</time></trkpt><trkpt lat="45.4929867" lon="11.4895267"><ele>62.0</ele><time>2026-03-22T08:58:35.065Z</time></trkpt><trkpt lat="45.4929267" lon="11.4894017"><ele>58.75</ele><time>2026-03-22T08:58:36.065Z</time></trkpt><trkpt lat="45.4928683" lon="11.489265"><ele>55.5</ele><time>2026-03-22T08:58:37.065Z</time></trkpt><trkpt lat="45.49281" lon="11.4891117"><ele>52.25</ele><time>2026-03-22T08:58:38.064Z</time></trkpt><trkpt lat="45.4927417" lon="11.488945"><ele>49.0</ele><time>2026-03-22T08:58:39.065Z</time></trkpt><trkpt lat="45.4926667" lon="11.4887733"><ele>56.0</ele><time>2026-03-22T08:58:40.065Z</time></trkpt><trkpt lat="45.49259" lon="11.488605"><ele>63.0</ele><time>2026-03-22T08:58:41.065Z</time></trkpt><trkpt lat="45.4925083" lon="11.4884333"><ele>70.0</ele><time>2026-03-22T08:58:42.065Z</time></trkpt><trkpt lat="45.4924283" lon="11.4882483"><ele>77.0</ele><time>2026-03-22T08:58:43.065Z</time></trkpt><trkpt lat="45.49234" lon="11.4881017"><ele>77.0</ele><time>2026-03-22T08:58:44.065Z</time></trkpt><trkpt lat="45.4922467" lon="11.4879767"><ele>77.0</ele><time>2026-03-22T08:58:45.065Z</time></trkpt><trkpt lat="45.4921433" lon="11.4878283"><ele>77.0</ele><time>2026-03-22T08:58:46.065Z</time></trkpt><trkpt lat="45.49204" lon="11.48768"><ele>77.0</ele><time>2026-03-22T08:58:47.065Z</time></trkpt><trkpt lat="45.491935" lon="11.4875717"><ele>78.25</ele><time>2026-03-22T08:58:48.065Z</time></trkpt><trkpt lat="45.49182" lon="11.4874783"><ele>79.5</ele><time>2026-03-22T08:58:49.065Z</time></trkpt><trkpt lat="45.4916967" lon="11.48736"><ele>80.75</ele><time>2026-03-22T08:58:50.065Z</time></trkpt><trkpt lat="45.491575" lon="11.4872433"><ele>82.0</ele><time>2026-03-22T08:58:51.065Z</time></trkpt><trkpt lat="45.491445" lon="11.4871583"><ele>85.5</ele><time>2026-03-22T08:58:52.065Z</time></trkpt><trkpt lat="45.49131" lon="11.4870783"><ele>89.0</ele><time>2026-03-22T08:58:53.064Z</time></trkpt><trkpt lat="45.4911683" lon="11.48706"><ele>92.5</ele><time>2026-03-22T08:58:54.065Z</time></trkpt><trkpt lat="45.4910267" lon="11.487025"><ele>96.0</ele><time>2026-03-22T08:58:55.065Z</time></trkpt><trkpt lat="45.4908917" lon="11.4869383"><ele>96.0</ele><time>2026-03-22T08:58:56.065Z</time></trkpt><trkpt lat="45.490755" lon="11.4868233"><ele>96.0</ele><time>2026-03-22T08:58:57.065Z</time></trkpt><trkpt lat="45.4906233" lon="11.48669"><ele>96.0</ele><time>2026-03-22T08:58:58.065Z</time></trkpt><trkpt lat="45.4905" lon="11.4865583"><ele>88.66666666666667</ele><time>2026-03-22T08:58:59.065Z</time></trkpt><trkpt lat="45.490375" lon="11.4864467"><ele>81.33333333333334</ele><time>2026-03-22T08:59:00.065Z</time></trkpt><trkpt lat="45.4902283" lon="11.486335"><ele>74.0</ele><time>2026-03-22T08:59:01.065Z</time></trkpt><trkpt lat="45.4900667" lon="11.4861967"><ele>84.33333333333334</ele><time>2026-03-22T08:59:02.065Z</time></trkpt><trkpt lat="45.489905" lon="11.4861017"><ele>94.66666666666667</ele><time>2026-03-22T08:59:03.065Z</time></trkpt><trkpt lat="45.4897417" lon="11.48601"><ele>105.0</ele><time>2026-03-22T08:59:04.065Z</time></trkpt><trkpt lat="45.489585" lon="11.485925"><ele>105.0</ele><time>2026-03-22T08:59:05.065Z</time></trkpt><trkpt lat="45.4894433" lon="11.4858467"><ele>105.0</ele><time>2026-03-22T08:59:06.064Z</time></trkpt><trkpt lat="45.48931" lon="11.4857717"><ele>105.0</ele><time>2026-03-22T08:59:07.065Z</time></trkpt><trkpt lat="45.48918" lon="11.4856983"><ele>105.0</ele><time>2026-03-22T08:59:08.065Z</time></trkpt><trkpt lat="45.48907" lon="11.485635"><ele>105.0</ele><time>2026-03-22T08:59:09.065Z</time></trkpt><trkpt lat="45.488965" lon="11.4855817"><ele>105.0</ele><time>2026-03-22T08:59:10.065Z</time></trkpt><trkpt lat="45.48886" lon="11.4855383"><ele>105.0</ele><time>2026-03-22T08:59:11.064Z</time></trkpt><trkpt lat="45.4887633" lon="11.4854933"><ele>105.0</ele><time>2026-03-22T08:59:12.065Z</time></trkpt><trkpt lat="45.4886833" lon="11.4854467"><ele>105.0</ele><time>2026-03-22T08:59:13.065Z</time></trkpt><trkpt lat="45.4886117" lon="11.4853783"><ele>108.0</ele><time>2026-03-22T08:59:14.064Z</time></trkpt><trkpt lat="45.4885517" lon="11.4853233"><ele>111.0</ele><time>2026-03-22T08:59:15.065Z</time></trkpt><trkpt lat="45.4884817" lon="11.485265"><ele>114.0</ele><time>2026-03-22T08:59:16.064Z</time></trkpt><trkpt lat="45.4884033" lon="11.4851833"><ele>117.0</ele><time>2026-03-22T08:59:17.065Z</time></trkpt><trkpt lat="45.4883267" lon="11.485105"><ele>120.0</ele><time>2026-03-22T08:59:18.065Z</time></trkpt><trkpt lat="45.4882467" lon="11.4850133"><ele>123.0</ele><time>2026-03-22T08:59:19.065Z</time></trkpt><trkpt lat="45.48817" lon="11.48493"><ele>123.0</ele><time>2026-03-22T08:59:20.065Z</time></trkpt><trkpt lat="45.4880917" lon="11.484835"><ele>123.00000000000001</ele><time>2026-03-22T08:59:21.065Z</time></trkpt><trkpt lat="45.4880183" lon="11.4847317"><ele>123.00000000000001</ele><time>2026-03-22T08:59:22.065Z</time></trkpt><trkpt lat="45.4879483" lon="11.4846133"><ele>123.0</ele><time>2026-03-22T08:59:23.065Z</time></trkpt><trkpt lat="45.4878983" lon="11.4844733"><ele>123.0</ele><time>2026-03-22T08:59:24.065Z</time></trkpt><trkpt lat="45.4878483" lon="11.4843083"><ele>122.2</ele><time>2026-03-22T08:59:25.065Z</time></trkpt><trkpt lat="45.4878183" lon="11.4841583"><ele>121.4</ele><time>2026-03-22T08:59:26.065Z</time></trkpt><trkpt lat="45.4877967" lon="11.4840317"><ele>120.60000000000001</ele><time>2026-03-22T08:59:27.065Z</time></trkpt><trkpt lat="45.487775" lon="11.4839167"><ele>119.80000000000001</ele><time>2026-03-22T08:59:28.065Z</time></trkpt><trkpt lat="45.487765" lon="11.483775"><ele>119.0</ele><time>2026-03-22T08:59:29.065Z</time></trkpt><trkpt lat="45.4877667" lon="11.4836383"><ele>121.33333333333333</ele><time>2026-03-22T08:59:30.065Z</time></trkpt><trkpt lat="45.48777" lon="11.483505"><ele>123.66666666666666</ele><time>2026-03-22T08:59:31.065Z</time></trkpt><trkpt lat="45.4877767" lon="11.4833883"><ele>126.0</ele><time>2026-03-22T08:59:32.064Z</time></trkpt><trkpt lat="45.4877833" lon="11.4832817"><ele>128.33333333333334</ele><time>2026-03-22T08:59:33.065Z</time></trkpt><trkpt lat="45.4878" lon="11.48319"><ele>130.66666666666669</ele><time>2026-03-22T08:59:34.065Z</time></trkpt><trkpt lat="45.4878117" lon="11.4831017"><ele>133.0</ele><time>2026-03-22T08:59:35.065Z</time></trkpt><trkpt lat="45.4878317" lon="11.4830067"><ele>135.66666666666669</ele><time>2026-03-22T08:59:36.065Z</time></trkpt><trkpt lat="45.487845" lon="11.4829"><ele>138.33333333333334</ele><time>2026-03-22T08:59:37.065Z</time></trkpt><trkpt lat="45.4878517" lon="11.482805"><ele>141.0</ele><time>2026-03-22T08:59:38.064Z</time></trkpt><trkpt lat="45.4878683" lon="11.4827033"><ele>143.66666666666666</ele><time>2026-03-22T08:59:39.065Z</time></trkpt><trkpt lat="45.487875" lon="11.4825483"><ele>146.33333333333331</ele><time>2026-03-22T08:59:41.065Z</time></trkpt><trkpt lat="45.487845" lon="11.4824383"><ele>149.0</ele><time>2026-03-22T08:59:43.064Z</time></trkpt><trkpt lat="45.4877817" lon="11.48244"><ele>149.0</ele><time>2026-03-22T08:59:45.065Z</time></trkpt><trkpt lat="45.4877" lon="11.4824567"><ele>149.0</ele><time>2026-03-22T08:59:46.064Z</time></trkpt><trkpt lat="45.487625" lon="11.4824667"><ele>149.0</ele><time>2026-03-22T08:59:47.064Z</time></trkpt><trkpt lat="45.4875267" lon="11.4824883"><ele>149.0</ele><time>2026-03-22T08:59:48.064Z</time></trkpt><trkpt lat="45.4874233" lon="11.4825217"><ele>149.0</ele><time>2026-03-22T08:59:49.065Z</time></trkpt><trkpt lat="45.4873333" lon="11.4825467"><ele>149.0</ele><time>2026-03-22T08:59:50.065Z</time></trkpt><trkpt lat="45.4872467" lon="11.48259"><ele>149.0</ele><time>2026-03-22T08:59:51.065Z</time></trkpt><trkpt lat="45.48719" lon="11.4826317"><ele>149.0</ele><time>2026-03-22T08:59:52.065Z</time></trkpt><trkpt lat="45.4871117" lon="11.4826533"><ele>149.0</ele><time>2026-03-22T08:59:53.065Z</time></trkpt><trkpt lat="45.48702" lon="11.4826767"><ele>149.0</ele><time>2026-03-22T08:59:54.065Z</time></trkpt><trkpt lat="45.486955" lon="11.4826583"><ele>149.0</ele><time>2026-03-22T08:59:55.065Z</time></trkpt><trkpt lat="45.4868967" lon="11.4825917"><ele>148.0</ele><time>2026-03-22T08:59:56.065Z</time></trkpt><trkpt lat="45.4868433" lon="11.4825117"><ele>147.0</ele><time>2026-03-22T08:59:57.065Z</time></trkpt><trkpt lat="45.4867867" lon="11.4824317"><ele>146.0</ele><time>2026-03-22T08:59:58.065Z</time></trkpt><trkpt lat="45.4867317" lon="11.4823483"><ele>145.0</ele><time>2026-03-22T08:59:59.065Z</time></trkpt><trkpt lat="45.48668" lon="11.482245"><ele>144.0</ele><time>2026-03-22T09:00:00.065Z</time></trkpt><trkpt lat="45.486625" lon="11.4821283"><ele>143.0</ele><time>2026-03-22T09:00:01.065Z</time></trkpt><trkpt lat="45.4865683" lon="11.48203"><ele>143.5</ele><time>2026-03-22T09:00:02.065Z</time></trkpt><trkpt lat="45.4865067" lon="11.48195"><ele>144.0</ele><time>2026-03-22T09:00:03.065Z</time></trkpt><trkpt lat="45.4864317" lon="11.4818817"><ele>144.5</ele><time>2026-03-22T09:00:04.065Z</time></trkpt><trkpt lat="45.48635" lon="11.4818283"><ele>145.0</ele><time>2026-03-22T09:00:05.065Z</time></trkpt><trkpt lat="45.4862667" lon="11.4818"><ele>145.5</ele><time>2026-03-22T09:00:06.064Z</time></trkpt><trkpt lat="45.4861883" lon="11.4817533"><ele>146.0</ele><time>2026-03-22T09:00:07.065Z</time></trkpt><trkpt lat="45.48611" lon="11.4816867"><ele>146.0</ele><time>2026-03-22T09:00:08.065Z</time></trkpt><trkpt lat="45.4860233" lon="11.48161"><ele>146.0</ele><time>2026-03-22T09:00:09.065Z</time></trkpt><trkpt lat="45.4859433" lon="11.48155"><ele>146.0</ele><time>2026-03-22T09:00:10.065Z</time></trkpt><trkpt lat="45.485865" lon="11.4814983"><ele>146.0</ele><time>2026-03-22T09:00:11.065Z</time></trkpt><trkpt lat="45.485795" lon="11.4814433"><ele>146.0</ele><time>2026-03-22T09:00:12.065Z</time></trkpt><trkpt lat="45.4857217" lon="11.4813983"><ele>146.0</ele><time>2026-03-22T09:00:13.065Z</time></trkpt><trkpt lat="45.4856467" lon="11.481355"><ele>146.0</ele><time>2026-03-22T09:00:14.065Z</time></trkpt><trkpt lat="45.48558" lon="11.4813133"><ele>146.0</ele><time>2026-03-22T09:00:15.065Z</time></trkpt><trkpt lat="45.4855183" lon="11.4812683"><ele>146.0</ele><time>2026-03-22T09:00:16.065Z</time></trkpt><trkpt lat="45.485465" lon="11.4812083"><ele>146.0</ele><time>2026-03-22T09:00:17.065Z</time></trkpt><trkpt lat="45.485385" lon="11.4811217"><ele>146.0</ele><time>2026-03-22T09:00:19.065Z</time></trkpt><trkpt lat="45.48533" lon="11.4810667"><ele>146.0</ele><time>2026-03-22T09:00:21.065Z</time></trkpt><trkpt lat="45.4852633" lon="11.481035"><ele>146.0</ele><time>2026-03-22T09:00:23.065Z</time></trkpt><trkpt lat="45.4851617" lon="11.481055"><ele>148.75</ele><time>2026-03-22T09:00:25.065Z</time></trkpt><trkpt lat="45.4850483" lon="11.4811217"><ele>151.5</ele><time>2026-03-22T09:00:26.065Z</time></trkpt><trkpt lat="45.4849317" lon="11.48123"><ele>154.25</ele><time>2026-03-22T09:00:27.065Z</time></trkpt><trkpt lat="45.48484" lon="11.481305"><ele>157.0</ele><time>2026-03-22T09:00:28.065Z</time></trkpt><trkpt lat="45.4847217" lon="11.4814317"><ele>157.0</ele><time>2026-03-22T09:00:29.065Z</time></trkpt><trkpt lat="45.4845983" lon="11.4815267"><ele>157.0</ele><time>2026-03-22T09:00:30.064Z</time></trkpt><trkpt lat="45.4844883" lon="11.4816167"><ele>157.0</ele><time>2026-03-22T09:00:31.065Z</time></trkpt><trkpt lat="45.4843967" lon="11.4816967"><ele>157.0</ele><time>2026-03-22T09:00:32.065Z</time></trkpt><trkpt lat="45.4843117" lon="11.481775"><ele>157.0</ele><time>2026-03-22T09:00:33.065Z</time></trkpt><trkpt lat="45.484235" lon="11.481865"><ele>157.0</ele><time>2026-03-22T09:00:34.065Z</time></trkpt><trkpt lat="45.484155" lon="11.4819767"><ele>157.0</ele><time>2026-03-22T09:00:35.065Z</time></trkpt><trkpt lat="45.48407" lon="11.4821167"><ele>157.0</ele><time>2026-03-22T09:00:36.065Z</time></trkpt><trkpt lat="45.4839833" lon="11.482265"><ele>157.0</ele><time>2026-03-22T09:00:37.065Z</time></trkpt><trkpt lat="45.4839" lon="11.4824117"><ele>157.0</ele><time>2026-03-22T09:00:38.065Z</time></trkpt><trkpt lat="45.4838067" lon="11.4825483"><ele>157.0</ele><time>2026-03-22T09:00:39.064Z</time></trkpt><trkpt lat="45.4837317" lon="11.4826783"><ele>157.0</ele><time>2026-03-22T09:00:40.065Z</time></trkpt><trkpt lat="45.4836717" lon="11.4828067"><ele>162.5</ele><time>2026-03-22T09:00:41.065Z</time></trkpt><trkpt lat="45.4836083" lon="11.4829467"><ele>168.0</ele><time>2026-03-22T09:00:42.065Z</time></trkpt><trkpt lat="45.48355" lon="11.4830933"><ele>173.5</ele><time>2026-03-22T09:00:43.065Z</time></trkpt><trkpt lat="45.4834983" lon="11.4832783"><ele>179.0</ele><time>2026-03-22T09:00:44.065Z</time></trkpt><trkpt lat="45.4834567" lon="11.4834617"><ele>179.0</ele><time>2026-03-22T09:00:45.065Z</time></trkpt><trkpt lat="45.4834283" lon="11.4836383"><ele>179.0</ele><time>2026-03-22T09:00:46.065Z</time></trkpt><trkpt lat="45.4834117" lon="11.4838083"><ele>179.0</ele><time>2026-03-22T09:00:47.065Z</time></trkpt><trkpt lat="45.4834017" lon="11.4839717"><ele>179.0</ele><time>2026-03-22T09:00:48.065Z</time></trkpt><trkpt lat="45.4833983" lon="11.4841067"><ele>179.2</ele><time>2026-03-22T09:00:49.065Z</time></trkpt><trkpt lat="45.4833883" lon="11.4842183"><ele>179.39999999999998</ele><time>2026-03-22T09:00:50.065Z</time></trkpt><trkpt lat="45.4833567" lon="11.4844"><ele>179.6</ele><time>2026-03-22T09:00:52.065Z</time></trkpt><trkpt lat="45.48333" lon="11.4845033"><ele>179.8</ele><time>2026-03-22T09:00:53.065Z</time></trkpt><trkpt lat="45.4832983" lon="11.484605"><ele>180.0</ele><time>2026-03-22T09:00:54.065Z</time></trkpt><trkpt lat="45.4832433" lon="11.48473"><ele>179.4</ele><time>2026-03-22T09:00:55.065Z</time></trkpt><trkpt lat="45.4831983" lon="11.48487"><ele>178.8</ele><time>2026-03-22T09:00:56.064Z</time></trkpt><trkpt lat="45.483145" lon="11.484995"><ele>178.2</ele><time>2026-03-22T09:00:57.065Z</time></trkpt><trkpt lat="45.4830967" lon="11.4850783"><ele>177.6</ele><time>2026-03-22T09:00:58.065Z</time></trkpt><trkpt lat="45.4830517" lon="11.48522"><ele>177.0</ele><time>2026-03-22T09:00:59.064Z</time></trkpt><trkpt lat="45.4830017" lon="11.48532"><ele>177.0</ele><time>2026-03-22T09:01:00.065Z</time></trkpt><trkpt lat="45.4829367" lon="11.4853983"><ele>177.0</ele><time>2026-03-22T09:01:01.065Z</time></trkpt><trkpt lat="45.4828733" lon="11.4854617"><ele>177.0</ele><time>2026-03-22T09:01:02.065Z</time></trkpt><trkpt lat="45.482785" lon="11.48551"><ele>177.0</ele><time>2026-03-22T09:01:03.065Z</time></trkpt><trkpt lat="45.4826833" lon="11.4855183"><ele>177.0</ele><time>2026-03-22T09:01:04.065Z</time></trkpt><trkpt lat="45.4825717" lon="11.4855033"><ele>176.83333333333334</ele><time>2026-03-22T09:01:05.065Z</time></trkpt><trkpt lat="45.4824583" lon="11.48548"><ele>176.66666666666666</ele><time>2026-03-22T09:01:06.065Z</time></trkpt><trkpt lat="45.4823917" lon="11.4854717"><ele>176.5</ele><time>2026-03-22T09:01:07.065Z</time></trkpt><trkpt lat="45.482265" lon="11.4854583"><ele>176.33333333333331</ele><time>2026-03-22T09:01:09.065Z</time></trkpt><trkpt lat="45.482195" lon="11.4854483"><ele>176.16666666666666</ele><time>2026-03-22T09:01:10.065Z</time></trkpt><trkpt lat="45.482125" lon="11.4854517"><ele>176.0</ele><time>2026-03-22T09:01:11.065Z</time></trkpt><trkpt lat="45.482055" lon="11.4854533"><ele>180.14285714285714</ele><time>2026-03-22T09:01:12.064Z</time></trkpt><trkpt lat="45.481985" lon="11.485455"><ele>184.28571428571428</ele><time>2026-03-22T09:01:13.065Z</time></trkpt><trkpt lat="45.4819117" lon="11.4854483"><ele>188.42857142857144</ele><time>2026-03-22T09:01:14.064Z</time></trkpt><trkpt lat="45.481845" lon="11.485445"><ele>192.57142857142856</ele><time>2026-03-22T09:01:15.064Z</time></trkpt><trkpt lat="45.48178" lon="11.4854433"><ele>196.7142857142857</ele><time>2026-03-22T09:01:16.065Z</time></trkpt><trkpt lat="45.4817117" lon="11.4854433"><ele>200.85714285714286</ele><time>2026-03-22T09:01:17.065Z</time></trkpt><trkpt lat="45.4816467" lon="11.485445"><ele>205.0</ele><time>2026-03-22T09:01:18.065Z</time></trkpt><trkpt lat="45.4815683" lon="11.4854383"><ele>207.49999999999997</ele><time>2026-03-22T09:01:19.065Z</time></trkpt><trkpt lat="45.4814967" lon="11.4854283"><ele>210.0</ele><time>2026-03-22T09:01:20.065Z</time></trkpt><trkpt lat="45.4814217" lon="11.4854167"><ele>212.5</ele><time>2026-03-22T09:01:21.065Z</time></trkpt><trkpt lat="45.4813367" lon="11.485395"><ele>215.0</ele><time>2026-03-22T09:01:22.064Z</time></trkpt><trkpt lat="45.481245" lon="11.48537"><ele>217.49999999999997</ele><time>2026-03-22T09:01:23.065Z</time></trkpt><trkpt lat="45.481145" lon="11.4853133"><ele>220.0</ele><time>2026-03-22T09:01:24.065Z</time></trkpt><trkpt lat="45.481085" lon="11.4852833"><ele>222.2</ele><time>2026-03-22T09:01:25.065Z</time></trkpt><trkpt lat="45.4810183" lon="11.485235"><ele>224.4</ele><time>2026-03-22T09:01:26.064Z</time></trkpt><trkpt lat="45.480945" lon="11.4850967"><ele>226.60000000000002</ele><time>2026-03-22T09:01:28.065Z</time></trkpt><trkpt lat="45.480875" lon="11.484965"><ele>228.8</ele><time>2026-03-22T09:01:30.065Z</time></trkpt><trkpt lat="45.4808267" lon="11.4848733"><ele>231.0</ele><time>2026-03-22T09:01:31.065Z</time></trkpt><trkpt lat="45.480775" lon="11.48479"><ele>231.0</ele><time>2026-03-22T09:01:32.065Z</time></trkpt><trkpt lat="45.4807233" lon="11.484695"><ele>231.00000000000003</ele><time>2026-03-22T09:01:33.065Z</time></trkpt><trkpt lat="45.4806583" lon="11.4846033"><ele>231.00000000000003</ele><time>2026-03-22T09:01:34.065Z</time></trkpt><trkpt lat="45.4805783" lon="11.4845233"><ele>231.0</ele><time>2026-03-22T09:01:35.065Z</time></trkpt><trkpt lat="45.4805" lon="11.4844417"><ele>231.0</ele><time>2026-03-22T09:01:36.065Z</time></trkpt><trkpt lat="45.4804117" lon="11.4843817"><ele>231.0</ele><time>2026-03-22T09:01:37.065Z</time></trkpt><trkpt lat="45.48033" lon="11.4843367"><ele>231.0</ele><time>2026-03-22T09:01:38.064Z</time></trkpt><trkpt lat="45.480265" lon="11.4842983"><ele>231.0</ele><time>2026-03-22T09:01:39.065Z</time></trkpt><trkpt lat="45.4801967" lon="11.484285"><ele>231.0</ele><time>2026-03-22T09:01:40.065Z</time></trkpt><trkpt lat="45.4801267" lon="11.48427"><ele>231.0</ele><time>2026-03-22T09:01:41.064Z</time></trkpt><trkpt lat="45.48006" lon="11.4842517"><ele>231.0</ele><time>2026-03-22T09:01:42.065Z</time></trkpt><trkpt lat="45.4799983" lon="11.4842267"><ele>231.0</ele><time>2026-03-22T09:01:43.065Z</time></trkpt><trkpt lat="45.4799267" lon="11.4842167"><ele>231.0</ele><time>2026-03-22T09:01:44.065Z</time></trkpt><trkpt lat="45.479855" lon="11.4842"><ele>231.0</ele><time>2026-03-22T09:01:45.065Z</time></trkpt><trkpt lat="45.4797783" lon="11.4842"><ele>231.0</ele><time>2026-03-22T09:01:46.065Z</time></trkpt><trkpt lat="45.479705" lon="11.4842017"><ele>231.0</ele><time>2026-03-22T09:01:47.064Z</time></trkpt><trkpt lat="45.47961" lon="11.4842133"><ele>231.0</ele><time>2026-03-22T09:01:49.065Z</time></trkpt><trkpt lat="45.479505" lon="11.4842567"><ele>231.0</ele><time>2026-03-22T09:01:51.065Z</time></trkpt><trkpt lat="45.4794083" lon="11.484355"><ele>232.66666666666666</ele><time>2026-03-22T09:01:53.065Z</time></trkpt><trkpt lat="45.4793517" lon="11.4844183"><ele>234.33333333333331</ele><time>2026-03-22T09:01:54.064Z</time></trkpt><trkpt lat="45.4793" lon="11.4844883"><ele>236.0</ele><time>2026-03-22T09:01:55.064Z</time></trkpt><trkpt lat="45.47924" lon="11.4846"><ele>237.66666666666666</ele><time>2026-03-22T09:01:57.064Z</time></trkpt><trkpt lat="45.47917" lon="11.4846767"><ele>239.33333333333331</ele><time>2026-03-22T09:01:59.064Z</time></trkpt><trkpt lat="45.4791317" lon="11.4847683"><ele>241.0</ele><time>2026-03-22T09:02:01.063Z</time></trkpt><trkpt lat="45.479115" lon="11.4849183"><ele>243.5</ele><time>2026-03-22T09:02:03.064Z</time></trkpt><trkpt lat="45.4791067" lon="11.4850683"><ele>246.0</ele><time>2026-03-22T09:02:05.064Z</time></trkpt><trkpt lat="45.4807233" lon="11.484695"><ele>243.0</ele><time>2026-03-22T09:01:33.065Z</time></trkpt><trkpt lat="45.4806583" lon="11.4846033"><ele>240.00000000000003</ele><time>2026-03-22T09:01:34.065Z</time></trkpt><trkpt lat="45.4805783" lon="11.4845233"><ele>237.00000000000003</ele><time>2026-03-22T09:01:35.065Z</time></trkpt><trkpt lat="45.4805" lon="11.4844417"><ele>234.0</ele><time>2026-03-22T09:01:36.065Z</time></trkpt><trkpt lat="45.4804117" lon="11.4843817"><ele>231.0</ele><time>2026-03-22T09:01:37.065Z</time></trkpt><trkpt lat="45.48033" lon="11.4843367"><ele>231.0</ele><time>2026-03-22T09:01:38.064Z</time></trkpt><trkpt lat="45.480265" lon="11.4842983"><ele>231.0</ele><time>2026-03-22T09:01:39.065Z</time></trkpt><trkpt lat="45.4801967" lon="11.484285"><ele>231.0</ele><time>2026-03-22T09:01:40.065Z</time></trkpt><trkpt lat="45.4801267" lon="11.48427"><ele>231.0</ele><time>2026-03-22T09:01:41.064Z</time></trkpt><trkpt lat="45.48006" lon="11.4842517"><ele>231.0</ele><time>2026-03-22T09:01:42.065Z</time></trkpt><trkpt lat="45.4799983" lon="11.4842267"><ele>231.0</ele><time>2026-03-22T09:01:43.065Z</time></trkpt><trkpt lat="45.4799267" lon="11.4842167"><ele>231.0</ele><time>2026-03-22T09:01:44.065Z</time></trkpt><trkpt lat="45.479855" lon="11.4842"><ele>231.0</ele><time>2026-03-22T09:01:45.065Z</time></trkpt><trkpt lat="45.4797783" lon="11.4842"><ele>231.00000000000003</ele><time>2026-03-22T09:01:46.065Z</time></trkpt><trkpt lat="45.479705" lon="11.4842017"><ele>231.00000000000003</ele><time>2026-03-22T09:01:47.064Z</time></trkpt><trkpt lat="45.47961" lon="11.4842133"><ele>231.0</ele><time>2026-03-22T09:01:49.065Z</time></trkpt><trkpt lat="45.479505" lon="11.4842567"><ele>231.0</ele><time>2026-03-22T09:01:51.065Z</time></trkpt><trkpt lat="45.4794083" lon="11.484355"><ele>232.66666666666666</ele><time>2026-03-22T09:01:53.065Z</time></trkpt><trkpt lat="45.4793517" lon="11.4844183"><ele>234.33333333333331</ele><time>2026-03-22T09:01:54.064Z</time></trkpt><trkpt lat="45.4793" lon="11.4844883"><ele>236.0</ele><time>2026-03-22T09:01:55.064Z</time></trkpt><trkpt lat="45.47924" lon="11.4846"><ele>237.66666666666666</ele><time>2026-03-22T09:01:57.064Z</time></trkpt><trkpt lat="45.47917" lon="11.4846767"><ele>239.33333333333331</ele><time>2026-03-22T09:01:59.064Z</time></trkpt><trkpt lat="45.4791317" lon="11.4847683"><ele>241.0</ele><time>2026-03-22T09:02:01.063Z</time></trkpt><trkpt lat="45.479115" lon="11.4849183"><ele>242.0</ele><time>2026-03-22T09:02:03.064Z</time></trkpt><trkpt lat="45.4791067" lon="11.4850683"><ele>243.00000000000003</ele><time>2026-03-22T09:02:05.064Z</time></trkpt><trkpt lat="45.4790967" lon="11.4852167"><ele>244.00000000000003</ele><time>2026-03-22T09:02:07.064Z</time></trkpt><trkpt lat="45.4791" lon="11.485375"><ele>245.0</ele><time>2026-03-22T09:02:09.064Z</time></trkpt><trkpt lat="45.4791067" lon="11.4854733"><ele>246.0</ele><time>2026-03-22T09:02:10.064Z</time></trkpt><trkpt lat="45.4791167" lon="11.4856283"><ele>247.16666666666666</ele><time>2026-03-22T09:02:11.064Z</time></trkpt><trkpt lat="45.479125" lon="11.4857333"><ele>248.33333333333331</ele><time>2026-03-22T09:02:12.064Z</time></trkpt><trkpt lat="45.4791267" lon="11.485875"><ele>249.5</ele><time>2026-03-22T09:02:14.064Z</time></trkpt><trkpt lat="45.47912" lon="11.4859683"><ele>250.66666666666666</ele><time>2026-03-22T09:02:16.064Z</time></trkpt><trkpt lat="45.47914" lon="11.4860683"><ele>251.83333333333331</ele><time>2026-03-22T09:02:18.064Z</time></trkpt><trkpt lat="45.4791667" lon="11.4861533"><ele>253.0</ele><time>2026-03-22T09:02:19.063Z</time></trkpt><trkpt lat="45.4791583" lon="11.4863017"><ele>253.33333333333331</ele><time>2026-03-22T09:02:21.064Z</time></trkpt><trkpt lat="45.4791417" lon="11.4864017"><ele>253.66666666666666</ele><time>2026-03-22T09:02:23.063Z</time></trkpt><trkpt lat="45.4790917" lon="11.4864883"><ele>254.0</ele><time>2026-03-22T09:02:26.063Z</time></trkpt><trkpt lat="45.47911" lon="11.48667"><ele>254.33333333333331</ele><time>2026-03-22T09:02:29.064Z</time></trkpt><trkpt lat="45.47912" lon="11.486795"><ele>254.66666666666666</ele><time>2026-03-22T09:02:31.064Z</time></trkpt><trkpt lat="45.4791217" lon="11.4868917"><ele>255.0</ele><time>2026-03-22T09:02:33.063Z</time></trkpt><trkpt lat="45.4791233" lon="11.486985"><ele>252.8</ele><time>2026-03-22T09:02:35.064Z</time></trkpt><trkpt lat="45.4790933" lon="11.4871017"><ele>250.6</ele><time>2026-03-22T09:02:37.064Z</time></trkpt><trkpt lat="45.4790083" lon="11.4872617"><ele>248.39999999999998</ele><time>2026-03-22T09:02:39.064Z</time></trkpt><trkpt lat="45.47893" lon="11.487325"><ele>246.2</ele><time>2026-03-22T09:02:40.064Z</time></trkpt><trkpt lat="45.478845" lon="11.4873967"><ele>244.0</ele><time>2026-03-22T09:02:41.064Z</time></trkpt><trkpt lat="45.4788" lon="11.48747"><ele>246.25</ele><time>2026-03-22T09:02:43.064Z</time></trkpt><trkpt lat="45.4787067" lon="11.4875517"><ele>248.5</ele><time>2026-03-22T09:02:45.064Z</time></trkpt><trkpt lat="45.4786317" lon="11.487615"><ele>250.75</ele><time>2026-03-22T09:02:47.064Z</time></trkpt><trkpt lat="45.4784683" lon="11.4876883"><ele>253.0</ele><time>2026-03-22T09:02:49.064Z</time></trkpt><trkpt lat="45.47833" lon="11.4877533"><ele>252.99999999999997</ele><time>2026-03-22T09:02:50.064Z</time></trkpt><trkpt lat="45.47825" lon="11.4878067"><ele>253.0</ele><time>2026-03-22T09:02:52.064Z</time></trkpt><trkpt lat="45.4781067" lon="11.48785"><ele>253.0</ele><time>2026-03-22T09:03:02.064Z</time></trkpt><trkpt lat="45.4780417" lon="11.4878567"><ele>253.0</ele><time>2026-03-22T09:03:05.064Z</time></trkpt><trkpt lat="45.4779883" lon="11.4878067"><ele>252.99999999999997</ele><time>2026-03-22T09:03:07.064Z</time></trkpt><trkpt lat="45.477955" lon="11.4877067"><ele>253.0</ele><time>2026-03-22T09:03:09.064Z</time></trkpt><trkpt lat="45.47797" lon="11.4875517"><ele>253.0</ele><time>2026-03-22T09:03:10.064Z</time></trkpt><trkpt lat="45.4779883" lon="11.487385"><ele>253.0</ele><time>2026-03-22T09:03:11.063Z</time></trkpt><trkpt lat="45.47802" lon="11.4872067"><ele>253.0</ele><time>2026-03-22T09:03:12.064Z</time></trkpt><trkpt lat="45.47806" lon="11.48702"><ele>253.0</ele><time>2026-03-22T09:03:13.064Z</time></trkpt><trkpt lat="45.4780917" lon="11.4868317"><ele>252.75</ele><time>2026-03-22T09:03:14.063Z</time></trkpt><trkpt lat="45.4781317" lon="11.4866383"><ele>252.5</ele><time>2026-03-22T09:03:15.064Z</time></trkpt><trkpt lat="45.4781617" lon="11.48642"><ele>252.25</ele><time>2026-03-22T09:03:16.064Z</time></trkpt><trkpt lat="45.478205" lon="11.4862283"><ele>252.0</ele><time>2026-03-22T09:03:17.063Z</time></trkpt><trkpt lat="45.4782517" lon="11.486015"><ele>250.66666666666669</ele><time>2026-03-22T09:03:18.063Z</time></trkpt><trkpt lat="45.4783083" lon="11.4857733"><ele>249.33333333333334</ele><time>2026-03-22T09:03:19.064Z</time></trkpt><trkpt lat="45.4783517" lon="11.4855417"><ele>248.0</ele><time>2026-03-22T09:03:20.064Z</time></trkpt><trkpt lat="45.478395" lon="11.4853217"><ele>246.0</ele><time>2026-03-22T09:03:21.064Z</time></trkpt><trkpt lat="45.4784383" lon="11.48511"><ele>244.0</ele><time>2026-03-22T09:03:22.064Z</time></trkpt><trkpt lat="45.4784833" lon="11.484905"><ele>242.0</ele><time>2026-03-22T09:03:23.064Z</time></trkpt><trkpt lat="45.4785333" lon="11.4846933"><ele>240.75</ele><time>2026-03-22T09:03:24.064Z</time></trkpt><trkpt lat="45.4785717" lon="11.4844867"><ele>239.5</ele><time>2026-03-22T09:03:25.064Z</time></trkpt><trkpt lat="45.478595" lon="11.484315"><ele>238.25</ele><time>2026-03-22T09:03:26.064Z</time></trkpt><trkpt lat="45.478615" lon="11.4841517"><ele>237.0</ele><time>2026-03-22T09:03:27.064Z</time></trkpt><trkpt lat="45.47863" lon="11.484005"><ele>237.0</ele><time>2026-03-22T09:03:28.064Z</time></trkpt><trkpt lat="45.4786433" lon="11.4838683"><ele>237.0</ele><time>2026-03-22T09:03:29.064Z</time></trkpt><trkpt lat="45.478655" lon="11.48373"><ele>237.0</ele><time>2026-03-22T09:03:30.064Z</time></trkpt><trkpt lat="45.4786683" lon="11.4836"><ele>237.0</ele><time>2026-03-22T09:03:31.064Z</time></trkpt><trkpt lat="45.478675" lon="11.4834883"><ele>237.0</ele><time>2026-03-22T09:03:32.064Z</time></trkpt><trkpt lat="45.4786883" lon="11.48339"><ele>237.0</ele><time>2026-03-22T09:03:33.064Z</time></trkpt><trkpt lat="45.4780417" lon="11.4878567"><ele>240.2</ele><time>2026-03-22T09:03:05.064Z</time></trkpt><trkpt lat="45.4779883" lon="11.4878067"><ele>243.39999999999998</ele><time>2026-03-22T09:03:07.064Z</time></trkpt><trkpt lat="45.477955" lon="11.4877067"><ele>246.60000000000002</ele><time>2026-03-22T09:03:09.064Z</time></trkpt><trkpt lat="45.47797" lon="11.4875517"><ele>249.8</ele><time>2026-03-22T09:03:10.064Z</time></trkpt><trkpt lat="45.4779883" lon="11.487385"><ele>253.0</ele><time>2026-03-22T09:03:11.063Z</time></trkpt><trkpt lat="45.47802" lon="11.4872067"><ele>252.75</ele><time>2026-03-22T09:03:12.064Z</time></trkpt><trkpt lat="45.47806" lon="11.48702"><ele>252.5</ele><time>2026-03-22T09:03:13.064Z</time></trkpt><trkpt lat="45.4780917" lon="11.4868317"><ele>252.25</ele><time>2026-03-22T09:03:14.063Z</time></trkpt><trkpt lat="45.4781317" lon="11.4866383"><ele>252.0</ele><time>2026-03-22T09:03:15.064Z</time></trkpt><trkpt lat="45.4781617" lon="11.48642"><ele>250.66666666666669</ele><time>2026-03-22T09:03:16.064Z</time></trkpt><trkpt lat="45.478205" lon="11.4862283"><ele>249.33333333333334</ele><time>2026-03-22T09:03:17.063Z</time></trkpt><trkpt lat="45.4782517" lon="11.486015"><ele>248.0</ele><time>2026-03-22T09:03:18.063Z</time></trkpt><trkpt lat="45.4783083" lon="11.4857733"><ele>248.0</ele><time>2026-03-22T09:03:19.064Z</time></trkpt><trkpt lat="45.4783517" lon="11.4855417"><ele>248.0</ele><time>2026-03-22T09:03:20.064Z</time></trkpt><trkpt lat="45.478395" lon="11.4853217"><ele>248.0</ele><time>2026-03-22T09:03:21.064Z</time></trkpt><trkpt lat="45.4784383" lon="11.48511"><ele>246.0</ele><time>2026-03-22T09:03:22.064Z</time></trkpt><trkpt lat="45.4784833" lon="11.484905"><ele>244.0</ele><time>2026-03-22T09:03:23.064Z</time></trkpt><trkpt lat="45.4785333" lon="11.4846933"><ele>242.0</ele><time>2026-03-22T09:03:24.064Z</time></trkpt><trkpt lat="45.4785717" lon="11.4844867"><ele>241.0</ele><time>2026-03-22T09:03:25.064Z</time></trkpt><trkpt lat="45.478595" lon="11.484315"><ele>240.0</ele><time>2026-03-22T09:03:26.064Z</time></trkpt><trkpt lat="45.478615" lon="11.4841517"><ele>239.0</ele><time>2026-03-22T09:03:27.064Z</time></trkpt><trkpt lat="45.47863" lon="11.484005"><ele>238.0</ele><time>2026-03-22T09:03:28.064Z</time></trkpt><trkpt lat="45.4786433" lon="11.4838683"><ele>237.0</ele><time>2026-03-22T09:03:29.064Z</time></trkpt><trkpt lat="45.478655" lon="11.48373"><ele>236.66666666666666</ele><time>2026-03-22T09:03:30.064Z</time></trkpt><trkpt lat="45.4786683" lon="11.4836"><ele>236.33333333333331</ele><time>2026-03-22T09:03:31.064Z</time></trkpt><trkpt lat="45.478675" lon="11.4834883"><ele>236.0</ele><time>2026-03-22T09:03:32.064Z</time></trkpt><trkpt lat="45.4786883" lon="11.48339"><ele>235.66666666666666</ele><time>2026-03-22T09:03:33.064Z</time></trkpt><trkpt lat="45.4787033" lon="11.4832817"><ele>235.33333333333331</ele><time>2026-03-22T09:03:35.064Z</time></trkpt><trkpt lat="45.4786667" lon="11.483205"><ele>235.0</ele><time>2026-03-22T09:03:40.064Z</time></trkpt><trkpt lat="45.4785983" lon="11.48326"><ele>234.99999999999997</ele><time>2026-03-22T09:03:43.064Z</time></trkpt><trkpt lat="45.4785367" lon="11.4832833"><ele>235.0</ele><time>2026-03-22T09:03:44.064Z</time></trkpt><trkpt lat="45.4784733" lon="11.4833133"><ele>235.0</ele><time>2026-03-22T09:03:45.064Z</time></trkpt><trkpt lat="45.4783883" lon="11.4833533"><ele>235.0</ele><time>2026-03-22T09:03:46.064Z</time></trkpt><trkpt lat="45.4783" lon="11.4834117"><ele>234.99999999999997</ele><time>2026-03-22T09:03:47.064Z</time></trkpt><trkpt lat="45.4782233" lon="11.483495"><ele>235.0</ele><time>2026-03-22T09:03:48.064Z</time></trkpt><trkpt lat="45.4781517" lon="11.483645"><ele>235.4</ele><time>2026-03-22T09:03:49.063Z</time></trkpt><trkpt lat="45.47809" lon="11.4837667"><ele>235.8</ele><time>2026-03-22T09:03:50.064Z</time></trkpt><trkpt lat="45.4780317" lon="11.4838783"><ele>236.2</ele><time>2026-03-22T09:03:51.064Z</time></trkpt><trkpt lat="45.47799" lon="11.4839967"><ele>236.6</ele><time>2026-03-22T09:03:52.064Z</time></trkpt><trkpt lat="45.47795" lon="11.4841033"><ele>237.0</ele><time>2026-03-22T09:03:53.064Z</time></trkpt><trkpt lat="45.4779067" lon="11.4841883"><ele>236.16666666666666</ele><time>2026-03-22T09:03:54.064Z</time></trkpt><trkpt lat="45.4778667" lon="11.4842633"><ele>235.33333333333331</ele><time>2026-03-22T09:03:55.063Z</time></trkpt><trkpt lat="45.4778" lon="11.4843783"><ele>234.5</ele><time>2026-03-22T09:03:57.064Z</time></trkpt><trkpt lat="45.47775" lon="11.4844683"><ele>233.66666666666666</ele><time>2026-03-22T09:03:59.064Z</time></trkpt><trkpt lat="45.4777383" lon="11.484615"><ele>232.83333333333331</ele><time>2026-03-22T09:04:01.064Z</time></trkpt><trkpt lat="45.47773" lon="11.4847367"><ele>232.0</ele><time>2026-03-22T09:04:03.063Z</time></trkpt><trkpt lat="45.4777067" lon="11.4848317"><ele>230.99999999999997</ele><time>2026-03-22T09:04:05.064Z</time></trkpt><trkpt lat="45.4776583" lon="11.484945"><ele>230.0</ele><time>2026-03-22T09:04:08.064Z</time></trkpt><trkpt lat="45.477635" lon="11.4850583"><ele>229.0</ele><time>2026-03-22T09:04:10.063Z</time></trkpt><trkpt lat="45.4776233" lon="11.4851667"><ele>228.0</ele><time>2026-03-22T09:04:12.064Z</time></trkpt><trkpt lat="45.4776167" lon="11.4852717"><ele>226.99999999999997</ele><time>2026-03-22T09:04:14.063Z</time></trkpt><trkpt lat="45.4775983" lon="11.48538"><ele>226.0</ele><time>2026-03-22T09:04:16.063Z</time></trkpt><trkpt lat="45.477585" lon="11.4855017"><ele>225.99999999999997</ele><time>2026-03-22T09:04:18.064Z</time></trkpt><trkpt lat="45.47756" lon="11.4856217"><ele>226.0</ele><time>2026-03-22T09:04:20.064Z</time></trkpt><trkpt lat="45.477555" lon="11.4857383"><ele>226.0</ele><time>2026-03-22T09:04:23.064Z</time></trkpt><trkpt lat="45.47756" lon="11.4858283"><ele>226.0</ele><time>2026-03-22T09:04:24.063Z</time></trkpt><trkpt lat="45.477575" lon="11.4859683"><ele>225.99999999999997</ele><time>2026-03-22T09:04:26.064Z</time></trkpt><trkpt lat="45.4775683" lon="11.48608"><ele>226.0</ele><time>2026-03-22T09:04:28.064Z</time></trkpt><trkpt lat="45.4775617" lon="11.486175"><ele>227.60000000000002</ele><time>2026-03-22T09:04:29.064Z</time></trkpt><trkpt lat="45.47756" lon="11.486265"><ele>229.20000000000002</ele><time>2026-03-22T09:04:30.063Z</time></trkpt><trkpt lat="45.4775567" lon="11.4864367"><ele>230.79999999999998</ele><time>2026-03-22T09:04:32.064Z</time></trkpt><trkpt lat="45.477555" lon="11.4865283"><ele>232.39999999999998</ele><time>2026-03-22T09:04:33.064Z</time></trkpt><trkpt lat="45.4775467" lon="11.486675"><ele>234.0</ele><time>2026-03-22T09:04:35.064Z</time></trkpt><trkpt lat="45.477495" lon="11.4868133"><ele>234.0</ele><time>2026-03-22T09:05:01.064Z</time></trkpt><trkpt lat="45.47749" lon="11.486915"><ele>234.0</ele><time>2026-03-22T09:05:48.064Z</time></trkpt><trkpt lat="45.477525" lon="11.487005"><ele>234.0</ele><time>2026-03-22T09:05:52.064Z</time></trkpt><trkpt lat="45.47758" lon="11.4871233"><ele>234.0</ele><time>2026-03-22T09:05:55.063Z</time></trkpt><trkpt lat="45.4776317" lon="11.4872233"><ele>234.0</ele><time>2026-03-22T09:05:56.064Z</time></trkpt><trkpt lat="45.4776783" lon="11.487315"><ele>234.0</ele><time>2026-03-22T09:05:59.064Z</time></trkpt><trkpt lat="45.477705" lon="11.4873967"><ele>235.83333333333334</ele><time>2026-03-22T09:06:03.064Z</time></trkpt><trkpt lat="45.4776583" lon="11.487555"><ele>237.66666666666669</ele><time>2026-03-22T09:06:19.063Z</time></trkpt><trkpt lat="45.4776183" lon="11.48763"><ele>239.5</ele><time>2026-03-22T09:06:21.064Z</time></trkpt><trkpt lat="45.4775767" lon="11.4877083"><ele>241.33333333333334</ele><time>2026-03-22T09:06:23.064Z</time></trkpt><trkpt lat="45.4775017" lon="11.4877383"><ele>243.16666666666669</ele><time>2026-03-22T09:06:25.064Z</time></trkpt><trkpt lat="45.477445" lon="11.4877817"><ele>245.0</ele><time>2026-03-22T09:06:27.063Z</time></trkpt><trkpt lat="45.477365" lon="11.4878533"><ele>245.00000000000003</ele><time>2026-03-22T09:06:29.063Z</time></trkpt><trkpt lat="45.4772417" lon="11.48789"><ele>245.0</ele><time>2026-03-22T09:06:31.064Z</time></trkpt><trkpt lat="45.4771583" lon="11.48789"><ele>245.0</ele><time>2026-03-22T09:06:32.063Z</time></trkpt><trkpt lat="45.47708" lon="11.4878833"><ele>245.0</ele><time>2026-03-22T09:06:33.064Z</time></trkpt><trkpt lat="45.4770083" lon="11.48787"><ele>245.00000000000003</ele><time>2026-03-22T09:06:35.064Z</time></trkpt><trkpt lat="45.4769317" lon="11.4878667"><ele>245.0</ele><time>2026-03-22T09:06:38.064Z</time></trkpt><trkpt lat="45.4768317" lon="11.4879083"><ele>246.66666666666669</ele><time>2026-03-22T09:06:55.064Z</time></trkpt><trkpt lat="45.4767667" lon="11.4878433"><ele>248.33333333333334</ele><time>2026-03-22T09:07:00.064Z</time></trkpt><trkpt lat="45.476705" lon="11.4877867"><ele>250.0</ele><time>2026-03-22T09:07:05.064Z</time></trkpt><trkpt lat="45.4766067" lon="11.4877867"><ele>251.66666666666669</ele><time>2026-03-22T09:07:10.064Z</time></trkpt><trkpt lat="45.4765333" lon="11.487765"><ele>253.33333333333334</ele><time>2026-03-22T09:07:14.064Z</time></trkpt><trkpt lat="45.476565" lon="11.4878633"><ele>255.0</ele><time>2026-03-22T09:07:21.064Z</time></trkpt><trkpt lat="45.4765817" lon="11.4879917"><ele>255.66666666666666</ele><time>2026-03-22T09:07:23.064Z</time></trkpt><trkpt lat="45.4766" lon="11.4880917"><ele>256.3333333333333</ele><time>2026-03-22T09:07:28.064Z</time></trkpt><trkpt lat="45.4765983" lon="11.4882133"><ele>257.0</ele><time>2026-03-22T09:07:32.064Z</time></trkpt><trkpt lat="45.4766217" lon="11.4883167"><ele>257.66666666666663</ele><time>2026-03-22T09:07:35.064Z</time></trkpt><trkpt lat="45.4766333" lon="11.4884167"><ele>258.3333333333333</ele><time>2026-03-22T09:07:37.063Z</time></trkpt><trkpt lat="45.4765533" lon="11.48847"><ele>259.0</ele><time>2026-03-22T09:07:39.063Z</time></trkpt><trkpt lat="45.4764517" lon="11.4884533"><ele>259.0</ele><time>2026-03-22T09:07:41.064Z</time></trkpt><trkpt lat="45.4763817" lon="11.4884417"><ele>259.0</ele><time>2026-03-22T09:07:42.064Z</time></trkpt><trkpt lat="45.4763133" lon="11.4884417"><ele>259.0</ele><time>2026-03-22T09:07:43.064Z</time></trkpt><trkpt lat="45.476195" lon="11.4884367"><ele>259.0</ele><time>2026-03-22T09:07:45.064Z</time></trkpt><trkpt lat="45.47613" lon="11.4884267"><ele>259.0</ele><time>2026-03-22T09:07:46.064Z</time></trkpt><trkpt lat="45.4760433" lon="11.4883883"><ele>259.0</ele><time>2026-03-22T09:07:48.064Z</time></trkpt><trkpt lat="45.47596" lon="11.4883017"><ele>261.0</ele><time>2026-03-22T09:07:50.064Z</time></trkpt><trkpt lat="45.4758867" lon="11.4882117"><ele>263.0</ele><time>2026-03-22T09:07:52.064Z</time></trkpt><trkpt lat="45.4758183" lon="11.4881717"><ele>265.0</ele><time>2026-03-22T09:07:55.064Z</time></trkpt><trkpt lat="45.4757583" lon="11.4881183"><ele>267.0</ele><time>2026-03-22T09:07:58.064Z</time></trkpt><trkpt lat="45.4757483" lon="11.4879967"><ele>269.0</ele><time>2026-03-22T09:07:59.064Z</time></trkpt><trkpt lat="45.4757483" lon="11.4878617"><ele>271.0</ele><time>2026-03-22T09:08:00.064Z</time></trkpt><trkpt lat="45.4757633" lon="11.48797"><ele>272.8</ele><time>2026-03-22T09:08:05.063Z</time></trkpt><trkpt lat="45.4757833" lon="11.4880617"><ele>274.6</ele><time>2026-03-22T09:08:06.064Z</time></trkpt><trkpt lat="45.4757417" lon="11.488175"><ele>276.4</ele><time>2026-03-22T09:08:07.064Z</time></trkpt><trkpt lat="45.4756467" lon="11.4883083"><ele>278.2</ele><time>2026-03-22T09:08:08.064Z</time></trkpt><trkpt lat="45.4755383" lon="11.4884517"><ele>280.0</ele><time>2026-03-22T09:08:09.063Z</time></trkpt><trkpt lat="45.4754433" lon="11.488565"><ele>280.6</ele><time>2026-03-22T09:08:10.064Z</time></trkpt><trkpt lat="45.4753483" lon="11.4886567"><ele>281.2</ele><time>2026-03-22T09:08:11.064Z</time></trkpt><trkpt lat="45.4752533" lon="11.4887483"><ele>281.8</ele><time>2026-03-22T09:08:12.064Z</time></trkpt><trkpt lat="45.47516" lon="11.4888283"><ele>282.4</ele><time>2026-03-22T09:08:13.064Z</time></trkpt><trkpt lat="45.4750717" lon="11.4889033"><ele>283.0</ele><time>2026-03-22T09:08:14.063Z</time></trkpt><trkpt lat="45.475" lon="11.48896"><ele>283.2</ele><time>2026-03-22T09:08:15.063Z</time></trkpt><trkpt lat="45.4749267" lon="11.4889883"><ele>283.4</ele><time>2026-03-22T09:08:16.064Z</time></trkpt><trkpt lat="45.474845" lon="11.4889983"><ele>283.59999999999997</ele><time>2026-03-22T09:08:17.064Z</time></trkpt><trkpt lat="45.4747483" lon="11.4890067"><ele>283.8</ele><time>2026-03-22T09:08:19.064Z</time></trkpt><trkpt lat="45.474685" lon="11.48901"><ele>284.0</ele><time>2026-03-22T09:08:21.064Z</time></trkpt><trkpt lat="45.4745367" lon="11.4890133"><ele>283.2</ele><time>2026-03-22T09:08:23.064Z</time></trkpt><trkpt lat="45.4744833" lon="11.489075"><ele>282.4</ele><time>2026-03-22T09:08:26.064Z</time></trkpt><trkpt lat="45.4744733" lon="11.489165"><ele>281.6</ele><time>2026-03-22T09:08:29.064Z</time></trkpt><trkpt lat="45.474475" lon="11.4892967"><ele>280.8</ele><time>2026-03-22T09:08:32.064Z</time></trkpt><trkpt lat="45.4744483" lon="11.4894467"><ele>280.0</ele><time>2026-03-22T09:08:35.064Z</time></trkpt><trkpt lat="45.474435" lon="11.4896117"><ele>279.66666666666663</ele><time>2026-03-22T09:08:37.064Z</time></trkpt><trkpt lat="45.4743933" lon="11.4897767"><ele>279.3333333333333</ele><time>2026-03-22T09:08:39.064Z</time></trkpt><trkpt lat="45.4743533" lon="11.4898517"><ele>279.0</ele><time>2026-03-22T09:08:40.064Z</time></trkpt><trkpt lat="45.474315" lon="11.48993"><ele>278.6666666666667</ele><time>2026-03-22T09:08:41.063Z</time></trkpt><trkpt lat="45.474285" lon="11.490025"><ele>278.33333333333337</ele><time>2026-03-22T09:08:42.063Z</time></trkpt><trkpt lat="45.47426" lon="11.49013"><ele>278.0</ele><time>2026-03-22T09:08:43.064Z</time></trkpt><trkpt lat="45.4742583" lon="11.4902733"><ele>278.0</ele><time>2026-03-22T09:08:44.064Z</time></trkpt><trkpt lat="45.474225" lon="11.4903633"><ele>278.0</ele><time>2026-03-22T09:08:45.064Z</time></trkpt><trkpt lat="45.4741733" lon="11.4904383"><ele>278.0</ele><time>2026-03-22T09:08:46.064Z</time></trkpt><trkpt lat="45.474115" lon="11.4905267"><ele>278.0</ele><time>2026-03-22T09:08:47.064Z</time></trkpt><trkpt lat="45.4740367" lon="11.4906183"><ele>278.0</ele><time>2026-03-22T09:08:48.064Z</time></trkpt><trkpt lat="45.4739267" lon="11.4907683"><ele>278.5</ele><time>2026-03-22T09:08:49.064Z</time></trkpt><trkpt lat="45.4738" lon="11.4908717"><ele>279.0</ele><time>2026-03-22T09:08:50.064Z</time></trkpt><trkpt lat="45.4736533" lon="11.4909783"><ele>279.5</ele><time>2026-03-22T09:08:51.064Z</time></trkpt><trkpt lat="45.4735433" lon="11.491065"><ele>280.0</ele><time>2026-03-22T09:08:52.063Z</time></trkpt><trkpt lat="45.4734567" lon="11.49112"><ele>280.0</ele><time>2026-03-22T09:08:53.064Z</time></trkpt><trkpt lat="45.47339" lon="11.4911583"><ele>280.0</ele><time>2026-03-22T09:08:54.064Z</time></trkpt><trkpt lat="45.473325" lon="11.4911917"><ele>280.0</ele><time>2026-03-22T09:08:56.064Z</time></trkpt><trkpt lat="45.473425" lon="11.4911367"><ele>280.0</ele><time>2026-03-22T09:09:01.064Z</time></trkpt><trkpt lat="45.4735167" lon="11.4911583"><ele>280.0</ele><time>2026-03-22T09:09:03.063Z</time></trkpt><trkpt lat="45.4735967" lon="11.4912867"><ele>280.0</ele><time>2026-03-22T09:09:05.064Z</time></trkpt><trkpt lat="45.4736267" lon="11.4913883"><ele>280.0</ele><time>2026-03-22T09:09:06.063Z</time></trkpt><trkpt lat="45.47364" lon="11.49149"><ele>280.0</ele><time>2026-03-22T09:09:07.064Z</time></trkpt><trkpt lat="45.4736567" lon="11.4916283"><ele>280.0</ele><time>2026-03-22T09:09:09.064Z</time></trkpt><trkpt lat="45.473735" lon="11.491775"><ele>280.0</ele><time>2026-03-22T09:09:11.064Z</time></trkpt><trkpt lat="45.4738017" lon="11.4918817"><ele>278.75</ele><time>2026-03-22T09:09:12.064Z</time></trkpt><trkpt lat="45.4738633" lon="11.492015"><ele>277.5</ele><time>2026-03-22T09:09:13.064Z</time></trkpt><trkpt lat="45.473915" lon="11.49216"><ele>276.25</ele><time>2026-03-22T09:09:14.064Z</time></trkpt><trkpt lat="45.4739683" lon="11.4923333"><ele>275.0</ele><time>2026-03-22T09:09:15.064Z</time></trkpt><trkpt lat="45.4740067" lon="11.4925167"><ele>275.0</ele><time>2026-03-22T09:09:16.064Z</time></trkpt><trkpt lat="45.474045" lon="11.4926733"><ele>275.0</ele><time>2026-03-22T09:09:17.064Z</time></trkpt><trkpt lat="45.47407" lon="11.4928"><ele>275.0</ele><time>2026-03-22T09:09:18.064Z</time></trkpt><trkpt lat="45.4740917" lon="11.4929033"><ele>275.0</ele><time>2026-03-22T09:09:19.064Z</time></trkpt><trkpt lat="45.4740767" lon="11.49305"><ele>275.0</ele><time>2026-03-22T09:09:21.064Z</time></trkpt><trkpt lat="45.474065" lon="11.4932283"><ele>275.0</ele><time>2026-03-22T09:09:23.063Z</time></trkpt><trkpt lat="45.47405" lon="11.4933267"><ele>275.0</ele><time>2026-03-22T09:09:24.064Z</time></trkpt><trkpt lat="45.47403" lon="11.4934367"><ele>275.0</ele><time>2026-03-22T09:09:25.064Z</time></trkpt><trkpt lat="45.47399" lon="11.4935633"><ele>275.0</ele><time>2026-03-22T09:09:26.064Z</time></trkpt><trkpt lat="45.4739217" lon="11.4936733"><ele>275.0</ele><time>2026-03-22T09:09:27.064Z</time></trkpt><trkpt lat="45.4738533" lon="11.4937917"><ele>275.1666666666667</ele><time>2026-03-22T09:09:28.064Z</time></trkpt><trkpt lat="45.473785" lon="11.4938917"><ele>275.33333333333337</ele><time>2026-03-22T09:09:29.063Z</time></trkpt><trkpt lat="45.4737283" lon="11.4939817"><ele>275.5</ele><time>2026-03-22T09:09:30.064Z</time></trkpt><trkpt lat="45.473675" lon="11.4940483"><ele>275.6666666666667</ele><time>2026-03-22T09:09:31.063Z</time></trkpt><trkpt lat="45.4736383" lon="11.4941267"><ele>275.8333333333333</ele><time>2026-03-22T09:09:32.064Z</time></trkpt><trkpt lat="45.4735833" lon="11.4942267"><ele>276.0</ele><time>2026-03-22T09:09:34.064Z</time></trkpt><trkpt lat="45.4735067" lon="11.4943067"><ele>274.6666666666667</ele><time>2026-03-22T09:09:37.064Z</time></trkpt><trkpt lat="45.4734367" lon="11.4943117"><ele>273.3333333333333</ele><time>2026-03-22T09:09:39.064Z</time></trkpt><trkpt lat="45.4733467" lon="11.49429"><ele>272.0</ele><time>2026-03-22T09:09:41.063Z</time></trkpt><trkpt lat="45.47323" lon="11.4942417"><ele>270.66666666666663</ele><time>2026-03-22T09:09:43.064Z</time></trkpt><trkpt lat="45.4731517" lon="11.4942167"><ele>269.3333333333333</ele><time>2026-03-22T09:09:44.064Z</time></trkpt><trkpt lat="45.4730767" lon="11.4941867"><ele>268.0</ele><time>2026-03-22T09:09:45.064Z</time></trkpt><trkpt lat="45.47299" lon="11.494175"><ele>268.16666666666663</ele><time>2026-03-22T09:09:46.064Z</time></trkpt><trkpt lat="45.472915" lon="11.4941817"><ele>268.3333333333333</ele><time>2026-03-22T09:09:47.064Z</time></trkpt><trkpt lat="45.472835" lon="11.49419"><ele>268.5</ele><time>2026-03-22T09:09:48.064Z</time></trkpt><trkpt lat="45.4727567" lon="11.4942033"><ele>268.6666666666667</ele><time>2026-03-22T09:09:49.064Z</time></trkpt><trkpt lat="45.472675" lon="11.49422"><ele>268.83333333333337</ele><time>2026-03-22T09:09:50.064Z</time></trkpt><trkpt lat="45.4725883" lon="11.49423"><ele>269.0</ele><time>2026-03-22T09:09:51.064Z</time></trkpt><trkpt lat="45.4725017" lon="11.494235"><ele>269.0</ele><time>2026-03-22T09:09:52.064Z</time></trkpt><trkpt lat="45.4724217" lon="11.4942367"><ele>269.0</ele><time>2026-03-22T09:09:53.064Z</time></trkpt><trkpt lat="45.4723517" lon="11.49424"><ele>269.0</ele><time>2026-03-22T09:09:54.063Z</time></trkpt><trkpt lat="45.472255" lon="11.4942483"><ele>269.0</ele><time>2026-03-22T09:09:56.064Z</time></trkpt><trkpt lat="45.4721917" lon="11.494255"><ele>269.0</ele><time>2026-03-22T09:09:58.064Z</time></trkpt><trkpt lat="45.472105" lon="11.4941983"><ele>269.0</ele><time>2026-03-22T09:10:00.064Z</time></trkpt><trkpt lat="45.4720533" lon="11.4941467"><ele>270.8</ele><time>2026-03-22T09:10:01.064Z</time></trkpt><trkpt lat="45.4720083" lon="11.4940833"><ele>272.59999999999997</ele><time>2026-03-22T09:10:02.064Z</time></trkpt><trkpt lat="45.4719433" lon="11.4939417"><ele>274.4</ele><time>2026-03-22T09:10:04.063Z</time></trkpt><trkpt lat="45.4719" lon="11.4937467"><ele>276.2</ele><time>2026-03-22T09:10:06.064Z</time></trkpt><trkpt lat="45.4718783" lon="11.4936117"><ele>278.0</ele><time>2026-03-22T09:10:07.064Z</time></trkpt><trkpt lat="45.471845" lon="11.4934817"><ele>279.33333333333337</ele><time>2026-03-22T09:10:08.064Z</time></trkpt><trkpt lat="45.4718067" lon="11.4933483"><ele>280.6666666666667</ele><time>2026-03-22T09:10:09.064Z</time></trkpt><trkpt lat="45.4717783" lon="11.4932183"><ele>282.0</ele><time>2026-03-22T09:10:10.064Z</time></trkpt><trkpt lat="45.471755" lon="11.49311"><ele>283.3333333333333</ele><time>2026-03-22T09:10:11.064Z</time></trkpt><trkpt lat="45.4717317" lon="11.49301"><ele>284.66666666666663</ele><time>2026-03-22T09:10:12.063Z</time></trkpt><trkpt lat="45.471705" lon="11.4929183"><ele>286.0</ele><time>2026-03-22T09:10:13.064Z</time></trkpt><trkpt lat="45.4716683" lon="11.49281"><ele>286.66666666666663</ele><time>2026-03-22T09:10:14.064Z</time></trkpt><trkpt lat="45.4716467" lon="11.4926883"><ele>287.3333333333333</ele><time>2026-03-22T09:10:15.064Z</time></trkpt><trkpt lat="45.471615" lon="11.4926017"><ele>288.0</ele><time>2026-03-22T09:10:16.063Z</time></trkpt><trkpt lat="45.4715617" lon="11.4924817"><ele>288.6666666666667</ele><time>2026-03-22T09:10:18.063Z</time></trkpt><trkpt lat="45.4715283" lon="11.4924017"><ele>289.33333333333337</ele><time>2026-03-22T09:10:20.064Z</time></trkpt><trkpt lat="45.4715033" lon="11.4923083"><ele>290.0</ele><time>2026-03-22T09:10:22.063Z</time></trkpt><trkpt lat="45.4714733" lon="11.492205"><ele>290.6</ele><time>2026-03-22T09:10:24.064Z</time></trkpt><trkpt lat="45.47143" lon="11.492085"><ele>291.2</ele><time>2026-03-22T09:10:27.063Z</time></trkpt><trkpt lat="45.4713567" lon="11.4920583"><ele>291.8</ele><time>2026-03-22T09:10:29.064Z</time></trkpt><trkpt lat="45.4712333" lon="11.4920683"><ele>292.4</ele><time>2026-03-22T09:10:31.063Z</time></trkpt><trkpt lat="45.4711567" lon="11.4920983"><ele>293.0</ele><time>2026-03-22T09:10:32.063Z</time></trkpt><trkpt lat="45.4710683" lon="11.4921417"><ele>293.0</ele><time>2026-03-22T09:10:33.063Z</time></trkpt><trkpt lat="45.471" lon="11.4921783"><ele>293.0</ele><time>2026-03-22T09:10:34.063Z</time></trkpt><trkpt lat="45.47092" lon="11.4922083"><ele>293.0</ele><time>2026-03-22T09:10:35.062Z</time></trkpt><trkpt lat="45.4707983" lon="11.4922667"><ele>293.0</ele><time>2026-03-22T09:10:37.062Z</time></trkpt><trkpt lat="45.4707233" lon="11.49231"><ele>293.0</ele><time>2026-03-22T09:10:38.063Z</time></trkpt><trkpt lat="45.470645" lon="11.4923517"><ele>293.0</ele><time>2026-03-22T09:10:39.063Z</time></trkpt><trkpt lat="45.470565" lon="11.4923883"><ele>293.0</ele><time>2026-03-22T09:10:40.063Z</time></trkpt><trkpt lat="45.4704767" lon="11.4924183"><ele>293.0</ele><time>2026-03-22T09:10:41.063Z</time></trkpt><trkpt lat="45.4703833" lon="11.492445"><ele>293.0</ele><time>2026-03-22T09:10:42.063Z</time></trkpt><trkpt lat="45.4702983" lon="11.4924617"><ele>293.0</ele><time>2026-03-22T09:10:43.063Z</time></trkpt><trkpt lat="45.47021" lon="11.4924733"><ele>293.0</ele><time>2026-03-22T09:10:44.063Z</time></trkpt><trkpt lat="45.470135" lon="11.4924883"><ele>293.0</ele><time>2026-03-22T09:10:45.063Z</time></trkpt><trkpt lat="45.4700617" lon="11.4925067"><ele>294.0</ele><time>2026-03-22T09:10:46.063Z</time></trkpt><trkpt lat="45.46994" lon="11.4925233"><ele>295.0</ele><time>2026-03-22T09:10:48.063Z</time></trkpt><trkpt lat="45.469825" lon="11.4925433"><ele>296.0</ele><time>2026-03-22T09:10:50.063Z</time></trkpt><trkpt lat="45.4697133" lon="11.4925617"><ele>297.0</ele><time>2026-03-22T09:10:52.063Z</time></trkpt><trkpt lat="45.46962" lon="11.4926133"><ele>297.6666666666667</ele><time>2026-03-22T09:10:54.063Z</time></trkpt><trkpt lat="45.469535" lon="11.4926483"><ele>298.3333333333333</ele><time>2026-03-22T09:10:56.063Z</time></trkpt><trkpt lat="45.4694583" lon="11.4927067"><ele>299.0</ele><time>2026-03-22T09:10:59.063Z</time></trkpt><trkpt lat="45.4694017" lon="11.4927933"><ele>299.66666666666663</ele><time>2026-03-22T09:11:02.063Z</time></trkpt><trkpt lat="45.46936" lon="11.49287"><ele>300.3333333333333</ele><time>2026-03-22T09:11:04.063Z</time></trkpt><trkpt lat="45.46933" lon="11.49297"><ele>301.0</ele><time>2026-03-22T09:11:06.062Z</time></trkpt><trkpt lat="45.46935" lon="11.4931433"><ele>301.0</ele><time>2026-03-22T09:11:08.063Z</time></trkpt><trkpt lat="45.4692967" lon="11.4933183"><ele>301.0</ele><time>2026-03-22T09:11:10.063Z</time></trkpt><trkpt lat="45.469195" lon="11.4934033"><ele>301.0</ele><time>2026-03-22T09:11:11.063Z</time></trkpt><trkpt lat="45.46911" lon="11.4934483"><ele>301.0</ele><time>2026-03-22T09:11:12.063Z</time></trkpt><trkpt lat="45.4690033" lon="11.4934717"><ele>301.0</ele><time>2026-03-22T09:11:13.063Z</time></trkpt><trkpt lat="45.4689083" lon="11.4934983"><ele>301.0</ele><time>2026-03-22T09:11:14.063Z</time></trkpt><trkpt lat="45.4688183" lon="11.4935367"><ele>301.0</ele><time>2026-03-22T09:11:15.063Z</time></trkpt><trkpt lat="45.4687117" lon="11.4935767"><ele>301.0</ele><time>2026-03-22T09:11:16.063Z</time></trkpt><trkpt lat="45.4686317" lon="11.493605"><ele>301.0</ele><time>2026-03-22T09:11:17.063Z</time></trkpt><trkpt lat="45.4685167" lon="11.4936483"><ele>300.25</ele><time>2026-03-22T09:11:19.063Z</time></trkpt><trkpt lat="45.4683817" lon="11.4936933"><ele>299.5</ele><time>2026-03-22T09:11:21.063Z</time></trkpt><trkpt lat="45.46829" lon="11.49381"><ele>298.75</ele><time>2026-03-22T09:11:23.063Z</time></trkpt><trkpt lat="45.4682067" lon="11.49389"><ele>298.0</ele><time>2026-03-22T09:11:24.063Z</time></trkpt><trkpt lat="45.4681217" lon="11.4939517"><ele>297.4</ele><time>2026-03-22T09:11:25.063Z</time></trkpt><trkpt lat="45.46803" lon="11.494005"><ele>296.8</ele><time>2026-03-22T09:11:26.063Z</time></trkpt><trkpt lat="45.4679283" lon="11.4940483"><ele>296.2</ele><time>2026-03-22T09:11:27.062Z</time></trkpt><trkpt lat="45.4678367" lon="11.4940883"><ele>295.6</ele><time>2026-03-22T09:11:28.062Z</time></trkpt><trkpt lat="45.4677483" lon="11.4941283"><ele>295.0</ele><time>2026-03-22T09:11:29.063Z</time></trkpt><trkpt lat="45.4676633" lon="11.49417"><ele>296.8333333333333</ele><time>2026-03-22T09:11:30.063Z</time></trkpt><trkpt lat="45.46758" lon="11.4942033"><ele>298.66666666666663</ele><time>2026-03-22T09:11:31.063Z</time></trkpt><trkpt lat="45.4675083" lon="11.4942317"><ele>300.5</ele><time>2026-03-22T09:11:32.063Z</time></trkpt><trkpt lat="45.4674067" lon="11.4942817"><ele>302.3333333333333</ele><time>2026-03-22T09:11:34.063Z</time></trkpt><trkpt lat="45.46734" lon="11.4943017"><ele>304.1666666666667</ele><time>2026-03-22T09:11:35.063Z</time></trkpt><trkpt lat="45.467235" lon="11.4943133"><ele>306.0</ele><time>2026-03-22T09:11:37.063Z</time></trkpt><trkpt lat="45.4671467" lon="11.494325"><ele>308.2</ele><time>2026-03-22T09:11:39.062Z</time></trkpt><trkpt lat="45.4670317" lon="11.4942983"><ele>310.40000000000003</ele><time>2026-03-22T09:11:41.063Z</time></trkpt><trkpt lat="45.46691" lon="11.49424"><ele>312.6</ele><time>2026-03-22T09:11:43.063Z</time></trkpt><trkpt lat="45.4667983" lon="11.4941517"><ele>314.8</ele><time>2026-03-22T09:11:45.063Z</time></trkpt><trkpt lat="45.4667467" lon="11.4940967"><ele>317.0</ele><time>2026-03-22T09:11:46.063Z</time></trkpt><trkpt lat="45.466655" lon="11.494005"><ele>317.0</ele><time>2026-03-22T09:11:48.063Z</time></trkpt><trkpt lat="45.46659" lon="11.4939383"><ele>317.0</ele><time>2026-03-22T09:11:49.062Z</time></trkpt><trkpt lat="45.4665" lon="11.4938233"><ele>317.0</ele><time>2026-03-22T09:11:51.063Z</time></trkpt><trkpt lat="45.4664633" lon="11.49375"><ele>317.0</ele><time>2026-03-22T09:11:52.063Z</time></trkpt><trkpt lat="45.4664067" lon="11.4936167"><ele>317.0</ele><time>2026-03-22T09:11:54.063Z</time></trkpt><trkpt lat="45.46637" lon="11.493525"><ele>317.0</ele><time>2026-03-22T09:11:56.063Z</time></trkpt><trkpt lat="45.46632" lon="11.4934217"><ele>319.2</ele><time>2026-03-22T09:11:59.062Z</time></trkpt><trkpt lat="45.46626" lon="11.493345"><ele>321.4</ele><time>2026-03-22T09:12:01.063Z</time></trkpt><trkpt lat="45.4662" lon="11.4932583"><ele>323.59999999999997</ele><time>2026-03-22T09:12:04.063Z</time></trkpt><trkpt lat="45.4661433" lon="11.4931533"><ele>325.79999999999995</ele><time>2026-03-22T09:12:06.063Z</time></trkpt><trkpt lat="45.46607" lon="11.49303"><ele>328.0</ele><time>2026-03-22T09:12:08.063Z</time></trkpt><trkpt lat="45.466025" lon="11.49292"><ele>328.0</ele><time>2026-03-22T09:12:10.063Z</time></trkpt><trkpt lat="45.46594" lon="11.4928217"><ele>328.0</ele><time>2026-03-22T09:12:12.063Z</time></trkpt><trkpt lat="45.4658917" lon="11.4927583"><ele>328.0</ele><time>2026-03-22T09:12:13.063Z</time></trkpt><trkpt lat="45.4658483" lon="11.4926833"><ele>328.0</ele><time>2026-03-22T09:12:14.063Z</time></trkpt><trkpt lat="45.4657967" lon="11.4925767"><ele>328.0</ele><time>2026-03-22T09:12:16.063Z</time></trkpt><trkpt lat="45.46576" lon="11.4924983"><ele>328.0</ele><time>2026-03-22T09:12:18.062Z</time></trkpt><trkpt lat="45.4657333" lon="11.4923733"><ele>328.0</ele><time>2026-03-22T09:12:21.062Z</time></trkpt><trkpt lat="45.4656917" lon="11.492265"><ele>328.0</ele><time>2026-03-22T09:12:22.063Z</time></trkpt><trkpt lat="45.46561" lon="11.49216"><ele>328.0</ele><time>2026-03-22T09:12:24.063Z</time></trkpt><trkpt lat="45.4655567" lon="11.49207"><ele>328.0</ele><time>2026-03-22T09:12:26.063Z</time></trkpt><trkpt lat="45.4655633" lon="11.4919367"><ele>328.0</ele><time>2026-03-22T09:12:28.062Z</time></trkpt><trkpt lat="45.4655717" lon="11.491835"><ele>328.0</ele><time>2026-03-22T09:12:34.063Z</time></trkpt><trkpt lat="45.4654933" lon="11.4917233"><ele>329.0</ele><time>2026-03-22T09:12:35.063Z</time></trkpt><trkpt lat="45.4654017" lon="11.491655"><ele>330.0</ele><time>2026-03-22T09:12:38.063Z</time></trkpt><trkpt lat="45.46534" lon="11.4916017"><ele>331.0</ele><time>2026-03-22T09:12:47.063Z</time></trkpt><trkpt lat="45.4652233" lon="11.4915567"><ele>332.0</ele><time>2026-03-22T09:12:48.063Z</time></trkpt><trkpt lat="45.4650867" lon="11.4915617"><ele>333.0</ele><time>2026-03-22T09:13:03.063Z</time></trkpt><trkpt lat="45.4649567" lon="11.491565"><ele>333.0</ele><time>2026-03-22T09:13:14.063Z</time></trkpt><trkpt lat="45.4648383" lon="11.4915483"><ele>333.0</ele><time>2026-03-22T09:13:18.062Z</time></trkpt><trkpt lat="45.4647667" lon="11.491525"><ele>333.0</ele><time>2026-03-22T09:13:22.063Z</time></trkpt><trkpt lat="45.464615" lon="11.4914733"><ele>333.0</ele><time>2026-03-22T09:13:35.063Z</time></trkpt><trkpt lat="45.46453" lon="11.4914733"><ele>333.0</ele><time>2026-03-22T09:13:38.063Z</time></trkpt><trkpt lat="45.4644583" lon="11.49146"><ele>334.0</ele><time>2026-03-22T09:13:40.063Z</time></trkpt><trkpt lat="45.4643983" lon="11.4914267"><ele>335.0</ele><time>2026-03-22T09:13:43.062Z</time></trkpt><trkpt lat="45.4643567" lon="11.4913467"><ele>336.0</ele><time>2026-03-22T09:13:49.063Z</time></trkpt><trkpt lat="45.464215" lon="11.49129"><ele>337.0</ele><time>2026-03-22T09:14:37.063Z</time></trkpt><trkpt lat="45.4641367" lon="11.49129"><ele>338.0</ele><time>2026-03-22T09:14:39.063Z</time></trkpt><trkpt lat="45.4640733" lon="11.491275"><ele>339.0</ele><time>2026-03-22T09:14:41.063Z</time></trkpt><trkpt lat="45.46396" lon="11.4912383"><ele>342.5</ele><time>2026-03-22T09:14:43.063Z</time></trkpt><trkpt lat="45.4637233" lon="11.4911833"><ele>346.0</ele><time>2026-03-22T09:14:45.062Z</time></trkpt><trkpt lat="45.4636517" lon="11.4911717"><ele>349.5</ele><time>2026-03-22T09:14:46.063Z</time></trkpt><trkpt lat="45.46352" lon="11.4911417"><ele>353.0</ele><time>2026-03-22T09:14:48.063Z</time></trkpt><trkpt lat="45.4634317" lon="11.49111"><ele>353.0</ele><time>2026-03-22T09:14:50.063Z</time></trkpt><trkpt lat="45.4633567" lon="11.4909733"><ele>353.0</ele><time>2026-03-22T09:15:16.063Z</time></trkpt><trkpt lat="45.4632667" lon="11.4909217"><ele>353.0</ele><time>2026-03-22T09:15:41.063Z</time></trkpt><trkpt lat="45.463195" lon="11.4908583"><ele>353.0</ele><time>2026-03-22T09:15:43.063Z</time></trkpt><trkpt lat="45.4631383" lon="11.490795"><ele>353.0</ele><time>2026-03-22T09:15:45.063Z</time></trkpt><trkpt lat="45.4630617" lon="11.4907383"><ele>353.0</ele><time>2026-03-22T09:15:48.063Z</time></trkpt><trkpt lat="45.4630067" lon="11.4906533"><ele>353.0</ele><time>2026-03-22T09:15:52.063Z</time></trkpt><trkpt lat="45.4629533" lon="11.49056"><ele>353.0</ele><time>2026-03-22T09:15:56.063Z</time></trkpt><trkpt lat="45.46288" lon="11.4905017"><ele>353.0</ele><time>2026-03-22T09:15:59.063Z</time></trkpt><trkpt lat="45.4628033" lon="11.490445"><ele>353.0</ele><time>2026-03-22T09:16:01.063Z</time></trkpt><trkpt lat="45.462705" lon="11.49038"><ele>353.0</ele><time>2026-03-22T09:16:03.063Z</time></trkpt><trkpt lat="45.4626367" lon="11.4903117"><ele>352.7142857142857</ele><time>2026-03-22T09:16:05.063Z</time></trkpt><trkpt lat="45.4625883" lon="11.4902483"><ele>352.42857142857144</ele><time>2026-03-22T09:16:07.063Z</time></trkpt><trkpt lat="45.4625117" lon="11.490185"><ele>352.14285714285717</ele><time>2026-03-22T09:16:10.063Z</time></trkpt><trkpt lat="45.4624633" lon="11.4901133"><ele>351.8571428571429</ele><time>2026-03-22T09:16:11.063Z</time></trkpt><trkpt lat="45.4624183" lon="11.4900383"><ele>351.57142857142856</ele><time>2026-03-22T09:16:13.063Z</time></trkpt><trkpt lat="45.4623633" lon="11.48998"><ele>351.28571428571433</ele><time>2026-03-22T09:16:17.062Z</time></trkpt><trkpt lat="45.4622983" lon="11.4899733"><ele>351.0</ele><time>2026-03-22T09:16:22.063Z</time></trkpt><trkpt lat="45.4622417" lon="11.49004"><ele>351.0</ele><time>2026-03-22T09:16:28.063Z</time></trkpt><trkpt lat="45.46212" lon="11.4900417"><ele>351.0</ele><time>2026-03-22T09:18:42.063Z</time></trkpt><trkpt lat="45.4622067" lon="11.4900017"><ele>351.0</ele><time>2026-03-22T09:24:22.062Z</time></trkpt><trkpt lat="45.4621067" lon="11.4899217"><ele>351.0</ele><time>2026-03-22T09:32:57.061Z</time></trkpt><trkpt lat="45.4620267" lon="11.4899383"><ele>351.0</ele><time>2026-03-22T09:34:54.061Z</time></trkpt><trkpt lat="45.4619283" lon="11.4899317"><ele>354.0</ele><time>2026-03-22T09:34:57.061Z</time></trkpt><trkpt lat="45.46184" lon="11.4899"><ele>357.0</ele><time>2026-03-22T09:34:58.06Z</time></trkpt><trkpt lat="45.4617367" lon="11.48986"><ele>360.0</ele><time>2026-03-22T09:34:59.061Z</time></trkpt><trkpt lat="45.4616233" lon="11.489805"><ele>363.0</ele><time>2026-03-22T09:35:00.061Z</time></trkpt><trkpt lat="45.461525" lon="11.48974"><ele>366.0</ele><time>2026-03-22T09:35:01.061Z</time></trkpt><trkpt lat="45.4614083" lon="11.4896567"><ele>366.8333333333333</ele><time>2026-03-22T09:35:02.061Z</time></trkpt><trkpt lat="45.4613317" lon="11.4895833"><ele>367.6666666666667</ele><time>2026-03-22T09:35:03.06Z</time></trkpt><trkpt lat="45.4612583" lon="11.4895417"><ele>368.5</ele><time>2026-03-22T09:35:04.061Z</time></trkpt><trkpt lat="45.4611817" lon="11.489495"><ele>369.33333333333337</ele><time>2026-03-22T09:35:05.06Z</time></trkpt><trkpt lat="45.4611033" lon="11.4894467"><ele>370.1666666666667</ele><time>2026-03-22T09:35:06.061Z</time></trkpt><trkpt lat="45.4610283" lon="11.4894067"><ele>371.0</ele><time>2026-03-22T09:35:07.061Z</time></trkpt><trkpt lat="45.46096" lon="11.4893717"><ele>371.0</ele><time>2026-03-22T09:35:08.061Z</time></trkpt><trkpt lat="45.4608883" lon="11.48934"><ele>371.0</ele><time>2026-03-22T09:35:09.061Z</time></trkpt><trkpt lat="45.4607933" lon="11.489315"><ele>371.0</ele><time>2026-03-22T09:35:10.061Z</time></trkpt><trkpt lat="45.4607017" lon="11.48929"><ele>371.0</ele><time>2026-03-22T09:35:11.06Z</time></trkpt><trkpt lat="45.4606217" lon="11.489275"><ele>371.0</ele><time>2026-03-22T09:35:12.06Z</time></trkpt><trkpt lat="45.4605183" lon="11.489245"><ele>371.4</ele><time>2026-03-22T09:35:13.061Z</time></trkpt><trkpt lat="45.4604083" lon="11.4892033"><ele>371.8</ele><time>2026-03-22T09:35:14.061Z</time></trkpt><trkpt lat="45.4603067" lon="11.4891833"><ele>372.2</ele><time>2026-03-22T09:35:15.061Z</time></trkpt><trkpt lat="45.46021" lon="11.4891783"><ele>372.59999999999997</ele><time>2026-03-22T09:35:16.061Z</time></trkpt><trkpt lat="45.46014" lon="11.4891883"><ele>373.0</ele><time>2026-03-22T09:35:17.061Z</time></trkpt><trkpt lat="45.46003" lon="11.4892133"><ele>373.0</ele><time>2026-03-22T09:35:19.061Z</time></trkpt><trkpt lat="45.459955" lon="11.4892533"><ele>373.0</ele><time>2026-03-22T09:35:21.061Z</time></trkpt><trkpt lat="45.459885" lon="11.489345"><ele>373.0</ele><time>2026-03-22T09:35:23.06Z</time></trkpt><trkpt lat="45.45981" lon="11.4894533"><ele>373.0</ele><time>2026-03-22T09:35:25.061Z</time></trkpt><trkpt lat="45.45974" lon="11.4895583"><ele>373.0</ele><time>2026-03-22T09:35:27.061Z</time></trkpt><trkpt lat="45.4596817" lon="11.4896433"><ele>376.0</ele><time>2026-03-22T09:35:29.061Z</time></trkpt><trkpt lat="45.4596517" lon="11.4897933"><ele>379.0</ele><time>2026-03-22T09:35:30.061Z</time></trkpt><trkpt lat="45.459725" lon="11.490205"><ele>382.0</ele><time>2026-03-22T09:35:31.061Z</time></trkpt><trkpt lat="45.459645" lon="11.4903333"><ele>381.20000000000005</ele><time>2026-03-22T09:35:33.061Z</time></trkpt><trkpt lat="45.4595567" lon="11.4903883"><ele>380.4</ele><time>2026-03-22T09:35:35.061Z</time></trkpt><trkpt lat="45.4594717" lon="11.4904183"><ele>379.6</ele><time>2026-03-22T09:35:36.061Z</time></trkpt><trkpt lat="45.4593483" lon="11.4904583"><ele>378.79999999999995</ele><time>2026-03-22T09:35:38.061Z</time></trkpt><trkpt lat="45.459225" lon="11.4904733"><ele>378.0</ele><time>2026-03-22T09:35:40.061Z</time></trkpt><trkpt lat="45.4590933" lon="11.4905267"><ele>378.0</ele><time>2026-03-22T09:35:42.061Z</time></trkpt><trkpt lat="45.4589183" lon="11.4905767"><ele>378.0</ele><time>2026-03-22T09:35:44.06Z</time></trkpt><trkpt lat="45.458835" lon="11.4906217"><ele>378.0</ele><time>2026-03-22T09:35:45.061Z</time></trkpt><trkpt lat="45.4587483" lon="11.4906783"><ele>378.0</ele><time>2026-03-22T09:35:46.061Z</time></trkpt><trkpt lat="45.4586917" lon="11.4907317"><ele>378.0</ele><time>2026-03-22T09:35:47.061Z</time></trkpt><trkpt lat="45.4586183" lon="11.49081"><ele>377.6666666666667</ele><time>2026-03-22T09:35:48.061Z</time></trkpt><trkpt lat="45.4585467" lon="11.490895"><ele>377.3333333333333</ele><time>2026-03-22T09:35:49.061Z</time></trkpt><trkpt lat="45.4584817" lon="11.49096"><ele>377.0</ele><time>2026-03-22T09:35:50.061Z</time></trkpt><trkpt lat="45.4584167" lon="11.4910233"><ele>376.66666666666663</ele><time>2026-03-22T09:35:51.061Z</time></trkpt><trkpt lat="45.4583317" lon="11.49108"><ele>376.3333333333333</ele><time>2026-03-22T09:35:52.061Z</time></trkpt><trkpt lat="45.4582517" lon="11.4911483"><ele>376.0</ele><time>2026-03-22T09:35:53.061Z</time></trkpt><trkpt lat="45.45817" lon="11.4912183"><ele>374.0</ele><time>2026-03-22T09:35:54.061Z</time></trkpt><trkpt lat="45.458115" lon="11.4912783"><ele>372.0</ele><time>2026-03-22T09:35:55.061Z</time></trkpt><trkpt lat="45.45804" lon="11.4913833"><ele>370.0</ele><time>2026-03-22T09:35:57.061Z</time></trkpt><trkpt lat="45.458" lon="11.4914833"><ele>368.0</ele><time>2026-03-22T09:35:59.061Z</time></trkpt><trkpt lat="45.457945" lon="11.4915467"><ele>366.0</ele><time>2026-03-22T09:36:00.061Z</time></trkpt><trkpt lat="45.45789" lon="11.491595"><ele>364.0</ele><time>2026-03-22T09:36:02.061Z</time></trkpt><trkpt lat="45.4577983" lon="11.4916417"><ele>362.79999999999995</ele><time>2026-03-22T09:36:03.061Z</time></trkpt><trkpt lat="45.4576633" lon="11.4915883"><ele>361.59999999999997</ele><time>2026-03-22T09:36:05.061Z</time></trkpt><trkpt lat="45.4575817" lon="11.49153"><ele>360.4</ele><time>2026-03-22T09:36:06.061Z</time></trkpt><trkpt lat="45.457515" lon="11.4914617"><ele>359.2</ele><time>2026-03-22T09:36:07.061Z</time></trkpt><trkpt lat="45.4574533" lon="11.491405"><ele>358.0</ele><time>2026-03-22T09:36:08.061Z</time></trkpt><trkpt lat="45.4574133" lon="11.4913317"><ele>358.0</ele><time>2026-03-22T09:36:09.061Z</time></trkpt><trkpt lat="45.4573583" lon="11.4912583"><ele>358.0</ele><time>2026-03-22T09:36:10.061Z</time></trkpt><trkpt lat="45.457295" lon="11.4911217"><ele>358.0</ele><time>2026-03-22T09:36:12.061Z</time></trkpt><trkpt lat="45.457285" lon="11.4910083"><ele>358.0</ele><time>2026-03-22T09:36:15.061Z</time></trkpt><trkpt lat="45.457225" lon="11.4908933"><ele>358.0</ele><time>2026-03-22T09:36:28.061Z</time></trkpt><trkpt lat="45.4571767" lon="11.4908333"><ele>358.0</ele><time>2026-03-22T09:36:30.06Z</time></trkpt><trkpt lat="45.45717" lon="11.4907083"><ele>359.3333333333333</ele><time>2026-03-22T09:36:33.061Z</time></trkpt><trkpt lat="45.457195" lon="11.4906117"><ele>360.66666666666663</ele><time>2026-03-22T09:36:36.06Z</time></trkpt><trkpt lat="45.4571683" lon="11.490465"><ele>362.0</ele><time>2026-03-22T09:36:49.061Z</time></trkpt><trkpt lat="45.4570883" lon="11.4904733"><ele>363.3333333333333</ele><time>2026-03-22T09:36:52.061Z</time></trkpt><trkpt lat="45.4570017" lon="11.490445"><ele>364.6666666666667</ele><time>2026-03-22T09:36:55.061Z</time></trkpt><trkpt lat="45.456915" lon="11.490445"><ele>366.0</ele><time>2026-03-22T09:36:57.061Z</time></trkpt><trkpt lat="45.4568417" lon="11.49046"><ele>362.5</ele><time>2026-03-22T09:36:58.06Z</time></trkpt><trkpt lat="45.4567567" lon="11.4905383"><ele>359.0</ele><time>2026-03-22T09:37:00.061Z</time></trkpt><trkpt lat="45.4567583" lon="11.4906283"><ele>355.5</ele><time>2026-03-22T09:37:01.061Z</time></trkpt><trkpt lat="45.4567217" lon="11.490715"><ele>352.0</ele><time>2026-03-22T09:37:03.061Z</time></trkpt><trkpt lat="45.45666" lon="11.4908167"><ele>348.5</ele><time>2026-03-22T09:37:05.061Z</time></trkpt><trkpt lat="45.4565717" lon="11.4909217"><ele>345.0</ele><time>2026-03-22T09:37:07.061Z</time></trkpt><trkpt lat="45.4565033" lon="11.4909683"><ele>345.0</ele><time>2026-03-22T09:37:08.061Z</time></trkpt><trkpt lat="45.45644" lon="11.4910267"><ele>345.0</ele><time>2026-03-22T09:37:09.061Z</time></trkpt><trkpt lat="45.4563717" lon="11.4910933"><ele>345.0</ele><time>2026-03-22T09:37:10.061Z</time></trkpt><trkpt lat="45.4562967" lon="11.491165"><ele>345.0</ele><time>2026-03-22T09:37:11.061Z</time></trkpt><trkpt lat="45.4562133" lon="11.4912833"><ele>345.0</ele><time>2026-03-22T09:37:12.061Z</time></trkpt><trkpt lat="45.4561617" lon="11.4913617"><ele>345.0</ele><time>2026-03-22T09:37:13.061Z</time></trkpt><trkpt lat="45.4560917" lon="11.491555"><ele>345.3333333333333</ele><time>2026-03-22T09:37:14.061Z</time></trkpt><trkpt lat="45.4560317" lon="11.4916367"><ele>345.6666666666667</ele><time>2026-03-22T09:37:15.061Z</time></trkpt><trkpt lat="45.4559633" lon="11.49169"><ele>346.0</ele><time>2026-03-22T09:37:16.061Z</time></trkpt><trkpt lat="45.4558867" lon="11.4917233"><ele>346.33333333333337</ele><time>2026-03-22T09:37:17.061Z</time></trkpt><trkpt lat="45.4558017" lon="11.49177"><ele>346.6666666666667</ele><time>2026-03-22T09:37:18.061Z</time></trkpt><trkpt lat="45.4557217" lon="11.491795"><ele>347.0</ele><time>2026-03-22T09:37:19.061Z</time></trkpt><trkpt lat="45.4556583" lon="11.4918117"><ele>347.0</ele><time>2026-03-22T09:37:20.06Z</time></trkpt><trkpt lat="45.455545" lon="11.4918467"><ele>347.0</ele><time>2026-03-22T09:37:22.061Z</time></trkpt><trkpt lat="45.4554533" lon="11.49191"><ele>347.0</ele><time>2026-03-22T09:37:24.061Z</time></trkpt><trkpt lat="45.4553817" lon="11.4920183"><ele>347.0</ele><time>2026-03-22T09:37:26.061Z</time></trkpt><trkpt lat="45.4553367" lon="11.492085"><ele>347.0</ele><time>2026-03-22T09:37:27.061Z</time></trkpt><trkpt lat="45.4552783" lon="11.4921533"><ele>349.5</ele><time>2026-03-22T09:37:28.061Z</time></trkpt><trkpt lat="45.4552167" lon="11.4922217"><ele>352.0</ele><time>2026-03-22T09:37:29.06Z</time></trkpt><trkpt lat="45.455155" lon="11.4922917"><ele>354.5</ele><time>2026-03-22T09:37:30.061Z</time></trkpt><trkpt lat="45.4550967" lon="11.49237"><ele>357.0</ele><time>2026-03-22T09:37:31.061Z</time></trkpt><trkpt lat="45.4550267" lon="11.4924767"><ele>359.5</ele><time>2026-03-22T09:37:32.06Z</time></trkpt><trkpt lat="45.4549417" lon="11.492575"><ele>362.0</ele><time>2026-03-22T09:37:33.061Z</time></trkpt><trkpt lat="45.4548633" lon="11.4926667"><ele>362.0</ele><time>2026-03-22T09:37:34.061Z</time></trkpt><trkpt lat="45.45478" lon="11.4927533"><ele>362.0</ele><time>2026-03-22T09:37:35.061Z</time></trkpt><trkpt lat="45.4546917" lon="11.4928283"><ele>362.0</ele><time>2026-03-22T09:37:36.061Z</time></trkpt><trkpt lat="45.454615" lon="11.49293"><ele>362.0</ele><time>2026-03-22T09:37:37.061Z</time></trkpt><trkpt lat="45.4545383" lon="11.493025"><ele>362.0</ele><time>2026-03-22T09:37:38.061Z</time></trkpt><trkpt lat="45.4544883" lon="11.4931267"><ele>361.8</ele><time>2026-03-22T09:37:39.06Z</time></trkpt><trkpt lat="45.454435" lon="11.4932333"><ele>361.6</ele><time>2026-03-22T09:37:40.061Z</time></trkpt><trkpt lat="45.4544017" lon="11.4933617"><ele>361.40000000000003</ele><time>2026-03-22T09:37:41.06Z</time></trkpt><trkpt lat="45.45439" lon="11.49349"><ele>361.20000000000005</ele><time>2026-03-22T09:37:42.061Z</time></trkpt><trkpt lat="45.4544067" lon="11.4936717"><ele>361.0</ele><time>2026-03-22T09:37:43.061Z</time></trkpt><trkpt lat="45.4543933" lon="11.4937833"><ele>362.8</ele><time>2026-03-22T09:37:44.061Z</time></trkpt><trkpt lat="45.4543817" lon="11.4938817"><ele>364.6</ele><time>2026-03-22T09:37:45.061Z</time></trkpt><trkpt lat="45.454315" lon="11.493995"><ele>366.4</ele><time>2026-03-22T09:37:47.061Z</time></trkpt><trkpt lat="45.454195" lon="11.4940367"><ele>368.2</ele><time>2026-03-22T09:37:49.061Z</time></trkpt><trkpt lat="45.454105" lon="11.49398"><ele>370.0</ele><time>2026-03-22T09:37:50.06Z</time></trkpt><trkpt lat="45.4540067" lon="11.4939233"><ele>370.0</ele><time>2026-03-22T09:37:51.061Z</time></trkpt><trkpt lat="45.4539067" lon="11.4938433"><ele>370.0</ele><time>2026-03-22T09:37:52.061Z</time></trkpt><trkpt lat="45.4538033" lon="11.4937467"><ele>370.0</ele><time>2026-03-22T09:37:53.061Z</time></trkpt><trkpt lat="45.4537033" lon="11.49359"><ele>370.0</ele><time>2026-03-22T09:37:54.061Z</time></trkpt><trkpt lat="45.4536033" lon="11.4934317"><ele>368.0</ele><time>2026-03-22T09:37:55.061Z</time></trkpt><trkpt lat="45.453495" lon="11.4932717"><ele>366.0</ele><time>2026-03-22T09:37:56.061Z</time></trkpt><trkpt lat="45.4533883" lon="11.493095"><ele>364.0</ele><time>2026-03-22T09:37:57.061Z</time></trkpt><trkpt lat="45.4532833" lon="11.4929367"><ele>363.66666666666663</ele><time>2026-03-22T09:37:58.061Z</time></trkpt><trkpt lat="45.4531933" lon="11.49276"><ele>363.3333333333333</ele><time>2026-03-22T09:37:59.061Z</time></trkpt><trkpt lat="45.45313" lon="11.4925633"><ele>363.0</ele><time>2026-03-22T09:38:00.061Z</time></trkpt><trkpt lat="45.4530767" lon="11.4923633"><ele>363.0</ele><time>2026-03-22T09:38:01.061Z</time></trkpt><trkpt lat="45.4530233" lon="11.49217"><ele>363.0</ele><time>2026-03-22T09:38:02.061Z</time></trkpt><trkpt lat="45.452955" lon="11.49199"><ele>363.0</ele><time>2026-03-22T09:38:03.061Z</time></trkpt><trkpt lat="45.4528817" lon="11.4918483"><ele>363.0</ele><time>2026-03-22T09:38:04.061Z</time></trkpt><trkpt lat="45.4528" lon="11.4917433"><ele>368.5</ele><time>2026-03-22T09:38:05.061Z</time></trkpt><trkpt lat="45.45271" lon="11.4916067"><ele>374.0</ele><time>2026-03-22T09:38:06.06Z</time></trkpt><trkpt lat="45.45265" lon="11.4914517"><ele>379.5</ele><time>2026-03-22T09:38:07.061Z</time></trkpt><trkpt lat="45.4526133" lon="11.49127"><ele>385.0</ele><time>2026-03-22T09:38:08.061Z</time></trkpt><trkpt lat="45.4525967" lon="11.4910783"><ele>385.25</ele><time>2026-03-22T09:38:09.061Z</time></trkpt><trkpt lat="45.4525833" lon="11.4909033"><ele>385.5</ele><time>2026-03-22T09:38:10.061Z</time></trkpt><trkpt lat="45.4525617" lon="11.4907233"><ele>385.75</ele><time>2026-03-22T09:38:11.06Z</time></trkpt><trkpt lat="45.4525317" lon="11.4905583"><ele>386.0</ele><time>2026-03-22T09:38:12.061Z</time></trkpt><trkpt lat="45.45249" lon="11.4903833"><ele>386.0</ele><time>2026-03-22T09:38:13.06Z</time></trkpt><trkpt lat="45.4524483" lon="11.490225"><ele>386.0</ele><time>2026-03-22T09:38:14.061Z</time></trkpt><trkpt lat="45.4524117" lon="11.4901083"><ele>386.0</ele><time>2026-03-22T09:38:15.061Z</time></trkpt><trkpt lat="45.452365" lon="11.4899883"><ele>386.0</ele><time>2026-03-22T09:38:16.061Z</time></trkpt><trkpt lat="45.4522967" lon="11.4899017"><ele>386.0</ele><time>2026-03-22T09:38:17.061Z</time></trkpt><trkpt lat="45.45221" lon="11.4898233"><ele>387.0</ele><time>2026-03-22T09:38:18.061Z</time></trkpt><trkpt lat="45.4521133" lon="11.4897583"><ele>388.0</ele><time>2026-03-22T09:38:19.061Z</time></trkpt><trkpt lat="45.4520167" lon="11.4896933"><ele>389.0</ele><time>2026-03-22T09:38:20.061Z</time></trkpt><trkpt lat="45.451915" lon="11.4896333"><ele>390.0</ele><time>2026-03-22T09:38:21.061Z</time></trkpt><trkpt lat="45.451805" lon="11.48959"><ele>391.0</ele><time>2026-03-22T09:38:22.061Z</time></trkpt><trkpt lat="45.4516883" lon="11.489535"><ele>392.75</ele><time>2026-03-22T09:38:23.061Z</time></trkpt><trkpt lat="45.4515733" lon="11.4894567"><ele>394.5</ele><time>2026-03-22T09:38:24.061Z</time></trkpt><trkpt lat="45.451455" lon="11.4893767"><ele>396.25</ele><time>2026-03-22T09:38:25.061Z</time></trkpt><trkpt lat="45.4513417" lon="11.4892833"><ele>398.0</ele><time>2026-03-22T09:38:26.061Z</time></trkpt><trkpt lat="45.4512383" lon="11.489185"><ele>394.25</ele><time>2026-03-22T09:38:27.06Z</time></trkpt><trkpt lat="45.4511367" lon="11.4890767"><ele>390.5</ele><time>2026-03-22T09:38:28.06Z</time></trkpt><trkpt lat="45.4510333" lon="11.4889767"><ele>386.75</ele><time>2026-03-22T09:38:29.061Z</time></trkpt><trkpt lat="45.4509267" lon="11.48888"><ele>383.0</ele><time>2026-03-22T09:38:30.061Z</time></trkpt><trkpt lat="45.4508183" lon="11.488775"><ele>382.75</ele><time>2026-03-22T09:38:31.061Z</time></trkpt><trkpt lat="45.45072" lon="11.4886883"><ele>382.5</ele><time>2026-03-22T09:38:32.061Z</time></trkpt><trkpt lat="45.4505983" lon="11.4886133"><ele>382.25</ele><time>2026-03-22T09:38:33.061Z</time></trkpt><trkpt lat="45.45048" lon="11.4885483"><ele>382.0</ele><time>2026-03-22T09:38:34.061Z</time></trkpt><trkpt lat="45.4503733" lon="11.488475"><ele>381.5</ele><time>2026-03-22T09:38:35.061Z</time></trkpt><trkpt lat="45.4502667" lon="11.4883967"><ele>381.0</ele><time>2026-03-22T09:38:36.061Z</time></trkpt><trkpt lat="45.4501717" lon="11.4883067"><ele>380.5</ele><time>2026-03-22T09:38:37.061Z</time></trkpt><trkpt lat="45.4500717" lon="11.4882333"><ele>380.0</ele><time>2026-03-22T09:38:38.061Z</time></trkpt><trkpt lat="45.4499717" lon="11.4881733"><ele>380.0</ele><time>2026-03-22T09:38:39.06Z</time></trkpt><trkpt lat="45.4498833" lon="11.488125"><ele>380.0</ele><time>2026-03-22T09:38:40.061Z</time></trkpt><trkpt lat="45.449795" lon="11.4880833"><ele>380.0</ele><time>2026-03-22T09:38:41.061Z</time></trkpt><trkpt lat="45.449705" lon="11.4880533"><ele>380.0</ele><time>2026-03-22T09:38:42.061Z</time></trkpt><trkpt lat="45.449615" lon="11.488005"><ele>380.0</ele><time>2026-03-22T09:38:43.061Z</time></trkpt><trkpt lat="45.4495233" lon="11.48794"><ele>379.6666666666667</ele><time>2026-03-22T09:38:44.06Z</time></trkpt><trkpt lat="45.44944" lon="11.4878817"><ele>379.33333333333337</ele><time>2026-03-22T09:38:45.061Z</time></trkpt><trkpt lat="45.449365" lon="11.4878117"><ele>379.0</ele><time>2026-03-22T09:38:46.061Z</time></trkpt><trkpt lat="45.4492917" lon="11.48773"><ele>378.6666666666667</ele><time>2026-03-22T09:38:47.061Z</time></trkpt><trkpt lat="45.449225" lon="11.48766"><ele>378.3333333333333</ele><time>2026-03-22T09:38:48.06Z</time></trkpt><trkpt lat="45.4491567" lon="11.487575"><ele>378.0</ele><time>2026-03-22T09:38:49.061Z</time></trkpt><trkpt lat="45.44911" lon="11.487455"><ele>378.0</ele><time>2026-03-22T09:38:50.061Z</time></trkpt><trkpt lat="45.4490633" lon="11.4873417"><ele>378.0</ele><time>2026-03-22T09:38:51.061Z</time></trkpt><trkpt lat="45.449015" lon="11.48723"><ele>378.0</ele><time>2026-03-22T09:38:52.061Z</time></trkpt><trkpt lat="45.4489533" lon="11.4871167"><ele>378.0</ele><time>2026-03-22T09:38:53.061Z</time></trkpt><trkpt lat="45.4488883" lon="11.4870167"><ele>378.0</ele><time>2026-03-22T09:38:54.061Z</time></trkpt><trkpt lat="45.4488233" lon="11.4869383"><ele>378.0</ele><time>2026-03-22T09:38:55.061Z</time></trkpt><trkpt lat="45.448745" lon="11.4868617"><ele>378.0</ele><time>2026-03-22T09:38:56.061Z</time></trkpt><trkpt lat="45.4486717" lon="11.48679"><ele>378.0</ele><time>2026-03-22T09:38:57.061Z</time></trkpt><trkpt lat="45.44861" lon="11.4867"><ele>378.0</ele><time>2026-03-22T09:38:58.061Z</time></trkpt><trkpt lat="45.4485583" lon="11.4865883"><ele>378.0</ele><time>2026-03-22T09:38:59.061Z</time></trkpt><trkpt lat="45.4485117" lon="11.4864633"><ele>378.0</ele><time>2026-03-22T09:39:00.061Z</time></trkpt><trkpt lat="45.448475" lon="11.4863467"><ele>378.0</ele><time>2026-03-22T09:39:01.061Z</time></trkpt><trkpt lat="45.4484433" lon="11.48622"><ele>378.0</ele><time>2026-03-22T09:39:02.061Z</time></trkpt><trkpt lat="45.4484083" lon="11.48607"><ele>378.0</ele><time>2026-03-22T09:39:03.061Z</time></trkpt><trkpt lat="45.4483733" lon="11.4859067"><ele>378.0</ele><time>2026-03-22T09:39:04.061Z</time></trkpt><trkpt lat="45.44834" lon="11.4857367"><ele>378.0</ele><time>2026-03-22T09:39:05.06Z</time></trkpt><trkpt lat="45.448295" lon="11.485555"><ele>378.0</ele><time>2026-03-22T09:39:06.061Z</time></trkpt><trkpt lat="45.44824" lon="11.4853583"><ele>378.0</ele><time>2026-03-22T09:39:07.061Z</time></trkpt><trkpt lat="45.448185" lon="11.4851717"><ele>378.0</ele><time>2026-03-22T09:39:08.061Z</time></trkpt><trkpt lat="45.4481117" lon="11.4849883"><ele>378.0</ele><time>2026-03-22T09:39:09.061Z</time></trkpt><trkpt lat="45.4480183" lon="11.4848167"><ele>378.0</ele><time>2026-03-22T09:39:10.06Z</time></trkpt><trkpt lat="45.4479317" lon="11.4846183"><ele>378.0</ele><time>2026-03-22T09:39:11.061Z</time></trkpt><trkpt lat="45.447845" lon="11.4844417"><ele>376.5</ele><time>2026-03-22T09:39:12.061Z</time></trkpt><trkpt lat="45.44776" lon="11.4842617"><ele>375.0</ele><time>2026-03-22T09:39:13.061Z</time></trkpt><trkpt lat="45.4476783" lon="11.4840917"><ele>373.5</ele><time>2026-03-22T09:39:14.06Z</time></trkpt><trkpt lat="45.4476017" lon="11.483915"><ele>372.0</ele><time>2026-03-22T09:39:15.061Z</time></trkpt><trkpt lat="45.447525" lon="11.4837567"><ele>378.0</ele><time>2026-03-22T09:39:16.061Z</time></trkpt><trkpt lat="45.449365" lon="11.4878117"><ele>378.0</ele><time>2026-03-22T09:38:46.061Z</time></trkpt><trkpt lat="45.4492917" lon="11.48773"><ele>378.0</ele><time>2026-03-22T09:38:47.061Z</time></trkpt><trkpt lat="45.449225" lon="11.48766"><ele>378.0</ele><time>2026-03-22T09:38:48.06Z</time></trkpt><trkpt lat="45.4491567" lon="11.487575"><ele>378.0</ele><time>2026-03-22T09:38:49.061Z</time></trkpt><trkpt lat="45.44911" lon="11.487455"><ele>378.0</ele><time>2026-03-22T09:38:50.061Z</time></trkpt><trkpt lat="45.4490633" lon="11.4873417"><ele>378.0</ele><time>2026-03-22T09:38:51.061Z</time></trkpt><trkpt lat="45.449015" lon="11.48723"><ele>378.0</ele><time>2026-03-22T09:38:52.061Z</time></trkpt><trkpt lat="45.4489533" lon="11.4871167"><ele>378.0</ele><time>2026-03-22T09:38:53.061Z</time></trkpt><trkpt lat="45.4488883" lon="11.4870167"><ele>378.0</ele><time>2026-03-22T09:38:54.061Z</time></trkpt><trkpt lat="45.4488233" lon="11.4869383"><ele>378.0</ele><time>2026-03-22T09:38:55.061Z</time></trkpt><trkpt lat="45.448745" lon="11.4868617"><ele>378.0</ele><time>2026-03-22T09:38:56.061Z</time></trkpt><trkpt lat="45.4486717" lon="11.48679"><ele>378.0</ele><time>2026-03-22T09:38:57.061Z</time></trkpt><trkpt lat="45.44861" lon="11.4867"><ele>378.0</ele><time>2026-03-22T09:38:58.061Z</time></trkpt><trkpt lat="45.4485583" lon="11.4865883"><ele>378.0</ele><time>2026-03-22T09:38:59.061Z</time></trkpt><trkpt lat="45.4485117" lon="11.4864633"><ele>378.0</ele><time>2026-03-22T09:39:00.061Z</time></trkpt><trkpt lat="45.448475" lon="11.4863467"><ele>378.4</ele><time>2026-03-22T09:39:01.061Z</time></trkpt><trkpt lat="45.4484433" lon="11.48622"><ele>378.79999999999995</ele><time>2026-03-22T09:39:02.061Z</time></trkpt><trkpt lat="45.4484083" lon="11.48607"><ele>379.2</ele><time>2026-03-22T09:39:03.061Z</time></trkpt><trkpt lat="45.4483733" lon="11.4859067"><ele>379.6</ele><time>2026-03-22T09:39:04.061Z</time></trkpt><trkpt lat="45.44834" lon="11.4857367"><ele>380.0</ele><time>2026-03-22T09:39:05.06Z</time></trkpt><trkpt lat="45.448295" lon="11.485555"><ele>379.5</ele><time>2026-03-22T09:39:06.061Z</time></trkpt><trkpt lat="45.44824" lon="11.4853583"><ele>379.0</ele><time>2026-03-22T09:39:07.061Z</time></trkpt><trkpt lat="45.448185" lon="11.4851717"><ele>378.5</ele><time>2026-03-22T09:39:08.061Z</time></trkpt><trkpt lat="45.4481117" lon="11.4849883"><ele>378.0</ele><time>2026-03-22T09:39:09.061Z</time></trkpt><trkpt lat="45.4480183" lon="11.4848167"><ele>376.6666666666667</ele><time>2026-03-22T09:39:10.06Z</time></trkpt><trkpt lat="45.4479317" lon="11.4846183"><ele>375.33333333333337</ele><time>2026-03-22T09:39:11.061Z</time></trkpt><trkpt lat="45.447845" lon="11.4844417"><ele>374.0</ele><time>2026-03-22T09:39:12.061Z</time></trkpt><trkpt lat="45.44776" lon="11.4842617"><ele>373.5</ele><time>2026-03-22T09:39:13.061Z</time></trkpt><trkpt lat="45.4476783" lon="11.4840917"><ele>373.0</ele><time>2026-03-22T09:39:14.06Z</time></trkpt><trkpt lat="45.4476017" lon="11.483915"><ele>372.5</ele><time>2026-03-22T09:39:15.061Z</time></trkpt><trkpt lat="45.447525" lon="11.4837567"><ele>372.0</ele><time>2026-03-22T09:39:16.061Z</time></trkpt><trkpt lat="45.4474383" lon="11.483625"><ele>372.0</ele><time>2026-03-22T09:39:17.061Z</time></trkpt><trkpt lat="45.4473433" lon="11.4834767"><ele>372.0</ele><time>2026-03-22T09:39:18.06Z</time></trkpt><trkpt lat="45.447245" lon="11.483345"><ele>372.0</ele><time>2026-03-22T09:39:19.061Z</time></trkpt><trkpt lat="45.4471483" lon="11.4832217"><ele>372.0</ele><time>2026-03-22T09:39:20.061Z</time></trkpt><trkpt lat="45.44706" lon="11.4830783"><ele>369.0</ele><time>2026-03-22T09:39:21.061Z</time></trkpt><trkpt lat="45.4469983" lon="11.4829033"><ele>366.0</ele><time>2026-03-22T09:39:22.061Z</time></trkpt><trkpt lat="45.4469417" lon="11.4827233"><ele>363.0</ele><time>2026-03-22T09:39:23.061Z</time></trkpt><trkpt lat="45.44688" lon="11.4825583"><ele>360.0</ele><time>2026-03-22T09:39:24.061Z</time></trkpt><trkpt lat="45.4468083" lon="11.4823933"><ele>360.0</ele><time>2026-03-22T09:39:25.061Z</time></trkpt><trkpt lat="45.4467583" lon="11.482225"><ele>360.0</ele><time>2026-03-22T09:39:26.061Z</time></trkpt><trkpt lat="45.44673" lon="11.48205"><ele>360.0</ele><time>2026-03-22T09:39:27.06Z</time></trkpt><trkpt lat="45.44671" lon="11.4818767"><ele>360.0</ele><time>2026-03-22T09:39:28.061Z</time></trkpt><trkpt lat="45.4467117" lon="11.4816933"><ele>359.75</ele><time>2026-03-22T09:39:29.061Z</time></trkpt><trkpt lat="45.4467333" lon="11.4815117"><ele>359.5</ele><time>2026-03-22T09:39:30.061Z</time></trkpt><trkpt lat="45.446775" lon="11.4813283"><ele>359.25</ele><time>2026-03-22T09:39:31.061Z</time></trkpt><trkpt lat="45.44681" lon="11.4811417"><ele>359.0</ele><time>2026-03-22T09:39:32.061Z</time></trkpt><trkpt lat="45.4468283" lon="11.4809517"><ele>358.75</ele><time>2026-03-22T09:39:33.06Z</time></trkpt><trkpt lat="45.44682" lon="11.480775"><ele>358.5</ele><time>2026-03-22T09:39:34.061Z</time></trkpt><trkpt lat="45.4467967" lon="11.4806017"><ele>358.25</ele><time>2026-03-22T09:39:35.061Z</time></trkpt><trkpt lat="45.4467517" lon="11.4804567"><ele>358.0</ele><time>2026-03-22T09:39:36.06Z</time></trkpt><trkpt lat="45.4466833" lon="11.4803317"><ele>358.75</ele><time>2026-03-22T09:39:37.061Z</time></trkpt><trkpt lat="45.446595" lon="11.4802267"><ele>359.5</ele><time>2026-03-22T09:39:38.061Z</time></trkpt><trkpt lat="45.4464983" lon="11.4801317"><ele>360.25</ele><time>2026-03-22T09:39:39.061Z</time></trkpt><trkpt lat="45.4463883" lon="11.480055"><ele>361.0</ele><time>2026-03-22T09:39:40.061Z</time></trkpt><trkpt lat="45.4462833" lon="11.4799867"><ele>358.5</ele><time>2026-03-22T09:39:41.06Z</time></trkpt><trkpt lat="45.446185" lon="11.4799233"><ele>356.0</ele><time>2026-03-22T09:39:42.061Z</time></trkpt><trkpt lat="45.4460733" lon="11.4798533"><ele>353.5</ele><time>2026-03-22T09:39:43.061Z</time></trkpt><trkpt lat="45.445965" lon="11.4797983"><ele>351.0</ele><time>2026-03-22T09:39:44.06Z</time></trkpt><trkpt lat="45.44586" lon="11.4797633"><ele>351.0</ele><time>2026-03-22T09:39:45.061Z</time></trkpt><trkpt lat="45.44576" lon="11.479745"><ele>351.0</ele><time>2026-03-22T09:39:46.061Z</time></trkpt><trkpt lat="45.4456567" lon="11.4797533"><ele>351.0</ele><time>2026-03-22T09:39:47.061Z</time></trkpt><trkpt lat="45.44555" lon="11.47979"><ele>351.0</ele><time>2026-03-22T09:39:48.061Z</time></trkpt><trkpt lat="45.4454367" lon="11.4798267"><ele>351.0</ele><time>2026-03-22T09:39:49.061Z</time></trkpt><trkpt lat="45.445315" lon="11.4798567"><ele>350.0</ele><time>2026-03-22T09:39:50.061Z</time></trkpt><trkpt lat="45.4451967" lon="11.4798783"><ele>349.0</ele><time>2026-03-22T09:39:51.061Z</time></trkpt><trkpt lat="45.4450783" lon="11.4799067"><ele>348.0</ele><time>2026-03-22T09:39:52.061Z</time></trkpt><trkpt lat="45.4449567" lon="11.47994"><ele>347.0</ele><time>2026-03-22T09:39:53.061Z</time></trkpt><trkpt lat="45.44483" lon="11.4799733"><ele>347.0</ele><time>2026-03-22T09:39:54.061Z</time></trkpt><trkpt lat="45.44472" lon="11.4799983"><ele>347.0</ele><time>2026-03-22T09:39:55.061Z</time></trkpt><trkpt lat="45.4446033" lon="11.4800067"><ele>347.0</ele><time>2026-03-22T09:39:56.061Z</time></trkpt><trkpt lat="45.44449" lon="11.4800167"><ele>347.0</ele><time>2026-03-22T09:39:57.06Z</time></trkpt><trkpt lat="45.4443717" lon="11.4800283"><ele>344.40000000000003</ele><time>2026-03-22T09:39:58.061Z</time></trkpt><trkpt lat="45.4442633" lon="11.4800333"><ele>341.8</ele><time>2026-03-22T09:39:59.061Z</time></trkpt><trkpt lat="45.4441583" lon="11.48001"><ele>339.2</ele><time>2026-03-22T09:40:00.061Z</time></trkpt><trkpt lat="45.44406" lon="11.4799583"><ele>336.6</ele><time>2026-03-22T09:40:01.061Z</time></trkpt><trkpt lat="45.4439783" lon="11.4798683"><ele>334.0</ele><time>2026-03-22T09:40:02.061Z</time></trkpt><trkpt lat="45.4439317" lon="11.4797567"><ele>334.0</ele><time>2026-03-22T09:40:03.06Z</time></trkpt><trkpt lat="45.4439183" lon="11.4796233"><ele>334.0</ele><time>2026-03-22T09:40:04.061Z</time></trkpt><trkpt lat="45.443935" lon="11.4794617"><ele>334.0</ele><time>2026-03-22T09:40:05.061Z</time></trkpt><trkpt lat="45.44397" lon="11.479265"><ele>334.0</ele><time>2026-03-22T09:40:06.061Z</time></trkpt><trkpt lat="45.4440217" lon="11.4790617"><ele>334.0</ele><time>2026-03-22T09:40:07.061Z</time></trkpt><trkpt lat="45.4440867" lon="11.4788717"><ele>334.0</ele><time>2026-03-22T09:40:08.061Z</time></trkpt><trkpt lat="45.44415" lon="11.4787017"><ele>334.0</ele><time>2026-03-22T09:40:09.061Z</time></trkpt><trkpt lat="45.4442217" lon="11.47856"><ele>334.0</ele><time>2026-03-22T09:40:10.061Z</time></trkpt><trkpt lat="45.4443117" lon="11.47844"><ele>334.5</ele><time>2026-03-22T09:40:11.061Z</time></trkpt><trkpt lat="45.4444133" lon="11.47833"><ele>335.0</ele><time>2026-03-22T09:40:12.061Z</time></trkpt><trkpt lat="45.4445267" lon="11.4782283"><ele>335.5</ele><time>2026-03-22T09:40:13.061Z</time></trkpt><trkpt lat="45.4446367" lon="11.4781333"><ele>336.0</ele><time>2026-03-22T09:40:14.061Z</time></trkpt><trkpt lat="45.4447367" lon="11.47805"><ele>336.0</ele><time>2026-03-22T09:40:15.061Z</time></trkpt><trkpt lat="45.4448333" lon="11.4779633"><ele>336.0</ele><time>2026-03-22T09:40:16.061Z</time></trkpt><trkpt lat="45.4449233" lon="11.4778867"><ele>336.0</ele><time>2026-03-22T09:40:17.061Z</time></trkpt><trkpt lat="45.444995" lon="11.4778133"><ele>336.0</ele><time>2026-03-22T09:40:18.061Z</time></trkpt><trkpt lat="45.445045" lon="11.47774"><ele>336.0</ele><time>2026-03-22T09:40:19.061Z</time></trkpt><trkpt lat="45.4450833" lon="11.4776283"><ele>332.5</ele><time>2026-03-22T09:40:21.06Z</time></trkpt><trkpt lat="45.44515" lon="11.477645"><ele>329.0</ele><time>2026-03-22T09:40:25.061Z</time></trkpt><trkpt lat="45.44523" lon="11.477645"><ele>325.5</ele><time>2026-03-22T09:40:27.061Z</time></trkpt><trkpt lat="45.44533" lon="11.4776167"><ele>322.0</ele><time>2026-03-22T09:40:29.061Z</time></trkpt><trkpt lat="45.445415" lon="11.4775967"><ele>318.5</ele><time>2026-03-22T09:40:31.061Z</time></trkpt><trkpt lat="45.44548" lon="11.4775583"><ele>315.0</ele><time>2026-03-22T09:40:33.061Z</time></trkpt><trkpt lat="45.4455467" lon="11.4775367"><ele>314.2</ele><time>2026-03-22T09:40:35.061Z</time></trkpt><trkpt lat="45.4456183" lon="11.4775333"><ele>313.4</ele><time>2026-03-22T09:40:38.061Z</time></trkpt><trkpt lat="45.4457533" lon="11.4774783"><ele>312.6</ele><time>2026-03-22T09:41:10.06Z</time></trkpt><trkpt lat="45.4458583" lon="11.4774933"><ele>311.8</ele><time>2026-03-22T09:41:21.061Z</time></trkpt><trkpt lat="45.4459683" lon="11.4775717"><ele>311.0</ele><time>2026-03-22T09:41:36.061Z</time></trkpt><trkpt lat="45.44603" lon="11.477615"><ele>311.0</ele><time>2026-03-22T09:41:39.061Z</time></trkpt><trkpt lat="45.446095" lon="11.4776817"><ele>311.0</ele><time>2026-03-22T09:41:43.061Z</time></trkpt><trkpt lat="45.4461633" lon="11.4777267"><ele>311.0</ele><time>2026-03-22T09:41:48.06Z</time></trkpt><trkpt lat="45.4462283" lon="11.4777833"><ele>311.0</ele><time>2026-03-22T09:41:51.06Z</time></trkpt><trkpt lat="45.4463367" lon="11.4778483"><ele>311.0</ele><time>2026-03-22T09:41:54.061Z</time></trkpt><trkpt lat="45.4464067" lon="11.4778967"><ele>311.0</ele><time>2026-03-22T09:41:55.061Z</time></trkpt><trkpt lat="45.4464867" lon="11.47795"><ele>313.6666666666667</ele><time>2026-03-22T09:41:56.061Z</time></trkpt><trkpt lat="45.4465667" lon="11.478"><ele>316.33333333333337</ele><time>2026-03-22T09:41:57.06Z</time></trkpt><trkpt lat="45.4466467" lon="11.47807"><ele>319.0</ele><time>2026-03-22T09:41:58.061Z</time></trkpt><trkpt lat="45.44672" lon="11.4781233"><ele>321.6666666666667</ele><time>2026-03-22T09:41:59.061Z</time></trkpt><trkpt lat="45.4467783" lon="11.4781583"><ele>324.3333333333333</ele><time>2026-03-22T09:42:00.061Z</time></trkpt><trkpt lat="45.4468883" lon="11.4781867"><ele>327.0</ele><time>2026-03-22T09:42:02.061Z</time></trkpt><trkpt lat="45.4469567" lon="11.4781733"><ele>327.0</ele><time>2026-03-22T09:42:03.061Z</time></trkpt><trkpt lat="45.447035" lon="11.47815"><ele>327.0</ele><time>2026-03-22T09:42:04.06Z</time></trkpt><trkpt lat="45.4471167" lon="11.4781467"><ele>327.0</ele><time>2026-03-22T09:42:05.061Z</time></trkpt><trkpt lat="45.447195" lon="11.47812"><ele>327.0</ele><time>2026-03-22T09:42:06.06Z</time></trkpt><trkpt lat="45.4472667" lon="11.4780767"><ele>327.0</ele><time>2026-03-22T09:42:07.061Z</time></trkpt><trkpt lat="45.4473383" lon="11.4780233"><ele>327.0</ele><time>2026-03-22T09:42:08.061Z</time></trkpt><trkpt lat="45.4474067" lon="11.477975"><ele>325.5</ele><time>2026-03-22T09:42:09.061Z</time></trkpt><trkpt lat="45.44747" lon="11.4779417"><ele>324.0</ele><time>2026-03-22T09:42:10.061Z</time></trkpt><trkpt lat="45.4475567" lon="11.4778967"><ele>322.5</ele><time>2026-03-22T09:42:12.061Z</time></trkpt><trkpt lat="45.4476133" lon="11.47785"><ele>321.0</ele><time>2026-03-22T09:42:15.06Z</time></trkpt><trkpt lat="45.4477067" lon="11.4777633"><ele>319.5</ele><time>2026-03-22T09:42:16.061Z</time></trkpt><trkpt lat="45.447755" lon="11.4777017"><ele>318.0</ele><time>2026-03-22T09:42:17.061Z</time></trkpt><trkpt lat="45.4476933" lon="11.4776133"><ele>315.8</ele><time>2026-03-22T09:42:21.061Z</time></trkpt><trkpt lat="45.4476267" lon="11.477565"><ele>313.6</ele><time>2026-03-22T09:42:22.061Z</time></trkpt><trkpt lat="45.44755" lon="11.4774083"><ele>311.4</ele><time>2026-03-22T09:42:27.061Z</time></trkpt><trkpt lat="45.447575" lon="11.4772817"><ele>309.2</ele><time>2026-03-22T09:42:29.061Z</time></trkpt><trkpt lat="45.4476333" lon="11.4771983"><ele>307.0</ele><time>2026-03-22T09:42:31.061Z</time></trkpt><trkpt lat="45.447705" lon="11.4771617"><ele>307.0</ele><time>2026-03-22T09:42:33.061Z</time></trkpt><trkpt lat="45.4478517" lon="11.477205"><ele>307.0</ele><time>2026-03-22T09:42:35.061Z</time></trkpt><trkpt lat="45.4479817" lon="11.47733"><ele>307.0</ele><time>2026-03-22T09:42:36.061Z</time></trkpt><trkpt lat="45.4481067" lon="11.477425"><ele>307.0</ele><time>2026-03-22T09:42:37.061Z</time></trkpt><trkpt lat="45.4482067" lon="11.4775017"><ele>304.0</ele><time>2026-03-22T09:42:38.061Z</time></trkpt><trkpt lat="45.4483017" lon="11.47757"><ele>301.0</ele><time>2026-03-22T09:42:39.061Z</time></trkpt><trkpt lat="45.4483983" lon="11.4776517"><ele>298.0</ele><time>2026-03-22T09:42:40.061Z</time></trkpt><trkpt lat="45.44846" lon="11.4777283"><ele>295.0</ele><time>2026-03-22T09:42:41.061Z</time></trkpt><trkpt lat="45.4485517" lon="11.4778117"><ele>292.0</ele><time>2026-03-22T09:42:43.061Z</time></trkpt><trkpt lat="45.4486083" lon="11.47787"><ele>291.8</ele><time>2026-03-22T09:42:45.061Z</time></trkpt><trkpt lat="45.4486983" lon="11.4779733"><ele>291.6</ele><time>2026-03-22T09:42:50.061Z</time></trkpt><trkpt lat="45.4487733" lon="11.4780233"><ele>291.40000000000003</ele><time>2026-03-22T09:42:53.061Z</time></trkpt><trkpt lat="45.44885" lon="11.47804"><ele>291.2</ele><time>2026-03-22T09:42:55.061Z</time></trkpt><trkpt lat="45.4489567" lon="11.478055"><ele>291.0</ele><time>2026-03-22T09:42:57.06Z</time></trkpt><trkpt lat="45.4490333" lon="11.47805"><ele>291.0</ele><time>2026-03-22T09:42:59.061Z</time></trkpt><trkpt lat="45.44909" lon="11.4779833"><ele>291.0</ele><time>2026-03-22T09:43:02.061Z</time></trkpt><trkpt lat="45.44915" lon="11.47787"><ele>291.0</ele><time>2026-03-22T09:43:04.061Z</time></trkpt><trkpt lat="45.4492217" lon="11.47779"><ele>291.0</ele><time>2026-03-22T09:43:06.06Z</time></trkpt><trkpt lat="45.4492933" lon="11.4777367"><ele>291.0</ele><time>2026-03-22T09:43:08.06Z</time></trkpt><trkpt lat="45.4494967" lon="11.4776933"><ele>288.2</ele><time>2026-03-22T09:43:19.061Z</time></trkpt><trkpt lat="45.449405" lon="11.477675"><ele>285.40000000000003</ele><time>2026-03-22T09:43:23.061Z</time></trkpt><trkpt lat="45.4493017" lon="11.4776417"><ele>282.6</ele><time>2026-03-22T09:43:25.061Z</time></trkpt><trkpt lat="45.4491783" lon="11.4776067"><ele>279.8</ele><time>2026-03-22T09:43:27.061Z</time></trkpt><trkpt lat="45.4490783" lon="11.4775267"><ele>277.0</ele><time>2026-03-22T09:43:28.06Z</time></trkpt><trkpt lat="45.4490017" lon="11.4774767"><ele>277.0</ele><time>2026-03-22T09:43:29.06Z</time></trkpt><trkpt lat="45.4489367" lon="11.47744"><ele>277.0</ele><time>2026-03-22T09:43:30.061Z</time></trkpt><trkpt lat="45.448845" lon="11.47735"><ele>277.0</ele><time>2026-03-22T09:43:31.061Z</time></trkpt><trkpt lat="45.4486817" lon="11.4772"><ele>277.0</ele><time>2026-03-22T09:43:32.06Z</time></trkpt><trkpt lat="45.4485983" lon="11.477075"><ele>276.0</ele><time>2026-03-22T09:43:33.061Z</time></trkpt><trkpt lat="45.4484833" lon="11.476955"><ele>275.0</ele><time>2026-03-22T09:43:34.061Z</time></trkpt><trkpt lat="45.448425" lon="11.476855"><ele>274.0</ele><time>2026-03-22T09:43:35.061Z</time></trkpt><trkpt lat="45.4483383" lon="11.4767583"><ele>273.0</ele><time>2026-03-22T09:43:36.061Z</time></trkpt><trkpt lat="45.44828" lon="11.4766733"><ele>272.0</ele><time>2026-03-22T09:43:37.061Z</time></trkpt><trkpt lat="45.4482267" lon="11.4766017"><ele>272.0</ele><time>2026-03-22T09:43:38.061Z</time></trkpt><trkpt lat="45.44817" lon="11.4765467"><ele>272.0</ele><time>2026-03-22T09:43:39.061Z</time></trkpt><trkpt lat="45.4481017" lon="11.4764817"><ele>272.0</ele><time>2026-03-22T09:43:41.061Z</time></trkpt><trkpt lat="45.44804" lon="11.4764067"><ele>272.0</ele><time>2026-03-22T09:43:44.061Z</time></trkpt><trkpt lat="45.4480567" lon="11.4762917"><ele>272.0</ele><time>2026-03-22T09:43:47.06Z</time></trkpt><trkpt lat="45.4481183" lon="11.4762367"><ele>272.0</ele><time>2026-03-22T09:43:49.061Z</time></trkpt><trkpt lat="45.4482417" lon="11.4762133"><ele>267.5</ele><time>2026-03-22T09:43:51.061Z</time></trkpt><trkpt lat="45.4483467" lon="11.4761683"><ele>263.0</ele><time>2026-03-22T09:43:53.06Z</time></trkpt><trkpt lat="45.4483217" lon="11.476085"><ele>258.5</ele><time>2026-03-22T09:43:59.061Z</time></trkpt><trkpt lat="45.4482583" lon="11.476065"><ele>254.0</ele><time>2026-03-22T09:44:01.061Z</time></trkpt><trkpt lat="45.4481983" lon="11.476025"><ele>249.50000000000003</ele><time>2026-03-22T09:44:03.061Z</time></trkpt><trkpt lat="45.448135" lon="11.475985"><ele>245.0</ele><time>2026-03-22T09:44:05.061Z</time></trkpt><trkpt lat="45.4480217" lon="11.4759167"><ele>245.4</ele><time>2026-03-22T09:44:07.061Z</time></trkpt><trkpt lat="45.44796" lon="11.475885"><ele>245.8</ele><time>2026-03-22T09:44:08.061Z</time></trkpt><trkpt lat="45.4478733" lon="11.4758683"><ele>246.2</ele><time>2026-03-22T09:44:09.061Z</time></trkpt><trkpt lat="45.4477683" lon="11.4758617"><ele>246.6</ele><time>2026-03-22T09:44:10.061Z</time></trkpt><trkpt lat="45.44764" lon="11.4758533"><ele>247.0</ele><time>2026-03-22T09:44:11.061Z</time></trkpt><trkpt lat="45.44751" lon="11.4758383"><ele>247.0</ele><time>2026-03-22T09:44:12.061Z</time></trkpt><trkpt lat="45.4474017" lon="11.4758117"><ele>247.0</ele><time>2026-03-22T09:44:13.06Z</time></trkpt><trkpt lat="45.447285" lon="11.4757883"><ele>247.0</ele><time>2026-03-22T09:44:14.061Z</time></trkpt><trkpt lat="45.4471833" lon="11.4757733"><ele>247.0</ele><time>2026-03-22T09:44:15.06Z</time></trkpt><trkpt lat="45.4470683" lon="11.475755"><ele>247.0</ele><time>2026-03-22T09:44:16.06Z</time></trkpt><trkpt lat="45.4469767" lon="11.4757367"><ele>246.49999999999997</ele><time>2026-03-22T09:44:17.061Z</time></trkpt><trkpt lat="45.4468933" lon="11.475725"><ele>246.0</ele><time>2026-03-22T09:44:18.059Z</time></trkpt><trkpt lat="45.4468133" lon="11.47571"><ele>245.5</ele><time>2026-03-22T09:44:19.06Z</time></trkpt><trkpt lat="45.4467317" lon="11.4757033"><ele>245.0</ele><time>2026-03-22T09:44:20.06Z</time></trkpt><trkpt lat="45.4466533" lon="11.4757"><ele>244.49999999999997</ele><time>2026-03-22T09:44:21.06Z</time></trkpt><trkpt lat="45.4465833" lon="11.47569"><ele>244.0</ele><time>2026-03-22T09:44:22.059Z</time></trkpt><trkpt lat="45.446505" lon="11.4756717"><ele>244.0</ele><time>2026-03-22T09:44:23.06Z</time></trkpt><trkpt lat="45.44644" lon="11.4756483"><ele>244.0</ele><time>2026-03-22T09:44:24.06Z</time></trkpt><trkpt lat="45.4463233" lon="11.4756083"><ele>244.0</ele><time>2026-03-22T09:44:26.059Z</time></trkpt><trkpt lat="45.4461867" lon="11.4756417"><ele>244.0</ele><time>2026-03-22T09:44:28.06Z</time></trkpt><trkpt lat="45.4460517" lon="11.4756317"><ele>244.0</ele><time>2026-03-22T09:44:29.06Z</time></trkpt><trkpt lat="45.445905" lon="11.4756017"><ele>244.0</ele><time>2026-03-22T09:44:30.059Z</time></trkpt><trkpt lat="45.4457617" lon="11.4755767"><ele>244.0</ele><time>2026-03-22T09:44:31.06Z</time></trkpt><trkpt lat="45.4456233" lon="11.4755433"><ele>244.0</ele><time>2026-03-22T09:44:32.06Z</time></trkpt><trkpt lat="45.4455083" lon="11.4755083"><ele>244.75</ele><time>2026-03-22T09:44:33.06Z</time></trkpt><trkpt lat="45.4453967" lon="11.4754733"><ele>245.5</ele><time>2026-03-22T09:44:34.059Z</time></trkpt><trkpt lat="45.4452833" lon="11.475435"><ele>246.25</ele><time>2026-03-22T09:44:35.059Z</time></trkpt><trkpt lat="45.44515" lon="11.475415"><ele>247.0</ele><time>2026-03-22T09:44:36.06Z</time></trkpt><trkpt lat="45.4450317" lon="11.4753783"><ele>243.8</ele><time>2026-03-22T09:44:37.06Z</time></trkpt><trkpt lat="45.444915" lon="11.4753433"><ele>240.6</ele><time>2026-03-22T09:44:38.06Z</time></trkpt><trkpt lat="45.4448067" lon="11.475305"><ele>237.40000000000003</ele><time>2026-03-22T09:44:39.06Z</time></trkpt><trkpt lat="45.4447067" lon="11.4752633"><ele>234.20000000000002</ele><time>2026-03-22T09:44:40.059Z</time></trkpt><trkpt lat="45.4446083" lon="11.475225"><ele>231.0</ele><time>2026-03-22T09:44:41.06Z</time></trkpt><trkpt lat="45.4444867" lon="11.4751917"><ele>231.0</ele><time>2026-03-22T09:44:42.06Z</time></trkpt><trkpt lat="45.444355" lon="11.4751683"><ele>231.0</ele><time>2026-03-22T09:44:43.059Z</time></trkpt><trkpt lat="45.4442167" lon="11.4751367"><ele>231.0</ele><time>2026-03-22T09:44:44.059Z</time></trkpt><trkpt lat="45.44406" lon="11.475095"><ele>231.0</ele><time>2026-03-22T09:44:45.06Z</time></trkpt><trkpt lat="45.44391" lon="11.4750633"><ele>235.0</ele><time>2026-03-22T09:44:46.06Z</time></trkpt><trkpt lat="45.4437583" lon="11.4750217"><ele>239.0</ele><time>2026-03-22T09:44:47.06Z</time></trkpt><trkpt lat="45.443615" lon="11.47499"><ele>243.0</ele><time>2026-03-22T09:44:48.06Z</time></trkpt><trkpt lat="45.443495" lon="11.4749517"><ele>247.0</ele><time>2026-03-22T09:44:49.06Z</time></trkpt><trkpt lat="45.44339" lon="11.4749067"><ele>246.99999999999997</ele><time>2026-03-22T09:44:50.06Z</time></trkpt><trkpt lat="45.443305" lon="11.4748617"><ele>247.0</ele><time>2026-03-22T09:44:51.06Z</time></trkpt><trkpt lat="45.4432383" lon="11.4748367"><ele>247.0</ele><time>2026-03-22T09:44:52.06Z</time></trkpt><trkpt lat="45.4431483" lon="11.4747883"><ele>247.0</ele><time>2026-03-22T09:44:54.06Z</time></trkpt><trkpt lat="45.4431" lon="11.4747233"><ele>246.99999999999997</ele><time>2026-03-22T09:44:58.059Z</time></trkpt><trkpt lat="45.4431933" lon="11.474705"><ele>247.0</ele><time>2026-03-22T09:45:01.06Z</time></trkpt><trkpt lat="45.4432833" lon="11.4746517"><ele>244.16666666666666</ele><time>2026-03-22T09:45:03.06Z</time></trkpt><trkpt lat="45.443335" lon="11.4745833"><ele>241.33333333333331</ele><time>2026-03-22T09:45:04.059Z</time></trkpt><trkpt lat="45.4433817" lon="11.474505"><ele>238.5</ele><time>2026-03-22T09:45:05.06Z</time></trkpt><trkpt lat="45.44343" lon="11.474405"><ele>235.66666666666669</ele><time>2026-03-22T09:45:06.06Z</time></trkpt><trkpt lat="45.443465" lon="11.4742517"><ele>232.83333333333334</ele><time>2026-03-22T09:45:08.06Z</time></trkpt><trkpt lat="45.4433933" lon="11.4741567"><ele>230.0</ele><time>2026-03-22T09:45:11.06Z</time></trkpt><trkpt lat="45.44336" lon="11.4740533"><ele>230.0</ele><time>2026-03-22T09:45:13.06Z</time></trkpt><trkpt lat="45.443375" lon="11.4739033"><ele>230.0</ele><time>2026-03-22T09:45:15.06Z</time></trkpt><trkpt lat="45.443405" lon="11.4738167"><ele>230.0</ele><time>2026-03-22T09:45:16.06Z</time></trkpt><trkpt lat="45.4434283" lon="11.4736617"><ele>230.0</ele><time>2026-03-22T09:45:18.059Z</time></trkpt><trkpt lat="45.44345" lon="11.4735383"><ele>230.0</ele><time>2026-03-22T09:45:20.059Z</time></trkpt><trkpt lat="45.443405" lon="11.4734017"><ele>229.4</ele><time>2026-03-22T09:45:22.059Z</time></trkpt><trkpt lat="45.4433767" lon="11.473295"><ele>228.8</ele><time>2026-03-22T09:45:23.06Z</time></trkpt><trkpt lat="45.4433383" lon="11.4731733"><ele>228.2</ele><time>2026-03-22T09:45:24.06Z</time></trkpt><trkpt lat="45.4432967" lon="11.47306"><ele>227.6</ele><time>2026-03-22T09:45:25.06Z</time></trkpt><trkpt lat="45.443245" lon="11.4729617"><ele>227.0</ele><time>2026-03-22T09:45:26.06Z</time></trkpt><trkpt lat="45.44318" lon="11.4728517"><ele>226.75</ele><time>2026-03-22T09:45:27.06Z</time></trkpt><trkpt lat="45.4430967" lon="11.4727117"><ele>226.5</ele><time>2026-03-22T09:45:28.06Z</time></trkpt><trkpt lat="45.44302" lon="11.4725783"><ele>226.25</ele><time>2026-03-22T09:45:29.06Z</time></trkpt><trkpt lat="45.4429683" lon="11.4724383"><ele>226.0</ele><time>2026-03-22T09:45:30.06Z</time></trkpt><trkpt lat="45.4429333" lon="11.4722867"><ele>230.60000000000002</ele><time>2026-03-22T09:45:31.06Z</time></trkpt><trkpt lat="45.4429267" lon="11.47214"><ele>235.20000000000002</ele><time>2026-03-22T09:45:32.059Z</time></trkpt><trkpt lat="45.442925" lon="11.4719967"><ele>239.79999999999998</ele><time>2026-03-22T09:45:33.06Z</time></trkpt><trkpt lat="45.4429217" lon="11.47187"><ele>244.39999999999998</ele><time>2026-03-22T09:45:34.06Z</time></trkpt><trkpt lat="45.44291" lon="11.4717567"><ele>249.0</ele><time>2026-03-22T09:45:35.06Z</time></trkpt><trkpt lat="45.442895" lon="11.47162"><ele>249.0</ele><time>2026-03-22T09:45:36.06Z</time></trkpt><trkpt lat="45.4428833" lon="11.4714733"><ele>249.0</ele><time>2026-03-22T09:45:37.06Z</time></trkpt><trkpt lat="45.4428667" lon="11.471355"><ele>249.0</ele><time>2026-03-22T09:45:38.06Z</time></trkpt><trkpt lat="45.4428467" lon="11.4712333"><ele>249.0</ele><time>2026-03-22T09:45:39.06Z</time></trkpt><trkpt lat="45.4428167" lon="11.47112"><ele>249.0</ele><time>2026-03-22T09:45:40.06Z</time></trkpt><trkpt lat="45.44279" lon="11.4710083"><ele>249.0</ele><time>2026-03-22T09:45:41.06Z</time></trkpt><trkpt lat="45.442755" lon="11.4708867"><ele>246.0</ele><time>2026-03-22T09:45:42.06Z</time></trkpt><trkpt lat="45.44273" lon="11.4707917"><ele>243.0</ele><time>2026-03-22T09:45:43.06Z</time></trkpt><trkpt lat="45.4427083" lon="11.47064"><ele>240.0</ele><time>2026-03-22T09:45:44.06Z</time></trkpt><trkpt lat="45.4426783" lon="11.47053"><ele>237.0</ele><time>2026-03-22T09:45:45.06Z</time></trkpt><trkpt lat="45.44263" lon="11.47044"><ele>234.0</ele><time>2026-03-22T09:45:46.059Z</time></trkpt><trkpt lat="45.4425617" lon="11.4703667"><ele>231.0</ele><time>2026-03-22T09:45:47.06Z</time></trkpt><trkpt lat="45.44248" lon="11.470305"><ele>233.60000000000002</ele><time>2026-03-22T09:45:48.06Z</time></trkpt><trkpt lat="45.442395" lon="11.4702517"><ele>236.20000000000002</ele><time>2026-03-22T09:45:49.06Z</time></trkpt><trkpt lat="45.4422967" lon="11.4701917"><ele>238.79999999999998</ele><time>2026-03-22T09:45:50.06Z</time></trkpt><trkpt lat="45.44219" lon="11.47013"><ele>241.39999999999998</ele><time>2026-03-22T09:45:51.06Z</time></trkpt><trkpt lat="45.4420783" lon="11.4700517"><ele>244.0</ele><time>2026-03-22T09:45:52.059Z</time></trkpt><trkpt lat="45.4419833" lon="11.4699833"><ele>244.0</ele><time>2026-03-22T09:45:53.06Z</time></trkpt><trkpt lat="45.4418983" lon="11.4698917"><ele>243.99999999999997</ele><time>2026-03-22T09:45:54.059Z</time></trkpt><trkpt lat="45.4418483" lon="11.4698267"><ele>243.99999999999997</ele><time>2026-03-22T09:45:55.06Z</time></trkpt><trkpt lat="45.4417667" lon="11.4696117"><ele>244.0</ele><time>2026-03-22T09:45:56.06Z</time></trkpt><trkpt lat="45.441705" lon="11.4695033"><ele>244.0</ele><time>2026-03-22T09:45:57.06Z</time></trkpt><trkpt lat="45.4416583" lon="11.46944"><ele>246.2</ele><time>2026-03-22T09:45:58.06Z</time></trkpt><trkpt lat="45.4415617" lon="11.4693367"><ele>248.39999999999998</ele><time>2026-03-22T09:46:00.06Z</time></trkpt><trkpt lat="45.4414783" lon="11.4692983"><ele>250.6</ele><time>2026-03-22T09:46:02.06Z</time></trkpt><trkpt lat="45.4414117" lon="11.469255"><ele>252.8</ele><time>2026-03-22T09:46:04.06Z</time></trkpt><trkpt lat="45.4413383" lon="11.469195"><ele>255.0</ele><time>2026-03-22T09:46:06.06Z</time></trkpt><trkpt lat="45.4412583" lon="11.469105"><ele>255.0</ele><time>2026-03-22T09:46:08.06Z</time></trkpt><trkpt lat="45.4411883" lon="11.4690433"><ele>255.0</ele><time>2026-03-22T09:46:10.06Z</time></trkpt><trkpt lat="45.441095" lon="11.4689633"><ele>255.0</ele><time>2026-03-22T09:46:12.06Z</time></trkpt><trkpt lat="45.4410267" lon="11.4688817"><ele>255.0</ele><time>2026-03-22T09:46:14.06Z</time></trkpt><trkpt lat="45.4409217" lon="11.468785"><ele>255.0</ele><time>2026-03-22T09:46:16.06Z</time></trkpt><trkpt lat="45.440865" lon="11.4687133"><ele>253.5</ele><time>2026-03-22T09:46:17.06Z</time></trkpt><trkpt lat="45.4408067" lon="11.468645"><ele>252.0</ele><time>2026-03-22T09:46:18.06Z</time></trkpt><trkpt lat="45.4407433" lon="11.46857"><ele>250.5</ele><time>2026-03-22T09:46:19.059Z</time></trkpt><trkpt lat="45.4406867" lon="11.4685017"><ele>249.0</ele><time>2026-03-22T09:46:20.06Z</time></trkpt><trkpt lat="45.440635" lon="11.4684283"><ele>247.5</ele><time>2026-03-22T09:46:21.06Z</time></trkpt><trkpt lat="45.4405867" lon="11.4683533"><ele>246.0</ele><time>2026-03-22T09:46:22.06Z</time></trkpt><trkpt lat="45.4405383" lon="11.468245"><ele>246.0</ele><time>2026-03-22T09:46:23.06Z</time></trkpt><trkpt lat="45.4404883" lon="11.4681267"><ele>246.0</ele><time>2026-03-22T09:46:24.06Z</time></trkpt><trkpt lat="45.4404483" lon="11.4679183"><ele>246.0</ele><time>2026-03-22T09:46:25.06Z</time></trkpt><trkpt lat="45.4404133" lon="11.46778"><ele>246.0</ele><time>2026-03-22T09:46:26.06Z</time></trkpt><trkpt lat="45.4403967" lon="11.4676217"><ele>245.25</ele><time>2026-03-22T09:46:27.06Z</time></trkpt><trkpt lat="45.440355" lon="11.46743"><ele>244.5</ele><time>2026-03-22T09:46:28.06Z</time></trkpt><trkpt lat="45.4403567" lon="11.4672767"><ele>243.75</ele><time>2026-03-22T09:46:29.06Z</time></trkpt><trkpt lat="45.4403717" lon="11.4671217"><ele>243.0</ele><time>2026-03-22T09:46:30.06Z</time></trkpt><trkpt lat="45.440385" lon="11.46698"><ele>243.0</ele><time>2026-03-22T09:46:31.06Z</time></trkpt><trkpt lat="45.440395" lon="11.4668183"><ele>243.0</ele><time>2026-03-22T09:46:32.06Z</time></trkpt><trkpt lat="45.440395" lon="11.4666767"><ele>243.0</ele><time>2026-03-22T09:46:33.059Z</time></trkpt><trkpt lat="45.440395" lon="11.46652"><ele>243.0</ele><time>2026-03-22T09:46:34.06Z</time></trkpt><trkpt lat="45.4403783" lon="11.4664117"><ele>243.0</ele><time>2026-03-22T09:46:35.06Z</time></trkpt><trkpt lat="45.4403683" lon="11.46626"><ele>240.4</ele><time>2026-03-22T09:46:36.06Z</time></trkpt><trkpt lat="45.44036" lon="11.46616"><ele>237.8</ele><time>2026-03-22T09:46:37.059Z</time></trkpt><trkpt lat="45.4403633" lon="11.4660567"><ele>235.2</ele><time>2026-03-22T09:46:38.06Z</time></trkpt><trkpt lat="45.440315" lon="11.465935"><ele>232.6</ele><time>2026-03-22T09:46:40.06Z</time></trkpt><trkpt lat="45.4402167" lon="11.46586"><ele>230.0</ele><time>2026-03-22T09:46:42.059Z</time></trkpt><trkpt lat="45.4401233" lon="11.4657817"><ele>230.0</ele><time>2026-03-22T09:46:44.06Z</time></trkpt><trkpt lat="45.4400333" lon="11.46571"><ele>230.0</ele><time>2026-03-22T09:46:46.06Z</time></trkpt><trkpt lat="45.439935" lon="11.46566"><ele>230.0</ele><time>2026-03-22T09:46:48.06Z</time></trkpt><trkpt lat="45.4398567" lon="11.4656067"><ele>230.0</ele><time>2026-03-22T09:46:50.06Z</time></trkpt><trkpt lat="45.4397717" lon="11.4655367"><ele>230.0</ele><time>2026-03-22T09:46:52.06Z</time></trkpt><trkpt lat="45.439685" lon="11.4654733"><ele>225.4</ele><time>2026-03-22T09:46:54.06Z</time></trkpt><trkpt lat="45.4396017" lon="11.4654117"><ele>220.8</ele><time>2026-03-22T09:46:56.06Z</time></trkpt><trkpt lat="45.4395067" lon="11.4653467"><ele>216.2</ele><time>2026-03-22T09:46:58.06Z</time></trkpt><trkpt lat="45.439405" lon="11.4653167"><ele>211.6</ele><time>2026-03-22T09:47:00.06Z</time></trkpt><trkpt lat="45.4393033" lon="11.4652967"><ele>207.0</ele><time>2026-03-22T09:47:02.06Z</time></trkpt><trkpt lat="45.4392117" lon="11.4652733"><ele>207.0</ele><time>2026-03-22T09:47:04.059Z</time></trkpt><trkpt lat="45.4391467" lon="11.465245"><ele>207.0</ele><time>2026-03-22T09:47:05.06Z</time></trkpt><trkpt lat="45.439075" lon="11.465215"><ele>207.0</ele><time>2026-03-22T09:47:06.06Z</time></trkpt><trkpt lat="45.4389983" lon="11.4651867"><ele>207.0</ele><time>2026-03-22T09:47:07.06Z</time></trkpt><trkpt lat="45.4389217" lon="11.4651617"><ele>207.0</ele><time>2026-03-22T09:47:08.06Z</time></trkpt><trkpt lat="45.4388433" lon="11.4651317"><ele>207.0</ele><time>2026-03-22T09:47:09.06Z</time></trkpt><trkpt lat="45.4387733" lon="11.4650983"><ele>206.33333333333334</ele><time>2026-03-22T09:47:10.06Z</time></trkpt><trkpt lat="45.4387067" lon="11.465065"><ele>205.66666666666669</ele><time>2026-03-22T09:47:11.06Z</time></trkpt><trkpt lat="45.4386367" lon="11.465015"><ele>205.0</ele><time>2026-03-22T09:47:12.06Z</time></trkpt><trkpt lat="45.4385717" lon="11.4649433"><ele>204.33333333333334</ele><time>2026-03-22T09:47:13.06Z</time></trkpt><trkpt lat="45.4385117" lon="11.464855"><ele>203.66666666666669</ele><time>2026-03-22T09:47:14.06Z</time></trkpt><trkpt lat="45.438465" lon="11.46476"><ele>203.0</ele><time>2026-03-22T09:47:15.06Z</time></trkpt><trkpt lat="45.43842" lon="11.464655"><ele>201.8</ele><time>2026-03-22T09:47:16.06Z</time></trkpt><trkpt lat="45.4383667" lon="11.4645583"><ele>200.60000000000002</ele><time>2026-03-22T09:47:17.06Z</time></trkpt><trkpt lat="45.4382983" lon="11.46447"><ele>199.39999999999998</ele><time>2026-03-22T09:47:18.06Z</time></trkpt><trkpt lat="45.4381967" lon="11.4643983"><ele>198.2</ele><time>2026-03-22T09:47:19.059Z</time></trkpt><trkpt lat="45.43809" lon="11.4643533"><ele>197.0</ele><time>2026-03-22T09:47:20.06Z</time></trkpt><trkpt lat="45.4379833" lon="11.4643167"><ele>194.25</ele><time>2026-03-22T09:47:21.06Z</time></trkpt><trkpt lat="45.4378783" lon="11.4642817"><ele>191.5</ele><time>2026-03-22T09:47:22.06Z</time></trkpt><trkpt lat="45.4377583" lon="11.4642167"><ele>188.75</ele><time>2026-03-22T09:47:23.06Z</time></trkpt><trkpt lat="45.4376417" lon="11.4641683"><ele>186.0</ele><time>2026-03-22T09:47:24.06Z</time></trkpt><trkpt lat="45.4375083" lon="11.4641467"><ele>186.0</ele><time>2026-03-22T09:47:25.06Z</time></trkpt><trkpt lat="45.4373783" lon="11.4641467"><ele>186.0</ele><time>2026-03-22T09:47:26.06Z</time></trkpt><trkpt lat="45.4372683" lon="11.464165"><ele>186.0</ele><time>2026-03-22T09:47:27.06Z</time></trkpt><trkpt lat="45.4371533" lon="11.46422"><ele>186.0</ele><time>2026-03-22T09:47:28.059Z</time></trkpt><trkpt lat="45.4370517" lon="11.4643017"><ele>182.0</ele><time>2026-03-22T09:47:29.06Z</time></trkpt><trkpt lat="45.4369517" lon="11.4643817"><ele>178.0</ele><time>2026-03-22T09:47:30.06Z</time></trkpt><trkpt lat="45.4368383" lon="11.464445"><ele>174.0</ele><time>2026-03-22T09:47:31.06Z</time></trkpt><trkpt lat="45.4367217" lon="11.4644933"><ele>170.0</ele><time>2026-03-22T09:47:32.06Z</time></trkpt><trkpt lat="45.4365967" lon="11.46454"><ele>170.0</ele><time>2026-03-22T09:47:33.06Z</time></trkpt><trkpt lat="45.4364667" lon="11.464585"><ele>170.0</ele><time>2026-03-22T09:47:34.06Z</time></trkpt><trkpt lat="45.4363317" lon="11.464625"><ele>170.0</ele><time>2026-03-22T09:47:35.06Z</time></trkpt><trkpt lat="45.4361967" lon="11.46466"><ele>170.0</ele><time>2026-03-22T09:47:36.06Z</time></trkpt><trkpt lat="45.43606" lon="11.4647"><ele>167.0</ele><time>2026-03-22T09:47:37.06Z</time></trkpt><trkpt lat="45.43593" lon="11.46474"><ele>164.0</ele><time>2026-03-22T09:47:38.06Z</time></trkpt><trkpt lat="45.4358133" lon="11.464785"><ele>161.0</ele><time>2026-03-22T09:47:39.06Z</time></trkpt><trkpt lat="45.4357033" lon="11.46482"><ele>158.0</ele><time>2026-03-22T09:47:40.06Z</time></trkpt><trkpt lat="45.43559" lon="11.4648517"><ele>158.0</ele><time>2026-03-22T09:47:41.06Z</time></trkpt><trkpt lat="45.4354733" lon="11.4648733"><ele>158.0</ele><time>2026-03-22T09:47:42.06Z</time></trkpt><trkpt lat="45.4353517" lon="11.4648717"><ele>158.0</ele><time>2026-03-22T09:47:43.06Z</time></trkpt><trkpt lat="45.4352367" lon="11.4648317"><ele>158.0</ele><time>2026-03-22T09:47:44.06Z</time></trkpt><trkpt lat="45.43512" lon="11.4647633"><ele>155.5</ele><time>2026-03-22T09:47:45.06Z</time></trkpt><trkpt lat="45.4349983" lon="11.4646733"><ele>153.0</ele><time>2026-03-22T09:47:46.06Z</time></trkpt><trkpt lat="45.4348717" lon="11.46458"><ele>150.5</ele><time>2026-03-22T09:47:47.06Z</time></trkpt><trkpt lat="45.4347467" lon="11.4645067"><ele>148.0</ele><time>2026-03-22T09:47:48.06Z</time></trkpt><trkpt lat="45.4346233" lon="11.464455"><ele>148.0</ele><time>2026-03-22T09:47:49.06Z</time></trkpt><trkpt lat="45.4345133" lon="11.4644367"><ele>148.0</ele><time>2026-03-22T09:47:50.06Z</time></trkpt><trkpt lat="45.43441" lon="11.4644333"><ele>148.0</ele><time>2026-03-22T09:47:51.059Z</time></trkpt><trkpt lat="45.4343267" lon="11.4644383"><ele>148.0</ele><time>2026-03-22T09:47:52.06Z</time></trkpt><trkpt lat="45.4342517" lon="11.464465"><ele>148.0</ele><time>2026-03-22T09:47:53.06Z</time></trkpt><trkpt lat="45.43419" lon="11.4645"><ele>148.0</ele><time>2026-03-22T09:47:54.06Z</time></trkpt><trkpt lat="45.434125" lon="11.4645367"><ele>148.0</ele><time>2026-03-22T09:47:56.06Z</time></trkpt><trkpt lat="45.4340583" lon="11.46457"><ele>148.0</ele><time>2026-03-22T09:48:07.06Z</time></trkpt><trkpt lat="45.4339933" lon="11.4645983"><ele>148.0</ele><time>2026-03-22T09:48:08.06Z</time></trkpt><trkpt lat="45.433905" lon="11.464655"><ele>148.0</ele><time>2026-03-22T09:48:09.06Z</time></trkpt><trkpt lat="45.433795" lon="11.4647233"><ele>148.0</ele><time>2026-03-22T09:48:10.06Z</time></trkpt><trkpt lat="45.4336483" lon="11.464805"><ele>144.33333333333334</ele><time>2026-03-22T09:48:11.06Z</time></trkpt><trkpt lat="45.433475" lon="11.464895"><ele>140.66666666666666</ele><time>2026-03-22T09:48:12.06Z</time></trkpt><trkpt lat="45.4333117" lon="11.46499"><ele>137.0</ele><time>2026-03-22T09:48:13.06Z</time></trkpt><trkpt lat="45.4331517" lon="11.4651033"><ele>137.0</ele><time>2026-03-22T09:48:14.06Z</time></trkpt><trkpt lat="45.4330033" lon="11.4652133"><ele>137.0</ele><time>2026-03-22T09:48:15.06Z</time></trkpt><trkpt lat="45.432865" lon="11.4653367"><ele>137.0</ele><time>2026-03-22T09:48:16.059Z</time></trkpt><trkpt lat="45.4327367" lon="11.4654833"><ele>134.25</ele><time>2026-03-22T09:48:17.06Z</time></trkpt><trkpt lat="45.4326167" lon="11.4656183"><ele>131.5</ele><time>2026-03-22T09:48:18.06Z</time></trkpt><trkpt lat="45.4325117" lon="11.4657333"><ele>128.75</ele><time>2026-03-22T09:48:19.06Z</time></trkpt><trkpt lat="45.43244" lon="11.4658283"><ele>126.0</ele><time>2026-03-22T09:48:20.06Z</time></trkpt><trkpt lat="45.43238" lon="11.4659367"><ele>126.0</ele><time>2026-03-22T09:48:21.06Z</time></trkpt><trkpt lat="45.4323583" lon="11.46605"><ele>126.0</ele><time>2026-03-22T09:48:22.06Z</time></trkpt><trkpt lat="45.4323667" lon="11.466175"><ele>126.0</ele><time>2026-03-22T09:48:23.059Z</time></trkpt><trkpt lat="45.4324433" lon="11.46623"><ele>126.0</ele><time>2026-03-22T09:48:24.06Z</time></trkpt><trkpt lat="45.4325567" lon="11.46621"><ele>126.0</ele><time>2026-03-22T09:48:25.06Z</time></trkpt><trkpt lat="45.4326783" lon="11.4661283"><ele>126.0</ele><time>2026-03-22T09:48:26.059Z</time></trkpt><trkpt lat="45.4327967" lon="11.466015"><ele>126.0</ele><time>2026-03-22T09:48:27.06Z</time></trkpt><trkpt lat="45.4329033" lon="11.4658917"><ele>126.0</ele><time>2026-03-22T09:48:28.06Z</time></trkpt><trkpt lat="45.433005" lon="11.4657983"><ele>126.0</ele><time>2026-03-22T09:48:29.06Z</time></trkpt><trkpt lat="45.43311" lon="11.4657583"><ele>124.19999999999999</ele><time>2026-03-22T09:48:30.06Z</time></trkpt><trkpt lat="45.4332267" lon="11.4657383"><ele>122.39999999999999</ele><time>2026-03-22T09:48:31.06Z</time></trkpt><trkpt lat="45.4333467" lon="11.4657417"><ele>120.6</ele><time>2026-03-22T09:48:32.06Z</time></trkpt><trkpt lat="45.433455" lon="11.4657567"><ele>118.8</ele><time>2026-03-22T09:48:33.06Z</time></trkpt><trkpt lat="45.4335567" lon="11.465775"><ele>117.0</ele><time>2026-03-22T09:48:34.06Z</time></trkpt><trkpt lat="45.4336633" lon="11.4657917"><ele>117.0</ele><time>2026-03-22T09:48:35.059Z</time></trkpt><trkpt lat="45.4337767" lon="11.4658133"><ele>116.99999999999999</ele><time>2026-03-22T09:48:36.06Z</time></trkpt><trkpt lat="45.4338867" lon="11.46583"><ele>116.99999999999999</ele><time>2026-03-22T09:48:37.06Z</time></trkpt><trkpt lat="45.4339983" lon="11.4658483"><ele>117.0</ele><time>2026-03-22T09:48:38.06Z</time></trkpt><trkpt lat="45.434105" lon="11.4658683"><ele>117.0</ele><time>2026-03-22T09:48:39.06Z</time></trkpt><trkpt lat="45.4341967" lon="11.4658733"><ele>117.0</ele><time>2026-03-22T09:48:40.06Z</time></trkpt><trkpt lat="45.43427" lon="11.4658867"><ele>117.0</ele><time>2026-03-22T09:48:41.06Z</time></trkpt><trkpt lat="45.4343317" lon="11.46592"><ele>117.0</ele><time>2026-03-22T09:48:42.06Z</time></trkpt><trkpt lat="45.4343467" lon="11.4660367"><ele>117.0</ele><time>2026-03-22T09:48:44.06Z</time></trkpt><trkpt lat="45.4342467" lon="11.466095"><ele>117.0</ele><time>2026-03-22T09:48:45.06Z</time></trkpt><trkpt lat="45.4341417" lon="11.4661567"><ele>117.0</ele><time>2026-03-22T09:48:46.06Z</time></trkpt><trkpt lat="45.4340233" lon="11.4662167"><ele>114.0</ele><time>2026-03-22T09:48:47.06Z</time></trkpt><trkpt lat="45.43389" lon="11.46628"><ele>111.0</ele><time>2026-03-22T09:48:48.06Z</time></trkpt><trkpt lat="45.4337417" lon="11.4663483"><ele>108.0</ele><time>2026-03-22T09:48:49.06Z</time></trkpt><trkpt lat="45.4335967" lon="11.4664133"><ele>105.0</ele><time>2026-03-22T09:48:50.06Z</time></trkpt><trkpt lat="45.4334617" lon="11.46648"><ele>104.0</ele><time>2026-03-22T09:48:51.06Z</time></trkpt><trkpt lat="45.4333283" lon="11.466545"><ele>103.0</ele><time>2026-03-22T09:48:52.06Z</time></trkpt><trkpt lat="45.433195" lon="11.4666117"><ele>102.0</ele><time>2026-03-22T09:48:53.06Z</time></trkpt><trkpt lat="45.4330733" lon="11.4667117"><ele>101.0</ele><time>2026-03-22T09:48:54.059Z</time></trkpt><trkpt lat="45.4329917" lon="11.466845"><ele>100.25</ele><time>2026-03-22T09:48:55.06Z</time></trkpt><trkpt lat="45.4329367" lon="11.4670017"><ele>99.5</ele><time>2026-03-22T09:48:56.06Z</time></trkpt><trkpt lat="45.4328717" lon="11.46716"><ele>98.75</ele><time>2026-03-22T09:48:57.06Z</time></trkpt><trkpt lat="45.4327833" lon="11.4673067"><ele>98.0</ele><time>2026-03-22T09:48:58.06Z</time></trkpt><trkpt lat="45.4326717" lon="11.4674217"><ele>98.0</ele><time>2026-03-22T09:48:59.06Z</time></trkpt><trkpt lat="45.4325317" lon="11.467505"><ele>98.0</ele><time>2026-03-22T09:49:00.06Z</time></trkpt><trkpt lat="45.4323833" lon="11.46758"><ele>98.0</ele><time>2026-03-22T09:49:01.06Z</time></trkpt><trkpt lat="45.4322333" lon="11.46765"><ele>97.33333333333333</ele><time>2026-03-22T09:49:02.06Z</time></trkpt><trkpt lat="45.4320783" lon="11.4677233"><ele>96.66666666666666</ele><time>2026-03-22T09:49:03.059Z</time></trkpt><trkpt lat="45.43193" lon="11.467795"><ele>96.0</ele><time>2026-03-22T09:49:04.06Z</time></trkpt><trkpt lat="45.4317783" lon="11.4678667"><ele>96.0</ele><time>2026-03-22T09:49:05.06Z</time></trkpt><trkpt lat="45.4316233" lon="11.4679367"><ele>96.0</ele><time>2026-03-22T09:49:06.06Z</time></trkpt><trkpt lat="45.4314833" lon="11.468005"><ele>96.0</ele><time>2026-03-22T09:49:07.06Z</time></trkpt><trkpt lat="45.4313367" lon="11.4680783"><ele>92.0</ele><time>2026-03-22T09:49:08.06Z</time></trkpt><trkpt lat="45.431195" lon="11.46816"><ele>88.0</ele><time>2026-03-22T09:49:09.059Z</time></trkpt><trkpt lat="45.4310583" lon="11.4682633"><ele>84.0</ele><time>2026-03-22T09:49:10.06Z</time></trkpt><trkpt lat="45.4309283" lon="11.46836"><ele>84.0</ele><time>2026-03-22T09:49:11.06Z</time></trkpt><trkpt lat="45.4308233" lon="11.4684667"><ele>84.0</ele><time>2026-03-22T09:49:12.06Z</time></trkpt><trkpt lat="45.4307083" lon="11.4685733"><ele>84.0</ele><time>2026-03-22T09:49:13.06Z</time></trkpt><trkpt lat="45.4305933" lon="11.468675"><ele>84.0</ele><time>2026-03-22T09:49:14.059Z</time></trkpt><trkpt lat="45.430455" lon="11.4687467"><ele>80.5</ele><time>2026-03-22T09:49:15.059Z</time></trkpt><trkpt lat="45.4303217" lon="11.4688017"><ele>77.0</ele><time>2026-03-22T09:49:16.06Z</time></trkpt><trkpt lat="45.4302" lon="11.468875"><ele>73.5</ele><time>2026-03-22T09:49:17.06Z</time></trkpt><trkpt lat="45.430075" lon="11.4689767"><ele>70.0</ele><time>2026-03-22T09:49:18.06Z</time></trkpt><trkpt lat="45.429965" lon="11.46912"><ele>70.0</ele><time>2026-03-22T09:49:19.06Z</time></trkpt><trkpt lat="45.429855" lon="11.4692583"><ele>70.0</ele><time>2026-03-22T09:49:20.06Z</time></trkpt><trkpt lat="45.4297333" lon="11.46939"><ele>70.0</ele><time>2026-03-22T09:49:21.06Z</time></trkpt><trkpt lat="45.42961" lon="11.4694983"><ele>70.0</ele><time>2026-03-22T09:49:22.059Z</time></trkpt><trkpt lat="45.4294733" lon="11.4695933"><ele>66.66666666666666</ele><time>2026-03-22T09:49:23.06Z</time></trkpt><trkpt lat="45.429335" lon="11.4696683"><ele>63.33333333333333</ele><time>2026-03-22T09:49:24.06Z</time></trkpt><trkpt lat="45.4291883" lon="11.4697533"><ele>60.0</ele><time>2026-03-22T09:49:25.06Z</time></trkpt><trkpt lat="45.42905" lon="11.4698333"><ele>60.0</ele><time>2026-03-22T09:49:26.06Z</time></trkpt><trkpt lat="45.428915" lon="11.4699167"><ele>60.0</ele><time>2026-03-22T09:49:27.06Z</time></trkpt><trkpt lat="45.4287867" lon="11.46999"><ele>60.0</ele><time>2026-03-22T09:49:28.06Z</time></trkpt><trkpt lat="45.4286617" lon="11.4700633"><ele>60.0</ele><time>2026-03-22T09:49:29.06Z</time></trkpt><trkpt lat="45.4285383" lon="11.4701383"><ele>57.5</ele><time>2026-03-22T09:49:30.059Z</time></trkpt><trkpt lat="45.428415" lon="11.470215"><ele>55.0</ele><time>2026-03-22T09:49:31.06Z</time></trkpt><trkpt lat="45.4282817" lon="11.470295"><ele>52.5</ele><time>2026-03-22T09:49:32.06Z</time></trkpt><trkpt lat="45.4281467" lon="11.4703817"><ele>50.0</ele><time>2026-03-22T09:49:33.059Z</time></trkpt><trkpt lat="45.42804" lon="11.4704883"><ele>52.0</ele><time>2026-03-22T09:49:34.06Z</time></trkpt><trkpt lat="45.4279267" lon="11.4706267"><ele>54.0</ele><time>2026-03-22T09:49:35.06Z</time></trkpt><trkpt lat="45.42783" lon="11.470795"><ele>56.0</ele><time>2026-03-22T09:49:36.06Z</time></trkpt><trkpt lat="45.4277417" lon="11.470985"><ele>56.0</ele><time>2026-03-22T09:49:37.06Z</time></trkpt><trkpt lat="45.4276783" lon="11.4711767"><ele>56.0</ele><time>2026-03-22T09:49:38.06Z</time></trkpt><trkpt lat="45.42763" lon="11.4713867"><ele>56.0</ele><time>2026-03-22T09:49:39.06Z</time></trkpt><trkpt lat="45.42758" lon="11.4715783"><ele>56.0</ele><time>2026-03-22T09:49:40.059Z</time></trkpt><trkpt lat="45.4275333" lon="11.4717667"><ele>54.25</ele><time>2026-03-22T09:49:41.06Z</time></trkpt><trkpt lat="45.4274967" lon="11.4719567"><ele>52.5</ele><time>2026-03-22T09:49:42.06Z</time></trkpt><trkpt lat="45.4274417" lon="11.4721317"><ele>50.75</ele><time>2026-03-22T09:49:43.06Z</time></trkpt><trkpt lat="45.4273533" lon="11.4722933"><ele>49.0</ele><time>2026-03-22T09:49:44.06Z</time></trkpt><trkpt lat="45.4272433" lon="11.47243"><ele>49.5</ele><time>2026-03-22T09:49:45.06Z</time></trkpt><trkpt lat="45.4271283" lon="11.472555"><ele>50.0</ele><time>2026-03-22T09:49:46.06Z</time></trkpt><trkpt lat="45.4270183" lon="11.4726767"><ele>50.5</ele><time>2026-03-22T09:49:47.06Z</time></trkpt><trkpt lat="45.426905" lon="11.4727867"><ele>51.0</ele><time>2026-03-22T09:49:48.06Z</time></trkpt><trkpt lat="45.4267967" lon="11.472895"><ele>49.25</ele><time>2026-03-22T09:49:49.059Z</time></trkpt><trkpt lat="45.4266917" lon="11.4730067"><ele>47.5</ele><time>2026-03-22T09:49:50.06Z</time></trkpt><trkpt lat="45.4265833" lon="11.4731133"><ele>45.75</ele><time>2026-03-22T09:49:51.06Z</time></trkpt><trkpt lat="45.4264867" lon="11.473215"><ele>44.0</ele><time>2026-03-22T09:49:52.059Z</time></trkpt><trkpt lat="45.426385" lon="11.4733167"><ele>45.0</ele><time>2026-03-22T09:49:53.06Z</time></trkpt><trkpt lat="45.426285" lon="11.4734133"><ele>46.0</ele><time>2026-03-22T09:49:54.06Z</time></trkpt><trkpt lat="45.426185" lon="11.4735117"><ele>47.0</ele><time>2026-03-22T09:49:55.06Z</time></trkpt><trkpt lat="45.426085" lon="11.4735967"><ele>48.0</ele><time>2026-03-22T09:49:56.06Z</time></trkpt><trkpt lat="45.42598" lon="11.47368"><ele>48.0</ele><time>2026-03-22T09:49:57.059Z</time></trkpt><trkpt lat="45.42587" lon="11.4737533"><ele>48.0</ele><time>2026-03-22T09:49:58.06Z</time></trkpt><trkpt lat="45.4257533" lon="11.4738117"><ele>48.0</ele><time>2026-03-22T09:49:59.06Z</time></trkpt><trkpt lat="45.4256367" lon="11.4738533"><ele>48.0</ele><time>2026-03-22T09:50:00.06Z</time></trkpt><trkpt lat="45.4255067" lon="11.4738817"><ele>46.599999999999994</ele><time>2026-03-22T09:50:01.059Z</time></trkpt><trkpt lat="45.425375" lon="11.473885"><ele>45.199999999999996</ele><time>2026-03-22T09:50:02.06Z</time></trkpt><trkpt lat="45.4252617" lon="11.4738783"><ele>43.8</ele><time>2026-03-22T09:50:03.06Z</time></trkpt><trkpt lat="45.4251617" lon="11.4738567"><ele>42.4</ele><time>2026-03-22T09:50:04.06Z</time></trkpt><trkpt lat="45.4250717" lon="11.473835"><ele>41.0</ele><time>2026-03-22T09:50:05.06Z</time></trkpt><trkpt lat="45.4249883" lon="11.4737967"><ele>41.0</ele><time>2026-03-22T09:50:06.06Z</time></trkpt><trkpt lat="45.42492" lon="11.47377"><ele>41.0</ele><time>2026-03-22T09:50:07.06Z</time></trkpt><trkpt lat="45.4248567" lon="11.47377"><ele>41.0</ele><time>2026-03-22T09:50:08.06Z</time></trkpt><trkpt lat="45.4247917" lon="11.47389"><ele>41.0</ele><time>2026-03-22T09:50:10.06Z</time></trkpt><trkpt lat="45.4247583" lon="11.474085"><ele>41.0</ele><time>2026-03-22T09:50:12.06Z</time></trkpt><trkpt lat="45.4247633" lon="11.4742667"><ele>41.0</ele><time>2026-03-22T09:50:13.06Z</time></trkpt><trkpt lat="45.4247667" lon="11.4744583"><ele>41.0</ele><time>2026-03-22T09:50:14.059Z</time></trkpt><trkpt lat="45.424755" lon="11.47466"><ele>41.0</ele><time>2026-03-22T09:50:15.06Z</time></trkpt><trkpt lat="45.42473" lon="11.474865"><ele>41.0</ele><time>2026-03-22T09:50:16.06Z</time></trkpt><trkpt lat="45.42469" lon="11.4750733"><ele>41.5</ele><time>2026-03-22T09:50:17.06Z</time></trkpt><trkpt lat="45.42464" lon="11.4752767"><ele>42.0</ele><time>2026-03-22T09:50:18.059Z</time></trkpt><trkpt lat="45.42457" lon="11.4754667"><ele>42.5</ele><time>2026-03-22T09:50:19.06Z</time></trkpt><trkpt lat="45.4244933" lon="11.4756417"><ele>43.0</ele><time>2026-03-22T09:50:20.06Z</time></trkpt><trkpt lat="45.4244267" lon="11.4757867"><ele>43.0</ele><time>2026-03-22T09:50:21.06Z</time></trkpt><trkpt lat="45.42437" lon="11.4759167"><ele>43.0</ele><time>2026-03-22T09:50:22.059Z</time></trkpt><trkpt lat="45.42432" lon="11.4760233"><ele>43.0</ele><time>2026-03-22T09:50:23.059Z</time></trkpt><trkpt lat="45.4242767" lon="11.47611"><ele>43.0</ele><time>2026-03-22T09:50:24.06Z</time></trkpt><trkpt lat="45.424225" lon="11.476175"><ele>43.0</ele><time>2026-03-22T09:50:25.06Z</time></trkpt><trkpt lat="45.424165" lon="11.4762383"><ele>43.0</ele><time>2026-03-22T09:50:26.059Z</time></trkpt><trkpt lat="45.4241067" lon="11.4762983"><ele>44.599999999999994</ele><time>2026-03-22T09:50:27.06Z</time></trkpt><trkpt lat="45.4240133" lon="11.4763967"><ele>46.199999999999996</ele><time>2026-03-22T09:50:29.06Z</time></trkpt><trkpt lat="45.4240133" lon="11.4765133"><ele>47.8</ele><time>2026-03-22T09:50:31.06Z</time></trkpt><trkpt lat="45.4240183" lon="11.476605"><ele>49.4</ele><time>2026-03-22T09:50:32.059Z</time></trkpt><trkpt lat="45.424025" lon="11.4767283"><ele>51.0</ele><time>2026-03-22T09:50:33.06Z</time></trkpt><trkpt lat="45.4240183" lon="11.4768867"><ele>51.0</ele><time>2026-03-22T09:50:34.06Z</time></trkpt><trkpt lat="45.42401" lon="11.47704"><ele>51.0</ele><time>2026-03-22T09:50:35.06Z</time></trkpt><trkpt lat="45.4239833" lon="11.4771817"><ele>51.0</ele><time>2026-03-22T09:50:36.06Z</time></trkpt><trkpt lat="45.42394" lon="11.477305"><ele>51.0</ele><time>2026-03-22T09:50:37.06Z</time></trkpt><trkpt lat="45.4238717" lon="11.4774083"><ele>51.0</ele><time>2026-03-22T09:50:38.06Z</time></trkpt><trkpt lat="45.4238067" lon="11.47745"><ele>54.199999999999996</ele><time>2026-03-22T09:50:39.06Z</time></trkpt><trkpt lat="45.4237333" lon="11.4774717"><ele>57.4</ele><time>2026-03-22T09:50:40.06Z</time></trkpt><trkpt lat="45.4236117" lon="11.4774067"><ele>60.6</ele><time>2026-03-22T09:50:42.06Z</time></trkpt><trkpt lat="45.4235583" lon="11.4773317"><ele>63.8</ele><time>2026-03-22T09:50:43.06Z</time></trkpt><trkpt lat="45.423505" lon="11.4772217"><ele>67.0</ele><time>2026-03-22T09:50:44.06Z</time></trkpt><trkpt lat="45.4234467" lon="11.4770717"><ele>68.6</ele><time>2026-03-22T09:50:45.06Z</time></trkpt><trkpt lat="45.42341" lon="11.476905"><ele>70.2</ele><time>2026-03-22T09:50:46.06Z</time></trkpt><trkpt lat="45.4234" lon="11.4767583"><ele>71.8</ele><time>2026-03-22T09:50:47.06Z</time></trkpt><trkpt lat="45.423395" lon="11.4766267"><ele>73.4</ele><time>2026-03-22T09:50:48.06Z</time></trkpt><trkpt lat="45.4233917" lon="11.4765167"><ele>75.0</ele><time>2026-03-22T09:50:49.06Z</time></trkpt><trkpt lat="45.4233767" lon="11.4764233"><ele>75.0</ele><time>2026-03-22T09:50:50.059Z</time></trkpt><trkpt lat="45.4233533" lon="11.47634"><ele>75.0</ele><time>2026-03-22T09:50:51.06Z</time></trkpt><trkpt lat="45.4232667" lon="11.476265"><ele>75.0</ele><time>2026-03-22T09:50:53.06Z</time></trkpt><trkpt lat="45.423185" lon="11.4762"><ele>75.0</ele><time>2026-03-22T09:50:55.059Z</time></trkpt><trkpt lat="45.4231117" lon="11.4762367"><ele>75.0</ele><time>2026-03-22T09:50:58.06Z</time></trkpt><trkpt lat="45.4230583" lon="11.476295"><ele>75.0</ele><time>2026-03-22T09:51:00.06Z</time></trkpt><trkpt lat="45.4229933" lon="11.4764183"><ele>79.0</ele><time>2026-03-22T09:51:02.059Z</time></trkpt><trkpt lat="45.4228917" lon="11.4765283"><ele>83.0</ele><time>2026-03-22T09:51:03.06Z</time></trkpt><trkpt lat="45.422785" lon="11.4766117"><ele>87.0</ele><time>2026-03-22T09:51:04.059Z</time></trkpt><trkpt lat="45.422695" lon="11.4766767"><ele>91.0</ele><time>2026-03-22T09:51:05.06Z</time></trkpt><trkpt lat="45.4226117" lon="11.47672"><ele>95.0</ele><time>2026-03-22T09:51:06.06Z</time></trkpt><trkpt lat="45.422535" lon="11.4767533"><ele>95.0</ele><time>2026-03-22T09:51:07.06Z</time></trkpt><trkpt lat="45.4224383" lon="11.4767767"><ele>95.0</ele><time>2026-03-22T09:51:08.06Z</time></trkpt><trkpt lat="45.422345" lon="11.4767867"><ele>95.0</ele><time>2026-03-22T09:51:09.06Z</time></trkpt><trkpt lat="45.4222733" lon="11.4767717"><ele>95.0</ele><time>2026-03-22T09:51:10.06Z</time></trkpt><trkpt lat="45.4221933" lon="11.4767517"><ele>95.0</ele><time>2026-03-22T09:51:11.06Z</time></trkpt><trkpt lat="45.422115" lon="11.4767217"><ele>95.0</ele><time>2026-03-22T09:51:12.06Z</time></trkpt><trkpt lat="45.4220283" lon="11.4766933"><ele>98.6</ele><time>2026-03-22T09:51:13.06Z</time></trkpt><trkpt lat="45.4219467" lon="11.4766567"><ele>102.2</ele><time>2026-03-22T09:51:14.06Z</time></trkpt><trkpt lat="45.421865" lon="11.4766"><ele>105.80000000000001</ele><time>2026-03-22T09:51:15.059Z</time></trkpt><trkpt lat="45.4217783" lon="11.4765433"><ele>109.4</ele><time>2026-03-22T09:51:16.059Z</time></trkpt><trkpt lat="45.4216867" lon="11.4764817"><ele>113.0</ele><time>2026-03-22T09:51:17.06Z</time></trkpt><trkpt lat="45.4215783" lon="11.4764217"><ele>113.0</ele><time>2026-03-22T09:51:18.059Z</time></trkpt><trkpt lat="45.4214667" lon="11.476365"><ele>113.00000000000001</ele><time>2026-03-22T09:51:19.06Z</time></trkpt><trkpt lat="45.4213767" lon="11.4763233"><ele>113.00000000000001</ele><time>2026-03-22T09:51:20.06Z</time></trkpt><trkpt lat="45.421295" lon="11.4762717"><ele>113.0</ele><time>2026-03-22T09:51:21.06Z</time></trkpt><trkpt lat="45.4212183" lon="11.4762"><ele>113.0</ele><time>2026-03-22T09:51:22.06Z</time></trkpt><trkpt lat="45.4211433" lon="11.4761167"><ele>115.80000000000001</ele><time>2026-03-22T09:51:23.06Z</time></trkpt><trkpt lat="45.4210433" lon="11.47603"><ele>118.60000000000001</ele><time>2026-03-22T09:51:24.06Z</time></trkpt><trkpt lat="45.420935" lon="11.4759567"><ele>121.39999999999999</ele><time>2026-03-22T09:51:25.06Z</time></trkpt><trkpt lat="45.420845" lon="11.475885"><ele>124.19999999999999</ele><time>2026-03-22T09:51:26.06Z</time></trkpt><trkpt lat="45.4207717" lon="11.47582"><ele>127.0</ele><time>2026-03-22T09:51:27.06Z</time></trkpt><trkpt lat="45.420715" lon="11.47576"><ele>127.0</ele><time>2026-03-22T09:51:28.06Z</time></trkpt><trkpt lat="45.42064" lon="11.4757133"><ele>126.99999999999999</ele><time>2026-03-22T09:51:30.06Z</time></trkpt><trkpt lat="45.4206083" lon="11.4758933"><ele>126.99999999999999</ele><time>2026-03-22T09:52:18.06Z</time></trkpt><trkpt lat="45.4205733" lon="11.4760367"><ele>127.0</ele><time>2026-03-22T09:52:19.06Z</time></trkpt><trkpt lat="45.4205433" lon="11.476185"><ele>127.0</ele><time>2026-03-22T09:52:20.06Z</time></trkpt><trkpt lat="45.4205017" lon="11.4763333"><ele>134.0</ele><time>2026-03-22T09:52:21.059Z</time></trkpt><trkpt lat="45.4204633" lon="11.4764833"><ele>141.0</ele><time>2026-03-22T09:52:22.06Z</time></trkpt><trkpt lat="45.4204283" lon="11.4766267"><ele>148.0</ele><time>2026-03-22T09:52:23.06Z</time></trkpt><trkpt lat="45.4204117" lon="11.4767533"><ele>155.0</ele><time>2026-03-22T09:52:24.06Z</time></trkpt><trkpt lat="45.4203967" lon="11.4768817"><ele>162.0</ele><time>2026-03-22T09:52:25.06Z</time></trkpt><trkpt lat="45.4203767" lon="11.47702"><ele>162.83333333333334</ele><time>2026-03-22T09:52:26.059Z</time></trkpt><trkpt lat="45.4203567" lon="11.4771483"><ele>163.66666666666666</ele><time>2026-03-22T09:52:27.059Z</time></trkpt><trkpt lat="45.4203333" lon="11.4772583"><ele>164.5</ele><time>2026-03-22T09:52:28.06Z</time></trkpt><trkpt lat="45.4203067" lon="11.4773583"><ele>165.33333333333331</ele><time>2026-03-22T09:52:29.059Z</time></trkpt><trkpt lat="45.4202817" lon="11.4774433"><ele>166.16666666666666</ele><time>2026-03-22T09:52:30.06Z</time></trkpt><trkpt lat="45.4202367" lon="11.4776033"><ele>167.0</ele><time>2026-03-22T09:52:32.059Z</time></trkpt><trkpt lat="45.4201833" lon="11.4777667"><ele>167.0</ele><time>2026-03-22T09:52:34.059Z</time></trkpt><trkpt lat="45.4201517" lon="11.4778533"><ele>167.0</ele><time>2026-03-22T09:52:35.06Z</time></trkpt><trkpt lat="45.4201067" lon="11.47794"><ele>167.0</ele><time>2026-03-22T09:52:36.06Z</time></trkpt><trkpt lat="45.4200583" lon="11.4780367"><ele>167.0</ele><time>2026-03-22T09:52:37.06Z</time></trkpt><trkpt lat="45.420005" lon="11.4781417"><ele>167.0</ele><time>2026-03-22T09:52:38.06Z</time></trkpt><trkpt lat="45.4199533" lon="11.4782333"><ele>167.0</ele><time>2026-03-22T09:52:39.06Z</time></trkpt><trkpt lat="45.4198967" lon="11.4783383"><ele>166.66666666666666</ele><time>2026-03-22T09:52:40.06Z</time></trkpt><trkpt lat="45.4198417" lon="11.4784467"><ele>166.33333333333331</ele><time>2026-03-22T09:52:41.06Z</time></trkpt><trkpt lat="45.4197967" lon="11.4785633"><ele>166.0</ele><time>2026-03-22T09:52:42.06Z</time></trkpt><trkpt lat="45.4197483" lon="11.4786667"><ele>165.66666666666666</ele><time>2026-03-22T09:52:43.06Z</time></trkpt><trkpt lat="45.4197" lon="11.4787767"><ele>165.33333333333334</ele><time>2026-03-22T09:52:44.06Z</time></trkpt><trkpt lat="45.4196617" lon="11.4788783"><ele>165.0</ele><time>2026-03-22T09:52:45.059Z</time></trkpt><trkpt lat="45.41962" lon="11.4789833"><ele>169.33333333333334</ele><time>2026-03-22T09:52:46.06Z</time></trkpt><trkpt lat="45.4195583" lon="11.4791083"><ele>173.66666666666666</ele><time>2026-03-22T09:52:47.06Z</time></trkpt><trkpt lat="45.4195" lon="11.479195"><ele>178.0</ele><time>2026-03-22T09:52:48.06Z</time></trkpt><trkpt lat="45.4194417" lon="11.47927"><ele>182.33333333333331</ele><time>2026-03-22T09:52:49.06Z</time></trkpt><trkpt lat="45.4193733" lon="11.4793383"><ele>186.66666666666666</ele><time>2026-03-22T09:52:50.06Z</time></trkpt><trkpt lat="45.4193083" lon="11.4793967"><ele>191.0</ele><time>2026-03-22T09:52:51.06Z</time></trkpt><trkpt lat="45.41923" lon="11.4794483"><ele>191.0</ele><time>2026-03-22T09:52:52.059Z</time></trkpt><trkpt lat="45.4191583" lon="11.4794933"><ele>191.0</ele><time>2026-03-22T09:52:53.06Z</time></trkpt><trkpt lat="45.4190533" lon="11.4795133"><ele>191.0</ele><time>2026-03-22T09:52:54.06Z</time></trkpt><trkpt lat="45.4189933" lon="11.4795533"><ele>191.0</ele><time>2026-03-22T09:52:55.06Z</time></trkpt><trkpt lat="45.4189483" lon="11.4796183"><ele>191.0</ele><time>2026-03-22T09:52:56.06Z</time></trkpt><trkpt lat="45.418905" lon="11.479785"><ele>191.0</ele><time>2026-03-22T09:52:58.06Z</time></trkpt><trkpt lat="45.4188617" lon="11.47986"><ele>188.5</ele><time>2026-03-22T09:52:59.06Z</time></trkpt><trkpt lat="45.4188183" lon="11.4799433"><ele>186.0</ele><time>2026-03-22T09:53:00.06Z</time></trkpt><trkpt lat="45.418775" lon="11.480025"><ele>183.5</ele><time>2026-03-22T09:53:01.06Z</time></trkpt><trkpt lat="45.41873" lon="11.4801017"><ele>181.0</ele><time>2026-03-22T09:53:02.06Z</time></trkpt><trkpt lat="45.4186517" lon="11.4802283"><ele>178.5</ele><time>2026-03-22T09:53:04.06Z</time></trkpt><trkpt lat="45.4185833" lon="11.4803217"><ele>176.0</ele><time>2026-03-22T09:53:06.06Z</time></trkpt><trkpt lat="45.4185117" lon="11.48043"><ele>178.60000000000002</ele><time>2026-03-22T09:53:08.06Z</time></trkpt><trkpt lat="45.4184183" lon="11.4805117"><ele>181.2</ele><time>2026-03-22T09:53:10.06Z</time></trkpt><trkpt lat="45.4183467" lon="11.480555"><ele>183.8</ele><time>2026-03-22T09:53:12.06Z</time></trkpt><trkpt lat="45.4182483" lon="11.4806367"><ele>186.39999999999998</ele><time>2026-03-22T09:53:14.06Z</time></trkpt><trkpt lat="45.4181817" lon="11.480725"><ele>189.0</ele><time>2026-03-22T09:53:16.06Z</time></trkpt><trkpt lat="45.4180967" lon="11.4807917"><ele>189.0</ele><time>2026-03-22T09:53:17.06Z</time></trkpt><trkpt lat="45.418025" lon="11.4808533"><ele>189.0</ele><time>2026-03-22T09:53:18.06Z</time></trkpt><trkpt lat="45.41796" lon="11.4809117"><ele>189.0</ele><time>2026-03-22T09:53:19.059Z</time></trkpt><trkpt lat="45.4178917" lon="11.4809683"><ele>189.0</ele><time>2026-03-22T09:53:20.06Z</time></trkpt><trkpt lat="45.417815" lon="11.4810267"><ele>189.0</ele><time>2026-03-22T09:53:21.06Z</time></trkpt><trkpt lat="45.4177283" lon="11.481095"><ele>189.0</ele><time>2026-03-22T09:53:22.06Z</time></trkpt><trkpt lat="45.41766" lon="11.4811433"><ele>191.5</ele><time>2026-03-22T09:53:23.06Z</time></trkpt><trkpt lat="45.4175983" lon="11.4811867"><ele>194.0</ele><time>2026-03-22T09:53:24.06Z</time></trkpt><trkpt lat="45.4175217" lon="11.4812483"><ele>196.5</ele><time>2026-03-22T09:53:26.06Z</time></trkpt><trkpt lat="45.4174617" lon="11.4812983"><ele>199.0</ele><time>2026-03-22T09:53:28.06Z</time></trkpt><trkpt lat="45.4173967" lon="11.4813267"><ele>201.5</ele><time>2026-03-22T09:53:30.06Z</time></trkpt><trkpt lat="45.4173233" lon="11.48132"><ele>204.0</ele><time>2026-03-22T09:53:31.06Z</time></trkpt><trkpt lat="45.4172183" lon="11.4813017"><ele>208.5</ele><time>2026-03-22T09:53:32.06Z</time></trkpt><trkpt lat="45.4171483" lon="11.4814283"><ele>213.0</ele><time>2026-03-22T09:53:34.06Z</time></trkpt><trkpt lat="45.4171333" lon="11.4815483"><ele>217.5</ele><time>2026-03-22T09:53:35.06Z</time></trkpt><trkpt lat="45.4170917" lon="11.4816317"><ele>222.0</ele><time>2026-03-22T09:53:36.06Z</time></trkpt><trkpt lat="45.4170567" lon="11.481715"><ele>226.5</ele><time>2026-03-22T09:53:37.06Z</time></trkpt><trkpt lat="45.4170183" lon="11.481825"><ele>231.0</ele><time>2026-03-22T09:53:38.059Z</time></trkpt><trkpt lat="45.4169783" lon="11.4819133"><ele>231.0</ele><time>2026-03-22T09:53:39.06Z</time></trkpt><trkpt lat="45.4169283" lon="11.48198"><ele>231.00000000000003</ele><time>2026-03-22T09:53:40.06Z</time></trkpt><trkpt lat="45.4168317" lon="11.482015"><ele>231.00000000000003</ele><time>2026-03-22T09:53:41.06Z</time></trkpt><trkpt lat="45.416715" lon="11.48204"><ele>231.0</ele><time>2026-03-22T09:53:42.06Z</time></trkpt><trkpt lat="45.4165967" lon="11.4820733"><ele>231.0</ele><time>2026-03-22T09:53:43.06Z</time></trkpt><trkpt lat="45.4164833" lon="11.4821017"><ele>231.60000000000002</ele><time>2026-03-22T09:53:44.06Z</time></trkpt><trkpt lat="45.41638" lon="11.4821217"><ele>232.20000000000002</ele><time>2026-03-22T09:53:45.06Z</time></trkpt><trkpt lat="45.416285" lon="11.4821417"><ele>232.79999999999998</ele><time>2026-03-22T09:53:46.059Z</time></trkpt><trkpt lat="45.4161867" lon="11.4821583"><ele>233.39999999999998</ele><time>2026-03-22T09:53:47.059Z</time></trkpt><trkpt lat="45.4161017" lon="11.48217"><ele>234.0</ele><time>2026-03-22T09:53:48.059Z</time></trkpt><trkpt lat="45.4160283" lon="11.4821833"><ele>234.0</ele><time>2026-03-22T09:53:49.06Z</time></trkpt><trkpt lat="45.4159633" lon="11.4822167"><ele>233.99999999999997</ele><time>2026-03-22T09:53:50.06Z</time></trkpt><trkpt lat="45.41586" lon="11.482285"><ele>233.99999999999997</ele><time>2026-03-22T09:53:52.06Z</time></trkpt><trkpt lat="45.4157983" lon="11.482315"><ele>234.0</ele><time>2026-03-22T09:53:55.06Z</time></trkpt><trkpt lat="45.415835" lon="11.4825583"><ele>234.0</ele><time>2026-03-22T09:54:00.06Z</time></trkpt><trkpt lat="45.4158517" lon="11.4826683"><ele>234.0</ele><time>2026-03-22T09:54:01.06Z</time></trkpt><trkpt lat="45.4158483" lon="11.48285"><ele>234.0</ele><time>2026-03-22T09:54:03.06Z</time></trkpt><trkpt lat="45.415835" lon="11.4829567"><ele>234.0</ele><time>2026-03-22T09:54:04.06Z</time></trkpt><trkpt lat="45.415815" lon="11.4830583"><ele>234.0</ele><time>2026-03-22T09:54:05.06Z</time></trkpt><trkpt lat="45.4157833" lon="11.4831617"><ele>234.0</ele><time>2026-03-22T09:54:06.06Z</time></trkpt><trkpt lat="45.41573" lon="11.4832483"><ele>234.0</ele><time>2026-03-22T09:54:07.06Z</time></trkpt><trkpt lat="45.41567" lon="11.4833367"><ele>232.39999999999998</ele><time>2026-03-22T09:54:08.06Z</time></trkpt><trkpt lat="45.4156183" lon="11.4834033"><ele>230.79999999999998</ele><time>2026-03-22T09:54:09.06Z</time></trkpt><trkpt lat="45.41552" lon="11.4835"><ele>229.20000000000002</ele><time>2026-03-22T09:54:10.06Z</time></trkpt><trkpt lat="45.415455" lon="11.4835983"><ele>227.60000000000002</ele><time>2026-03-22T09:54:11.06Z</time></trkpt><trkpt lat="45.4153883" lon="11.4836633"><ele>226.0</ele><time>2026-03-22T09:54:12.06Z</time></trkpt><trkpt lat="45.4153133" lon="11.4837517"><ele>228.60000000000002</ele><time>2026-03-22T09:54:14.06Z</time></trkpt><trkpt lat="45.4152383" lon="11.4838317"><ele>231.20000000000002</ele><time>2026-03-22T09:54:17.06Z</time></trkpt><trkpt lat="45.4151583" lon="11.483905"><ele>233.79999999999998</ele><time>2026-03-22T09:54:39.06Z</time></trkpt><trkpt lat="45.4151" lon="11.4838133"><ele>236.39999999999998</ele><time>2026-03-22T09:55:25.06Z</time></trkpt><trkpt lat="45.4151233" lon="11.48368"><ele>239.0</ele><time>2026-03-22T09:55:27.06Z</time></trkpt><trkpt lat="45.41515" lon="11.483525"><ele>240.33333333333334</ele><time>2026-03-22T09:55:29.06Z</time></trkpt><trkpt lat="45.4151667" lon="11.4833467"><ele>241.66666666666669</ele><time>2026-03-22T09:55:31.06Z</time></trkpt><trkpt lat="45.415165" lon="11.4832467"><ele>243.0</ele><time>2026-03-22T09:55:32.06Z</time></trkpt><trkpt lat="45.4151483" lon="11.483155"><ele>244.33333333333331</ele><time>2026-03-22T09:55:33.06Z</time></trkpt><trkpt lat="45.41511" lon="11.483055"><ele>245.66666666666666</ele><time>2026-03-22T09:55:34.06Z</time></trkpt><trkpt lat="45.4150333" lon="11.4829567"><ele>247.0</ele><time>2026-03-22T09:55:35.06Z</time></trkpt><trkpt lat="45.4149533" lon="11.4828583"><ele>247.0</ele><time>2026-03-22T09:55:36.06Z</time></trkpt><trkpt lat="45.4148533" lon="11.4827583"><ele>247.0</ele><time>2026-03-22T09:55:37.06Z</time></trkpt><trkpt lat="45.414755" lon="11.48266"><ele>247.0</ele><time>2026-03-22T09:55:38.06Z</time></trkpt><trkpt lat="45.4146617" lon="11.482565"><ele>247.0</ele><time>2026-03-22T09:55:39.06Z</time></trkpt><trkpt lat="45.4145833" lon="11.48246"><ele>247.6</ele><time>2026-03-22T09:55:40.06Z</time></trkpt><trkpt lat="45.41452" lon="11.48234"><ele>248.2</ele><time>2026-03-22T09:55:41.06Z</time></trkpt><trkpt lat="45.4144667" lon="11.4822167"><ele>248.8</ele><time>2026-03-22T09:55:42.059Z</time></trkpt><trkpt lat="45.4144267" lon="11.482085"><ele>249.4</ele><time>2026-03-22T09:55:43.06Z</time></trkpt><trkpt lat="45.41439" lon="11.481955"><ele>250.0</ele><time>2026-03-22T09:55:44.059Z</time></trkpt><trkpt lat="45.4143533" lon="11.4818433"><ele>250.83333333333331</ele><time>2026-03-22T09:55:45.06Z</time></trkpt><trkpt lat="45.4143083" lon="11.4817533"><ele>251.66666666666666</ele><time>2026-03-22T09:55:46.06Z</time></trkpt><trkpt lat="45.4142517" lon="11.481675"><ele>252.5</ele><time>2026-03-22T09:55:47.059Z</time></trkpt><trkpt lat="45.4142017" lon="11.4816117"><ele>253.33333333333331</ele><time>2026-03-22T09:55:48.06Z</time></trkpt><trkpt lat="45.4141467" lon="11.48156"><ele>254.16666666666666</ele><time>2026-03-22T09:55:49.06Z</time></trkpt><trkpt lat="45.4140267" lon="11.481525"><ele>255.0</ele><time>2026-03-22T09:55:51.06Z</time></trkpt><trkpt lat="45.4139617" lon="11.4815317"><ele>255.0</ele><time>2026-03-22T09:55:52.06Z</time></trkpt><trkpt lat="45.4138833" lon="11.4815267"><ele>255.0</ele><time>2026-03-22T09:55:53.06Z</time></trkpt><trkpt lat="45.4137667" lon="11.4815167"><ele>255.0</ele><time>2026-03-22T09:55:54.06Z</time></trkpt><trkpt lat="45.4136583" lon="11.4814933"><ele>255.0</ele><time>2026-03-22T09:55:55.06Z</time></trkpt><trkpt lat="45.4135733" lon="11.48147"><ele>255.0</ele><time>2026-03-22T09:55:56.06Z</time></trkpt><trkpt lat="45.41348" lon="11.4814383"><ele>254.2</ele><time>2026-03-22T09:55:57.059Z</time></trkpt><trkpt lat="45.4133983" lon="11.4814067"><ele>253.4</ele><time>2026-03-22T09:55:58.06Z</time></trkpt><trkpt lat="45.4132967" lon="11.4813783"><ele>252.60000000000002</ele><time>2026-03-22T09:55:59.06Z</time></trkpt><trkpt lat="45.41318" lon="11.48135"><ele>251.8</ele><time>2026-03-22T09:56:00.06Z</time></trkpt><trkpt lat="45.4130867" lon="11.4813267"><ele>251.0</ele><time>2026-03-22T09:56:01.059Z</time></trkpt><trkpt lat="45.412995" lon="11.48131"><ele>250.66666666666669</ele><time>2026-03-22T09:56:02.06Z</time></trkpt><trkpt lat="45.4129067" lon="11.481295"><ele>250.33333333333334</ele><time>2026-03-22T09:56:03.06Z</time></trkpt><trkpt lat="45.4128267" lon="11.481275"><ele>250.0</ele><time>2026-03-22T09:56:04.06Z</time></trkpt><trkpt lat="45.4127617" lon="11.4812667"><ele>249.66666666666669</ele><time>2026-03-22T09:56:05.06Z</time></trkpt><trkpt lat="45.412695" lon="11.481265"><ele>249.33333333333334</ele><time>2026-03-22T09:56:06.06Z</time></trkpt><trkpt lat="45.41256" lon="11.481265"><ele>249.0</ele><time>2026-03-22T09:56:08.06Z</time></trkpt><trkpt lat="45.412485" lon="11.4812683"><ele>250.33333333333334</ele><time>2026-03-22T09:56:09.06Z</time></trkpt><trkpt lat="45.4124167" lon="11.48126"><ele>251.66666666666669</ele><time>2026-03-22T09:56:10.06Z</time></trkpt><trkpt lat="45.4122833" lon="11.4812417"><ele>253.0</ele><time>2026-03-22T09:56:12.06Z</time></trkpt><trkpt lat="45.4122183" lon="11.4812267"><ele>254.33333333333334</ele><time>2026-03-22T09:56:13.06Z</time></trkpt><trkpt lat="45.41215" lon="11.48123"><ele>255.66666666666669</ele><time>2026-03-22T09:56:14.06Z</time></trkpt><trkpt lat="45.412075" lon="11.4812267"><ele>257.0</ele><time>2026-03-22T09:56:15.06Z</time></trkpt><trkpt lat="45.41198" lon="11.481215"><ele>257.0</ele><time>2026-03-22T09:56:16.06Z</time></trkpt><trkpt lat="45.4119167" lon="11.4812017"><ele>257.0</ele><time>2026-03-22T09:56:17.059Z</time></trkpt><trkpt lat="45.4118067" lon="11.4811983"><ele>257.0</ele><time>2026-03-22T09:56:19.06Z</time></trkpt><trkpt lat="45.4117083" lon="11.4812"><ele>257.0</ele><time>2026-03-22T09:56:21.06Z</time></trkpt><trkpt lat="45.4116383" lon="11.4811767"><ele>257.0</ele><time>2026-03-22T09:56:23.06Z</time></trkpt><trkpt lat="45.4115767" lon="11.4811567"><ele>257.0</ele><time>2026-03-22T09:56:25.06Z</time></trkpt><trkpt lat="45.4115" lon="11.4811183"><ele>257.0</ele><time>2026-03-22T09:56:28.06Z</time></trkpt><trkpt lat="45.41144" lon="11.4810833"><ele>257.0</ele><time>2026-03-22T09:56:30.06Z</time></trkpt><trkpt lat="45.41136" lon="11.48101"><ele>257.0</ele><time>2026-03-22T09:56:32.059Z</time></trkpt><trkpt lat="45.411315" lon="11.480945"><ele>257.0</ele><time>2026-03-22T09:56:33.059Z</time></trkpt><trkpt lat="45.4112617" lon="11.4808767"><ele>257.0</ele><time>2026-03-22T09:56:34.06Z</time></trkpt><trkpt lat="45.411215" lon="11.4808033"><ele>257.0</ele><time>2026-03-22T09:56:35.059Z</time></trkpt><trkpt lat="45.41118" lon="11.4806533"><ele>253.83333333333334</ele><time>2026-03-22T09:56:37.06Z</time></trkpt><trkpt lat="45.4111817" lon="11.4805583"><ele>250.66666666666669</ele><time>2026-03-22T09:56:38.06Z</time></trkpt><trkpt lat="45.4111667" lon="11.4804"><ele>247.5</ele><time>2026-03-22T09:56:40.06Z</time></trkpt><trkpt lat="45.4111333" lon="11.4802833"><ele>244.33333333333331</ele><time>2026-03-22T09:56:42.059Z</time></trkpt><trkpt lat="45.41111" lon="11.480175"><ele>241.16666666666666</ele><time>2026-03-22T09:56:45.059Z</time></trkpt><trkpt lat="45.4110417" lon="11.4801667"><ele>238.0</ele><time>2026-03-22T09:56:48.06Z</time></trkpt><trkpt lat="45.41097" lon="11.48023"><ele>238.0</ele><time>2026-03-22T09:56:50.06Z</time></trkpt><trkpt lat="45.4109117" lon="11.4803483"><ele>238.0</ele><time>2026-03-22T09:56:52.059Z</time></trkpt><trkpt lat="45.4108933" lon="11.4804933"><ele>238.0</ele><time>2026-03-22T09:56:54.06Z</time></trkpt><trkpt lat="45.4108833" lon="11.4806667"><ele>238.0</ele><time>2026-03-22T09:56:56.06Z</time></trkpt><trkpt lat="45.4108517" lon="11.4808"><ele>238.0</ele><time>2026-03-22T09:56:58.06Z</time></trkpt><trkpt lat="45.4107883" lon="11.4809017"><ele>237.71428571428572</ele><time>2026-03-22T09:57:00.06Z</time></trkpt><trkpt lat="45.4107" lon="11.4809117"><ele>237.42857142857144</ele><time>2026-03-22T09:57:02.06Z</time></trkpt><trkpt lat="45.4106183" lon="11.4809017"><ele>237.14285714285714</ele><time>2026-03-22T09:57:04.06Z</time></trkpt><trkpt lat="45.410555" lon="11.480905"><ele>236.85714285714286</ele><time>2026-03-22T09:57:06.059Z</time></trkpt><trkpt lat="45.4104917" lon="11.4808933"><ele>236.57142857142858</ele><time>2026-03-22T09:57:08.06Z</time></trkpt><trkpt lat="45.4104217" lon="11.4808867"><ele>236.28571428571428</ele><time>2026-03-22T09:57:10.06Z</time></trkpt><trkpt lat="45.4103433" lon="11.4808783"><ele>236.0</ele><time>2026-03-22T09:57:12.06Z</time></trkpt><trkpt lat="45.4102583" lon="11.480865"><ele>232.66666666666669</ele><time>2026-03-22T09:57:14.06Z</time></trkpt><trkpt lat="45.4101717" lon="11.4808467"><ele>229.33333333333334</ele><time>2026-03-22T09:57:17.06Z</time></trkpt><trkpt lat="45.41007" lon="11.480825"><ele>226.0</ele><time>2026-03-22T09:57:20.06Z</time></trkpt><trkpt lat="45.4099633" lon="11.480785"><ele>222.66666666666669</ele><time>2026-03-22T09:57:22.06Z</time></trkpt><trkpt lat="45.4098967" lon="11.4807433"><ele>219.33333333333334</ele><time>2026-03-22T09:57:23.06Z</time></trkpt><trkpt lat="45.40983" lon="11.4807017"><ele>216.0</ele><time>2026-03-22T09:57:24.059Z</time></trkpt><trkpt lat="45.4097667" lon="11.4806633"><ele>216.0</ele><time>2026-03-22T09:57:25.06Z</time></trkpt><trkpt lat="45.4096783" lon="11.480625"><ele>216.0</ele><time>2026-03-22T09:57:27.06Z</time></trkpt><trkpt lat="45.40959" lon="11.4806117"><ele>216.0</ele><time>2026-03-22T09:57:30.06Z</time></trkpt><trkpt lat="45.4096783" lon="11.4806183"><ele>216.0</ele><time>2026-03-22T09:57:38.06Z</time></trkpt><trkpt lat="45.4097433" lon="11.4806517"><ele>216.0</ele><time>2026-03-22T09:57:39.06Z</time></trkpt><trkpt lat="45.409805" lon="11.480685"><ele>216.0</ele><time>2026-03-22T09:57:40.06Z</time></trkpt><trkpt lat="45.4098883" lon="11.4807417"><ele>216.0</ele><time>2026-03-22T09:57:42.06Z</time></trkpt><trkpt lat="45.4099733" lon="11.4807883"><ele>216.00000000000003</ele><time>2026-03-22T09:57:44.06Z</time></trkpt><trkpt lat="45.41011" lon="11.4808533"><ele>216.00000000000003</ele><time>2026-03-22T09:57:46.06Z</time></trkpt><trkpt lat="45.4102" lon="11.480905"><ele>216.0</ele><time>2026-03-22T09:57:47.06Z</time></trkpt><trkpt lat="45.4102967" lon="11.48097"><ele>216.0</ele><time>2026-03-22T09:57:48.06Z</time></trkpt><trkpt lat="45.4104033" lon="11.481035"><ele>216.5</ele><time>2026-03-22T09:57:49.059Z</time></trkpt><trkpt lat="45.4105167" lon="11.4811183"><ele>217.0</ele><time>2026-03-22T09:57:50.059Z</time></trkpt><trkpt lat="45.4106317" lon="11.4812167"><ele>217.5</ele><time>2026-03-22T09:57:51.06Z</time></trkpt><trkpt lat="45.4107517" lon="11.4813233"><ele>218.0</ele><time>2026-03-22T09:57:52.06Z</time></trkpt><trkpt lat="45.4108733" lon="11.48144"><ele>218.0</ele><time>2026-03-22T09:57:53.06Z</time></trkpt><trkpt lat="45.4109917" lon="11.4815583"><ele>218.0</ele><time>2026-03-22T09:57:54.06Z</time></trkpt><trkpt lat="45.411105" lon="11.4816733"><ele>218.0</ele><time>2026-03-22T09:57:55.06Z</time></trkpt><trkpt lat="45.4112167" lon="11.4817767"><ele>218.0</ele><time>2026-03-22T09:57:56.059Z</time></trkpt><trkpt lat="45.4113283" lon="11.481875"><ele>218.0</ele><time>2026-03-22T09:57:57.059Z</time></trkpt><trkpt lat="45.4114383" lon="11.4819783"><ele>218.0</ele><time>2026-03-22T09:57:58.06Z</time></trkpt><trkpt lat="45.41155" lon="11.4820817"><ele>218.0</ele><time>2026-03-22T09:57:59.06Z</time></trkpt><trkpt lat="45.4116667" lon="11.4821617"><ele>218.0</ele><time>2026-03-22T09:58:00.059Z</time></trkpt><trkpt lat="45.4118" lon="11.4822417"><ele>218.0</ele><time>2026-03-22T09:58:01.06Z</time></trkpt><trkpt lat="45.4119317" lon="11.4823167"><ele>218.0</ele><time>2026-03-22T09:58:02.059Z</time></trkpt><trkpt lat="45.4120583" lon="11.4823833"><ele>218.0</ele><time>2026-03-22T09:58:03.06Z</time></trkpt><trkpt lat="45.4121833" lon="11.482455"><ele>218.0</ele><time>2026-03-22T09:58:04.059Z</time></trkpt><trkpt lat="45.4123083" lon="11.4825267"><ele>221.0</ele><time>2026-03-22T09:58:05.06Z</time></trkpt><trkpt lat="45.4124383" lon="11.4826033"><ele>224.0</ele><time>2026-03-22T09:58:06.06Z</time></trkpt><trkpt lat="45.4125717" lon="11.482675"><ele>227.0</ele><time>2026-03-22T09:58:07.06Z</time></trkpt><trkpt lat="45.4127" lon="11.4827417"><ele>230.0</ele><time>2026-03-22T09:58:08.06Z</time></trkpt><trkpt lat="45.41282" lon="11.482805"><ele>230.0</ele><time>2026-03-22T09:58:09.06Z</time></trkpt><trkpt lat="45.4129233" lon="11.482895"><ele>230.0</ele><time>2026-03-22T09:58:10.059Z</time></trkpt><trkpt lat="45.4130067" lon="11.4830083"><ele>230.0</ele><time>2026-03-22T09:58:11.06Z</time></trkpt><trkpt lat="45.41308" lon="11.48314"><ele>230.0</ele><time>2026-03-22T09:58:12.06Z</time></trkpt><trkpt lat="45.41315" lon="11.48327"><ele>229.4</ele><time>2026-03-22T09:58:13.06Z</time></trkpt><trkpt lat="45.413205" lon="11.4834033"><ele>228.8</ele><time>2026-03-22T09:58:14.06Z</time></trkpt><trkpt lat="45.4132433" lon="11.4835367"><ele>228.2</ele><time>2026-03-22T09:58:15.06Z</time></trkpt><trkpt lat="45.4132683" lon="11.4836717"><ele>227.6</ele><time>2026-03-22T09:58:16.059Z</time></trkpt><trkpt lat="45.4132817" lon="11.4838083"><ele>227.0</ele><time>2026-03-22T09:58:17.059Z</time></trkpt><trkpt lat="45.4132617" lon="11.483945"><ele>226.8</ele><time>2026-03-22T09:58:18.059Z</time></trkpt><trkpt lat="45.4132333" lon="11.484085"><ele>226.6</ele><time>2026-03-22T09:58:19.058Z</time></trkpt><trkpt lat="45.41319" lon="11.4842133"><ele>226.40000000000003</ele><time>2026-03-22T09:58:20.059Z</time></trkpt><trkpt lat="45.413135" lon="11.4843283"><ele>226.20000000000002</ele><time>2026-03-22T09:58:21.059Z</time></trkpt><trkpt lat="45.41308" lon="11.48444"><ele>226.0</ele><time>2026-03-22T09:58:22.058Z</time></trkpt><trkpt lat="45.4130183" lon="11.4845467"><ele>227.49999999999997</ele><time>2026-03-22T09:58:23.059Z</time></trkpt><trkpt lat="45.4129717" lon="11.4846633"><ele>229.0</ele><time>2026-03-22T09:58:24.059Z</time></trkpt><trkpt lat="45.4129333" lon="11.4847617"><ele>230.5</ele><time>2026-03-22T09:58:25.058Z</time></trkpt><trkpt lat="45.4128917" lon="11.4848333"><ele>232.0</ele><time>2026-03-22T09:58:26.059Z</time></trkpt><trkpt lat="45.4128433" lon="11.484895"><ele>233.49999999999997</ele><time>2026-03-22T09:58:27.059Z</time></trkpt><trkpt lat="45.412715" lon="11.4849433"><ele>235.0</ele><time>2026-03-22T09:58:29.059Z</time></trkpt><trkpt lat="45.41261" lon="11.484945"><ele>235.0</ele><time>2026-03-22T09:58:30.058Z</time></trkpt><trkpt lat="45.4124967" lon="11.4849567"><ele>235.0</ele><time>2026-03-22T09:58:31.059Z</time></trkpt><trkpt lat="45.4123733" lon="11.4849767"><ele>235.0</ele><time>2026-03-22T09:58:32.059Z</time></trkpt><trkpt lat="45.4122467" lon="11.4850117"><ele>235.0</ele><time>2026-03-22T09:58:33.058Z</time></trkpt><trkpt lat="45.41212" lon="11.4850517"><ele>234.5</ele><time>2026-03-22T09:58:34.059Z</time></trkpt><trkpt lat="45.4119867" lon="11.4850933"><ele>234.0</ele><time>2026-03-22T09:58:35.059Z</time></trkpt><trkpt lat="45.411865" lon="11.485145"><ele>233.5</ele><time>2026-03-22T09:58:36.059Z</time></trkpt><trkpt lat="45.4117367" lon="11.4852"><ele>233.0</ele><time>2026-03-22T09:58:37.059Z</time></trkpt><trkpt lat="45.4116167" lon="11.4852683"><ele>233.0</ele><time>2026-03-22T09:58:38.059Z</time></trkpt><trkpt lat="45.411505" lon="11.4853417"><ele>233.0</ele><time>2026-03-22T09:58:39.059Z</time></trkpt><trkpt lat="45.4113933" lon="11.4854217"><ele>233.0</ele><time>2026-03-22T09:58:40.059Z</time></trkpt><trkpt lat="45.4112817" lon="11.4855017"><ele>233.0</ele><time>2026-03-22T09:58:41.059Z</time></trkpt><trkpt lat="45.4111783" lon="11.4855917"><ele>232.0</ele><time>2026-03-22T09:58:42.059Z</time></trkpt><trkpt lat="45.4110783" lon="11.48569"><ele>231.0</ele><time>2026-03-22T09:58:43.059Z</time></trkpt><trkpt lat="45.4109767" lon="11.4857917"><ele>230.0</ele><time>2026-03-22T09:58:44.058Z</time></trkpt><trkpt lat="45.41089" lon="11.485895"><ele>229.0</ele><time>2026-03-22T09:58:45.059Z</time></trkpt><trkpt lat="45.4108033" lon="11.48598"><ele>228.99999999999997</ele><time>2026-03-22T09:58:46.059Z</time></trkpt><trkpt lat="45.410725" lon="11.486055"><ele>229.0</ele><time>2026-03-22T09:58:47.059Z</time></trkpt><trkpt lat="45.41065" lon="11.4861233"><ele>229.0</ele><time>2026-03-22T09:58:48.059Z</time></trkpt><trkpt lat="45.4105933" lon="11.4861917"><ele>229.0</ele><time>2026-03-22T09:58:49.059Z</time></trkpt><trkpt lat="45.41054" lon="11.4862617"><ele>228.99999999999997</ele><time>2026-03-22T09:58:50.058Z</time></trkpt><trkpt lat="45.410485" lon="11.48632"><ele>229.0</ele><time>2026-03-22T09:58:51.059Z</time></trkpt><trkpt lat="45.4103783" lon="11.4863883"><ele>228.79999999999998</ele><time>2026-03-22T09:58:53.059Z</time></trkpt><trkpt lat="45.4102617" lon="11.4864067"><ele>228.59999999999997</ele><time>2026-03-22T09:58:55.059Z</time></trkpt><trkpt lat="45.4101633" lon="11.48647"><ele>228.4</ele><time>2026-03-22T09:58:57.059Z</time></trkpt><trkpt lat="45.4100967" lon="11.4865117"><ele>228.2</ele><time>2026-03-22T09:58:59.058Z</time></trkpt><trkpt lat="45.41" lon="11.4865483"><ele>228.0</ele><time>2026-03-22T09:59:01.059Z</time></trkpt><trkpt lat="45.4098767" lon="11.4865833"><ele>228.0</ele><time>2026-03-22T09:59:03.058Z</time></trkpt><trkpt lat="45.4098117" lon="11.4866033"><ele>228.0</ele><time>2026-03-22T09:59:04.059Z</time></trkpt><trkpt lat="45.4097" lon="11.4866283"><ele>228.0</ele><time>2026-03-22T09:59:06.059Z</time></trkpt><trkpt lat="45.4096367" lon="11.486635"><ele>228.0</ele><time>2026-03-22T09:59:07.059Z</time></trkpt><trkpt lat="45.4095717" lon="11.4866283"><ele>228.0</ele><time>2026-03-22T09:59:08.059Z</time></trkpt><trkpt lat="45.409505" lon="11.4865983"><ele>228.0</ele><time>2026-03-22T09:59:09.059Z</time></trkpt><trkpt lat="45.4094267" lon="11.4865333"><ele>229.0</ele><time>2026-03-22T09:59:10.059Z</time></trkpt><trkpt lat="45.4093583" lon="11.4864583"><ele>230.0</ele><time>2026-03-22T09:59:11.059Z</time></trkpt><trkpt lat="45.4093017" lon="11.4863367"><ele>231.0</ele><time>2026-03-22T09:59:12.059Z</time></trkpt><trkpt lat="45.40926" lon="11.48621"><ele>232.0</ele><time>2026-03-22T09:59:13.059Z</time></trkpt><trkpt lat="45.40923" lon="11.4860883"><ele>233.0</ele><time>2026-03-22T09:59:14.059Z</time></trkpt><trkpt lat="45.4092183" lon="11.48597"><ele>233.00000000000003</ele><time>2026-03-22T09:59:15.059Z</time></trkpt><trkpt lat="45.4092083" lon="11.485855"><ele>233.0</ele><time>2026-03-22T09:59:16.059Z</time></trkpt><trkpt lat="45.4092" lon="11.4857433"><ele>233.0</ele><time>2026-03-22T09:59:17.059Z</time></trkpt><trkpt lat="45.4091933" lon="11.48563"><ele>233.0</ele><time>2026-03-22T09:59:18.059Z</time></trkpt><trkpt lat="45.4091817" lon="11.4855317"><ele>233.00000000000003</ele><time>2026-03-22T09:59:19.059Z</time></trkpt><trkpt lat="45.4091583" lon="11.4854317"><ele>233.0</ele><time>2026-03-22T09:59:20.059Z</time></trkpt><trkpt lat="45.4091317" lon="11.485335"><ele>231.66666666666669</ele><time>2026-03-22T09:59:21.059Z</time></trkpt><trkpt lat="45.409105" lon="11.4852417"><ele>230.33333333333334</ele><time>2026-03-22T09:59:22.059Z</time></trkpt><trkpt lat="45.4090667" lon="11.48515"><ele>229.0</ele><time>2026-03-22T09:59:23.059Z</time></trkpt><trkpt lat="45.40902" lon="11.4850533"><ele>227.66666666666669</ele><time>2026-03-22T09:59:24.059Z</time></trkpt><trkpt lat="45.4089667" lon="11.4849317"><ele>226.33333333333334</ele><time>2026-03-22T09:59:25.059Z</time></trkpt><trkpt lat="45.4088967" lon="11.4848433"><ele>225.0</ele><time>2026-03-22T09:59:26.059Z</time></trkpt><trkpt lat="45.4088167" lon="11.48478"><ele>224.83333333333334</ele><time>2026-03-22T09:59:27.059Z</time></trkpt><trkpt lat="45.4087383" lon="11.4847167"><ele>224.66666666666669</ele><time>2026-03-22T09:59:28.059Z</time></trkpt><trkpt lat="45.4086583" lon="11.4846583"><ele>224.5</ele><time>2026-03-22T09:59:29.059Z</time></trkpt><trkpt lat="45.4085883" lon="11.4846117"><ele>224.33333333333334</ele><time>2026-03-22T09:59:30.059Z</time></trkpt><trkpt lat="45.4085133" lon="11.4845633"><ele>224.16666666666669</ele><time>2026-03-22T09:59:31.059Z</time></trkpt><trkpt lat="45.4084517" lon="11.4845283"><ele>224.0</ele><time>2026-03-22T09:59:32.059Z</time></trkpt><trkpt lat="45.4083333" lon="11.4844567"><ele>224.0</ele><time>2026-03-22T09:59:34.059Z</time></trkpt><trkpt lat="45.408205" lon="11.484365"><ele>223.99999999999997</ele><time>2026-03-22T09:59:36.059Z</time></trkpt><trkpt lat="45.4081183" lon="11.4843133"><ele>223.99999999999997</ele><time>2026-03-22T09:59:37.059Z</time></trkpt><trkpt lat="45.4080283" lon="11.48427"><ele>224.0</ele><time>2026-03-22T09:59:38.059Z</time></trkpt><trkpt lat="45.4079383" lon="11.4842333"><ele>224.0</ele><time>2026-03-22T09:59:39.059Z</time></trkpt><trkpt lat="45.4078517" lon="11.4841967"><ele>225.79999999999998</ele><time>2026-03-22T09:59:40.058Z</time></trkpt><trkpt lat="45.40776" lon="11.4841417"><ele>227.59999999999997</ele><time>2026-03-22T09:59:41.059Z</time></trkpt><trkpt lat="45.407675" lon="11.4840767"><ele>229.4</ele><time>2026-03-22T09:59:42.059Z</time></trkpt><trkpt lat="45.407585" lon="11.4839967"><ele>231.2</ele><time>2026-03-22T09:59:43.059Z</time></trkpt><trkpt lat="45.4074983" lon="11.4839383"><ele>233.0</ele><time>2026-03-22T09:59:44.059Z</time></trkpt><trkpt lat="45.4074133" lon="11.483915"><ele>233.00000000000003</ele><time>2026-03-22T09:59:45.059Z</time></trkpt><trkpt lat="45.40732" lon="11.4839083"><ele>233.0</ele><time>2026-03-22T09:59:46.059Z</time></trkpt><trkpt lat="45.40723" lon="11.4839217"><ele>233.0</ele><time>2026-03-22T09:59:47.059Z</time></trkpt><trkpt lat="45.4071433" lon="11.4839433"><ele>233.0</ele><time>2026-03-22T09:59:48.059Z</time></trkpt><trkpt lat="45.4070617" lon="11.4839667"><ele>233.00000000000003</ele><time>2026-03-22T09:59:49.059Z</time></trkpt><trkpt lat="45.4069867" lon="11.4839883"><ele>233.0</ele><time>2026-03-22T09:59:50.059Z</time></trkpt><trkpt lat="45.406915" lon="11.4840033"><ele>232.16666666666669</ele><time>2026-03-22T09:59:51.059Z</time></trkpt><trkpt lat="45.4068433" lon="11.48402"><ele>231.33333333333334</ele><time>2026-03-22T09:59:52.059Z</time></trkpt><trkpt lat="45.40673" lon="11.4840967"><ele>230.5</ele><time>2026-03-22T09:59:54.059Z</time></trkpt><trkpt lat="45.40667" lon="11.4841517"><ele>229.66666666666669</ele><time>2026-03-22T09:59:55.059Z</time></trkpt><trkpt lat="45.4066133" lon="11.4842083"><ele>228.83333333333334</ele><time>2026-03-22T09:59:56.059Z</time></trkpt><trkpt lat="45.4065567" lon="11.4842533"><ele>228.0</ele><time>2026-03-22T09:59:57.059Z</time></trkpt><trkpt lat="45.4065067" lon="11.4843183"><ele>228.0</ele><time>2026-03-22T09:59:58.059Z</time></trkpt><trkpt lat="45.4064633" lon="11.4843983"><ele>228.0</ele><time>2026-03-22T09:59:59.059Z</time></trkpt><trkpt lat="45.4064217" lon="11.4844883"><ele>228.0</ele><time>2026-03-22T10:00:00.058Z</time></trkpt><trkpt lat="45.4063867" lon="11.4845733"><ele>228.0</ele><time>2026-03-22T10:00:01.058Z</time></trkpt><trkpt lat="45.4063517" lon="11.4846533"><ele>228.0</ele><time>2026-03-22T10:00:02.059Z</time></trkpt><trkpt lat="45.4063117" lon="11.4847233"><ele>228.0</ele><time>2026-03-22T10:00:03.059Z</time></trkpt><trkpt lat="45.4062433" lon="11.4848417"><ele>227.66666666666666</ele><time>2026-03-22T10:00:05.058Z</time></trkpt><trkpt lat="45.4061583" lon="11.4849567"><ele>227.33333333333331</ele><time>2026-03-22T10:00:07.059Z</time></trkpt><trkpt lat="45.4060783" lon="11.4850033"><ele>227.0</ele><time>2026-03-22T10:00:09.058Z</time></trkpt><trkpt lat="45.406005" lon="11.48501"><ele>226.66666666666666</ele><time>2026-03-22T10:00:12.059Z</time></trkpt><trkpt lat="45.405935" lon="11.48502"><ele>226.33333333333331</ele><time>2026-03-22T10:00:16.058Z</time></trkpt><trkpt lat="45.4058667" lon="11.4850183"><ele>226.0</ele><time>2026-03-22T10:00:20.059Z</time></trkpt><trkpt lat="45.4058117" lon="11.4849667"><ele>226.0</ele><time>2026-03-22T10:00:24.059Z</time></trkpt><trkpt lat="45.4057683" lon="11.484835"><ele>226.00000000000003</ele><time>2026-03-22T10:00:27.059Z</time></trkpt><trkpt lat="45.405705" lon="11.4846867"><ele>226.00000000000003</ele><time>2026-03-22T10:00:29.059Z</time></trkpt><trkpt lat="45.4056333" lon="11.4845967"><ele>226.0</ele><time>2026-03-22T10:00:31.059Z</time></trkpt><trkpt lat="45.4055417" lon="11.4845883"><ele>226.0</ele><time>2026-03-22T10:00:33.058Z</time></trkpt><trkpt lat="45.40542" lon="11.4846333"><ele>226.60000000000002</ele><time>2026-03-22T10:00:35.058Z</time></trkpt><trkpt lat="45.4053167" lon="11.484685"><ele>227.20000000000002</ele><time>2026-03-22T10:00:37.059Z</time></trkpt><trkpt lat="45.4052467" lon="11.4847"><ele>227.79999999999998</ele><time>2026-03-22T10:00:39.059Z</time></trkpt><trkpt lat="45.405175" lon="11.48477"><ele>228.39999999999998</ele><time>2026-03-22T10:00:42.059Z</time></trkpt><trkpt lat="45.405165" lon="11.4849017"><ele>229.0</ele><time>2026-03-22T10:00:45.059Z</time></trkpt><trkpt lat="45.4051567" lon="11.4850433"><ele>228.99999999999997</ele><time>2026-03-22T10:00:47.059Z</time></trkpt><trkpt lat="45.4051117" lon="11.4851517"><ele>229.0</ele><time>2026-03-22T10:00:49.059Z</time></trkpt><trkpt lat="45.4050033" lon="11.4851433"><ele>229.0</ele><time>2026-03-22T10:00:52.059Z</time></trkpt><trkpt lat="45.4049167" lon="11.4851567"><ele>229.0</ele><time>2026-03-22T10:00:55.058Z</time></trkpt><trkpt lat="45.404885" lon="11.4852367"><ele>228.99999999999997</ele><time>2026-03-22T10:01:00.059Z</time></trkpt><trkpt lat="45.4049117" lon="11.48532"><ele>229.0</ele><time>2026-03-22T10:01:03.059Z</time></trkpt><trkpt lat="45.40499" lon="11.4854067"><ele>231.33333333333331</ele><time>2026-03-22T10:01:05.059Z</time></trkpt><trkpt lat="45.4050583" lon="11.4854533"><ele>233.66666666666666</ele><time>2026-03-22T10:01:06.059Z</time></trkpt><trkpt lat="45.4051217" lon="11.4855133"><ele>236.0</ele><time>2026-03-22T10:01:07.059Z</time></trkpt><trkpt lat="45.4051783" lon="11.485555"><ele>238.33333333333331</ele><time>2026-03-22T10:01:08.059Z</time></trkpt><trkpt lat="45.4052667" lon="11.4856283"><ele>240.66666666666666</ele><time>2026-03-22T10:01:10.059Z</time></trkpt><trkpt lat="45.4053633" lon="11.48565"><ele>243.0</ele><time>2026-03-22T10:01:13.059Z</time></trkpt><trkpt lat="45.405475" lon="11.4856267"><ele>242.33333333333334</ele><time>2026-03-22T10:01:15.059Z</time></trkpt><trkpt lat="45.4055617" lon="11.4856683"><ele>241.66666666666669</ele><time>2026-03-22T10:01:17.059Z</time></trkpt><trkpt lat="45.4056267" lon="11.4856933"><ele>241.0</ele><time>2026-03-22T10:01:18.059Z</time></trkpt><trkpt lat="45.405695" lon="11.48572"><ele>240.33333333333334</ele><time>2026-03-22T10:01:19.059Z</time></trkpt><trkpt lat="45.405765" lon="11.48575"><ele>239.66666666666669</ele><time>2026-03-22T10:01:20.059Z</time></trkpt><trkpt lat="45.40583" lon="11.485765"><ele>239.0</ele><time>2026-03-22T10:01:21.058Z</time></trkpt><trkpt lat="45.4059433" lon="11.4857883"><ele>239.0</ele><time>2026-03-22T10:01:23.059Z</time></trkpt><trkpt lat="45.4060417" lon="11.4857867"><ele>238.99999999999997</ele><time>2026-03-22T10:01:25.059Z</time></trkpt><trkpt lat="45.406145" lon="11.4857967"><ele>238.99999999999997</ele><time>2026-03-22T10:01:27.058Z</time></trkpt><trkpt lat="45.406265" lon="11.4858233"><ele>239.0</ele><time>2026-03-22T10:01:29.059Z</time></trkpt><trkpt lat="45.40633" lon="11.4858317"><ele>239.0</ele><time>2026-03-22T10:01:30.059Z</time></trkpt><trkpt lat="45.4064" lon="11.48583"><ele>240.33333333333334</ele><time>2026-03-22T10:01:31.059Z</time></trkpt><trkpt lat="45.4064717" lon="11.48583"><ele>241.66666666666669</ele><time>2026-03-22T10:01:32.059Z</time></trkpt><trkpt lat="45.40654" lon="11.485825"><ele>243.0</ele><time>2026-03-22T10:01:33.059Z</time></trkpt><trkpt lat="45.4066083" lon="11.4858217"><ele>244.33333333333331</ele><time>2026-03-22T10:01:34.058Z</time></trkpt><trkpt lat="45.4066717" lon="11.48581"><ele>245.66666666666666</ele><time>2026-03-22T10:01:35.059Z</time></trkpt><trkpt lat="45.40679" lon="11.4857817"><ele>247.0</ele><time>2026-03-22T10:01:37.059Z</time></trkpt><trkpt lat="45.406855" lon="11.4857467"><ele>246.99999999999997</ele><time>2026-03-22T10:01:39.059Z</time></trkpt><trkpt lat="45.40689" lon="11.4856583"><ele>247.0</ele><time>2026-03-22T10:01:41.059Z</time></trkpt><trkpt lat="45.40693" lon="11.4855183"><ele>247.0</ele><time>2026-03-22T10:01:43.059Z</time></trkpt><trkpt lat="45.40695" lon="11.4854233"><ele>247.0</ele><time>2026-03-22T10:01:44.059Z</time></trkpt><trkpt lat="45.406975" lon="11.4853317"><ele>246.99999999999997</ele><time>2026-03-22T10:01:45.059Z</time></trkpt><trkpt lat="45.4070067" lon="11.4852517"><ele>247.0</ele><time>2026-03-22T10:01:46.059Z</time></trkpt><trkpt lat="45.4070617" lon="11.4851233"><ele>246.99999999999997</ele><time>2026-03-22T10:01:48.059Z</time></trkpt><trkpt lat="45.40712" lon="11.485075"><ele>247.0</ele><time>2026-03-22T10:01:50.059Z</time></trkpt><trkpt lat="45.4071833" lon="11.4851283"><ele>247.0</ele><time>2026-03-22T10:01:52.059Z</time></trkpt><trkpt lat="45.4072417" lon="11.4852367"><ele>247.0</ele><time>2026-03-22T10:01:54.059Z</time></trkpt><trkpt lat="45.4073" lon="11.4853067"><ele>246.99999999999997</ele><time>2026-03-22T10:01:56.058Z</time></trkpt><trkpt lat="45.40735" lon="11.48541"><ele>247.0</ele><time>2026-03-22T10:01:59.059Z</time></trkpt><trkpt lat="45.4073033" lon="11.48553"><ele>247.0</ele><time>2026-03-22T10:02:01.059Z</time></trkpt><trkpt lat="45.4072633" lon="11.4856167"><ele>247.0</ele><time>2026-03-22T10:02:02.059Z</time></trkpt><trkpt lat="45.40721" lon="11.4857117"><ele>247.0</ele><time>2026-03-22T10:02:03.059Z</time></trkpt><trkpt lat="45.407145" lon="11.48583"><ele>247.0</ele><time>2026-03-22T10:02:04.059Z</time></trkpt><trkpt lat="45.4070783" lon="11.485945"><ele>247.0</ele><time>2026-03-22T10:02:05.059Z</time></trkpt><trkpt lat="45.407" lon="11.486015"><ele>246.99999999999997</ele><time>2026-03-22T10:02:06.059Z</time></trkpt><trkpt lat="45.4069217" lon="11.4860667"><ele>247.0</ele><time>2026-03-22T10:02:07.059Z</time></trkpt><trkpt lat="45.406835" lon="11.48611"><ele>247.0</ele><time>2026-03-22T10:02:08.058Z</time></trkpt><trkpt lat="45.4067533" lon="11.4861433"><ele>247.0</ele><time>2026-03-22T10:02:09.059Z</time></trkpt><trkpt lat="45.4066667" lon="11.4861717"><ele>246.99999999999997</ele><time>2026-03-22T10:02:10.059Z</time></trkpt><trkpt lat="45.40658" lon="11.4862"><ele>247.0</ele><time>2026-03-22T10:02:11.058Z</time></trkpt><trkpt lat="45.4065033" lon="11.4862233"><ele>246.99999999999997</ele><time>2026-03-22T10:02:12.059Z</time></trkpt><trkpt lat="45.406425" lon="11.4862433"><ele>247.0</ele><time>2026-03-22T10:02:13.059Z</time></trkpt><trkpt lat="45.40636" lon="11.48626"><ele>247.0</ele><time>2026-03-22T10:02:14.059Z</time></trkpt><trkpt lat="45.4062733" lon="11.4863383"><ele>247.0</ele><time>2026-03-22T10:02:16.059Z</time></trkpt><trkpt lat="45.4062167" lon="11.486455"><ele>246.99999999999997</ele><time>2026-03-22T10:02:18.059Z</time></trkpt><trkpt lat="45.4062067" lon="11.4865767"><ele>247.0</ele><time>2026-03-22T10:02:20.059Z</time></trkpt><trkpt lat="45.4061533" lon="11.4866567"><ele>248.33333333333331</ele><time>2026-03-22T10:02:22.059Z</time></trkpt><trkpt lat="45.406135" lon="11.4867567"><ele>249.66666666666666</ele><time>2026-03-22T10:02:26.059Z</time></trkpt><trkpt lat="45.4061017" lon="11.4868683"><ele>251.0</ele><time>2026-03-22T10:02:29.058Z</time></trkpt><trkpt lat="45.4059983" lon="11.486955"><ele>252.33333333333331</ele><time>2026-03-22T10:02:31.058Z</time></trkpt><trkpt lat="45.4059183" lon="11.48698"><ele>253.66666666666666</ele><time>2026-03-22T10:02:32.058Z</time></trkpt><trkpt lat="45.4058517" lon="11.4869883"><ele>255.0</ele><time>2026-03-22T10:02:33.059Z</time></trkpt><trkpt lat="45.4057533" lon="11.4869983"><ele>255.0</ele><time>2026-03-22T10:02:35.059Z</time></trkpt><trkpt lat="45.405685" lon="11.4870333"><ele>255.0</ele><time>2026-03-22T10:02:53.059Z</time></trkpt><trkpt lat="45.4055667" lon="11.4870267"><ele>255.0</ele><time>2026-03-22T10:02:55.059Z</time></trkpt><trkpt lat="45.40548" lon="11.4870317"><ele>255.0</ele><time>2026-03-22T10:02:56.059Z</time></trkpt><trkpt lat="45.4053783" lon="11.4870233"><ele>255.0</ele><time>2026-03-22T10:02:57.059Z</time></trkpt><trkpt lat="45.4052867" lon="11.4870033"><ele>254.4</ele><time>2026-03-22T10:02:58.059Z</time></trkpt><trkpt lat="45.405205" lon="11.4869667"><ele>253.8</ele><time>2026-03-22T10:02:59.058Z</time></trkpt><trkpt lat="45.40512" lon="11.48691"><ele>253.2</ele><time>2026-03-22T10:03:00.058Z</time></trkpt><trkpt lat="45.4050367" lon="11.4868433"><ele>252.6</ele><time>2026-03-22T10:03:01.059Z</time></trkpt><trkpt lat="45.4049517" lon="11.4867833"><ele>252.0</ele><time>2026-03-22T10:03:02.059Z</time></trkpt><trkpt lat="45.404865" lon="11.486735"><ele>252.0</ele><time>2026-03-22T10:03:03.059Z</time></trkpt><trkpt lat="45.4047833" lon="11.4866983"><ele>252.0</ele><time>2026-03-22T10:03:04.059Z</time></trkpt><trkpt lat="45.404715" lon="11.4866517"><ele>252.0</ele><time>2026-03-22T10:03:05.059Z</time></trkpt><trkpt lat="45.4046583" lon="11.4865933"><ele>252.0</ele><time>2026-03-22T10:03:06.059Z</time></trkpt><trkpt lat="45.4046083" lon="11.486475"><ele>252.0</ele><time>2026-03-22T10:03:08.059Z</time></trkpt><trkpt lat="45.4045883" lon="11.4863517"><ele>252.0</ele><time>2026-03-22T10:03:11.059Z</time></trkpt><trkpt lat="45.404575" lon="11.4862167"><ele>250.2</ele><time>2026-03-22T10:03:13.059Z</time></trkpt><trkpt lat="45.4045683" lon="11.4860783"><ele>248.39999999999998</ele><time>2026-03-22T10:03:15.059Z</time></trkpt><trkpt lat="45.4045667" lon="11.485855"><ele>246.60000000000002</ele><time>2026-03-22T10:03:31.059Z</time></trkpt><trkpt lat="45.40461" lon="11.485755"><ele>244.8</ele><time>2026-03-22T10:03:33.059Z</time></trkpt><trkpt lat="45.4046683" lon="11.4857067"><ele>243.0</ele><time>2026-03-22T10:03:35.058Z</time></trkpt><trkpt lat="45.4047333" lon="11.485675"><ele>243.0</ele><time>2026-03-22T10:03:37.059Z</time></trkpt><trkpt lat="45.404785" lon="11.4856233"><ele>243.0</ele><time>2026-03-22T10:03:40.059Z</time></trkpt><trkpt lat="45.4048283" lon="11.4855067"><ele>243.0</ele><time>2026-03-22T10:03:43.059Z</time></trkpt><trkpt lat="45.404805" lon="11.4853717"><ele>243.0</ele><time>2026-03-22T10:03:45.058Z</time></trkpt><trkpt lat="45.40479" lon="11.48525"><ele>243.0</ele><time>2026-03-22T10:03:47.059Z</time></trkpt><trkpt lat="45.4048183" lon="11.4851617"><ele>243.0</ele><time>2026-03-22T10:03:49.059Z</time></trkpt><trkpt lat="45.4048717" lon="11.4850917"><ele>240.66666666666666</ele><time>2026-03-22T10:03:52.059Z</time></trkpt><trkpt lat="45.4049383" lon="11.4850883"><ele>238.33333333333331</ele><time>2026-03-22T10:03:55.059Z</time></trkpt><trkpt lat="45.405005" lon="11.48512"><ele>236.0</ele><time>2026-03-22T10:03:57.059Z</time></trkpt><trkpt lat="45.4050783" lon="11.4851433"><ele>233.66666666666666</ele><time>2026-03-22T10:03:59.059Z</time></trkpt><trkpt lat="45.4051217" lon="11.4850333"><ele>231.33333333333331</ele><time>2026-03-22T10:04:02.059Z</time></trkpt><trkpt lat="45.4050883" lon="11.484895"><ele>229.0</ele><time>2026-03-22T10:04:04.059Z</time></trkpt><trkpt lat="45.4050983" lon="11.4847817"><ele>229.0</ele><time>2026-03-22T10:04:07.059Z</time></trkpt><trkpt lat="45.4049967" lon="11.4847283"><ele>228.99999999999997</ele><time>2026-03-22T10:04:18.059Z</time></trkpt><trkpt lat="45.4049117" lon="11.4847283"><ele>228.99999999999997</ele><time>2026-03-22T10:04:19.059Z</time></trkpt><trkpt lat="45.4048233" lon="11.484725"><ele>229.0</ele><time>2026-03-22T10:04:20.059Z</time></trkpt><trkpt lat="45.4047383" lon="11.4847167"><ele>229.0</ele><time>2026-03-22T10:04:21.059Z</time></trkpt><trkpt lat="45.40465" lon="11.4847167"><ele>228.49999999999997</ele><time>2026-03-22T10:04:22.059Z</time></trkpt><trkpt lat="45.4045667" lon="11.4847283"><ele>228.0</ele><time>2026-03-22T10:04:23.059Z</time></trkpt><trkpt lat="45.4044867" lon="11.4847617"><ele>227.5</ele><time>2026-03-22T10:04:24.059Z</time></trkpt><trkpt lat="45.4044117" lon="11.4848083"><ele>227.0</ele><time>2026-03-22T10:04:25.059Z</time></trkpt><trkpt lat="45.4043317" lon="11.4848567"><ele>226.49999999999997</ele><time>2026-03-22T10:04:26.058Z</time></trkpt><trkpt lat="45.40425" lon="11.484925"><ele>226.0</ele><time>2026-03-22T10:04:27.059Z</time></trkpt><trkpt lat="45.4041717" lon="11.48499"><ele>225.99999999999997</ele><time>2026-03-22T10:04:28.059Z</time></trkpt><trkpt lat="45.4040967" lon="11.4850733"><ele>226.0</ele><time>2026-03-22T10:04:29.059Z</time></trkpt><trkpt lat="45.4040267" lon="11.4851517"><ele>226.0</ele><time>2026-03-22T10:04:30.059Z</time></trkpt><trkpt lat="45.4039617" lon="11.485235"><ele>226.0</ele><time>2026-03-22T10:04:31.059Z</time></trkpt><trkpt lat="45.4038983" lon="11.4853067"><ele>225.99999999999997</ele><time>2026-03-22T10:04:32.059Z</time></trkpt><trkpt lat="45.4038367" lon="11.4853817"><ele>226.0</ele><time>2026-03-22T10:04:33.058Z</time></trkpt><trkpt lat="45.4037767" lon="11.4854517"><ele>225.0</ele><time>2026-03-22T10:04:34.059Z</time></trkpt><trkpt lat="45.4037267" lon="11.4855183"><ele>224.0</ele><time>2026-03-22T10:04:35.059Z</time></trkpt><trkpt lat="45.4036817" lon="11.4855983"><ele>223.0</ele><time>2026-03-22T10:04:36.059Z</time></trkpt><trkpt lat="45.40364" lon="11.48569"><ele>222.0</ele><time>2026-03-22T10:04:37.059Z</time></trkpt><trkpt lat="45.403595" lon="11.4857833"><ele>221.0</ele><time>2026-03-22T10:04:38.059Z</time></trkpt><trkpt lat="45.403555" lon="11.48587"><ele>220.0</ele><time>2026-03-22T10:04:39.059Z</time></trkpt><trkpt lat="45.403515" lon="11.48595"><ele>219.0</ele><time>2026-03-22T10:04:40.058Z</time></trkpt><trkpt lat="45.4034633" lon="11.4861133"><ele>219.0</ele><time>2026-03-22T10:04:42.058Z</time></trkpt><trkpt lat="45.4034383" lon="11.486215"><ele>219.0</ele><time>2026-03-22T10:04:43.059Z</time></trkpt><trkpt lat="45.4034117" lon="11.486335"><ele>219.0</ele><time>2026-03-22T10:04:44.059Z</time></trkpt><trkpt lat="45.4033917" lon="11.48647"><ele>219.0</ele><time>2026-03-22T10:04:45.059Z</time></trkpt><trkpt lat="45.40337" lon="11.4866"><ele>219.0</ele><time>2026-03-22T10:04:46.059Z</time></trkpt><trkpt lat="45.4033467" lon="11.48671"><ele>219.0</ele><time>2026-03-22T10:04:47.059Z</time></trkpt><trkpt lat="45.4032683" lon="11.4868117"><ele>220.83333333333334</ele><time>2026-03-22T10:05:00.059Z</time></trkpt><trkpt lat="45.40322" lon="11.4868767"><ele>222.66666666666669</ele><time>2026-03-22T10:05:04.059Z</time></trkpt><trkpt lat="45.4032033" lon="11.486965"><ele>224.5</ele><time>2026-03-22T10:05:07.059Z</time></trkpt><trkpt lat="45.403235" lon="11.4870683"><ele>226.33333333333334</ele><time>2026-03-22T10:05:12.059Z</time></trkpt><trkpt lat="45.40329" lon="11.48714"><ele>228.16666666666669</ele><time>2026-03-22T10:05:15.059Z</time></trkpt><trkpt lat="45.4033633" lon="11.487275"><ele>230.0</ele><time>2026-03-22T10:05:17.059Z</time></trkpt><trkpt lat="45.4034167" lon="11.4873567"><ele>231.50000000000003</ele><time>2026-03-22T10:05:18.059Z</time></trkpt><trkpt lat="45.4034683" lon="11.4874733"><ele>233.0</ele><time>2026-03-22T10:05:19.059Z</time></trkpt><trkpt lat="45.4035083" lon="11.4875783"><ele>234.5</ele><time>2026-03-22T10:05:20.059Z</time></trkpt><trkpt lat="45.4035383" lon="11.48768"><ele>236.0</ele><time>2026-03-22T10:05:21.059Z</time></trkpt><trkpt lat="45.40356" lon="11.4877833"><ele>237.50000000000003</ele><time>2026-03-22T10:05:22.059Z</time></trkpt><trkpt lat="45.4035783" lon="11.4878883"><ele>239.0</ele><time>2026-03-22T10:05:23.059Z</time></trkpt><trkpt lat="45.4035967" lon="11.4879883"><ele>239.2</ele><time>2026-03-22T10:05:24.059Z</time></trkpt><trkpt lat="45.4036117" lon="11.4880783"><ele>239.39999999999998</ele><time>2026-03-22T10:05:25.059Z</time></trkpt><trkpt lat="45.403645" lon="11.488235"><ele>239.6</ele><time>2026-03-22T10:05:27.059Z</time></trkpt><trkpt lat="45.40367" lon="11.4883883"><ele>239.8</ele><time>2026-03-22T10:05:29.059Z</time></trkpt><trkpt lat="45.4036767" lon="11.4885483"><ele>240.0</ele><time>2026-03-22T10:05:31.059Z</time></trkpt><trkpt lat="45.4036233" lon="11.4886683"><ele>240.0</ele><time>2026-03-22T10:05:33.059Z</time></trkpt><trkpt lat="45.4035317" lon="11.48871"><ele>240.0</ele><time>2026-03-22T10:05:35.059Z</time></trkpt><trkpt lat="45.4034667" lon="11.4887233"><ele>240.0</ele><time>2026-03-22T10:05:36.059Z</time></trkpt><trkpt lat="45.4033983" lon="11.488725"><ele>240.0</ele><time>2026-03-22T10:05:37.059Z</time></trkpt><trkpt lat="45.40328" lon="11.488745"><ele>240.0</ele><time>2026-03-22T10:05:39.059Z</time></trkpt><trkpt lat="45.4031833" lon="11.488795"><ele>239.66666666666666</ele><time>2026-03-22T10:05:41.059Z</time></trkpt><trkpt lat="45.4031067" lon="11.4888867"><ele>239.33333333333331</ele><time>2026-03-22T10:05:43.058Z</time></trkpt><trkpt lat="45.40305" lon="11.4889483"><ele>239.0</ele><time>2026-03-22T10:05:44.059Z</time></trkpt><trkpt lat="45.4029867" lon="11.4890183"><ele>238.66666666666666</ele><time>2026-03-22T10:05:45.059Z</time></trkpt><trkpt lat="45.4029217" lon="11.489105"><ele>238.33333333333331</ele><time>2026-03-22T10:05:46.059Z</time></trkpt><trkpt lat="45.4028583" lon="11.489205"><ele>238.0</ele><time>2026-03-22T10:05:47.058Z</time></trkpt><trkpt lat="45.4027883" lon="11.4892983"><ele>237.42857142857144</ele><time>2026-03-22T10:05:48.058Z</time></trkpt><trkpt lat="45.4027283" lon="11.4893867"><ele>236.85714285714286</ele><time>2026-03-22T10:05:49.059Z</time></trkpt><trkpt lat="45.4026783" lon="11.4894633"><ele>236.28571428571428</ele><time>2026-03-22T10:05:50.059Z</time></trkpt><trkpt lat="45.40263" lon="11.4895367"><ele>235.71428571428572</ele><time>2026-03-22T10:05:51.059Z</time></trkpt><trkpt lat="45.4025817" lon="11.4896"><ele>235.14285714285717</ele><time>2026-03-22T10:05:52.059Z</time></trkpt><trkpt lat="45.402525" lon="11.4896617"><ele>234.57142857142858</ele><time>2026-03-22T10:05:53.059Z</time></trkpt><trkpt lat="45.4024517" lon="11.4897067"><ele>234.0</ele><time>2026-03-22T10:05:54.059Z</time></trkpt><trkpt lat="45.4023817" lon="11.4897583"><ele>234.0</ele><time>2026-03-22T10:05:55.059Z</time></trkpt><trkpt lat="45.4023117" lon="11.48981"><ele>234.0</ele><time>2026-03-22T10:05:56.059Z</time></trkpt><trkpt lat="45.4022467" lon="11.4898433"><ele>234.0</ele><time>2026-03-22T10:05:57.059Z</time></trkpt><trkpt lat="45.4021867" lon="11.489885"><ele>234.0</ele><time>2026-03-22T10:05:58.058Z</time></trkpt><trkpt lat="45.4020833" lon="11.4899617"><ele>234.0</ele><time>2026-03-22T10:06:00.059Z</time></trkpt><trkpt lat="45.4020083" lon="11.4900333"><ele>234.0</ele><time>2026-03-22T10:06:02.059Z</time></trkpt><trkpt lat="45.4019317" lon="11.4900817"><ele>234.79999999999998</ele><time>2026-03-22T10:06:04.058Z</time></trkpt><trkpt lat="45.40178" lon="11.4902283"><ele>235.59999999999997</ele><time>2026-03-22T10:06:15.059Z</time></trkpt><trkpt lat="45.4017667" lon="11.490325"><ele>236.4</ele><time>2026-03-22T10:06:16.059Z</time></trkpt><trkpt lat="45.40173" lon="11.4904017"><ele>237.2</ele><time>2026-03-22T10:06:17.059Z</time></trkpt><trkpt lat="45.4016917" lon="11.49049"><ele>238.0</ele><time>2026-03-22T10:06:18.058Z</time></trkpt><trkpt lat="45.4016483" lon="11.4905817"><ele>236.33333333333331</ele><time>2026-03-22T10:06:19.059Z</time></trkpt><trkpt lat="45.4016" lon="11.4906867"><ele>234.66666666666666</ele><time>2026-03-22T10:06:20.059Z</time></trkpt><trkpt lat="45.401555" lon="11.4907883"><ele>233.0</ele><time>2026-03-22T10:06:21.059Z</time></trkpt><trkpt lat="45.4015083" lon="11.4908967"><ele>231.33333333333331</ele><time>2026-03-22T10:06:22.059Z</time></trkpt><trkpt lat="45.40145" lon="11.49097"><ele>229.66666666666666</ele><time>2026-03-22T10:06:23.059Z</time></trkpt><trkpt lat="45.4013867" lon="11.491035"><ele>228.0</ele><time>2026-03-22T10:06:24.059Z</time></trkpt><trkpt lat="45.4013267" lon="11.4911"><ele>227.66666666666666</ele><time>2026-03-22T10:06:25.058Z</time></trkpt><trkpt lat="45.40128" lon="11.4911867"><ele>227.33333333333331</ele><time>2026-03-22T10:06:26.059Z</time></trkpt><trkpt lat="45.40124" lon="11.4912567"><ele>227.0</ele><time>2026-03-22T10:06:27.059Z</time></trkpt><trkpt lat="45.401205" lon="11.49139"><ele>226.66666666666666</ele><time>2026-03-22T10:06:29.059Z</time></trkpt><trkpt lat="45.4011933" lon="11.49148"><ele>226.33333333333331</ele><time>2026-03-22T10:06:30.058Z</time></trkpt><trkpt lat="45.4011767" lon="11.49157"><ele>226.0</ele><time>2026-03-22T10:06:31.059Z</time></trkpt><trkpt lat="45.401155" lon="11.4917417"><ele>225.20000000000002</ele><time>2026-03-22T10:06:33.059Z</time></trkpt><trkpt lat="45.4011433" lon="11.4918383"><ele>224.40000000000003</ele><time>2026-03-22T10:06:34.059Z</time></trkpt><trkpt lat="45.40112" lon="11.4919783"><ele>223.6</ele><time>2026-03-22T10:06:36.058Z</time></trkpt><trkpt lat="45.4010667" lon="11.4920767"><ele>222.8</ele><time>2026-03-22T10:06:38.059Z</time></trkpt><trkpt lat="45.4010167" lon="11.4921433"><ele>222.0</ele><time>2026-03-22T10:06:40.059Z</time></trkpt><trkpt lat="45.4009017" lon="11.4922817"><ele>222.0</ele><time>2026-03-22T10:06:46.059Z</time></trkpt><trkpt lat="45.4008133" lon="11.4922767"><ele>222.0</ele><time>2026-03-22T10:06:48.059Z</time></trkpt><trkpt lat="45.4006967" lon="11.4922167"><ele>222.0</ele><time>2026-03-22T10:06:50.058Z</time></trkpt><trkpt lat="45.4006283" lon="11.492155"><ele>222.0</ele><time>2026-03-22T10:06:51.059Z</time></trkpt><trkpt lat="45.4005567" lon="11.492065"><ele>222.0</ele><time>2026-03-22T10:06:52.059Z</time></trkpt><trkpt lat="45.4004717" lon="11.4919617"><ele>221.5</ele><time>2026-03-22T10:06:53.058Z</time></trkpt><trkpt lat="45.400395" lon="11.4918467"><ele>221.0</ele><time>2026-03-22T10:06:54.059Z</time></trkpt><trkpt lat="45.4003267" lon="11.4917517"><ele>220.5</ele><time>2026-03-22T10:06:55.058Z</time></trkpt><trkpt lat="45.400265" lon="11.49165"><ele>220.0</ele><time>2026-03-22T10:06:56.058Z</time></trkpt><trkpt lat="45.4002117" lon="11.491585"><ele>219.5</ele><time>2026-03-22T10:06:57.059Z</time></trkpt><trkpt lat="45.4001717" lon="11.4915117"><ele>219.0</ele><time>2026-03-22T10:06:58.059Z</time></trkpt><trkpt lat="45.4001433" lon="11.4914267"><ele>220.6</ele><time>2026-03-22T10:06:59.059Z</time></trkpt><trkpt lat="45.4001017" lon="11.4912467"><ele>222.2</ele><time>2026-03-22T10:07:01.059Z</time></trkpt><trkpt lat="45.4000767" lon="11.4911467"><ele>223.79999999999998</ele><time>2026-03-22T10:07:02.059Z</time></trkpt><trkpt lat="45.4000367" lon="11.491035"><ele>225.39999999999998</ele><time>2026-03-22T10:07:03.059Z</time></trkpt><trkpt lat="45.3999767" lon="11.4909417"><ele>227.0</ele><time>2026-03-22T10:07:04.059Z</time></trkpt><trkpt lat="45.39991" lon="11.4908567"><ele>227.00000000000003</ele><time>2026-03-22T10:07:05.059Z</time></trkpt><trkpt lat="45.399835" lon="11.4907967"><ele>227.0</ele><time>2026-03-22T10:07:06.059Z</time></trkpt><trkpt lat="45.39976" lon="11.4907367"><ele>227.0</ele><time>2026-03-22T10:07:07.059Z</time></trkpt><trkpt lat="45.3996883" lon="11.4906667"><ele>227.0</ele><time>2026-03-22T10:07:08.059Z</time></trkpt><trkpt lat="45.39962" lon="11.490585"><ele>227.00000000000003</ele><time>2026-03-22T10:07:09.059Z</time></trkpt><trkpt lat="45.3995583" lon="11.4905017"><ele>227.0</ele><time>2026-03-22T10:07:10.059Z</time></trkpt><trkpt lat="45.3994983" lon="11.4904333"><ele>227.00000000000003</ele><time>2026-03-22T10:07:11.059Z</time></trkpt><trkpt lat="45.3994467" lon="11.4903817"><ele>227.0</ele><time>2026-03-22T10:07:12.059Z</time></trkpt><trkpt lat="45.3993617" lon="11.4903783"><ele>227.0</ele><time>2026-03-22T10:07:14.059Z</time></trkpt><trkpt lat="45.3993267" lon="11.4904583"><ele>227.0</ele><time>2026-03-22T10:07:17.059Z</time></trkpt><trkpt lat="45.39923" lon="11.4904133"><ele>227.00000000000003</ele><time>2026-03-22T10:07:19.059Z</time></trkpt><trkpt lat="45.3991433" lon="11.4903633"><ele>227.0</ele><time>2026-03-22T10:07:20.059Z</time></trkpt><trkpt lat="45.3990317" lon="11.4903167"><ele>227.0</ele><time>2026-03-22T10:07:21.059Z</time></trkpt><trkpt lat="45.3989133" lon="11.4902783"><ele>227.0</ele><time>2026-03-22T10:07:22.059Z</time></trkpt><trkpt lat="45.3988" lon="11.4902567"><ele>227.0</ele><time>2026-03-22T10:07:23.058Z</time></trkpt><trkpt lat="45.3986983" lon="11.4902483"><ele>227.0</ele><time>2026-03-22T10:07:24.059Z</time></trkpt><trkpt lat="45.3986167" lon="11.490235"><ele>227.0</ele><time>2026-03-22T10:07:25.059Z</time></trkpt><trkpt lat="45.3985283" lon="11.4902333"><ele>227.2</ele><time>2026-03-22T10:07:26.059Z</time></trkpt><trkpt lat="45.3984267" lon="11.4902383"><ele>227.39999999999998</ele><time>2026-03-22T10:07:27.059Z</time></trkpt><trkpt lat="45.3983217" lon="11.490245"><ele>227.60000000000002</ele><time>2026-03-22T10:07:28.058Z</time></trkpt><trkpt lat="45.3982133" lon="11.4902467"><ele>227.8</ele><time>2026-03-22T10:07:29.059Z</time></trkpt><trkpt lat="45.3981067" lon="11.4902517"><ele>228.0</ele><time>2026-03-22T10:07:30.058Z</time></trkpt><trkpt lat="45.398" lon="11.490265"><ele>228.0</ele><time>2026-03-22T10:07:31.058Z</time></trkpt><trkpt lat="45.3978933" lon="11.490275"><ele>228.0</ele><time>2026-03-22T10:07:32.059Z</time></trkpt><trkpt lat="45.3977833" lon="11.4902633"><ele>228.0</ele><time>2026-03-22T10:07:33.059Z</time></trkpt><trkpt lat="45.3976667" lon="11.4902383"><ele>228.0</ele><time>2026-03-22T10:07:34.058Z</time></trkpt><trkpt lat="45.397555" lon="11.490215"><ele>228.0</ele><time>2026-03-22T10:07:35.059Z</time></trkpt><trkpt lat="45.3974533" lon="11.4901783"><ele>228.0</ele><time>2026-03-22T10:07:36.059Z</time></trkpt><trkpt lat="45.3973567" lon="11.49013"><ele>228.0</ele><time>2026-03-22T10:07:37.059Z</time></trkpt><trkpt lat="45.3972683" lon="11.4900717"><ele>228.0</ele><time>2026-03-22T10:07:38.059Z</time></trkpt><trkpt lat="45.3971767" lon="11.490015"><ele>228.0</ele><time>2026-03-22T10:07:39.058Z</time></trkpt><trkpt lat="45.397085" lon="11.4899517"><ele>228.0</ele><time>2026-03-22T10:07:40.059Z</time></trkpt><trkpt lat="45.396995" lon="11.4898883"><ele>227.5</ele><time>2026-03-22T10:07:41.058Z</time></trkpt><trkpt lat="45.3968917" lon="11.4898533"><ele>227.0</ele><time>2026-03-22T10:07:42.059Z</time></trkpt><trkpt lat="45.3967783" lon="11.489855"><ele>226.5</ele><time>2026-03-22T10:07:43.059Z</time></trkpt><trkpt lat="45.39666" lon="11.4898717"><ele>226.0</ele><time>2026-03-22T10:07:44.059Z</time></trkpt><trkpt lat="45.3965367" lon="11.48987"><ele>226.0</ele><time>2026-03-22T10:07:45.059Z</time></trkpt><trkpt lat="45.3964283" lon="11.489845"><ele>226.0</ele><time>2026-03-22T10:07:46.058Z</time></trkpt><trkpt lat="45.396295" lon="11.4898267"><ele>226.0</ele><time>2026-03-22T10:07:47.059Z</time></trkpt><trkpt lat="45.3961767" lon="11.48982"><ele>226.0</ele><time>2026-03-22T10:07:48.059Z</time></trkpt><trkpt lat="45.39607" lon="11.48983"><ele>225.60000000000002</ele><time>2026-03-22T10:07:49.059Z</time></trkpt><trkpt lat="45.3959633" lon="11.489845"><ele>225.20000000000002</ele><time>2026-03-22T10:07:50.059Z</time></trkpt><trkpt lat="45.3958583" lon="11.489855"><ele>224.79999999999998</ele><time>2026-03-22T10:07:51.059Z</time></trkpt><trkpt lat="45.395775" lon="11.48987"><ele>224.39999999999998</ele><time>2026-03-22T10:07:52.059Z</time></trkpt><trkpt lat="45.3956733" lon="11.4898617"><ele>224.0</ele><time>2026-03-22T10:07:54.059Z</time></trkpt><trkpt lat="45.3956083" lon="11.4898067"><ele>224.0</ele><time>2026-03-22T10:07:56.059Z</time></trkpt><trkpt lat="45.39554" lon="11.4897817"><ele>224.0</ele><time>2026-03-22T10:07:58.059Z</time></trkpt><trkpt lat="45.3954767" lon="11.4897833"><ele>224.0</ele><time>2026-03-22T10:08:00.059Z</time></trkpt><trkpt lat="45.3954083" lon="11.4897883"><ele>224.0</ele><time>2026-03-22T10:08:02.059Z</time></trkpt><trkpt lat="45.39533" lon="11.4897917"><ele>224.0</ele><time>2026-03-22T10:08:05.059Z</time></trkpt><trkpt lat="45.39526" lon="11.48981"><ele>224.0</ele><time>2026-03-22T10:08:08.059Z</time></trkpt><trkpt lat="45.39519" lon="11.489835"><ele>224.0</ele><time>2026-03-22T10:08:12.059Z</time></trkpt><trkpt lat="45.3951083" lon="11.4898483"><ele>222.6</ele><time>2026-03-22T10:08:16.059Z</time></trkpt><trkpt lat="45.3950183" lon="11.4898717"><ele>221.2</ele><time>2026-03-22T10:08:19.059Z</time></trkpt><trkpt lat="45.39491" lon="11.4898917"><ele>219.79999999999998</ele><time>2026-03-22T10:08:21.059Z</time></trkpt><trkpt lat="45.3948467" lon="11.4899217"><ele>218.39999999999998</ele><time>2026-03-22T10:08:22.059Z</time></trkpt><trkpt lat="45.3947267" lon="11.4899733"><ele>217.0</ele><time>2026-03-22T10:08:24.059Z</time></trkpt><trkpt lat="45.394655" lon="11.4899917"><ele>215.6</ele><time>2026-03-22T10:08:25.058Z</time></trkpt><trkpt lat="45.3945767" lon="11.4900133"><ele>214.2</ele><time>2026-03-22T10:08:26.059Z</time></trkpt><trkpt lat="45.39448" lon="11.4900417"><ele>212.8</ele><time>2026-03-22T10:08:27.059Z</time></trkpt><trkpt lat="45.3943683" lon="11.4900683"><ele>211.4</ele><time>2026-03-22T10:08:28.059Z</time></trkpt><trkpt lat="45.3942467" lon="11.4900817"><ele>210.0</ele><time>2026-03-22T10:08:29.059Z</time></trkpt><trkpt lat="45.3941333" lon="11.490095"><ele>210.0</ele><time>2026-03-22T10:08:30.059Z</time></trkpt><trkpt lat="45.394045" lon="11.49011"><ele>210.0</ele><time>2026-03-22T10:08:31.059Z</time></trkpt><trkpt lat="45.3939717" lon="11.4901083"><ele>210.0</ele><time>2026-03-22T10:08:32.059Z</time></trkpt><trkpt lat="45.39388" lon="11.490085"><ele>210.0</ele><time>2026-03-22T10:08:34.059Z</time></trkpt><trkpt lat="45.3937767" lon="11.4900583"><ele>210.0</ele><time>2026-03-22T10:08:36.059Z</time></trkpt><trkpt lat="45.393655" lon="11.4900217"><ele>207.66666666666666</ele><time>2026-03-22T10:08:38.059Z</time></trkpt><trkpt lat="45.39359" lon="11.49001"><ele>205.33333333333331</ele><time>2026-03-22T10:08:39.059Z</time></trkpt><trkpt lat="45.393525" lon="11.4899983"><ele>203.0</ele><time>2026-03-22T10:08:40.059Z</time></trkpt><trkpt lat="45.3934533" lon="11.4899883"><ele>200.66666666666666</ele><time>2026-03-22T10:08:41.059Z</time></trkpt><trkpt lat="45.393385" lon="11.4899783"><ele>198.33333333333331</ele><time>2026-03-22T10:08:42.059Z</time></trkpt><trkpt lat="45.3932683" lon="11.4899617"><ele>196.0</ele><time>2026-03-22T10:08:44.059Z</time></trkpt><trkpt lat="45.393175" lon="11.4899583"><ele>196.0</ele><time>2026-03-22T10:08:46.059Z</time></trkpt><trkpt lat="45.3930767" lon="11.4899167"><ele>196.0</ele><time>2026-03-22T10:08:48.058Z</time></trkpt><trkpt lat="45.3929767" lon="11.4898817"><ele>196.0</ele><time>2026-03-22T10:08:50.059Z</time></trkpt><trkpt lat="45.3928967" lon="11.489825"><ele>196.0</ele><time>2026-03-22T10:08:52.059Z</time></trkpt><trkpt lat="45.392805" lon="11.48972"><ele>196.0</ele><time>2026-03-22T10:08:54.059Z</time></trkpt><trkpt lat="45.392735" lon="11.4896567"><ele>191.83333333333331</ele><time>2026-03-22T10:08:55.059Z</time></trkpt><trkpt lat="45.392665" lon="11.489595"><ele>187.66666666666666</ele><time>2026-03-22T10:08:56.058Z</time></trkpt><trkpt lat="45.392605" lon="11.48953"><ele>183.5</ele><time>2026-03-22T10:08:57.058Z</time></trkpt><trkpt lat="45.3925517" lon="11.48945"><ele>179.33333333333331</ele><time>2026-03-22T10:08:58.059Z</time></trkpt><trkpt lat="45.3924967" lon="11.489385"><ele>175.16666666666666</ele><time>2026-03-22T10:08:59.058Z</time></trkpt><trkpt lat="45.39241" lon="11.4892967"><ele>171.0</ele><time>2026-03-22T10:09:01.058Z</time></trkpt><trkpt lat="45.3923667" lon="11.489375"><ele>171.0</ele><time>2026-03-22T10:09:06.059Z</time></trkpt><trkpt lat="45.3922933" lon="11.4894417"><ele>171.0</ele><time>2026-03-22T10:09:10.059Z</time></trkpt><trkpt lat="45.3921917" lon="11.4893567"><ele>171.0</ele><time>2026-03-22T10:09:12.059Z</time></trkpt><trkpt lat="45.39213" lon="11.4892617"><ele>171.0</ele><time>2026-03-22T10:09:14.059Z</time></trkpt><trkpt lat="45.3920833" lon="11.48918"><ele>171.0</ele><time>2026-03-22T10:09:16.059Z</time></trkpt><trkpt lat="45.3920617" lon="11.4890933"><ele>171.0</ele><time>2026-03-22T10:09:18.059Z</time></trkpt><trkpt lat="45.3920183" lon="11.4890133"><ele>166.60000000000002</ele><time>2026-03-22T10:09:21.059Z</time></trkpt><trkpt lat="45.391935" lon="11.489"><ele>162.20000000000002</ele><time>2026-03-22T10:09:24.059Z</time></trkpt><trkpt lat="45.391865" lon="11.488965"><ele>157.8</ele><time>2026-03-22T10:09:26.059Z</time></trkpt><trkpt lat="45.3917933" lon="11.4888617"><ele>153.4</ele><time>2026-03-22T10:09:28.058Z</time></trkpt><trkpt lat="45.3917617" lon="11.488705"><ele>149.0</ele><time>2026-03-22T10:09:30.058Z</time></trkpt><trkpt lat="45.391735" lon="11.4885467"><ele>149.0</ele><time>2026-03-22T10:09:32.058Z</time></trkpt><trkpt lat="45.3917117" lon="11.4884483"><ele>149.0</ele><time>2026-03-22T10:09:34.058Z</time></trkpt><trkpt lat="45.3916417" lon="11.4884883"><ele>149.0</ele><time>2026-03-22T10:09:38.058Z</time></trkpt><trkpt lat="45.3915833" lon="11.4885783"><ele>149.0</ele><time>2026-03-22T10:09:40.058Z</time></trkpt><trkpt lat="45.3915433" lon="11.4887183"><ele>149.0</ele><time>2026-03-22T10:09:42.057Z</time></trkpt><trkpt lat="45.3915217" lon="11.488805"><ele>149.0</ele><time>2026-03-22T10:09:43.058Z</time></trkpt><trkpt lat="45.3915183" lon="11.4889267"><ele>149.0</ele><time>2026-03-22T10:09:44.058Z</time></trkpt><trkpt lat="45.3915167" lon="11.489035"><ele>149.0</ele><time>2026-03-22T10:09:45.057Z</time></trkpt><trkpt lat="45.3915433" lon="11.4891567"><ele>149.0</ele><time>2026-03-22T10:09:46.058Z</time></trkpt><trkpt lat="45.39158" lon="11.489305"><ele>149.0</ele><time>2026-03-22T10:09:47.058Z</time></trkpt><trkpt lat="45.39161" lon="11.4894417"><ele>149.0</ele><time>2026-03-22T10:09:48.058Z</time></trkpt><trkpt lat="45.39164" lon="11.4895667"><ele>147.16666666666666</ele><time>2026-03-22T10:09:49.058Z</time></trkpt><trkpt lat="45.3916733" lon="11.48968"><ele>145.33333333333331</ele><time>2026-03-22T10:09:50.058Z</time></trkpt><trkpt lat="45.3917" lon="11.4897833"><ele>143.5</ele><time>2026-03-22T10:09:51.058Z</time></trkpt><trkpt lat="45.3917233" lon="11.48988"><ele>141.66666666666666</ele><time>2026-03-22T10:09:52.058Z</time></trkpt><trkpt lat="45.3917517" lon="11.4899867"><ele>139.83333333333334</ele><time>2026-03-22T10:09:53.058Z</time></trkpt><trkpt lat="45.3917833" lon="11.490115"><ele>138.0</ele><time>2026-03-22T10:09:54.057Z</time></trkpt><trkpt lat="45.3918183" lon="11.490255"><ele>138.0</ele><time>2026-03-22T10:09:55.058Z</time></trkpt><trkpt lat="45.3918517" lon="11.4904083"><ele>138.0</ele><time>2026-03-22T10:09:56.057Z</time></trkpt><trkpt lat="45.3918883" lon="11.4905917"><ele>138.0</ele><time>2026-03-22T10:09:57.058Z</time></trkpt><trkpt lat="45.39192" lon="11.4907533"><ele>138.0</ele><time>2026-03-22T10:09:58.058Z</time></trkpt><trkpt lat="45.3919533" lon="11.4908983"><ele>137.20000000000002</ele><time>2026-03-22T10:09:59.058Z</time></trkpt><trkpt lat="45.3919867" lon="11.4910317"><ele>136.4</ele><time>2026-03-22T10:10:00.058Z</time></trkpt><trkpt lat="45.392025" lon="11.4911483"><ele>135.60000000000002</ele><time>2026-03-22T10:10:01.058Z</time></trkpt><trkpt lat="45.3920683" lon="11.4912433"><ele>134.8</ele><time>2026-03-22T10:10:02.058Z</time></trkpt><trkpt lat="45.3921167" lon="11.4913533"><ele>134.0</ele><time>2026-03-22T10:10:03.058Z</time></trkpt><trkpt lat="45.39217" lon="11.4915117"><ele>136.6</ele><time>2026-03-22T10:10:05.058Z</time></trkpt><trkpt lat="45.3921817" lon="11.4916"><ele>139.2</ele><time>2026-03-22T10:10:07.058Z</time></trkpt><trkpt lat="45.39205" lon="11.4915483"><ele>141.79999999999998</ele><time>2026-03-22T10:10:10.058Z</time></trkpt><trkpt lat="45.3919733" lon="11.4914983"><ele>144.4</ele><time>2026-03-22T10:10:11.058Z</time></trkpt><trkpt lat="45.3919" lon="11.49143"><ele>147.0</ele><time>2026-03-22T10:10:12.057Z</time></trkpt><trkpt lat="45.3918133" lon="11.49137"><ele>147.66666666666666</ele><time>2026-03-22T10:10:13.058Z</time></trkpt><trkpt lat="45.3917467" lon="11.4913133"><ele>148.33333333333334</ele><time>2026-03-22T10:10:14.058Z</time></trkpt><trkpt lat="45.391665" lon="11.4912583"><ele>149.0</ele><time>2026-03-22T10:10:15.058Z</time></trkpt><trkpt lat="45.391595" lon="11.491205"><ele>149.66666666666669</ele><time>2026-03-22T10:10:16.058Z</time></trkpt><trkpt lat="45.391525" lon="11.4911383"><ele>150.33333333333334</ele><time>2026-03-22T10:10:17.058Z</time></trkpt><trkpt lat="45.3914583" lon="11.4910633"><ele>151.0</ele><time>2026-03-22T10:10:18.058Z</time></trkpt><trkpt lat="45.3913933" lon="11.490985"><ele>148.2</ele><time>2026-03-22T10:10:19.058Z</time></trkpt><trkpt lat="45.3913117" lon="11.4909333"><ele>145.39999999999998</ele><time>2026-03-22T10:10:20.057Z</time></trkpt><trkpt lat="45.39121" lon="11.490875"><ele>142.6</ele><time>2026-03-22T10:10:21.058Z</time></trkpt><trkpt lat="45.3911167" lon="11.4908"><ele>139.79999999999998</ele><time>2026-03-22T10:10:22.058Z</time></trkpt><trkpt lat="45.39102" lon="11.4907317"><ele>137.0</ele><time>2026-03-22T10:10:23.057Z</time></trkpt><trkpt lat="45.3909117" lon="11.4906483"><ele>137.0</ele><time>2026-03-22T10:10:24.057Z</time></trkpt><trkpt lat="45.3908" lon="11.49059"><ele>137.0</ele><time>2026-03-22T10:10:25.058Z</time></trkpt><trkpt lat="45.39071" lon="11.4905667"><ele>137.0</ele><time>2026-03-22T10:10:26.058Z</time></trkpt><trkpt lat="45.390635" lon="11.4905283"><ele>137.0</ele><time>2026-03-22T10:10:27.058Z</time></trkpt><trkpt lat="45.3905717" lon="11.4905217"><ele>137.0</ele><time>2026-03-22T10:10:28.058Z</time></trkpt><trkpt lat="45.390465" lon="11.4905083"><ele>137.0</ele><time>2026-03-22T10:10:29.057Z</time></trkpt><trkpt lat="45.3905017" lon="11.4905883"><ele>137.0</ele><time>2026-03-22T10:11:28.058Z</time></trkpt><trkpt lat="45.390565" lon="11.49059"><ele>137.0</ele><time>2026-03-22T10:11:31.058Z</time></trkpt><trkpt lat="45.3907267" lon="11.4906417"><ele>137.0</ele><time>2026-03-22T10:11:33.058Z</time></trkpt><trkpt lat="45.39086" lon="11.4907017"><ele>137.0</ele><time>2026-03-22T10:11:34.058Z</time></trkpt><trkpt lat="45.3910017" lon="11.490795"><ele>137.0</ele><time>2026-03-22T10:11:35.058Z</time></trkpt><trkpt lat="45.3911267" lon="11.4908817"><ele>137.0</ele><time>2026-03-22T10:11:36.058Z</time></trkpt><trkpt lat="45.3912433" lon="11.4909767"><ele>137.0</ele><time>2026-03-22T10:11:37.058Z</time></trkpt><trkpt lat="45.391345" lon="11.4910683"><ele>137.0</ele><time>2026-03-22T10:11:38.058Z</time></trkpt><trkpt lat="45.3914367" lon="11.4911433"><ele>136.4</ele><time>2026-03-22T10:11:39.058Z</time></trkpt><trkpt lat="45.391525" lon="11.4912133"><ele>135.79999999999998</ele><time>2026-03-22T10:11:40.058Z</time></trkpt><trkpt lat="45.3916067" lon="11.49129"><ele>135.2</ele><time>2026-03-22T10:11:41.058Z</time></trkpt><trkpt lat="45.3916933" lon="11.4913717"><ele>134.6</ele><time>2026-03-22T10:11:42.058Z</time></trkpt><trkpt lat="45.3917783" lon="11.49146"><ele>134.0</ele><time>2026-03-22T10:11:43.058Z</time></trkpt><trkpt lat="45.391865" lon="11.4915767"><ele>136.6</ele><time>2026-03-22T10:11:44.058Z</time></trkpt><trkpt lat="45.391945" lon="11.4916783"><ele>139.2</ele><time>2026-03-22T10:11:45.058Z</time></trkpt><trkpt lat="45.3920233" lon="11.49178"><ele>141.79999999999998</ele><time>2026-03-22T10:11:46.057Z</time></trkpt><trkpt lat="45.39209" lon="11.4918867"><ele>144.4</ele><time>2026-03-22T10:11:47.058Z</time></trkpt><trkpt lat="45.3921617" lon="11.4919783"><ele>147.0</ele><time>2026-03-22T10:11:48.058Z</time></trkpt><trkpt lat="45.3922267" lon="11.4920783"><ele>147.4</ele><time>2026-03-22T10:11:49.058Z</time></trkpt><trkpt lat="45.3922933" lon="11.49221"><ele>147.79999999999998</ele><time>2026-03-22T10:11:50.057Z</time></trkpt><trkpt lat="45.3923433" lon="11.4923333"><ele>148.2</ele><time>2026-03-22T10:11:51.058Z</time></trkpt><trkpt lat="45.39239" lon="11.49245"><ele>148.6</ele><time>2026-03-22T10:11:52.058Z</time></trkpt><trkpt lat="45.3924267" lon="11.4925767"><ele>149.0</ele><time>2026-03-22T10:11:53.058Z</time></trkpt><trkpt lat="45.3924583" lon="11.49271"><ele>149.0</ele><time>2026-03-22T10:11:54.058Z</time></trkpt><trkpt lat="45.3924867" lon="11.492825"><ele>149.0</ele><time>2026-03-22T10:11:55.058Z</time></trkpt><trkpt lat="45.392525" lon="11.4929367"><ele>149.0</ele><time>2026-03-22T10:11:56.058Z</time></trkpt><trkpt lat="45.392575" lon="11.4930167"><ele>149.0</ele><time>2026-03-22T10:11:57.058Z</time></trkpt><trkpt lat="45.392635" lon="11.493085"><ele>149.0</ele><time>2026-03-22T10:11:58.058Z</time></trkpt><trkpt lat="45.39271" lon="11.4931417"><ele>149.0</ele><time>2026-03-22T10:11:59.058Z</time></trkpt><trkpt lat="45.3927933" lon="11.4932017"><ele>151.25</ele><time>2026-03-22T10:12:00.057Z</time></trkpt><trkpt lat="45.392885" lon="11.4932783"><ele>153.5</ele><time>2026-03-22T10:12:01.058Z</time></trkpt><trkpt lat="45.3929783" lon="11.4933767"><ele>155.75</ele><time>2026-03-22T10:12:02.058Z</time></trkpt><trkpt lat="45.3930667" lon="11.49348"><ele>158.0</ele><time>2026-03-22T10:12:03.058Z</time></trkpt><trkpt lat="45.3931483" lon="11.49361"><ele>161.25</ele><time>2026-03-22T10:12:04.058Z</time></trkpt><trkpt lat="45.3932367" lon="11.4937633"><ele>164.5</ele><time>2026-03-22T10:12:05.058Z</time></trkpt><trkpt lat="45.3933317" lon="11.49391"><ele>167.75</ele><time>2026-03-22T10:12:06.058Z</time></trkpt><trkpt lat="45.39344" lon="11.49407"><ele>171.0</ele><time>2026-03-22T10:12:07.058Z</time></trkpt><trkpt lat="45.3935383" lon="11.494205"><ele>171.0</ele><time>2026-03-22T10:12:08.057Z</time></trkpt><trkpt lat="45.3936417" lon="11.4943117"><ele>171.0</ele><time>2026-03-22T10:12:09.058Z</time></trkpt><trkpt lat="45.393745" lon="11.4944067"><ele>171.0</ele><time>2026-03-22T10:12:10.058Z</time></trkpt><trkpt lat="45.3938417" lon="11.4945017"><ele>171.0</ele><time>2026-03-22T10:12:11.058Z</time></trkpt><trkpt lat="45.39392" lon="11.4946033"><ele>171.83333333333334</ele><time>2026-03-22T10:12:12.058Z</time></trkpt><trkpt lat="45.393985" lon="11.494705"><ele>172.66666666666666</ele><time>2026-03-22T10:12:13.058Z</time></trkpt><trkpt lat="45.3940483" lon="11.494805"><ele>173.5</ele><time>2026-03-22T10:12:14.057Z</time></trkpt><trkpt lat="45.3941017" lon="11.4949017"><ele>174.33333333333331</ele><time>2026-03-22T10:12:15.058Z</time></trkpt><trkpt lat="45.3941567" lon="11.49499"><ele>175.16666666666666</ele><time>2026-03-22T10:12:16.058Z</time></trkpt><trkpt lat="45.3942" lon="11.495065"><ele>176.0</ele><time>2026-03-22T10:12:17.058Z</time></trkpt><trkpt lat="45.3942717" lon="11.4952017"><ele>176.0</ele><time>2026-03-22T10:12:19.058Z</time></trkpt><trkpt lat="45.394285" lon="11.4953717"><ele>176.0</ele><time>2026-03-22T10:12:21.058Z</time></trkpt><trkpt lat="45.39428" lon="11.4954833"><ele>176.0</ele><time>2026-03-22T10:12:23.058Z</time></trkpt><trkpt lat="45.39425" lon="11.495565"><ele>176.0</ele><time>2026-03-22T10:12:36.058Z</time></trkpt><trkpt lat="45.394205" lon="11.4956617"><ele>176.0</ele><time>2026-03-22T10:12:38.057Z</time></trkpt><trkpt lat="45.3941567" lon="11.4957733"><ele>176.0</ele><time>2026-03-22T10:12:41.057Z</time></trkpt><trkpt lat="45.394145" lon="11.4958633"><ele>177.0</ele><time>2026-03-22T10:12:43.058Z</time></trkpt><trkpt lat="45.3941167" lon="11.4959717"><ele>178.0</ele><time>2026-03-22T10:12:45.058Z</time></trkpt><trkpt lat="45.3940933" lon="11.4960717"><ele>179.0</ele><time>2026-03-22T10:12:47.058Z</time></trkpt><trkpt lat="45.3940433" lon="11.4962117"><ele>180.0</ele><time>2026-03-22T10:12:49.058Z</time></trkpt><trkpt lat="45.3940282" lon="11.4963219"><ele>181.0</ele><time>2026-03-22T10:12:50.058Z</time></trkpt><trkpt lat="45.3940177" lon="11.4964638"><ele>182.0</ele><time>2026-03-22T10:12:51.057Z</time></trkpt><trkpt lat="45.3940029" lon="11.4965903"><ele>182.0</ele><time>2026-03-22T10:12:52.058Z</time></trkpt><trkpt lat="45.3939869" lon="11.4966804"><ele>182.0</ele><time>2026-03-22T10:12:53.057Z</time></trkpt><trkpt lat="45.3939649" lon="11.4968024"><ele>182.0</ele><time>2026-03-22T10:12:54.057Z</time></trkpt><trkpt lat="45.3938859" lon="11.496921"><ele>182.0</ele><time>2026-03-22T10:12:56.058Z</time></trkpt><trkpt lat="45.3938353" lon="11.4969782"><ele>182.0</ele><time>2026-03-22T10:12:57.058Z</time></trkpt><trkpt lat="45.3937773" lon="11.4970237"><ele>182.0</ele><time>2026-03-22T10:12:58.058Z</time></trkpt><trkpt lat="45.3937196" lon="11.4970677"><ele>184.16666666666666</ele><time>2026-03-22T10:12:59.058Z</time></trkpt><trkpt lat="45.3936574" lon="11.4971053"><ele>186.33333333333331</ele><time>2026-03-22T10:13:00.058Z</time></trkpt><trkpt lat="45.3935885" lon="11.4971365"><ele>188.5</ele><time>2026-03-22T10:13:01.058Z</time></trkpt><trkpt lat="45.3935218" lon="11.4971633"><ele>190.66666666666666</ele><time>2026-03-22T10:13:02.058Z</time></trkpt><trkpt lat="45.3934013" lon="11.4972394"><ele>192.83333333333334</ele><time>2026-03-22T10:13:04.058Z</time></trkpt><trkpt lat="45.3933451" lon="11.4972874"><ele>195.0</ele><time>2026-03-22T10:13:05.058Z</time></trkpt><trkpt lat="45.3932527" lon="11.497382"><ele>195.0</ele><time>2026-03-22T10:13:07.058Z</time></trkpt><trkpt lat="45.3931849" lon="11.4974744"><ele>195.0</ele><time>2026-03-22T10:13:09.058Z</time></trkpt><trkpt lat="45.3931533" lon="11.4975587"><ele>195.0</ele><time>2026-03-22T10:13:11.058Z</time></trkpt><trkpt lat="45.393115" lon="11.4976967"><ele>195.0</ele><time>2026-03-22T10:13:14.058Z</time></trkpt><trkpt lat="45.3930483" lon="11.4978517"><ele>195.0</ele><time>2026-03-22T10:13:19.058Z</time></trkpt><trkpt lat="45.3929933" lon="11.4979517"><ele>197.83333333333334</ele><time>2026-03-22T10:13:21.058Z</time></trkpt><trkpt lat="45.392955" lon="11.498055"><ele>200.66666666666669</ele><time>2026-03-22T10:13:23.058Z</time></trkpt><trkpt lat="45.3929133" lon="11.4981533"><ele>203.5</ele><time>2026-03-22T10:13:26.058Z</time></trkpt><trkpt lat="45.392845" lon="11.49822"><ele>206.33333333333334</ele><time>2026-03-22T10:13:27.058Z</time></trkpt><trkpt lat="45.3927533" lon="11.4982833"><ele>209.16666666666669</ele><time>2026-03-22T10:13:30.058Z</time></trkpt><trkpt lat="45.3926683" lon="11.49835"><ele>212.0</ele><time>2026-03-22T10:13:32.058Z</time></trkpt><trkpt lat="45.3926067" lon="11.4984383"><ele>212.0</ele><time>2026-03-22T10:13:34.058Z</time></trkpt><trkpt lat="45.392545" lon="11.498555"><ele>212.0</ele><time>2026-03-22T10:13:36.058Z</time></trkpt><trkpt lat="45.39249" lon="11.4986733"><ele>212.0</ele><time>2026-03-22T10:13:38.058Z</time></trkpt><trkpt lat="45.3924483" lon="11.4987433"><ele>212.0</ele><time>2026-03-22T10:13:39.058Z</time></trkpt><trkpt lat="45.3923633" lon="11.4988683"><ele>212.0</ele><time>2026-03-22T10:13:41.058Z</time></trkpt><trkpt lat="45.3922767" lon="11.4990117"><ele>209.71428571428572</ele><time>2026-03-22T10:13:43.058Z</time></trkpt><trkpt lat="45.392225" lon="11.4990917"><ele>207.42857142857142</ele><time>2026-03-22T10:13:44.058Z</time></trkpt><trkpt lat="45.392165" lon="11.4991633"><ele>205.14285714285714</ele><time>2026-03-22T10:13:45.058Z</time></trkpt><trkpt lat="45.39211" lon="11.4992333"><ele>202.85714285714286</ele><time>2026-03-22T10:13:46.058Z</time></trkpt><trkpt lat="45.392065" lon="11.499305"><ele>200.57142857142856</ele><time>2026-03-22T10:13:47.058Z</time></trkpt><trkpt lat="45.3920083" lon="11.4993767"><ele>198.28571428571428</ele><time>2026-03-22T10:13:48.058Z</time></trkpt><trkpt lat="45.3919633" lon="11.4994467"><ele>196.0</ele><time>2026-03-22T10:13:49.058Z</time></trkpt><trkpt lat="45.3919217" lon="11.4995233"><ele>200.8</ele><time>2026-03-22T10:13:50.058Z</time></trkpt><trkpt lat="45.3918533" lon="11.4996817"><ele>205.60000000000002</ele><time>2026-03-22T10:13:52.058Z</time></trkpt><trkpt lat="45.39181" lon="11.4997833"><ele>210.4</ele><time>2026-03-22T10:13:53.058Z</time></trkpt><trkpt lat="45.3917483" lon="11.4999033"><ele>215.2</ele><time>2026-03-22T10:13:54.058Z</time></trkpt><trkpt lat="45.3916983" lon="11.5000183"><ele>220.0</ele><time>2026-03-22T10:13:55.058Z</time></trkpt><trkpt lat="45.3916533" lon="11.5001317"><ele>219.99999999999997</ele><time>2026-03-22T10:13:56.058Z</time></trkpt><trkpt lat="45.3916083" lon="11.5002367"><ele>220.0</ele><time>2026-03-22T10:13:57.058Z</time></trkpt><trkpt lat="45.3915467" lon="11.5003333"><ele>220.0</ele><time>2026-03-22T10:13:58.058Z</time></trkpt><trkpt lat="45.3915133" lon="11.500435"><ele>220.0</ele><time>2026-03-22T10:13:59.057Z</time></trkpt><trkpt lat="45.39147" lon="11.5005283"><ele>219.99999999999997</ele><time>2026-03-22T10:14:00.058Z</time></trkpt><trkpt lat="45.391435" lon="11.5006083"><ele>220.0</ele><time>2026-03-22T10:14:01.058Z</time></trkpt><trkpt lat="45.3913767" lon="11.5007433"><ele>223.4</ele><time>2026-03-22T10:14:03.058Z</time></trkpt><trkpt lat="45.391305" lon="11.5008583"><ele>226.8</ele><time>2026-03-22T10:14:05.058Z</time></trkpt><trkpt lat="45.39122" lon="11.5009367"><ele>230.2</ele><time>2026-03-22T10:14:07.058Z</time></trkpt><trkpt lat="45.3911317" lon="11.5009933"><ele>233.6</ele><time>2026-03-22T10:14:09.058Z</time></trkpt><trkpt lat="45.39106" lon="11.5010633"><ele>237.0</ele><time>2026-03-22T10:14:11.058Z</time></trkpt><trkpt lat="45.3909883" lon="11.5011433"><ele>237.0</ele><time>2026-03-22T10:14:14.057Z</time></trkpt><trkpt lat="45.390945" lon="11.5012267"><ele>237.0</ele><time>2026-03-22T10:14:18.058Z</time></trkpt><trkpt lat="45.3908483" lon="11.5013133"><ele>237.0</ele><time>2026-03-22T10:14:24.058Z</time></trkpt><trkpt lat="45.3907483" lon="11.5014117"><ele>237.0</ele><time>2026-03-22T10:16:57.058Z</time></trkpt><trkpt lat="45.3906983" lon="11.501485"><ele>237.0</ele><time>2026-03-22T10:17:03.058Z</time></trkpt><trkpt lat="45.3906367" lon="11.5015117"><ele>237.0</ele><time>2026-03-22T10:17:05.058Z</time></trkpt><trkpt lat="45.39059" lon="11.5014467"><ele>236.0</ele><time>2026-03-22T10:17:10.058Z</time></trkpt><trkpt lat="45.39048" lon="11.5014167"><ele>235.0</ele><time>2026-03-22T10:17:12.058Z</time></trkpt><trkpt lat="45.390365" lon="11.501355"><ele>234.0</ele><time>2026-03-22T10:17:13.058Z</time></trkpt><trkpt lat="45.39022" lon="11.5012533"><ele>233.0</ele><time>2026-03-22T10:17:14.058Z</time></trkpt><trkpt lat="45.39008" lon="11.5011583"><ele>233.0</ele><time>2026-03-22T10:17:15.057Z</time></trkpt><trkpt lat="45.38994" lon="11.50108"><ele>233.0</ele><time>2026-03-22T10:17:16.058Z</time></trkpt><trkpt lat="45.389815" lon="11.500985"><ele>233.0</ele><time>2026-03-22T10:17:17.058Z</time></trkpt><trkpt lat="45.3897017" lon="11.5008683"><ele>233.0</ele><time>2026-03-22T10:17:18.058Z</time></trkpt><trkpt lat="45.389615" lon="11.5007867"><ele>231.8</ele><time>2026-03-22T10:17:19.057Z</time></trkpt><trkpt lat="45.38953" lon="11.50073"><ele>230.60000000000002</ele><time>2026-03-22T10:17:20.057Z</time></trkpt><trkpt lat="45.3894283" lon="11.5007233"><ele>229.39999999999998</ele><time>2026-03-22T10:17:21.058Z</time></trkpt><trkpt lat="45.3893217" lon="11.5007267"><ele>228.2</ele><time>2026-03-22T10:17:22.058Z</time></trkpt><trkpt lat="45.3892033" lon="11.50073"><ele>227.0</ele><time>2026-03-22T10:17:23.057Z</time></trkpt><trkpt lat="45.389115" lon="11.500705"><ele>227.00000000000003</ele><time>2026-03-22T10:17:24.057Z</time></trkpt><trkpt lat="45.3890517" lon="11.50071"><ele>227.0</ele><time>2026-03-22T10:17:25.058Z</time></trkpt><trkpt lat="45.3890083" lon="11.5007783"><ele>227.0</ele><time>2026-03-22T10:17:29.057Z</time></trkpt><trkpt lat="45.3889283" lon="11.5007583"><ele>227.0</ele><time>2026-03-22T10:17:33.058Z</time></trkpt><trkpt lat="45.388825" lon="11.500735"><ele>227.00000000000003</ele><time>2026-03-22T10:17:42.058Z</time></trkpt><trkpt lat="45.3888" lon="11.500835"><ele>227.0</ele><time>2026-03-22T10:17:46.058Z</time></trkpt><trkpt lat="45.38874" lon="11.500935"><ele>227.50000000000003</ele><time>2026-03-22T10:17:49.058Z</time></trkpt><trkpt lat="45.3886983" lon="11.50101"><ele>228.0</ele><time>2026-03-22T10:17:52.058Z</time></trkpt><trkpt lat="45.3886867" lon="11.5011333"><ele>228.5</ele><time>2026-03-22T10:17:54.058Z</time></trkpt><trkpt lat="45.388645" lon="11.5012383"><ele>229.0</ele><time>2026-03-22T10:17:57.058Z</time></trkpt><trkpt lat="45.3886117" lon="11.5013417"><ele>229.50000000000003</ele><time>2026-03-22T10:18:00.058Z</time></trkpt><trkpt lat="45.388565" lon="11.5014133"><ele>230.0</ele><time>2026-03-22T10:18:03.058Z</time></trkpt><trkpt lat="45.3884917" lon="11.5014633"><ele>230.00000000000003</ele><time>2026-03-22T10:18:06.057Z</time></trkpt><trkpt lat="45.3884283" lon="11.501475"><ele>230.0</ele><time>2026-03-22T10:18:07.057Z</time></trkpt><trkpt lat="45.3883583" lon="11.5015267"><ele>230.0</ele><time>2026-03-22T10:18:09.058Z</time></trkpt><trkpt lat="45.3882483" lon="11.501545"><ele>230.0</ele><time>2026-03-22T10:18:10.058Z</time></trkpt><trkpt lat="45.3881833" lon="11.5016067"><ele>230.00000000000003</ele><time>2026-03-22T10:18:14.058Z</time></trkpt><trkpt lat="45.3880783" lon="11.5015883"><ele>230.0</ele><time>2026-03-22T10:18:17.058Z</time></trkpt><trkpt lat="45.3879983" lon="11.5016233"><ele>233.4</ele><time>2026-03-22T10:18:22.058Z</time></trkpt><trkpt lat="45.387935" lon="11.5017167"><ele>236.8</ele><time>2026-03-22T10:18:25.058Z</time></trkpt><trkpt lat="45.38795" lon="11.5018333"><ele>240.2</ele><time>2026-03-22T10:18:29.058Z</time></trkpt><trkpt lat="45.387985" lon="11.5019683"><ele>243.6</ele><time>2026-03-22T10:18:33.058Z</time></trkpt><trkpt lat="45.3879983" lon="11.5020883"><ele>247.0</ele><time>2026-03-22T10:18:35.057Z</time></trkpt><trkpt lat="45.3880033" lon="11.5022217"><ele>247.99999999999997</ele><time>2026-03-22T10:18:37.057Z</time></trkpt><trkpt lat="45.3879917" lon="11.5023617"><ele>249.0</ele><time>2026-03-22T10:18:39.058Z</time></trkpt><trkpt lat="45.3879467" lon="11.5024517"><ele>250.0</ele><time>2026-03-22T10:18:41.057Z</time></trkpt><trkpt lat="45.3879117" lon="11.5026067"><ele>251.0</ele><time>2026-03-22T10:18:43.057Z</time></trkpt><trkpt lat="45.3878967" lon="11.5027283"><ele>251.99999999999997</ele><time>2026-03-22T10:18:44.058Z</time></trkpt><trkpt lat="45.3878867" lon="11.5028233"><ele>253.0</ele><time>2026-03-22T10:18:45.058Z</time></trkpt><trkpt lat="45.387875" lon="11.5029217"><ele>254.0</ele><time>2026-03-22T10:18:46.058Z</time></trkpt><trkpt lat="45.38786" lon="11.5030383"><ele>255.0</ele><time>2026-03-22T10:18:47.058Z</time></trkpt><trkpt lat="45.3878367" lon="11.5031633"><ele>256.0</ele><time>2026-03-22T10:18:48.058Z</time></trkpt><trkpt lat="45.3878033" lon="11.50329"><ele>257.0</ele><time>2026-03-22T10:18:49.057Z</time></trkpt><trkpt lat="45.38777" lon="11.5034217"><ele>258.0</ele><time>2026-03-22T10:18:50.058Z</time></trkpt><trkpt lat="45.3877367" lon="11.5035883"><ele>258.0</ele><time>2026-03-22T10:18:51.057Z</time></trkpt><trkpt lat="45.38771" lon="11.5037383"><ele>258.0</ele><time>2026-03-22T10:18:52.057Z</time></trkpt><trkpt lat="45.3876917" lon="11.50385"><ele>258.0</ele><time>2026-03-22T10:18:53.058Z</time></trkpt><trkpt lat="45.3876733" lon="11.5039467"><ele>258.0</ele><time>2026-03-22T10:18:54.058Z</time></trkpt><trkpt lat="45.38766" lon="11.5040483"><ele>258.0</ele><time>2026-03-22T10:18:55.058Z</time></trkpt><trkpt lat="45.387645" lon="11.50414"><ele>258.0</ele><time>2026-03-22T10:18:56.058Z</time></trkpt><trkpt lat="45.38764" lon="11.50424"><ele>257.0</ele><time>2026-03-22T10:18:57.058Z</time></trkpt><trkpt lat="45.3876433" lon="11.504405"><ele>256.0</ele><time>2026-03-22T10:18:58.058Z</time></trkpt><trkpt lat="45.38763" lon="11.50454"><ele>255.0</ele><time>2026-03-22T10:18:59.058Z</time></trkpt><trkpt lat="45.38763" lon="11.5046633"><ele>254.0</ele><time>2026-03-22T10:19:00.058Z</time></trkpt><trkpt lat="45.387615" lon="11.5047517"><ele>253.0</ele><time>2026-03-22T10:19:01.057Z</time></trkpt><trkpt lat="45.387575" lon="11.5048617"><ele>252.0</ele><time>2026-03-22T10:19:02.058Z</time></trkpt><trkpt lat="45.387525" lon="11.50497"><ele>250.0</ele><time>2026-03-22T10:19:03.058Z</time></trkpt><trkpt lat="45.3874433" lon="11.5050883"><ele>248.0</ele><time>2026-03-22T10:19:05.058Z</time></trkpt><trkpt lat="45.3873917" lon="11.505145"><ele>246.0</ele><time>2026-03-22T10:19:06.058Z</time></trkpt><trkpt lat="45.3873417" lon="11.505215"><ele>244.0</ele><time>2026-03-22T10:19:07.057Z</time></trkpt><trkpt lat="45.38729" lon="11.505285"><ele>242.0</ele><time>2026-03-22T10:19:08.058Z</time></trkpt><trkpt lat="45.38724" lon="11.5053583"><ele>240.0</ele><time>2026-03-22T10:19:09.058Z</time></trkpt><trkpt lat="45.3871867" lon="11.50544"><ele>238.16666666666666</ele><time>2026-03-22T10:19:10.058Z</time></trkpt><trkpt lat="45.3871233" lon="11.50553"><ele>236.33333333333331</ele><time>2026-03-22T10:19:11.058Z</time></trkpt><trkpt lat="45.3870617" lon="11.5056117"><ele>234.5</ele><time>2026-03-22T10:19:12.058Z</time></trkpt><trkpt lat="45.3869983" lon="11.5056867"><ele>232.66666666666666</ele><time>2026-03-22T10:19:13.058Z</time></trkpt><trkpt lat="45.3869417" lon="11.5057567"><ele>230.83333333333331</ele><time>2026-03-22T10:19:14.058Z</time></trkpt><trkpt lat="45.3868483" lon="11.5058333"><ele>229.0</ele><time>2026-03-22T10:19:16.058Z</time></trkpt><trkpt lat="45.3867767" lon="11.50588"><ele>229.0</ele><time>2026-03-22T10:19:18.057Z</time></trkpt><trkpt lat="45.386715" lon="11.5059133"><ele>229.0</ele><time>2026-03-22T10:19:20.058Z</time></trkpt><trkpt lat="45.3866367" lon="11.5059233"><ele>229.0</ele><time>2026-03-22T10:19:23.058Z</time></trkpt><trkpt lat="45.386575" lon="11.5059567"><ele>229.0</ele><time>2026-03-22T10:19:26.057Z</time></trkpt><trkpt lat="45.3865433" lon="11.5060483"><ele>229.0</ele><time>2026-03-22T10:19:33.057Z</time></trkpt><trkpt lat="45.386565" lon="11.5061483"><ele>229.0</ele><time>2026-03-22T10:19:37.057Z</time></trkpt><trkpt lat="45.3866033" lon="11.5062383"><ele>229.0</ele><time>2026-03-22T10:19:39.057Z</time></trkpt><trkpt lat="45.386645" lon="11.5063483"><ele>226.83333333333331</ele><time>2026-03-22T10:19:41.057Z</time></trkpt><trkpt lat="45.3866967" lon="11.5064233"><ele>224.66666666666666</ele><time>2026-03-22T10:19:43.057Z</time></trkpt><trkpt lat="45.3866883" lon="11.5065517"><ele>222.5</ele><time>2026-03-22T10:19:45.057Z</time></trkpt><trkpt lat="45.3866733" lon="11.5066683"><ele>220.33333333333331</ele><time>2026-03-22T10:19:47.057Z</time></trkpt><trkpt lat="45.3866733" lon="11.5067783"><ele>218.16666666666666</ele><time>2026-03-22T10:19:49.057Z</time></trkpt><trkpt lat="45.3866883" lon="11.5069017"><ele>216.0</ele><time>2026-03-22T10:19:52.057Z</time></trkpt><trkpt lat="45.3867017" lon="11.5069983"><ele>214.33333333333334</ele><time>2026-03-22T10:19:54.057Z</time></trkpt><trkpt lat="45.386665" lon="11.507125"><ele>212.66666666666669</ele><time>2026-03-22T10:19:57.057Z</time></trkpt><trkpt lat="45.3866417" lon="11.5072133"><ele>211.0</ele><time>2026-03-22T10:19:59.057Z</time></trkpt><trkpt lat="45.38663" lon="11.5073117"><ele>209.33333333333334</ele><time>2026-03-22T10:20:01.057Z</time></trkpt><trkpt lat="45.386625" lon="11.5074267"><ele>207.66666666666669</ele><time>2026-03-22T10:20:03.057Z</time></trkpt><trkpt lat="45.3866067" lon="11.5075283"><ele>206.0</ele><time>2026-03-22T10:20:05.057Z</time></trkpt><trkpt lat="45.38658" lon="11.50762"><ele>205.99999999999997</ele><time>2026-03-22T10:20:07.056Z</time></trkpt><trkpt lat="45.38656" lon="11.5077133"><ele>206.0</ele><time>2026-03-22T10:20:09.057Z</time></trkpt><trkpt lat="45.386545" lon="11.5078233"><ele>206.0</ele><time>2026-03-22T10:20:12.057Z</time></trkpt><trkpt lat="45.38654" lon="11.5079133"><ele>206.0</ele><time>2026-03-22T10:20:15.057Z</time></trkpt><trkpt lat="45.386595" lon="11.5078483"><ele>206.0</ele><time>2026-03-22T10:20:20.057Z</time></trkpt><trkpt lat="45.3866483" lon="11.507775"><ele>205.99999999999997</ele><time>2026-03-22T10:20:23.057Z</time></trkpt><trkpt lat="45.386675" lon="11.5076483"><ele>206.0</ele><time>2026-03-22T10:20:26.057Z</time></trkpt><trkpt lat="45.3867" lon="11.507565"><ele>206.0</ele><time>2026-03-22T10:20:27.056Z</time></trkpt><trkpt lat="45.38678" lon="11.5074283"><ele>206.0</ele><time>2026-03-22T10:20:29.057Z</time></trkpt><trkpt lat="45.386865" lon="11.5073133"><ele>206.0</ele><time>2026-03-22T10:20:30.057Z</time></trkpt><trkpt lat="45.3869233" lon="11.50723"><ele>206.0</ele><time>2026-03-22T10:20:31.057Z</time></trkpt><trkpt lat="45.387" lon="11.5071633"><ele>206.0</ele><time>2026-03-22T10:20:32.057Z</time></trkpt><trkpt lat="45.3870967" lon="11.507055"><ele>207.50000000000003</ele><time>2026-03-22T10:20:33.057Z</time></trkpt><trkpt lat="45.3871733" lon="11.50698"><ele>209.0</ele><time>2026-03-22T10:20:34.057Z</time></trkpt><trkpt lat="45.387255" lon="11.5069283"><ele>210.5</ele><time>2026-03-22T10:20:35.057Z</time></trkpt><trkpt lat="45.3873133" lon="11.5068817"><ele>212.0</ele><time>2026-03-22T10:20:36.057Z</time></trkpt><trkpt lat="45.3874267" lon="11.506885"><ele>213.50000000000003</ele><time>2026-03-22T10:21:01.057Z</time></trkpt><trkpt lat="45.3875033" lon="11.5068917"><ele>215.0</ele><time>2026-03-22T10:21:56.057Z</time></trkpt><trkpt lat="45.3874583" lon="11.5069883"><ele>214.50000000000003</ele><time>2026-03-22T10:22:00.057Z</time></trkpt><trkpt lat="45.3874283" lon="11.5070983"><ele>214.0</ele><time>2026-03-22T10:22:03.057Z</time></trkpt><trkpt lat="45.3873767" lon="11.50719"><ele>213.5</ele><time>2026-03-22T10:22:05.056Z</time></trkpt><trkpt lat="45.3873117" lon="11.5072583"><ele>213.0</ele><time>2026-03-22T10:22:07.057Z</time></trkpt><trkpt lat="45.3872267" lon="11.5073417"><ele>212.50000000000003</ele><time>2026-03-22T10:22:09.057Z</time></trkpt><trkpt lat="45.3871617" lon="11.50742"><ele>212.0</ele><time>2026-03-22T10:22:11.057Z</time></trkpt><trkpt lat="45.3870767" lon="11.5075183"><ele>211.00000000000003</ele><time>2026-03-22T10:22:13.057Z</time></trkpt><trkpt lat="45.3870083" lon="11.5076067"><ele>210.0</ele><time>2026-03-22T10:22:15.057Z</time></trkpt><trkpt lat="45.3869517" lon="11.5076633"><ele>209.0</ele><time>2026-03-22T10:22:16.057Z</time></trkpt><trkpt lat="45.3868783" lon="11.507755"><ele>208.0</ele><time>2026-03-22T10:22:18.057Z</time></trkpt><trkpt lat="45.38682" lon="11.5078383"><ele>207.00000000000003</ele><time>2026-03-22T10:22:21.057Z</time></trkpt><trkpt lat="45.3868033" lon="11.5079333"><ele>206.0</ele><time>2026-03-22T10:22:24.057Z</time></trkpt><trkpt lat="45.3867317" lon="11.5079567"><ele>204.33333333333334</ele><time>2026-03-22T10:22:30.057Z</time></trkpt><trkpt lat="45.3866133" lon="11.5080117"><ele>202.66666666666669</ele><time>2026-03-22T10:22:43.057Z</time></trkpt><trkpt lat="45.38654" lon="11.5080917"><ele>201.0</ele><time>2026-03-22T10:22:54.057Z</time></trkpt><trkpt lat="45.3865017" lon="11.508205"><ele>199.33333333333331</ele><time>2026-03-22T10:22:57.057Z</time></trkpt><trkpt lat="45.3864933" lon="11.508295"><ele>197.66666666666666</ele><time>2026-03-22T10:22:59.057Z</time></trkpt><trkpt lat="45.3864667" lon="11.5083983"><ele>196.0</ele><time>2026-03-22T10:23:02.057Z</time></trkpt><trkpt lat="45.3864567" lon="11.5085133"><ele>195.99999999999997</ele><time>2026-03-22T10:23:06.057Z</time></trkpt><trkpt lat="45.3865183" lon="11.508545"><ele>196.0</ele><time>2026-03-22T10:23:09.056Z</time></trkpt><trkpt lat="45.3866033" lon="11.5085633"><ele>196.0</ele><time>2026-03-22T10:23:12.057Z</time></trkpt><trkpt lat="45.3866717" lon="11.5085717"><ele>196.0</ele><time>2026-03-22T10:23:13.056Z</time></trkpt><trkpt lat="45.3867867" lon="11.50864"><ele>195.99999999999997</ele><time>2026-03-22T10:23:15.057Z</time></trkpt><trkpt lat="45.38684" lon="11.5087133"><ele>196.0</ele><time>2026-03-22T10:23:16.056Z</time></trkpt><trkpt lat="45.3868867" lon="11.508775"><ele>194.66666666666666</ele><time>2026-03-22T10:23:17.057Z</time></trkpt><trkpt lat="45.3869433" lon="11.5088333"><ele>193.33333333333331</ele><time>2026-03-22T10:23:18.057Z</time></trkpt><trkpt lat="45.3870233" lon="11.5088917"><ele>192.0</ele><time>2026-03-22T10:23:20.057Z</time></trkpt><trkpt lat="45.3871183" lon="11.5089333"><ele>190.66666666666666</ele><time>2026-03-22T10:23:22.057Z</time></trkpt><trkpt lat="45.3872333" lon="11.5089683"><ele>189.33333333333331</ele><time>2026-03-22T10:23:24.057Z</time></trkpt><trkpt lat="45.3872967" lon="11.5089467"><ele>188.0</ele><time>2026-03-22T10:23:25.057Z</time></trkpt><trkpt lat="45.387365" lon="11.5089283"><ele>188.0</ele><time>2026-03-22T10:23:26.057Z</time></trkpt><trkpt lat="45.3874433" lon="11.508925"><ele>188.0</ele><time>2026-03-22T10:23:27.057Z</time></trkpt><trkpt lat="45.38754" lon="11.5089117"><ele>188.0</ele><time>2026-03-22T10:23:28.057Z</time></trkpt><trkpt lat="45.387625" lon="11.5089217"><ele>188.0</ele><time>2026-03-22T10:23:29.057Z</time></trkpt><trkpt lat="45.38771" lon="11.5089417"><ele>188.0</ele><time>2026-03-22T10:23:30.057Z</time></trkpt><trkpt lat="45.3878083" lon="11.5089833"><ele>188.0</ele><time>2026-03-22T10:23:31.057Z</time></trkpt><trkpt lat="45.387895" lon="11.5090017"><ele>188.0</ele><time>2026-03-22T10:23:32.057Z</time></trkpt><trkpt lat="45.387965" lon="11.5089883"><ele>188.0</ele><time>2026-03-22T10:23:33.057Z</time></trkpt><trkpt lat="45.3880333" lon="11.5089633"><ele>188.0</ele><time>2026-03-22T10:23:34.057Z</time></trkpt><trkpt lat="45.3881017" lon="11.5089333"><ele>188.0</ele><time>2026-03-22T10:23:35.057Z</time></trkpt><trkpt lat="45.3881683" lon="11.5089117"><ele>188.0</ele><time>2026-03-22T10:23:36.057Z</time></trkpt><trkpt lat="45.3882367" lon="11.5089017"><ele>188.0</ele><time>2026-03-22T10:23:37.057Z</time></trkpt><trkpt lat="45.3883" lon="11.5088967"><ele>188.0</ele><time>2026-03-22T10:23:38.056Z</time></trkpt><trkpt lat="45.3884183" lon="11.50888"><ele>188.16666666666666</ele><time>2026-03-22T10:23:40.056Z</time></trkpt><trkpt lat="45.3885017" lon="11.508865"><ele>188.33333333333331</ele><time>2026-03-22T10:23:42.056Z</time></trkpt><trkpt lat="45.3886117" lon="11.5088333"><ele>188.5</ele><time>2026-03-22T10:23:44.057Z</time></trkpt><trkpt lat="45.3886817" lon="11.5088233"><ele>188.66666666666666</ele><time>2026-03-22T10:23:45.057Z</time></trkpt><trkpt lat="45.3887517" lon="11.50882"><ele>188.83333333333334</ele><time>2026-03-22T10:23:46.057Z</time></trkpt><trkpt lat="45.3888267" lon="11.5088233"><ele>189.0</ele><time>2026-03-22T10:23:47.057Z</time></trkpt><trkpt lat="45.3888933" lon="11.5088317"><ele>189.14285714285714</ele><time>2026-03-22T10:23:48.057Z</time></trkpt><trkpt lat="45.388965" lon="11.5088267"><ele>189.28571428571428</ele><time>2026-03-22T10:23:49.057Z</time></trkpt><trkpt lat="45.38904" lon="11.5088183"><ele>189.42857142857144</ele><time>2026-03-22T10:23:50.057Z</time></trkpt><trkpt lat="45.3891233" lon="11.508825"><ele>189.57142857142856</ele><time>2026-03-22T10:23:51.057Z</time></trkpt><trkpt lat="45.3892" lon="11.508835"><ele>189.71428571428572</ele><time>2026-03-22T10:23:52.056Z</time></trkpt><trkpt lat="45.3892683" lon="11.508845"><ele>189.85714285714286</ele><time>2026-03-22T10:23:53.057Z</time></trkpt><trkpt lat="45.3893383" lon="11.5088533"><ele>190.0</ele><time>2026-03-22T10:23:54.056Z</time></trkpt><trkpt lat="45.3894017" lon="11.5088567"><ele>190.0</ele><time>2026-03-22T10:23:55.057Z</time></trkpt><trkpt lat="45.38947" lon="11.5088617"><ele>190.0</ele><time>2026-03-22T10:23:56.057Z</time></trkpt><trkpt lat="45.3895417" lon="11.5088683"><ele>190.0</ele><time>2026-03-22T10:23:57.057Z</time></trkpt><trkpt lat="45.389615" lon="11.508875"><ele>190.0</ele><time>2026-03-22T10:23:58.056Z</time></trkpt><trkpt lat="45.3896917" lon="11.5088867"><ele>190.0</ele><time>2026-03-22T10:23:59.057Z</time></trkpt><trkpt lat="45.38977" lon="11.5089017"><ele>190.0</ele><time>2026-03-22T10:24:00.057Z</time></trkpt><trkpt lat="45.38985" lon="11.50891"><ele>189.66666666666669</ele><time>2026-03-22T10:24:01.057Z</time></trkpt><trkpt lat="45.389925" lon="11.5089233"><ele>189.33333333333334</ele><time>2026-03-22T10:24:02.057Z</time></trkpt><trkpt lat="45.3899917" lon="11.5089333"><ele>189.0</ele><time>2026-03-22T10:24:03.057Z</time></trkpt><trkpt lat="45.3900567" lon="11.508955"><ele>188.66666666666666</ele><time>2026-03-22T10:24:04.056Z</time></trkpt><trkpt lat="45.3901767" lon="11.5089617"><ele>188.33333333333331</ele><time>2026-03-22T10:24:06.057Z</time></trkpt><trkpt lat="45.390265" lon="11.5089267"><ele>188.0</ele><time>2026-03-22T10:24:08.057Z</time></trkpt><trkpt lat="45.39036" lon="11.5088933"><ele>188.0</ele><time>2026-03-22T10:24:10.057Z</time></trkpt><trkpt lat="45.3904433" lon="11.5088383"><ele>188.0</ele><time>2026-03-22T10:24:12.057Z</time></trkpt><trkpt lat="45.39051" lon="11.50879"><ele>188.0</ele><time>2026-03-22T10:24:14.057Z</time></trkpt><trkpt lat="45.390605" lon="11.5086967"><ele>188.0</ele><time>2026-03-22T10:24:16.057Z</time></trkpt><trkpt lat="45.3906967" lon="11.50861"><ele>188.0</ele><time>2026-03-22T10:24:18.056Z</time></trkpt><trkpt lat="45.39077" lon="11.5084783"><ele>187.4</ele><time>2026-03-22T10:24:20.057Z</time></trkpt><trkpt lat="45.390825" lon="11.508355"><ele>186.8</ele><time>2026-03-22T10:24:22.057Z</time></trkpt><trkpt lat="45.3908783" lon="11.50824"><ele>186.2</ele><time>2026-03-22T10:24:24.057Z</time></trkpt><trkpt lat="45.3909333" lon="11.5081283"><ele>185.6</ele><time>2026-03-22T10:24:26.057Z</time></trkpt><trkpt lat="45.3909783" lon="11.508025"><ele>185.0</ele><time>2026-03-22T10:24:28.057Z</time></trkpt><trkpt lat="45.391035" lon="11.5079317"><ele>185.0</ele><time>2026-03-22T10:24:30.056Z</time></trkpt><trkpt lat="45.39109" lon="11.507885"><ele>185.0</ele><time>2026-03-22T10:24:32.056Z</time></trkpt><trkpt lat="45.3911683" lon="11.5078983"><ele>185.0</ele><time>2026-03-22T10:24:35.057Z</time></trkpt><trkpt lat="45.39124" lon="11.5079617"><ele>185.0</ele><time>2026-03-22T10:24:37.057Z</time></trkpt><trkpt lat="45.3912867" lon="11.50811"><ele>185.0</ele><time>2026-03-22T10:24:39.056Z</time></trkpt><trkpt lat="45.3913117" lon="11.5082533"><ele>185.0</ele><time>2026-03-22T10:24:40.057Z</time></trkpt><trkpt lat="45.391315" lon="11.5084167"><ele>185.0</ele><time>2026-03-22T10:24:41.057Z</time></trkpt><trkpt lat="45.3913033" lon="11.5085767"><ele>185.0</ele><time>2026-03-22T10:24:42.057Z</time></trkpt><trkpt lat="45.3912883" lon="11.5087167"><ele>185.0</ele><time>2026-03-22T10:24:43.057Z</time></trkpt><trkpt lat="45.391275" lon="11.5088417"><ele>185.0</ele><time>2026-03-22T10:24:44.057Z</time></trkpt><trkpt lat="45.3912533" lon="11.5089717"><ele>185.0</ele><time>2026-03-22T10:24:45.057Z</time></trkpt><trkpt lat="45.3912267" lon="11.509115"><ele>182.5</ele><time>2026-03-22T10:24:46.056Z</time></trkpt><trkpt lat="45.3912183" lon="11.50924"><ele>180.0</ele><time>2026-03-22T10:24:47.056Z</time></trkpt><trkpt lat="45.3912117" lon="11.50936"><ele>177.5</ele><time>2026-03-22T10:24:48.057Z</time></trkpt><trkpt lat="45.39121" lon="11.5094783"><ele>175.0</ele><time>2026-03-22T10:24:49.057Z</time></trkpt><trkpt lat="45.3912" lon="11.5096"><ele>172.5</ele><time>2026-03-22T10:24:50.057Z</time></trkpt><trkpt lat="45.3911933" lon="11.50971"><ele>170.0</ele><time>2026-03-22T10:24:51.056Z</time></trkpt><trkpt lat="45.3911883" lon="11.5098117"><ele>167.16666666666666</ele><time>2026-03-22T10:24:52.057Z</time></trkpt><trkpt lat="45.3911733" lon="11.5099017"><ele>164.33333333333331</ele><time>2026-03-22T10:24:53.057Z</time></trkpt><trkpt lat="45.3911683" lon="11.5100733"><ele>161.5</ele><time>2026-03-22T10:25:04.057Z</time></trkpt><trkpt lat="45.3912" lon="11.5101717"><ele>158.66666666666666</ele><time>2026-03-22T10:25:07.057Z</time></trkpt><trkpt lat="45.3911833" lon="11.51028"><ele>155.83333333333334</ele><time>2026-03-22T10:25:10.057Z</time></trkpt><trkpt lat="45.391205" lon="11.510375"><ele>153.0</ele><time>2026-03-22T10:25:15.056Z</time></trkpt><trkpt lat="45.3912583" lon="11.5104533"><ele>153.4</ele><time>2026-03-22T10:25:17.056Z</time></trkpt><trkpt lat="45.3913117" lon="11.5105283"><ele>153.8</ele><time>2026-03-22T10:25:19.057Z</time></trkpt><trkpt lat="45.3913833" lon="11.51063"><ele>154.2</ele><time>2026-03-22T10:25:21.057Z</time></trkpt><trkpt lat="45.3914717" lon="11.5107583"><ele>154.6</ele><time>2026-03-22T10:25:23.057Z</time></trkpt><trkpt lat="45.3915183" lon="11.5108417"><ele>155.0</ele><time>2026-03-22T10:25:24.056Z</time></trkpt><trkpt lat="45.39156" lon="11.5109283"><ele>155.0</ele><time>2026-03-22T10:25:25.057Z</time></trkpt><trkpt lat="45.3915917" lon="11.5110133"><ele>155.0</ele><time>2026-03-22T10:25:26.057Z</time></trkpt><trkpt lat="45.3916267" lon="11.5110967"><ele>155.0</ele><time>2026-03-22T10:25:27.056Z</time></trkpt><trkpt lat="45.3916933" lon="11.5112267"><ele>155.0</ele><time>2026-03-22T10:25:29.056Z</time></trkpt><trkpt lat="45.39176" lon="11.51133"><ele>155.0</ele><time>2026-03-22T10:25:31.057Z</time></trkpt><trkpt lat="45.3918333" lon="11.5114483"><ele>154.2</ele><time>2026-03-22T10:25:33.057Z</time></trkpt><trkpt lat="45.3919283" lon="11.5115467"><ele>153.4</ele><time>2026-03-22T10:25:35.057Z</time></trkpt><trkpt lat="45.3920383" lon="11.511585"><ele>152.6</ele><time>2026-03-22T10:25:37.057Z</time></trkpt><trkpt lat="45.3921283" lon="11.5115767"><ele>151.8</ele><time>2026-03-22T10:25:39.057Z</time></trkpt><trkpt lat="45.3922133" lon="11.5115683"><ele>151.0</ele><time>2026-03-22T10:25:41.057Z</time></trkpt><trkpt lat="45.3923267" lon="11.5115833"><ele>155.0</ele><time>2026-03-22T10:25:43.057Z</time></trkpt><trkpt lat="45.3923967" lon="11.5116133"><ele>159.0</ele><time>2026-03-22T10:25:44.057Z</time></trkpt><trkpt lat="45.3924783" lon="11.5116517"><ele>163.0</ele><time>2026-03-22T10:25:45.057Z</time></trkpt><trkpt lat="45.3925567" lon="11.5116933"><ele>167.0</ele><time>2026-03-22T10:25:46.057Z</time></trkpt><trkpt lat="45.3926267" lon="11.5117467"><ele>171.0</ele><time>2026-03-22T10:25:47.057Z</time></trkpt><trkpt lat="45.392685" lon="11.5118033"><ele>175.0</ele><time>2026-03-22T10:25:48.056Z</time></trkpt><trkpt lat="45.3927367" lon="11.5118567"><ele>175.0</ele><time>2026-03-22T10:25:49.057Z</time></trkpt><trkpt lat="45.3928367" lon="11.511925"><ele>175.0</ele><time>2026-03-22T10:25:51.057Z</time></trkpt><trkpt lat="45.3929033" lon="11.511955"><ele>175.0</ele><time>2026-03-22T10:25:52.057Z</time></trkpt><trkpt lat="45.39298" lon="11.5119733"><ele>175.0</ele><time>2026-03-22T10:25:53.056Z</time></trkpt><trkpt lat="45.3930517" lon="11.51199"><ele>175.0</ele><time>2026-03-22T10:25:54.057Z</time></trkpt><trkpt lat="45.3931183" lon="11.51199"><ele>175.0</ele><time>2026-03-22T10:25:55.057Z</time></trkpt><trkpt lat="45.3932383" lon="11.5119683"><ele>176.28571428571428</ele><time>2026-03-22T10:25:57.057Z</time></trkpt><trkpt lat="45.3933" lon="11.51194"><ele>177.57142857142856</ele><time>2026-03-22T10:25:58.056Z</time></trkpt><trkpt lat="45.39336" lon="11.511905"><ele>178.85714285714286</ele><time>2026-03-22T10:25:59.057Z</time></trkpt><trkpt lat="45.3934233" lon="11.511875"><ele>180.14285714285714</ele><time>2026-03-22T10:26:00.057Z</time></trkpt><trkpt lat="45.3934883" lon="11.511845"><ele>181.42857142857142</ele><time>2026-03-22T10:26:01.057Z</time></trkpt><trkpt lat="45.393555" lon="11.5118117"><ele>182.71428571428572</ele><time>2026-03-22T10:26:02.057Z</time></trkpt><trkpt lat="45.3936183" lon="11.5117883"><ele>184.0</ele><time>2026-03-22T10:26:03.057Z</time></trkpt><trkpt lat="45.393745" lon="11.51173"><ele>184.0</ele><time>2026-03-22T10:26:05.057Z</time></trkpt><trkpt lat="45.3938217" lon="11.511695"><ele>184.0</ele><time>2026-03-22T10:26:06.057Z</time></trkpt><trkpt lat="45.3938917" lon="11.5116633"><ele>184.0</ele><time>2026-03-22T10:26:07.057Z</time></trkpt><trkpt lat="45.3939533" lon="11.51163"><ele>184.0</ele><time>2026-03-22T10:26:08.056Z</time></trkpt><trkpt lat="45.3940583" lon="11.511575"><ele>184.0</ele><time>2026-03-22T10:26:10.057Z</time></trkpt><trkpt lat="45.3941633" lon="11.5115083"><ele>184.0</ele><time>2026-03-22T10:26:12.057Z</time></trkpt><trkpt lat="45.3942283" lon="11.5114733"><ele>183.16666666666669</ele><time>2026-03-22T10:26:13.057Z</time></trkpt><trkpt lat="45.3943083" lon="11.51143"><ele>182.33333333333334</ele><time>2026-03-22T10:26:14.056Z</time></trkpt><trkpt lat="45.3943967" lon="11.5113733"><ele>181.5</ele><time>2026-03-22T10:26:15.057Z</time></trkpt><trkpt lat="45.3944767" lon="11.5113183"><ele>180.66666666666666</ele><time>2026-03-22T10:26:16.057Z</time></trkpt><trkpt lat="45.3945567" lon="11.51127"><ele>179.83333333333331</ele><time>2026-03-22T10:26:17.057Z</time></trkpt><trkpt lat="45.39462" lon="11.511225"><ele>179.0</ele><time>2026-03-22T10:26:18.057Z</time></trkpt><trkpt lat="45.3946817" lon="11.51118"><ele>181.33333333333331</ele><time>2026-03-22T10:26:19.057Z</time></trkpt><trkpt lat="45.39474" lon="11.5111317"><ele>183.66666666666666</ele><time>2026-03-22T10:26:20.057Z</time></trkpt><trkpt lat="45.3947933" lon="11.5110783"><ele>186.0</ele><time>2026-03-22T10:26:21.057Z</time></trkpt><trkpt lat="45.3948533" lon="11.5110233"><ele>188.33333333333331</ele><time>2026-03-22T10:26:22.057Z</time></trkpt><trkpt lat="45.3949183" lon="11.5109733"><ele>190.66666666666666</ele><time>2026-03-22T10:26:23.057Z</time></trkpt><trkpt lat="45.39499" lon="11.5109233"><ele>193.0</ele><time>2026-03-22T10:26:24.056Z</time></trkpt><trkpt lat="45.3950783" lon="11.5108833"><ele>193.0</ele><time>2026-03-22T10:26:25.056Z</time></trkpt><trkpt lat="45.3951733" lon="11.5108467"><ele>193.0</ele><time>2026-03-22T10:26:26.057Z</time></trkpt><trkpt lat="45.3952733" lon="11.51082"><ele>193.0</ele><time>2026-03-22T10:26:27.056Z</time></trkpt><trkpt lat="45.3953833" lon="11.5107917"><ele>193.0</ele><time>2026-03-22T10:26:28.057Z</time></trkpt><trkpt lat="45.3954883" lon="11.5107633"><ele>193.0</ele><time>2026-03-22T10:26:29.057Z</time></trkpt><trkpt lat="45.3955917" lon="11.510725"><ele>195.2</ele><time>2026-03-22T10:26:30.057Z</time></trkpt><trkpt lat="45.3956983" lon="11.5106767"><ele>197.4</ele><time>2026-03-22T10:26:31.057Z</time></trkpt><trkpt lat="45.39579" lon="11.5106217"><ele>199.6</ele><time>2026-03-22T10:26:32.057Z</time></trkpt><trkpt lat="45.3958783" lon="11.510565"><ele>201.79999999999998</ele><time>2026-03-22T10:26:33.056Z</time></trkpt><trkpt lat="45.39595" lon="11.5105017"><ele>204.0</ele><time>2026-03-22T10:26:34.057Z</time></trkpt><trkpt lat="45.396005" lon="11.5104367"><ele>202.2</ele><time>2026-03-22T10:26:35.057Z</time></trkpt><trkpt lat="45.3960733" lon="11.510325"><ele>200.39999999999998</ele><time>2026-03-22T10:26:37.057Z</time></trkpt><trkpt lat="45.3961133" lon="11.510235"><ele>198.6</ele><time>2026-03-22T10:26:39.057Z</time></trkpt><trkpt lat="45.3962067" lon="11.5100917"><ele>196.8</ele><time>2026-03-22T10:26:41.057Z</time></trkpt><trkpt lat="45.3962667" lon="11.5100267"><ele>195.0</ele><time>2026-03-22T10:26:42.057Z</time></trkpt><trkpt lat="45.39638" lon="11.5099083"><ele>195.0</ele><time>2026-03-22T10:26:44.057Z</time></trkpt><trkpt lat="45.396455" lon="11.5098483"><ele>195.0</ele><time>2026-03-22T10:26:45.057Z</time></trkpt><trkpt lat="45.3965483" lon="11.509775"><ele>195.0</ele><time>2026-03-22T10:26:46.057Z</time></trkpt><trkpt lat="45.3966333" lon="11.5096933"><ele>195.0</ele><time>2026-03-22T10:26:47.057Z</time></trkpt><trkpt lat="45.3967333" lon="11.5096"><ele>195.0</ele><time>2026-03-22T10:26:48.057Z</time></trkpt><trkpt lat="45.3968367" lon="11.5095167"><ele>194.2</ele><time>2026-03-22T10:26:49.057Z</time></trkpt><trkpt lat="45.39694" lon="11.50944"><ele>193.4</ele><time>2026-03-22T10:26:50.057Z</time></trkpt><trkpt lat="45.3970383" lon="11.5093717"><ele>192.60000000000002</ele><time>2026-03-22T10:26:51.057Z</time></trkpt><trkpt lat="45.397135" lon="11.5093217"><ele>191.8</ele><time>2026-03-22T10:26:52.057Z</time></trkpt><trkpt lat="45.3972383" lon="11.5092717"><ele>191.0</ele><time>2026-03-22T10:26:53.056Z</time></trkpt><trkpt lat="45.3973267" lon="11.5092183"><ele>191.0</ele><time>2026-03-22T10:26:54.057Z</time></trkpt><trkpt lat="45.397405" lon="11.5091633"><ele>191.0</ele><time>2026-03-22T10:26:55.057Z</time></trkpt><trkpt lat="45.39749" lon="11.5091117"><ele>191.0</ele><time>2026-03-22T10:26:56.057Z</time></trkpt><trkpt lat="45.3975767" lon="11.5090467"><ele>191.0</ele><time>2026-03-22T10:26:57.057Z</time></trkpt><trkpt lat="45.39766" lon="11.50899"><ele>191.0</ele><time>2026-03-22T10:26:58.057Z</time></trkpt><trkpt lat="45.3977233" lon="11.50893"><ele>191.0</ele><time>2026-03-22T10:26:59.057Z</time></trkpt><trkpt lat="45.397785" lon="11.5088867"><ele>191.0</ele><time>2026-03-22T10:27:00.057Z</time></trkpt><trkpt lat="45.3978617" lon="11.5088467"><ele>191.0</ele><time>2026-03-22T10:27:01.057Z</time></trkpt><trkpt lat="45.3979283" lon="11.50882"><ele>191.0</ele><time>2026-03-22T10:27:02.057Z</time></trkpt><trkpt lat="45.3979983" lon="11.5088033"><ele>191.0</ele><time>2026-03-22T10:27:03.057Z</time></trkpt><trkpt lat="45.3981133" lon="11.5087983"><ele>191.0</ele><time>2026-03-22T10:27:05.056Z</time></trkpt><trkpt lat="45.3982117" lon="11.5088283"><ele>191.0</ele><time>2026-03-22T10:27:07.057Z</time></trkpt><trkpt lat="45.39832" lon="11.5088617"><ele>192.16666666666666</ele><time>2026-03-22T10:27:09.057Z</time></trkpt><trkpt lat="45.3983917" lon="11.5088917"><ele>193.33333333333331</ele><time>2026-03-22T10:27:10.057Z</time></trkpt><trkpt lat="45.398465" lon="11.5089167"><ele>194.5</ele><time>2026-03-22T10:27:11.057Z</time></trkpt><trkpt lat="45.3985317" lon="11.50894"><ele>195.66666666666666</ele><time>2026-03-22T10:27:12.057Z</time></trkpt><trkpt lat="45.3985967" lon="11.508975"><ele>196.83333333333334</ele><time>2026-03-22T10:27:13.057Z</time></trkpt><trkpt lat="45.3986917" lon="11.509065"><ele>198.0</ele><time>2026-03-22T10:27:15.056Z</time></trkpt><trkpt lat="45.3987367" lon="11.50915"><ele>198.0</ele><time>2026-03-22T10:27:18.057Z</time></trkpt><trkpt lat="45.39875" lon="11.509245"><ele>198.0</ele><time>2026-03-22T10:27:20.056Z</time></trkpt><trkpt lat="45.3987583" lon="11.509345"><ele>198.0</ele><time>2026-03-22T10:27:22.057Z</time></trkpt><trkpt lat="45.39879" lon="11.5095283"><ele>198.0</ele><time>2026-03-22T10:27:24.057Z</time></trkpt><trkpt lat="45.3988117" lon="11.5096333"><ele>198.0</ele><time>2026-03-22T10:27:25.057Z</time></trkpt><trkpt lat="45.3988433" lon="11.5097383"><ele>198.0</ele><time>2026-03-22T10:27:26.057Z</time></trkpt><trkpt lat="45.398875" lon="11.5098617"><ele>197.75</ele><time>2026-03-22T10:27:27.057Z</time></trkpt><trkpt lat="45.3989133" lon="11.5099667"><ele>197.5</ele><time>2026-03-22T10:27:28.057Z</time></trkpt><trkpt lat="45.398985" lon="11.510105"><ele>197.25</ele><time>2026-03-22T10:27:29.057Z</time></trkpt><trkpt lat="45.3990517" lon="11.51026"><ele>197.0</ele><time>2026-03-22T10:27:30.057Z</time></trkpt><trkpt lat="45.3991217" lon="11.510455"><ele>199.0</ele><time>2026-03-22T10:27:31.057Z</time></trkpt><trkpt lat="45.39919" lon="11.5105717"><ele>201.0</ele><time>2026-03-22T10:27:32.057Z</time></trkpt><trkpt lat="45.3992617" lon="11.5106917"><ele>203.0</ele><time>2026-03-22T10:27:33.057Z</time></trkpt><trkpt lat="45.399325" lon="11.5108867"><ele>205.0</ele><time>2026-03-22T10:27:34.056Z</time></trkpt><trkpt lat="45.399375" lon="11.5110583"><ele>205.0</ele><time>2026-03-22T10:27:35.057Z</time></trkpt><trkpt lat="45.39941" lon="11.5112133"><ele>205.0</ele><time>2026-03-22T10:27:36.057Z</time></trkpt><trkpt lat="45.3994567" lon="11.511375"><ele>205.0</ele><time>2026-03-22T10:27:37.057Z</time></trkpt><trkpt lat="45.3995017" lon="11.5115333"><ele>205.0</ele><time>2026-03-22T10:27:38.057Z</time></trkpt><trkpt lat="45.399545" lon="11.5116567"><ele>207.8</ele><time>2026-03-22T10:27:39.057Z</time></trkpt><trkpt lat="45.39963" lon="11.5117833"><ele>210.6</ele><time>2026-03-22T10:27:41.057Z</time></trkpt><trkpt lat="45.39971" lon="11.5118733"><ele>213.39999999999998</ele><time>2026-03-22T10:27:43.057Z</time></trkpt><trkpt lat="45.39975" lon="11.5119517"><ele>216.2</ele><time>2026-03-22T10:27:45.057Z</time></trkpt><trkpt lat="45.3998" lon="11.5120467"><ele>219.0</ele><time>2026-03-22T10:27:47.057Z</time></trkpt><trkpt lat="45.3998467" lon="11.51214"><ele>219.5</ele><time>2026-03-22T10:27:49.056Z</time></trkpt><trkpt lat="45.39985" lon="11.5122517"><ele>220.0</ele><time>2026-03-22T10:27:56.057Z</time></trkpt><trkpt lat="45.3998617" lon="11.5123583"><ele>220.5</ele><time>2026-03-22T10:28:00.057Z</time></trkpt><trkpt lat="45.39985" lon="11.5124917"><ele>221.0</ele><time>2026-03-22T10:28:03.057Z</time></trkpt><trkpt lat="45.3998433" lon="11.5126067"><ele>221.5</ele><time>2026-03-22T10:28:05.057Z</time></trkpt><trkpt lat="45.3998267" lon="11.5127033"><ele>222.0</ele><time>2026-03-22T10:28:06.057Z</time></trkpt><trkpt lat="45.3998067" lon="11.5128117"><ele>222.0</ele><time>2026-03-22T10:28:07.057Z</time></trkpt><trkpt lat="45.3997917" lon="11.5129717"><ele>222.0</ele><time>2026-03-22T10:28:08.057Z</time></trkpt><trkpt lat="45.3997817" lon="11.5131483"><ele>222.0</ele><time>2026-03-22T10:28:09.057Z</time></trkpt><trkpt lat="45.399765" lon="11.513305"><ele>222.0</ele><time>2026-03-22T10:28:10.057Z</time></trkpt><trkpt lat="45.3997367" lon="11.5134417"><ele>222.0</ele><time>2026-03-22T10:28:11.057Z</time></trkpt><trkpt lat="45.3996917" lon="11.5135817"><ele>223.33333333333334</ele><time>2026-03-22T10:28:12.056Z</time></trkpt><trkpt lat="45.3996483" lon="11.5137083"><ele>224.66666666666669</ele><time>2026-03-22T10:28:13.056Z</time></trkpt><trkpt lat="45.3996" lon="11.51382"><ele>226.0</ele><time>2026-03-22T10:28:14.057Z</time></trkpt><trkpt lat="45.3995533" lon="11.5139233"><ele>227.33333333333334</ele><time>2026-03-22T10:28:15.057Z</time></trkpt><trkpt lat="45.3995117" lon="11.513995"><ele>228.66666666666669</ele><time>2026-03-22T10:28:16.057Z</time></trkpt><trkpt lat="45.39945" lon="11.5140433"><ele>230.0</ele><time>2026-03-22T10:28:17.057Z</time></trkpt><trkpt lat="45.3993767" lon="11.514075"><ele>230.0</ele><time>2026-03-22T10:28:18.057Z</time></trkpt><trkpt lat="45.3992683" lon="11.514135"><ele>230.0</ele><time>2026-03-22T10:28:20.057Z</time></trkpt><trkpt lat="45.3992183" lon="11.5141933"><ele>230.0</ele><time>2026-03-22T10:28:21.057Z</time></trkpt><trkpt lat="45.39915" lon="11.514235"><ele>230.0</ele><time>2026-03-22T10:28:22.057Z</time></trkpt><trkpt lat="45.3990533" lon="11.514305"><ele>230.0</ele><time>2026-03-22T10:28:24.056Z</time></trkpt><trkpt lat="45.398945" lon="11.5143667"><ele>230.0</ele><time>2026-03-22T10:28:26.057Z</time></trkpt><trkpt lat="45.3988533" lon="11.5144083"><ele>230.0</ele><time>2026-03-22T10:28:28.057Z</time></trkpt><trkpt lat="45.39875" lon="11.5144067"><ele>230.0</ele><time>2026-03-22T10:28:30.057Z</time></trkpt><trkpt lat="45.39863" lon="11.5143817"><ele>230.0</ele><time>2026-03-22T10:28:32.057Z</time></trkpt><trkpt lat="45.3985517" lon="11.5143867"><ele>230.0</ele><time>2026-03-22T10:28:34.057Z</time></trkpt><trkpt lat="45.39847" lon="11.5144117"><ele>230.2</ele><time>2026-03-22T10:28:36.055Z</time></trkpt><trkpt lat="45.3983633" lon="11.5143633"><ele>230.4</ele><time>2026-03-22T10:28:38.056Z</time></trkpt><trkpt lat="45.3983033" lon="11.51428"><ele>230.60000000000002</ele><time>2026-03-22T10:28:40.056Z</time></trkpt><trkpt lat="45.3982267" lon="11.5141117"><ele>230.8</ele><time>2026-03-22T10:29:03.056Z</time></trkpt><trkpt lat="45.3982067" lon="11.5139633"><ele>231.0</ele><time>2026-03-22T10:29:05.056Z</time></trkpt><trkpt lat="45.398205" lon="11.513845"><ele>231.60000000000002</ele><time>2026-03-22T10:29:06.056Z</time></trkpt><trkpt lat="45.3982083" lon="11.513715"><ele>232.20000000000002</ele><time>2026-03-22T10:29:07.056Z</time></trkpt><trkpt lat="45.398215" lon="11.5135717"><ele>232.79999999999998</ele><time>2026-03-22T10:29:08.056Z</time></trkpt><trkpt lat="45.398215" lon="11.5134183"><ele>233.39999999999998</ele><time>2026-03-22T10:29:09.056Z</time></trkpt><trkpt lat="45.3982017" lon="11.51325"><ele>234.0</ele><time>2026-03-22T10:29:10.055Z</time></trkpt><trkpt lat="45.3981817" lon="11.513075"><ele>233.75</ele><time>2026-03-22T10:29:11.055Z</time></trkpt><trkpt lat="45.3981517" lon="11.5128867"><ele>233.5</ele><time>2026-03-22T10:29:12.056Z</time></trkpt><trkpt lat="45.39812" lon="11.5127217"><ele>233.25</ele><time>2026-03-22T10:29:13.055Z</time></trkpt><trkpt lat="45.3980883" lon="11.5125717"><ele>233.0</ele><time>2026-03-22T10:29:14.055Z</time></trkpt><trkpt lat="45.3980567" lon="11.5124367"><ele>233.00000000000003</ele><time>2026-03-22T10:29:15.056Z</time></trkpt><trkpt lat="45.3980367" lon="11.51231"><ele>233.0</ele><time>2026-03-22T10:29:16.056Z</time></trkpt><trkpt lat="45.3980367" lon="11.51217"><ele>233.0</ele><time>2026-03-22T10:29:17.056Z</time></trkpt><trkpt lat="45.3980317" lon="11.512055"><ele>233.0</ele><time>2026-03-22T10:29:18.056Z</time></trkpt><trkpt lat="45.3980133" lon="11.51194"><ele>233.00000000000003</ele><time>2026-03-22T10:29:19.056Z</time></trkpt><trkpt lat="45.3979917" lon="11.51183"><ele>233.0</ele><time>2026-03-22T10:29:20.056Z</time></trkpt><trkpt lat="45.39798" lon="11.511705"><ele>232.83333333333334</ele><time>2026-03-22T10:29:21.056Z</time></trkpt><trkpt lat="45.3979733" lon="11.5115883"><ele>232.66666666666669</ele><time>2026-03-22T10:29:22.056Z</time></trkpt><trkpt lat="45.3979633" lon="11.5114783"><ele>232.5</ele><time>2026-03-22T10:29:23.056Z</time></trkpt><trkpt lat="45.3979533" lon="11.5113783"><ele>232.33333333333331</ele><time>2026-03-22T10:29:24.055Z</time></trkpt><trkpt lat="45.3979383" lon="11.5112867"><ele>232.16666666666666</ele><time>2026-03-22T10:29:25.056Z</time></trkpt><trkpt lat="45.3978783" lon="11.5111583"><ele>232.0</ele><time>2026-03-22T10:29:27.055Z</time></trkpt><trkpt lat="45.397795" lon="11.511145"><ele>231.99999999999997</ele><time>2026-03-22T10:29:29.056Z</time></trkpt><trkpt lat="45.3977383" lon="11.5111917"><ele>232.0</ele><time>2026-03-22T10:29:30.056Z</time></trkpt><trkpt lat="45.3976733" lon="11.511255"><ele>232.0</ele><time>2026-03-22T10:29:31.056Z</time></trkpt><trkpt lat="45.397585" lon="11.5113167"><ele>232.0</ele><time>2026-03-22T10:29:32.056Z</time></trkpt><trkpt lat="45.3974983" lon="11.511375"><ele>231.99999999999997</ele><time>2026-03-22T10:29:33.056Z</time></trkpt><trkpt lat="45.3974067" lon="11.5114283"><ele>232.0</ele><time>2026-03-22T10:29:34.056Z</time></trkpt><trkpt lat="45.3973267" lon="11.5114783"><ele>231.99999999999997</ele><time>2026-03-22T10:29:35.056Z</time></trkpt><trkpt lat="45.3972617" lon="11.5115117"><ele>232.0</ele><time>2026-03-22T10:29:36.055Z</time></trkpt><trkpt lat="45.3971667" lon="11.5115333"><ele>232.0</ele><time>2026-03-22T10:29:38.056Z</time></trkpt><trkpt lat="45.39709" lon="11.51145"><ele>232.0</ele><time>2026-03-22T10:29:40.055Z</time></trkpt><trkpt lat="45.3970083" lon="11.511405"><ele>231.99999999999997</ele><time>2026-03-22T10:29:42.056Z</time></trkpt><trkpt lat="45.39696" lon="11.5115183"><ele>232.0</ele><time>2026-03-22T10:29:45.056Z</time></trkpt><trkpt lat="45.3969033" lon="11.5116067"><ele>232.0</ele><time>2026-03-22T10:29:46.056Z</time></trkpt><trkpt lat="45.3968417" lon="11.5117017"><ele>232.0</ele><time>2026-03-22T10:29:47.055Z</time></trkpt><trkpt lat="45.39679" lon="11.51178"><ele>232.0</ele><time>2026-03-22T10:29:48.056Z</time></trkpt><trkpt lat="45.3967167" lon="11.5118933"><ele>232.0</ele><time>2026-03-22T10:29:50.055Z</time></trkpt><trkpt lat="45.3967567" lon="11.512045"><ele>232.0</ele><time>2026-03-22T10:29:54.056Z</time></trkpt><trkpt lat="45.3967717" lon="11.5121633"><ele>233.49999999999997</ele><time>2026-03-22T10:29:56.056Z</time></trkpt><trkpt lat="45.3967783" lon="11.5122567"><ele>235.0</ele><time>2026-03-22T10:29:58.056Z</time></trkpt><trkpt lat="45.3967483" lon="11.5123417"><ele>236.5</ele><time>2026-03-22T10:30:01.056Z</time></trkpt><trkpt lat="45.3967033" lon="11.5124267"><ele>238.0</ele><time>2026-03-22T10:30:03.056Z</time></trkpt><trkpt lat="45.3966433" lon="11.5124967"><ele>239.49999999999997</ele><time>2026-03-22T10:30:05.056Z</time></trkpt><trkpt lat="45.3965983" lon="11.512575"><ele>241.0</ele><time>2026-03-22T10:30:07.056Z</time></trkpt><trkpt lat="45.3965583" lon="11.5127117"><ele>241.0</ele><time>2026-03-22T10:30:09.056Z</time></trkpt><trkpt lat="45.3965167" lon="11.512785"><ele>241.00000000000003</ele><time>2026-03-22T10:30:11.056Z</time></trkpt><trkpt lat="45.39645" lon="11.5128383"><ele>241.00000000000003</ele><time>2026-03-22T10:30:14.056Z</time></trkpt><trkpt lat="45.396335" lon="11.5128867"><ele>241.0</ele><time>2026-03-22T10:30:16.056Z</time></trkpt><trkpt lat="45.3962717" lon="11.5129167"><ele>241.0</ele><time>2026-03-22T10:30:17.055Z</time></trkpt><trkpt lat="45.3961517" lon="11.51294"><ele>241.16666666666666</ele><time>2026-03-22T10:30:19.056Z</time></trkpt><trkpt lat="45.3960683" lon="11.5129417"><ele>241.33333333333331</ele><time>2026-03-22T10:30:20.056Z</time></trkpt><trkpt lat="45.39597" lon="11.51294"><ele>241.5</ele><time>2026-03-22T10:30:21.056Z</time></trkpt><trkpt lat="45.3958983" lon="11.5129183"><ele>241.66666666666669</ele><time>2026-03-22T10:30:22.056Z</time></trkpt><trkpt lat="45.39579" lon="11.5128433"><ele>241.83333333333334</ele><time>2026-03-22T10:30:24.056Z</time></trkpt><trkpt lat="45.3957317" lon="11.5128083"><ele>242.0</ele><time>2026-03-22T10:30:26.056Z</time></trkpt><trkpt lat="45.3956633" lon="11.5128083"><ele>242.00000000000003</ele><time>2026-03-22T10:30:28.056Z</time></trkpt><trkpt lat="45.3955633" lon="11.5128067"><ele>242.0</ele><time>2026-03-22T10:30:30.055Z</time></trkpt><trkpt lat="45.395495" lon="11.51282"><ele>242.0</ele><time>2026-03-22T10:30:31.056Z</time></trkpt><trkpt lat="45.3954267" lon="11.5128517"><ele>242.0</ele><time>2026-03-22T10:30:32.056Z</time></trkpt><trkpt lat="45.3953617" lon="11.512875"><ele>242.00000000000003</ele><time>2026-03-22T10:30:33.056Z</time></trkpt><trkpt lat="45.3952517" lon="11.512885"><ele>242.0</ele><time>2026-03-22T10:30:35.056Z</time></trkpt><trkpt lat="45.3951717" lon="11.5128733"><ele>240.83333333333334</ele><time>2026-03-22T10:30:37.056Z</time></trkpt><trkpt lat="45.395095" lon="11.5129"><ele>239.66666666666669</ele><time>2026-03-22T10:30:41.056Z</time></trkpt><trkpt lat="45.3950217" lon="11.5129267"><ele>238.5</ele><time>2026-03-22T10:30:44.056Z</time></trkpt><trkpt lat="45.3949617" lon="11.5129683"><ele>237.33333333333331</ele><time>2026-03-22T10:30:47.056Z</time></trkpt><trkpt lat="45.3948567" lon="11.5130117"><ele>236.16666666666666</ele><time>2026-03-22T10:30:50.056Z</time></trkpt><trkpt lat="45.39476" lon="11.5129883"><ele>235.0</ele><time>2026-03-22T10:30:52.056Z</time></trkpt><trkpt lat="45.3946833" lon="11.512975"><ele>232.33333333333331</ele><time>2026-03-22T10:30:54.055Z</time></trkpt><trkpt lat="45.3946117" lon="11.5129533"><ele>229.66666666666666</ele><time>2026-03-22T10:30:56.056Z</time></trkpt><trkpt lat="45.39454" lon="11.5128733"><ele>227.0</ele><time>2026-03-22T10:30:59.056Z</time></trkpt><trkpt lat="45.3944883" lon="11.512805"><ele>224.33333333333331</ele><time>2026-03-22T10:31:02.056Z</time></trkpt><trkpt lat="45.3943983" lon="11.5127667"><ele>221.66666666666666</ele><time>2026-03-22T10:32:50.056Z</time></trkpt><trkpt lat="45.3943267" lon="11.5127667"><ele>219.0</ele><time>2026-03-22T10:32:53.056Z</time></trkpt><trkpt lat="45.3942483" lon="11.5127667"><ele>218.33333333333334</ele><time>2026-03-22T10:33:02.056Z</time></trkpt><trkpt lat="45.39418" lon="11.5127"><ele>217.66666666666669</ele><time>2026-03-22T10:33:05.056Z</time></trkpt><trkpt lat="45.394115" lon="11.5126467"><ele>217.0</ele><time>2026-03-22T10:33:08.056Z</time></trkpt><trkpt lat="45.3940467" lon="11.512585"><ele>216.33333333333334</ele><time>2026-03-22T10:33:11.056Z</time></trkpt><trkpt lat="45.3939833" lon="11.5125483"><ele>215.66666666666669</ele><time>2026-03-22T10:33:14.056Z</time></trkpt><trkpt lat="45.3939183" lon="11.5125033"><ele>215.0</ele><time>2026-03-22T10:33:17.056Z</time></trkpt><trkpt lat="45.3938517" lon="11.51245"><ele>212.42857142857142</ele><time>2026-03-22T10:33:20.056Z</time></trkpt><trkpt lat="45.39379" lon="11.512405"><ele>209.85714285714286</ele><time>2026-03-22T10:33:23.056Z</time></trkpt><trkpt lat="45.393725" lon="11.51235"><ele>207.28571428571428</ele><time>2026-03-22T10:33:26.055Z</time></trkpt><trkpt lat="45.3936583" lon="11.5122967"><ele>204.71428571428572</ele><time>2026-03-22T10:33:29.056Z</time></trkpt><trkpt lat="45.3935967" lon="11.512265"><ele>202.14285714285717</ele><time>2026-03-22T10:33:31.056Z</time></trkpt><trkpt lat="45.39354" lon="11.5122033"><ele>199.57142857142858</ele><time>2026-03-22T10:33:34.056Z</time></trkpt><trkpt lat="45.3935033" lon="11.5121167"><ele>197.0</ele><time>2026-03-22T10:33:39.055Z</time></trkpt><trkpt lat="45.39344" lon="11.5121083"><ele>194.83333333333334</ele><time>2026-03-22T10:33:44.055Z</time></trkpt><trkpt lat="45.39337" lon="11.51207"><ele>192.66666666666669</ele><time>2026-03-22T10:33:47.055Z</time></trkpt><trkpt lat="45.3933067" lon="11.512035"><ele>190.5</ele><time>2026-03-22T10:33:49.056Z</time></trkpt><trkpt lat="45.39324" lon="11.512005"><ele>188.33333333333334</ele><time>2026-03-22T10:33:51.055Z</time></trkpt><trkpt lat="45.3931467" lon="11.51201"><ele>186.16666666666669</ele><time>2026-03-22T10:33:53.055Z</time></trkpt><trkpt lat="45.393035" lon="11.5120033"><ele>184.0</ele><time>2026-03-22T10:33:55.056Z</time></trkpt><trkpt lat="45.3929233" lon="11.512"><ele>182.5</ele><time>2026-03-22T10:33:57.056Z</time></trkpt><trkpt lat="45.392855" lon="11.5119967"><ele>181.0</ele><time>2026-03-22T10:33:59.056Z</time></trkpt><trkpt lat="45.3927367" lon="11.511935"><ele>179.5</ele><time>2026-03-22T10:34:21.056Z</time></trkpt><trkpt lat="45.3926733" lon="11.5119117"><ele>178.0</ele><time>2026-03-22T10:34:28.056Z</time></trkpt><trkpt lat="45.3926183" lon="11.5118483"><ele>176.5</ele><time>2026-03-22T10:34:31.056Z</time></trkpt><trkpt lat="45.392675" lon="11.5117933"><ele>175.0</ele><time>2026-03-22T10:34:38.056Z</time></trkpt><trkpt lat="45.3927767" lon="11.5117783"><ele>175.0</ele><time>2026-03-22T10:34:41.056Z</time></trkpt><trkpt lat="45.3928517" lon="11.5117583"><ele>175.0</ele><time>2026-03-22T10:34:43.056Z</time></trkpt><trkpt lat="45.3929583" lon="11.5117517"><ele>175.0</ele><time>2026-03-22T10:34:45.056Z</time></trkpt><trkpt lat="45.3930733" lon="11.51169"><ele>175.0</ele><time>2026-03-22T10:34:47.055Z</time></trkpt><trkpt lat="45.3931367" lon="11.51167"><ele>175.0</ele><time>2026-03-22T10:34:48.056Z</time></trkpt><trkpt lat="45.3932717" lon="11.511695"><ele>176.5</ele><time>2026-03-22T10:34:49.055Z</time></trkpt><trkpt lat="45.393345" lon="11.5116767"><ele>178.0</ele><time>2026-03-22T10:34:50.056Z</time></trkpt><trkpt lat="45.3934117" lon="11.5116567"><ele>179.5</ele><time>2026-03-22T10:34:51.056Z</time></trkpt><trkpt lat="45.3935417" lon="11.5116883"><ele>181.0</ele><time>2026-03-22T10:34:52.056Z</time></trkpt><trkpt lat="45.3936167" lon="11.5116767"><ele>182.5</ele><time>2026-03-22T10:34:53.056Z</time></trkpt><trkpt lat="45.393685" lon="11.51167"><ele>184.0</ele><time>2026-03-22T10:34:54.056Z</time></trkpt><trkpt lat="45.39375" lon="11.511665"><ele>187.2</ele><time>2026-03-22T10:34:55.056Z</time></trkpt><trkpt lat="45.393865" lon="11.5116317"><ele>190.39999999999998</ele><time>2026-03-22T10:34:57.056Z</time></trkpt><trkpt lat="45.393965" lon="11.5116067"><ele>193.6</ele><time>2026-03-22T10:34:59.056Z</time></trkpt><trkpt lat="45.394055" lon="11.51158"><ele>196.8</ele><time>2026-03-22T10:35:01.056Z</time></trkpt><trkpt lat="45.3941133" lon="11.5115433"><ele>200.0</ele><time>2026-03-22T10:35:02.056Z</time></trkpt><trkpt lat="45.39424" lon="11.5114483"><ele>200.0</ele><time>2026-03-22T10:35:04.055Z</time></trkpt><trkpt lat="45.39433" lon="11.5113867"><ele>200.0</ele><time>2026-03-22T10:35:05.056Z</time></trkpt><trkpt lat="45.3944217" lon="11.51132"><ele>200.0</ele><time>2026-03-22T10:35:06.056Z</time></trkpt><trkpt lat="45.3945083" lon="11.5112533"><ele>200.0</ele><time>2026-03-22T10:35:07.056Z</time></trkpt><trkpt lat="45.3945883" lon="11.511195"><ele>200.0</ele><time>2026-03-22T10:35:08.056Z</time></trkpt><trkpt lat="45.3946667" lon="11.5111367"><ele>198.83333333333334</ele><time>2026-03-22T10:35:09.056Z</time></trkpt><trkpt lat="45.3947367" lon="11.5110817"><ele>197.66666666666669</ele><time>2026-03-22T10:35:10.056Z</time></trkpt><trkpt lat="45.3948033" lon="11.5110333"><ele>196.5</ele><time>2026-03-22T10:35:11.056Z</time></trkpt><trkpt lat="45.39487" lon="11.510985"><ele>195.33333333333331</ele><time>2026-03-22T10:35:12.056Z</time></trkpt><trkpt lat="45.3949383" lon="11.510945"><ele>194.16666666666666</ele><time>2026-03-22T10:35:13.056Z</time></trkpt><trkpt lat="45.3950083" lon="11.510905"><ele>193.0</ele><time>2026-03-22T10:35:14.056Z</time></trkpt><trkpt lat="45.3950767" lon="11.51087"><ele>192.99999999999997</ele><time>2026-03-22T10:35:15.056Z</time></trkpt><trkpt lat="45.39515" lon="11.510835"><ele>193.0</ele><time>2026-03-22T10:35:16.056Z</time></trkpt><trkpt lat="45.3952267" lon="11.5108033"><ele>193.0</ele><time>2026-03-22T10:35:17.056Z</time></trkpt><trkpt lat="45.3953083" lon="11.51078"><ele>193.0</ele><time>2026-03-22T10:35:18.056Z</time></trkpt><trkpt lat="45.3953983" lon="11.5107533"><ele>192.99999999999997</ele><time>2026-03-22T10:35:19.056Z</time></trkpt><trkpt lat="45.3954933" lon="11.5107183"><ele>193.0</ele><time>2026-03-22T10:35:20.056Z</time></trkpt><trkpt lat="45.3955817" lon="11.510675"><ele>194.83333333333331</ele><time>2026-03-22T10:35:21.056Z</time></trkpt><trkpt lat="45.3956733" lon="11.5106317"><ele>196.66666666666666</ele><time>2026-03-22T10:35:22.055Z</time></trkpt><trkpt lat="45.395765" lon="11.5105867"><ele>198.5</ele><time>2026-03-22T10:35:23.056Z</time></trkpt><trkpt lat="45.39585" lon="11.51054"><ele>200.33333333333331</ele><time>2026-03-22T10:35:24.056Z</time></trkpt><trkpt lat="45.3959233" lon="11.5104917"><ele>202.16666666666666</ele><time>2026-03-22T10:35:25.056Z</time></trkpt><trkpt lat="45.3959817" lon="11.5104383"><ele>204.0</ele><time>2026-03-22T10:35:26.056Z</time></trkpt><trkpt lat="45.3960283" lon="11.5103767"><ele>202.5</ele><time>2026-03-22T10:35:27.056Z</time></trkpt><trkpt lat="45.3960817" lon="11.51032"><ele>201.0</ele><time>2026-03-22T10:35:28.056Z</time></trkpt><trkpt lat="45.3961567" lon="11.5102133"><ele>199.5</ele><time>2026-03-22T10:35:30.055Z</time></trkpt><trkpt lat="45.396205" lon="11.5101217"><ele>198.0</ele><time>2026-03-22T10:35:32.056Z</time></trkpt><trkpt lat="45.3962983" lon="11.510035"><ele>196.5</ele><time>2026-03-22T10:35:40.056Z</time></trkpt><trkpt lat="45.3963533" lon="11.5099767"><ele>195.0</ele><time>2026-03-22T10:35:42.056Z</time></trkpt><trkpt lat="45.3964517" lon="11.5098883"><ele>195.0</ele><time>2026-03-22T10:35:44.055Z</time></trkpt><trkpt lat="45.396505" lon="11.509835"><ele>195.0</ele><time>2026-03-22T10:35:45.056Z</time></trkpt><trkpt lat="45.3965683" lon="11.50978"><ele>195.0</ele><time>2026-03-22T10:35:46.056Z</time></trkpt><trkpt lat="45.3966283" lon="11.5097217"><ele>195.0</ele><time>2026-03-22T10:35:47.056Z</time></trkpt><trkpt lat="45.3967017" lon="11.50967"><ele>195.0</ele><time>2026-03-22T10:35:48.055Z</time></trkpt><trkpt lat="45.3967717" lon="11.5096117"><ele>195.0</ele><time>2026-03-22T10:35:49.055Z</time></trkpt><trkpt lat="45.3968483" lon="11.50955"><ele>194.2</ele><time>2026-03-22T10:35:50.056Z</time></trkpt><trkpt lat="45.3969167" lon="11.5094867"><ele>193.4</ele><time>2026-03-22T10:35:51.056Z</time></trkpt><trkpt lat="45.397" lon="11.5094133"><ele>192.60000000000002</ele><time>2026-03-22T10:35:52.056Z</time></trkpt><trkpt lat="45.3970917" lon="11.5093467"><ele>191.8</ele><time>2026-03-22T10:35:53.056Z</time></trkpt><trkpt lat="45.397185" lon="11.509305"><ele>191.0</ele><time>2026-03-22T10:35:54.056Z</time></trkpt><trkpt lat="45.3972717" lon="11.5092717"><ele>191.0</ele><time>2026-03-22T10:35:55.056Z</time></trkpt><trkpt lat="45.3973667" lon="11.509245"><ele>191.0</ele><time>2026-03-22T10:35:56.056Z</time></trkpt><trkpt lat="45.3974383" lon="11.5092033"><ele>191.0</ele><time>2026-03-22T10:35:57.055Z</time></trkpt><trkpt lat="45.3975183" lon="11.5091467"><ele>191.0</ele><time>2026-03-22T10:35:58.055Z</time></trkpt><trkpt lat="45.397585" lon="11.5090883"><ele>191.0</ele><time>2026-03-22T10:35:59.056Z</time></trkpt><trkpt lat="45.3976517" lon="11.50904"><ele>191.0</ele><time>2026-03-22T10:36:00.056Z</time></trkpt><trkpt lat="45.397715" lon="11.5090033"><ele>191.0</ele><time>2026-03-22T10:36:01.056Z</time></trkpt><trkpt lat="45.3977767" lon="11.508975"><ele>191.0</ele><time>2026-03-22T10:36:02.055Z</time></trkpt><trkpt lat="45.3978867" lon="11.5089017"><ele>191.0</ele><time>2026-03-22T10:36:04.056Z</time></trkpt><trkpt lat="45.3979933" lon="11.50887"><ele>191.0</ele><time>2026-03-22T10:36:06.056Z</time></trkpt><trkpt lat="45.3980983" lon="11.5088783"><ele>191.0</ele><time>2026-03-22T10:36:08.056Z</time></trkpt><trkpt lat="45.3981683" lon="11.508895"><ele>192.16666666666666</ele><time>2026-03-22T10:36:09.056Z</time></trkpt><trkpt lat="45.39824" lon="11.50891"><ele>193.33333333333331</ele><time>2026-03-22T10:36:10.056Z</time></trkpt><trkpt lat="45.3983033" lon="11.5089283"><ele>194.5</ele><time>2026-03-22T10:36:11.056Z</time></trkpt><trkpt lat="45.3983683" lon="11.50895"><ele>195.66666666666666</ele><time>2026-03-22T10:36:12.056Z</time></trkpt><trkpt lat="45.3984467" lon="11.508975"><ele>196.83333333333334</ele><time>2026-03-22T10:36:13.056Z</time></trkpt><trkpt lat="45.3985067" lon="11.5090033"><ele>198.0</ele><time>2026-03-22T10:36:14.056Z</time></trkpt><trkpt lat="45.3986" lon="11.50907"><ele>198.0</ele><time>2026-03-22T10:36:16.055Z</time></trkpt><trkpt lat="45.398715" lon="11.5091433"><ele>198.0</ele><time>2026-03-22T10:36:32.055Z</time></trkpt><trkpt lat="45.3986617" lon="11.509045"><ele>198.0</ele><time>2026-03-22T10:36:40.054Z</time></trkpt><trkpt lat="45.398615" lon="11.50895"><ele>198.0</ele><time>2026-03-22T10:36:43.054Z</time></trkpt><trkpt lat="45.39856" lon="11.50886"><ele>198.0</ele><time>2026-03-22T10:36:46.055Z</time></trkpt><trkpt lat="45.3985083" lon="11.5087683"><ele>196.14285714285714</ele><time>2026-03-22T10:36:49.055Z</time></trkpt><trkpt lat="45.398435" lon="11.50872"><ele>194.28571428571428</ele><time>2026-03-22T10:36:51.055Z</time></trkpt><trkpt lat="45.3983767" lon="11.5086717"><ele>192.42857142857142</ele><time>2026-03-22T10:36:53.055Z</time></trkpt><trkpt lat="45.398315" lon="11.508625"><ele>190.57142857142856</ele><time>2026-03-22T10:36:55.054Z</time></trkpt><trkpt lat="45.3982517" lon="11.5085883"><ele>188.71428571428572</ele><time>2026-03-22T10:36:57.055Z</time></trkpt><trkpt lat="45.3981883" lon="11.5085433"><ele>186.85714285714283</ele><time>2026-03-22T10:36:59.055Z</time></trkpt><trkpt lat="45.3981367" lon="11.5084883"><ele>185.0</ele><time>2026-03-22T10:37:05.055Z</time></trkpt><trkpt lat="45.3980683" lon="11.50847"><ele>182.83333333333331</ele><time>2026-03-22T10:37:14.055Z</time></trkpt><trkpt lat="45.39798" lon="11.508475"><ele>180.66666666666666</ele><time>2026-03-22T10:37:17.055Z</time></trkpt><trkpt lat="45.3979" lon="11.508475"><ele>178.5</ele><time>2026-03-22T10:37:19.055Z</time></trkpt><trkpt lat="45.3978217" lon="11.5084767"><ele>176.33333333333334</ele><time>2026-03-22T10:37:21.055Z</time></trkpt><trkpt lat="45.3977217" lon="11.5084783"><ele>174.16666666666669</ele><time>2026-03-22T10:37:24.055Z</time></trkpt><trkpt lat="45.3976367" lon="11.5084817"><ele>172.0</ele><time>2026-03-22T10:37:26.055Z</time></trkpt><trkpt lat="45.397565" lon="11.5084867"><ele>172.0</ele><time>2026-03-22T10:37:28.055Z</time></trkpt><trkpt lat="45.3974867" lon="11.5085167"><ele>172.0</ele><time>2026-03-22T10:37:31.055Z</time></trkpt><trkpt lat="45.3974133" lon="11.50857"><ele>172.0</ele><time>2026-03-22T10:37:34.054Z</time></trkpt><trkpt lat="45.3973233" lon="11.508605"><ele>172.0</ele><time>2026-03-22T10:37:37.055Z</time></trkpt><trkpt lat="45.397255" lon="11.50862"><ele>172.0</ele><time>2026-03-22T10:37:39.055Z</time></trkpt><trkpt lat="45.3971667" lon="11.508645"><ele>172.0</ele><time>2026-03-22T10:37:41.055Z</time></trkpt><trkpt lat="45.3971" lon="11.50865"><ele>172.66666666666669</ele><time>2026-03-22T10:37:43.055Z</time></trkpt><trkpt lat="45.3970117" lon="11.508675"><ele>173.33333333333334</ele><time>2026-03-22T10:37:46.055Z</time></trkpt><trkpt lat="45.39693" lon="11.5086983"><ele>174.0</ele><time>2026-03-22T10:37:49.055Z</time></trkpt><trkpt lat="45.3968533" lon="11.5087217"><ele>174.66666666666666</ele><time>2026-03-22T10:37:51.055Z</time></trkpt><trkpt lat="45.3967767" lon="11.50875"><ele>175.33333333333331</ele><time>2026-03-22T10:37:53.055Z</time></trkpt><trkpt lat="45.3966833" lon="11.5087567"><ele>176.0</ele><time>2026-03-22T10:37:55.055Z</time></trkpt><trkpt lat="45.3966183" lon="11.5086967"><ele>173.0</ele><time>2026-03-22T10:37:58.055Z</time></trkpt><trkpt lat="45.396665" lon="11.508565"><ele>170.0</ele><time>2026-03-22T10:38:00.055Z</time></trkpt><trkpt lat="45.3967183" lon="11.508475"><ele>167.0</ele><time>2026-03-22T10:38:02.055Z</time></trkpt><trkpt lat="45.39677" lon="11.5083883"><ele>164.0</ele><time>2026-03-22T10:38:04.055Z</time></trkpt><trkpt lat="45.396765" lon="11.5082867"><ele>161.0</ele><time>2026-03-22T10:38:07.055Z</time></trkpt><trkpt lat="45.39668" lon="11.508175"><ele>161.0</ele><time>2026-03-22T10:38:10.055Z</time></trkpt><trkpt lat="45.3966533" lon="11.5080833"><ele>161.0</ele><time>2026-03-22T10:38:11.055Z</time></trkpt><trkpt lat="45.3966033" lon="11.50799"><ele>161.0</ele><time>2026-03-22T10:38:12.055Z</time></trkpt><trkpt lat="45.39655" lon="11.5079033"><ele>161.0</ele><time>2026-03-22T10:38:13.055Z</time></trkpt><trkpt lat="45.3965067" lon="11.50782"><ele>161.0</ele><time>2026-03-22T10:38:14.055Z</time></trkpt><trkpt lat="45.3964683" lon="11.5077467"><ele>161.0</ele><time>2026-03-22T10:38:15.055Z</time></trkpt><trkpt lat="45.3963917" lon="11.5076233"><ele>159.83333333333331</ele><time>2026-03-22T10:38:17.055Z</time></trkpt><trkpt lat="45.3963367" lon="11.5074983"><ele>158.66666666666666</ele><time>2026-03-22T10:38:19.055Z</time></trkpt><trkpt lat="45.3963533" lon="11.5073533"><ele>157.5</ele><time>2026-03-22T10:38:21.055Z</time></trkpt><trkpt lat="45.3963817" lon="11.507265"><ele>156.33333333333334</ele><time>2026-03-22T10:38:22.055Z</time></trkpt><trkpt lat="45.3964117" lon="11.5071733"><ele>155.16666666666669</ele><time>2026-03-22T10:38:23.055Z</time></trkpt><trkpt lat="45.3964317" lon="11.5070683"><ele>154.0</ele><time>2026-03-22T10:38:24.055Z</time></trkpt><trkpt lat="45.3964317" lon="11.5069733"><ele>153.4</ele><time>2026-03-22T10:38:25.055Z</time></trkpt><trkpt lat="45.39641" lon="11.5068783"><ele>152.8</ele><time>2026-03-22T10:38:26.055Z</time></trkpt><trkpt lat="45.39638" lon="11.506745"><ele>152.2</ele><time>2026-03-22T10:38:27.055Z</time></trkpt><trkpt lat="45.3963433" lon="11.5066183"><ele>151.6</ele><time>2026-03-22T10:38:28.055Z</time></trkpt><trkpt lat="45.3963" lon="11.506485"><ele>151.0</ele><time>2026-03-22T10:38:29.055Z</time></trkpt><trkpt lat="45.3962433" lon="11.5063467"><ele>150.16666666666669</ele><time>2026-03-22T10:38:30.055Z</time></trkpt><trkpt lat="45.39618" lon="11.5062267"><ele>149.33333333333334</ele><time>2026-03-22T10:38:31.055Z</time></trkpt><trkpt lat="45.396105" lon="11.5061267"><ele>148.5</ele><time>2026-03-22T10:38:32.055Z</time></trkpt><trkpt lat="45.3960383" lon="11.5060517"><ele>147.66666666666666</ele><time>2026-03-22T10:38:33.055Z</time></trkpt><trkpt lat="45.3959833" lon="11.506"><ele>146.83333333333331</ele><time>2026-03-22T10:38:34.055Z</time></trkpt><trkpt lat="45.3959433" lon="11.505925"><ele>146.0</ele><time>2026-03-22T10:38:36.055Z</time></trkpt><trkpt lat="45.3960283" lon="11.5058167"><ele>146.0</ele><time>2026-03-22T10:38:39.054Z</time></trkpt><trkpt lat="45.39609" lon="11.5057483"><ele>146.0</ele><time>2026-03-22T10:38:40.054Z</time></trkpt><trkpt lat="45.3961617" lon="11.5056633"><ele>146.0</ele><time>2026-03-22T10:38:41.055Z</time></trkpt><trkpt lat="45.3962383" lon="11.5055617"><ele>146.0</ele><time>2026-03-22T10:38:42.055Z</time></trkpt><trkpt lat="45.3963167" lon="11.5054533"><ele>146.0</ele><time>2026-03-22T10:38:43.055Z</time></trkpt><trkpt lat="45.396405" lon="11.5053433"><ele>146.5</ele><time>2026-03-22T10:38:44.055Z</time></trkpt><trkpt lat="45.3964917" lon="11.50523"><ele>147.0</ele><time>2026-03-22T10:38:45.054Z</time></trkpt><trkpt lat="45.3965933" lon="11.5051033"><ele>147.5</ele><time>2026-03-22T10:38:46.055Z</time></trkpt><trkpt lat="45.3966967" lon="11.50498"><ele>148.0</ele><time>2026-03-22T10:38:47.055Z</time></trkpt><trkpt lat="45.396795" lon="11.50486"><ele>148.0</ele><time>2026-03-22T10:38:48.055Z</time></trkpt><trkpt lat="45.3969017" lon="11.5047367"><ele>148.0</ele><time>2026-03-22T10:38:49.055Z</time></trkpt><trkpt lat="45.3970217" lon="11.5046167"><ele>148.0</ele><time>2026-03-22T10:38:50.055Z</time></trkpt><trkpt lat="45.39715" lon="11.5045017"><ele>148.0</ele><time>2026-03-22T10:38:51.055Z</time></trkpt><trkpt lat="45.3972867" lon="11.5043917"><ele>149.25</ele><time>2026-03-22T10:38:52.055Z</time></trkpt><trkpt lat="45.3974267" lon="11.5042867"><ele>150.5</ele><time>2026-03-22T10:38:53.055Z</time></trkpt><trkpt lat="45.3975533" lon="11.5041967"><ele>151.75</ele><time>2026-03-22T10:38:54.055Z</time></trkpt><trkpt lat="45.3976733" lon="11.504115"><ele>153.0</ele><time>2026-03-22T10:38:55.055Z</time></trkpt><trkpt lat="45.3977883" lon="11.5040267"><ele>153.0</ele><time>2026-03-22T10:38:56.055Z</time></trkpt><trkpt lat="45.3979033" lon="11.5039383"><ele>153.0</ele><time>2026-03-22T10:38:57.055Z</time></trkpt><trkpt lat="45.3980317" lon="11.503865"><ele>153.0</ele><time>2026-03-22T10:38:58.055Z</time></trkpt><trkpt lat="45.3981533" lon="11.5038083"><ele>153.0</ele><time>2026-03-22T10:38:59.055Z</time></trkpt><trkpt lat="45.3982933" lon="11.5037667"><ele>153.5</ele><time>2026-03-22T10:39:00.055Z</time></trkpt><trkpt lat="45.3984433" lon="11.5037467"><ele>154.0</ele><time>2026-03-22T10:39:01.055Z</time></trkpt><trkpt lat="45.3985867" lon="11.5037583"><ele>154.5</ele><time>2026-03-22T10:39:02.055Z</time></trkpt><trkpt lat="45.3987283" lon="11.5037817"><ele>155.0</ele><time>2026-03-22T10:39:03.055Z</time></trkpt><trkpt lat="45.3988567" lon="11.5038033"><ele>156.5</ele><time>2026-03-22T10:39:04.055Z</time></trkpt><trkpt lat="45.398995" lon="11.5038083"><ele>158.0</ele><time>2026-03-22T10:39:05.054Z</time></trkpt><trkpt lat="45.3991317" lon="11.5037983"><ele>159.5</ele><time>2026-03-22T10:39:06.055Z</time></trkpt><trkpt lat="45.3992717" lon="11.5037717"><ele>161.0</ele><time>2026-03-22T10:39:07.054Z</time></trkpt><trkpt lat="45.3994133" lon="11.5037267"><ele>161.0</ele><time>2026-03-22T10:39:08.055Z</time></trkpt><trkpt lat="45.39954" lon="11.5036833"><ele>161.0</ele><time>2026-03-22T10:39:09.055Z</time></trkpt><trkpt lat="45.3996633" lon="11.50363"><ele>161.0</ele><time>2026-03-22T10:39:10.055Z</time></trkpt><trkpt lat="45.3997833" lon="11.5035533"><ele>161.0</ele><time>2026-03-22T10:39:11.055Z</time></trkpt><trkpt lat="45.3999" lon="11.5034617"><ele>162.0</ele><time>2026-03-22T10:39:12.055Z</time></trkpt><trkpt lat="45.4000167" lon="11.50336"><ele>163.0</ele><time>2026-03-22T10:39:13.055Z</time></trkpt><trkpt lat="45.400145" lon="11.5032667"><ele>164.0</ele><time>2026-03-22T10:39:14.055Z</time></trkpt><trkpt lat="45.4002667" lon="11.5031717"><ele>165.0</ele><time>2026-03-22T10:39:15.055Z</time></trkpt><trkpt lat="45.4003867" lon="11.5030767"><ele>165.5</ele><time>2026-03-22T10:39:16.055Z</time></trkpt><trkpt lat="45.4005067" lon="11.502975"><ele>166.0</ele><time>2026-03-22T10:39:17.055Z</time></trkpt><trkpt lat="45.4006333" lon="11.5028783"><ele>166.5</ele><time>2026-03-22T10:39:18.055Z</time></trkpt><trkpt lat="45.4007583" lon="11.502785"><ele>167.0</ele><time>2026-03-22T10:39:19.055Z</time></trkpt><trkpt lat="45.400875" lon="11.502695"><ele>167.0</ele><time>2026-03-22T10:39:20.055Z</time></trkpt><trkpt lat="45.40098" lon="11.5026017"><ele>167.0</ele><time>2026-03-22T10:39:21.055Z</time></trkpt><trkpt lat="45.4010733" lon="11.5025067"><ele>167.0</ele><time>2026-03-22T10:39:22.055Z</time></trkpt><trkpt lat="45.4011617" lon="11.50239"><ele>167.0</ele><time>2026-03-22T10:39:23.055Z</time></trkpt><trkpt lat="45.4012283" lon="11.5022483"><ele>167.0</ele><time>2026-03-22T10:39:24.055Z</time></trkpt><trkpt lat="45.4013" lon="11.502085"><ele>167.0</ele><time>2026-03-22T10:39:25.055Z</time></trkpt><trkpt lat="45.401365" lon="11.501925"><ele>167.0</ele><time>2026-03-22T10:39:26.054Z</time></trkpt><trkpt lat="45.4014333" lon="11.5017583"><ele>167.0</ele><time>2026-03-22T10:39:27.054Z</time></trkpt><trkpt lat="45.4015067" lon="11.5016"><ele>167.25</ele><time>2026-03-22T10:39:28.055Z</time></trkpt><trkpt lat="45.4015933" lon="11.5014617"><ele>167.5</ele><time>2026-03-22T10:39:29.055Z</time></trkpt><trkpt lat="45.40169" lon="11.501345"><ele>167.75</ele><time>2026-03-22T10:39:30.055Z</time></trkpt><trkpt lat="45.4017983" lon="11.5012267"><ele>168.0</ele><time>2026-03-22T10:39:31.054Z</time></trkpt><trkpt lat="45.4019183" lon="11.5011167"><ele>167.25</ele><time>2026-03-22T10:39:32.055Z</time></trkpt><trkpt lat="45.4020383" lon="11.501015"><ele>166.5</ele><time>2026-03-22T10:39:33.055Z</time></trkpt><trkpt lat="45.40216" lon="11.5009183"><ele>165.75</ele><time>2026-03-22T10:39:34.055Z</time></trkpt><trkpt lat="45.4022817" lon="11.5008183"><ele>165.0</ele><time>2026-03-22T10:39:35.055Z</time></trkpt><trkpt lat="45.4024083" lon="11.50072"><ele>165.0</ele><time>2026-03-22T10:39:36.055Z</time></trkpt><trkpt lat="45.4025267" lon="11.5006333"><ele>165.0</ele><time>2026-03-22T10:39:37.055Z</time></trkpt><trkpt lat="45.4026367" lon="11.5005517"><ele>165.0</ele><time>2026-03-22T10:39:38.055Z</time></trkpt><trkpt lat="45.402745" lon="11.50047"><ele>165.0</ele><time>2026-03-22T10:39:39.055Z</time></trkpt><trkpt lat="45.4028467" lon="11.5003833"><ele>163.5</ele><time>2026-03-22T10:39:40.055Z</time></trkpt><trkpt lat="45.4029567" lon="11.5002967"><ele>162.0</ele><time>2026-03-22T10:39:41.055Z</time></trkpt><trkpt lat="45.40306" lon="11.5002117"><ele>160.5</ele><time>2026-03-22T10:39:42.055Z</time></trkpt><trkpt lat="45.403185" lon="11.5001417"><ele>159.0</ele><time>2026-03-22T10:39:43.055Z</time></trkpt><trkpt lat="45.4033283" lon="11.5000783"><ele>159.0</ele><time>2026-03-22T10:39:44.055Z</time></trkpt><trkpt lat="45.4034617" lon="11.50005"><ele>159.0</ele><time>2026-03-22T10:39:45.055Z</time></trkpt><trkpt lat="45.4036" lon="11.5000183"><ele>159.0</ele><time>2026-03-22T10:39:46.055Z</time></trkpt><trkpt lat="45.403725" lon="11.5000017"><ele>159.0</ele><time>2026-03-22T10:39:47.055Z</time></trkpt><trkpt lat="45.40385" lon="11.49998"><ele>159.75</ele><time>2026-03-22T10:39:48.055Z</time></trkpt><trkpt lat="45.40398" lon="11.4999583"><ele>160.5</ele><time>2026-03-22T10:39:49.055Z</time></trkpt><trkpt lat="45.40411" lon="11.4999367"><ele>161.25</ele><time>2026-03-22T10:39:50.055Z</time></trkpt><trkpt lat="45.4042333" lon="11.4999183"><ele>162.0</ele><time>2026-03-22T10:39:51.055Z</time></trkpt><trkpt lat="45.40435" lon="11.4998867"><ele>162.0</ele><time>2026-03-22T10:39:52.055Z</time></trkpt><trkpt lat="45.4044583" lon="11.4998467"><ele>162.0</ele><time>2026-03-22T10:39:53.055Z</time></trkpt><trkpt lat="45.404565" lon="11.499795"><ele>162.0</ele><time>2026-03-22T10:39:54.054Z</time></trkpt><trkpt lat="45.4046667" lon="11.499735"><ele>162.0</ele><time>2026-03-22T10:39:55.055Z</time></trkpt><trkpt lat="45.4047783" lon="11.4996617"><ele>162.75</ele><time>2026-03-22T10:39:56.055Z</time></trkpt><trkpt lat="45.40489" lon="11.49959"><ele>163.5</ele><time>2026-03-22T10:39:57.055Z</time></trkpt><trkpt lat="45.4050033" lon="11.4995083"><ele>164.25</ele><time>2026-03-22T10:39:58.055Z</time></trkpt><trkpt lat="45.405115" lon="11.4994117"><ele>165.0</ele><time>2026-03-22T10:39:59.054Z</time></trkpt><trkpt lat="45.40522" lon="11.4992983"><ele>163.5</ele><time>2026-03-22T10:40:00.055Z</time></trkpt><trkpt lat="45.40532" lon="11.4991883"><ele>162.0</ele><time>2026-03-22T10:40:01.054Z</time></trkpt><trkpt lat="45.405415" lon="11.49908"><ele>160.5</ele><time>2026-03-22T10:40:02.055Z</time></trkpt><trkpt lat="45.405505" lon="11.4989833"><ele>159.0</ele><time>2026-03-22T10:40:03.055Z</time></trkpt><trkpt lat="45.4055917" lon="11.4988983"><ele>159.0</ele><time>2026-03-22T10:40:04.055Z</time></trkpt><trkpt lat="45.4056683" lon="11.4988317"><ele>159.0</ele><time>2026-03-22T10:40:05.054Z</time></trkpt><trkpt lat="45.40576" lon="11.49876"><ele>159.0</ele><time>2026-03-22T10:40:06.055Z</time></trkpt><trkpt lat="45.4058567" lon="11.49868"><ele>159.0</ele><time>2026-03-22T10:40:07.055Z</time></trkpt><trkpt lat="45.4059517" lon="11.4986083"><ele>159.0</ele><time>2026-03-22T10:40:08.055Z</time></trkpt><trkpt lat="45.4060433" lon="11.49853"><ele>158.5</ele><time>2026-03-22T10:40:09.055Z</time></trkpt><trkpt lat="45.4061467" lon="11.4984633"><ele>158.0</ele><time>2026-03-22T10:40:10.054Z</time></trkpt><trkpt lat="45.4062533" lon="11.4983983"><ele>157.5</ele><time>2026-03-22T10:40:11.055Z</time></trkpt><trkpt lat="45.40637" lon="11.4983283"><ele>157.0</ele><time>2026-03-22T10:40:12.055Z</time></trkpt><trkpt lat="45.40649" lon="11.49826"><ele>157.0</ele><time>2026-03-22T10:40:13.055Z</time></trkpt><trkpt lat="45.4066167" lon="11.4982083"><ele>157.0</ele><time>2026-03-22T10:40:14.054Z</time></trkpt><trkpt lat="45.406745" lon="11.4981633"><ele>157.0</ele><time>2026-03-22T10:40:15.055Z</time></trkpt><trkpt lat="45.40688" lon="11.49813"><ele>157.0</ele><time>2026-03-22T10:40:16.055Z</time></trkpt><trkpt lat="45.4070067" lon="11.4981117"><ele>157.0</ele><time>2026-03-22T10:40:17.055Z</time></trkpt><trkpt lat="45.4071383" lon="11.4980867"><ele>157.0</ele><time>2026-03-22T10:40:18.055Z</time></trkpt><trkpt lat="45.4072683" lon="11.4980533"><ele>157.0</ele><time>2026-03-22T10:40:19.055Z</time></trkpt><trkpt lat="45.4074067" lon="11.4980117"><ele>157.0</ele><time>2026-03-22T10:40:20.055Z</time></trkpt><trkpt lat="45.40754" lon="11.4979467"><ele>156.75</ele><time>2026-03-22T10:40:21.055Z</time></trkpt><trkpt lat="45.407665" lon="11.49785"><ele>156.5</ele><time>2026-03-22T10:40:22.055Z</time></trkpt><trkpt lat="45.4077833" lon="11.4977333"><ele>156.25</ele><time>2026-03-22T10:40:23.055Z</time></trkpt><trkpt lat="45.407895" lon="11.4976083"><ele>156.0</ele><time>2026-03-22T10:40:24.054Z</time></trkpt><trkpt lat="45.407995" lon="11.4974733"><ele>156.0</ele><time>2026-03-22T10:40:25.054Z</time></trkpt><trkpt lat="45.4080933" lon="11.4973367"><ele>156.0</ele><time>2026-03-22T10:40:26.055Z</time></trkpt><trkpt lat="45.4081967" lon="11.4972083"><ele>156.0</ele><time>2026-03-22T10:40:27.055Z</time></trkpt><trkpt lat="45.4082967" lon="11.4970767"><ele>156.0</ele><time>2026-03-22T10:40:28.055Z</time></trkpt><trkpt lat="45.4084083" lon="11.496955"><ele>156.0</ele><time>2026-03-22T10:40:29.054Z</time></trkpt><trkpt lat="45.408525" lon="11.49684"><ele>156.0</ele><time>2026-03-22T10:40:30.055Z</time></trkpt><trkpt lat="45.4086433" lon="11.49673"><ele>156.0</ele><time>2026-03-22T10:40:31.054Z</time></trkpt><trkpt lat="45.4087567" lon="11.49663"><ele>156.0</ele><time>2026-03-22T10:40:32.055Z</time></trkpt><trkpt lat="45.4088683" lon="11.49653"><ele>156.25</ele><time>2026-03-22T10:40:33.055Z</time></trkpt><trkpt lat="45.4089783" lon="11.4964233"><ele>156.5</ele><time>2026-03-22T10:40:34.055Z</time></trkpt><trkpt lat="45.40909" lon="11.4963183"><ele>156.75</ele><time>2026-03-22T10:40:35.055Z</time></trkpt><trkpt lat="45.4092067" lon="11.4962167"><ele>157.0</ele><time>2026-03-22T10:40:36.055Z</time></trkpt><trkpt lat="45.40933" lon="11.4961017"><ele>156.5</ele><time>2026-03-22T10:40:37.055Z</time></trkpt><trkpt lat="45.40945" lon="11.49598"><ele>156.0</ele><time>2026-03-22T10:40:38.055Z</time></trkpt><trkpt lat="45.4095733" lon="11.4958617"><ele>155.5</ele><time>2026-03-22T10:40:39.055Z</time></trkpt><trkpt lat="45.4096883" lon="11.4957383"><ele>155.0</ele><time>2026-03-22T10:40:40.054Z</time></trkpt><trkpt lat="45.40981" lon="11.4956267"><ele>155.25</ele><time>2026-03-22T10:40:41.055Z</time></trkpt><trkpt lat="45.4099183" lon="11.4955283"><ele>155.5</ele><time>2026-03-22T10:40:42.055Z</time></trkpt><trkpt lat="45.4100233" lon="11.4954267"><ele>155.75</ele><time>2026-03-22T10:40:43.055Z</time></trkpt><trkpt lat="45.4101367" lon="11.495315"><ele>156.0</ele><time>2026-03-22T10:40:44.055Z</time></trkpt><trkpt lat="45.410255" lon="11.4952067"><ele>156.0</ele><time>2026-03-22T10:40:45.055Z</time></trkpt><trkpt lat="45.4103717" lon="11.495115"><ele>156.0</ele><time>2026-03-22T10:40:46.055Z</time></trkpt><trkpt lat="45.4105083" lon="11.4950383"><ele>156.0</ele><time>2026-03-22T10:40:47.054Z</time></trkpt><trkpt lat="45.4106517" lon="11.4949817"><ele>156.0</ele><time>2026-03-22T10:40:48.055Z</time></trkpt><trkpt lat="45.4108033" lon="11.4949083"><ele>157.66666666666666</ele><time>2026-03-22T10:40:49.055Z</time></trkpt><trkpt lat="45.4109517" lon="11.4948233"><ele>159.33333333333331</ele><time>2026-03-22T10:40:50.055Z</time></trkpt><trkpt lat="45.41109" lon="11.4947183"><ele>161.0</ele><time>2026-03-22T10:40:51.054Z</time></trkpt><trkpt lat="45.4112283" lon="11.4946267"><ele>161.25</ele><time>2026-03-22T10:40:52.055Z</time></trkpt><trkpt lat="45.4113633" lon="11.4945433"><ele>161.5</ele><time>2026-03-22T10:40:53.054Z</time></trkpt><trkpt lat="45.4114967" lon="11.49445"><ele>161.75</ele><time>2026-03-22T10:40:54.055Z</time></trkpt><trkpt lat="45.411625" lon="11.4943633"><ele>162.0</ele><time>2026-03-22T10:40:55.055Z</time></trkpt><trkpt lat="45.4117467" lon="11.4942717"><ele>162.0</ele><time>2026-03-22T10:40:56.055Z</time></trkpt><trkpt lat="45.4118617" lon="11.4941683"><ele>162.0</ele><time>2026-03-22T10:40:57.055Z</time></trkpt><trkpt lat="45.41198" lon="11.4940517"><ele>162.0</ele><time>2026-03-22T10:40:58.055Z</time></trkpt><trkpt lat="45.41208" lon="11.493915"><ele>162.0</ele><time>2026-03-22T10:40:59.054Z</time></trkpt><trkpt lat="45.4121633" lon="11.4937717"><ele>161.5</ele><time>2026-03-22T10:41:00.055Z</time></trkpt><trkpt lat="45.41224" lon="11.4936383"><ele>161.0</ele><time>2026-03-22T10:41:01.055Z</time></trkpt><trkpt lat="45.4123233" lon="11.4935167"><ele>160.5</ele><time>2026-03-22T10:41:02.055Z</time></trkpt><trkpt lat="45.412415" lon="11.4934167"><ele>160.0</ele><time>2026-03-22T10:41:03.055Z</time></trkpt><trkpt lat="45.4125117" lon="11.4933283"><ele>160.0</ele><time>2026-03-22T10:41:04.055Z</time></trkpt><trkpt lat="45.4126167" lon="11.4932517"><ele>160.0</ele><time>2026-03-22T10:41:05.055Z</time></trkpt><trkpt lat="45.412725" lon="11.4932117"><ele>160.0</ele><time>2026-03-22T10:41:06.055Z</time></trkpt><trkpt lat="45.4128367" lon="11.4932317"><ele>160.0</ele><time>2026-03-22T10:41:07.055Z</time></trkpt><trkpt lat="45.4129417" lon="11.4932817"><ele>161.0</ele><time>2026-03-22T10:41:08.055Z</time></trkpt><trkpt lat="45.4130467" lon="11.4933217"><ele>162.0</ele><time>2026-03-22T10:41:09.055Z</time></trkpt><trkpt lat="45.4131467" lon="11.4933933"><ele>163.0</ele><time>2026-03-22T10:41:10.054Z</time></trkpt><trkpt lat="45.413245" lon="11.4935"><ele>164.0</ele><time>2026-03-22T10:41:11.055Z</time></trkpt><trkpt lat="45.4133317" lon="11.49364"><ele>164.79999999999998</ele><time>2026-03-22T10:41:12.055Z</time></trkpt><trkpt lat="45.413405" lon="11.4937833"><ele>165.6</ele><time>2026-03-22T10:41:13.055Z</time></trkpt><trkpt lat="45.4134633" lon="11.4939167"><ele>166.4</ele><time>2026-03-22T10:41:14.055Z</time></trkpt><trkpt lat="45.4135217" lon="11.4940333"><ele>167.2</ele><time>2026-03-22T10:41:15.055Z</time></trkpt><trkpt lat="45.4135833" lon="11.494165"><ele>168.0</ele><time>2026-03-22T10:41:16.055Z</time></trkpt><trkpt lat="45.413645" lon="11.4942983"><ele>168.0</ele><time>2026-03-22T10:41:17.054Z</time></trkpt><trkpt lat="45.4137117" lon="11.4944217"><ele>168.0</ele><time>2026-03-22T10:41:18.055Z</time></trkpt><trkpt lat="45.41377" lon="11.4945367"><ele>168.0</ele><time>2026-03-22T10:41:19.055Z</time></trkpt><trkpt lat="45.4138267" lon="11.4946517"><ele>168.0</ele><time>2026-03-22T10:41:20.055Z</time></trkpt><trkpt lat="45.4138933" lon="11.4947583"><ele>168.0</ele><time>2026-03-22T10:41:21.054Z</time></trkpt><trkpt lat="45.4139633" lon="11.4948683"><ele>170.66666666666666</ele><time>2026-03-22T10:41:22.055Z</time></trkpt><trkpt lat="45.414025" lon="11.4949783"><ele>173.33333333333334</ele><time>2026-03-22T10:41:23.054Z</time></trkpt><trkpt lat="45.414075" lon="11.4950683"><ele>176.0</ele><time>2026-03-22T10:41:24.055Z</time></trkpt><trkpt lat="45.4141183" lon="11.4951567"><ele>178.66666666666669</ele><time>2026-03-22T10:41:25.055Z</time></trkpt><trkpt lat="45.4141617" lon="11.4952317"><ele>181.33333333333334</ele><time>2026-03-22T10:41:26.055Z</time></trkpt><trkpt lat="45.4142133" lon="11.4953"><ele>184.0</ele><time>2026-03-22T10:41:27.054Z</time></trkpt><trkpt lat="45.414275" lon="11.4953683"><ele>184.16666666666669</ele><time>2026-03-22T10:41:28.055Z</time></trkpt><trkpt lat="45.4143417" lon="11.4954367"><ele>184.33333333333334</ele><time>2026-03-22T10:41:29.055Z</time></trkpt><trkpt lat="45.4144067" lon="11.4954833"><ele>184.5</ele><time>2026-03-22T10:41:30.055Z</time></trkpt><trkpt lat="45.4144733" lon="11.49551"><ele>184.66666666666666</ele><time>2026-03-22T10:41:31.055Z</time></trkpt><trkpt lat="45.41457" lon="11.4955533"><ele>184.83333333333331</ele><time>2026-03-22T10:41:33.054Z</time></trkpt><trkpt lat="45.41462" lon="11.495685"><ele>185.0</ele><time>2026-03-22T10:41:35.055Z</time></trkpt><trkpt lat="45.4146367" lon="11.4958133"><ele>188.5</ele><time>2026-03-22T10:41:36.055Z</time></trkpt><trkpt lat="45.41466" lon="11.4959767"><ele>192.0</ele><time>2026-03-22T10:41:37.055Z</time></trkpt><trkpt lat="45.4146867" lon="11.4961533"><ele>195.5</ele><time>2026-03-22T10:41:38.055Z</time></trkpt><trkpt lat="45.4147083" lon="11.4963117"><ele>199.0</ele><time>2026-03-22T10:41:39.055Z</time></trkpt><trkpt lat="45.4147167" lon="11.4964483"><ele>200.2</ele><time>2026-03-22T10:41:40.054Z</time></trkpt><trkpt lat="45.4147217" lon="11.4965733"><ele>201.39999999999998</ele><time>2026-03-22T10:41:41.055Z</time></trkpt><trkpt lat="45.4147333" lon="11.49668"><ele>202.6</ele><time>2026-03-22T10:41:42.055Z</time></trkpt><trkpt lat="45.414775" lon="11.4967533"><ele>203.8</ele><time>2026-03-22T10:41:43.054Z</time></trkpt><trkpt lat="45.414865" lon="11.4968133"><ele>205.0</ele><time>2026-03-22T10:41:45.055Z</time></trkpt><trkpt lat="45.4149933" lon="11.49683"><ele>205.0</ele><time>2026-03-22T10:41:47.055Z</time></trkpt><trkpt lat="45.4150667" lon="11.4968567"><ele>205.0</ele><time>2026-03-22T10:41:48.054Z</time></trkpt><trkpt lat="45.4151567" lon="11.49696"><ele>205.0</ele><time>2026-03-22T10:41:49.055Z</time></trkpt><trkpt lat="45.41525" lon="11.4970967"><ele>205.0</ele><time>2026-03-22T10:41:50.055Z</time></trkpt><trkpt lat="45.4153267" lon="11.4972267"><ele>205.0</ele><time>2026-03-22T10:41:51.055Z</time></trkpt><trkpt lat="45.4153967" lon="11.4973583"><ele>204.99999999999997</ele><time>2026-03-22T10:41:52.055Z</time></trkpt><trkpt lat="45.41545" lon="11.4974683"><ele>205.0</ele><time>2026-03-22T10:41:53.055Z</time></trkpt><trkpt lat="45.415505" lon="11.4975817"><ele>205.0</ele><time>2026-03-22T10:41:54.055Z</time></trkpt><trkpt lat="45.4155517" lon="11.4976717"><ele>205.0</ele><time>2026-03-22T10:41:55.055Z</time></trkpt><trkpt lat="45.41561" lon="11.4977633"><ele>204.99999999999997</ele><time>2026-03-22T10:41:57.055Z</time></trkpt><trkpt lat="45.4155533" lon="11.4976967"><ele>205.0</ele><time>2026-03-22T10:50:20.053Z</time></trkpt><trkpt lat="45.415485" lon="11.4976833"><ele>205.0</ele><time>2026-03-22T10:50:26.054Z</time></trkpt><trkpt lat="45.4154383" lon="11.4975983"><ele>205.0</ele><time>2026-03-22T10:50:30.054Z</time></trkpt><trkpt lat="45.41539" lon="11.4975167"><ele>205.0</ele><time>2026-03-22T10:50:34.053Z</time></trkpt><trkpt lat="45.4153433" lon="11.4974433"><ele>205.0</ele><time>2026-03-22T10:50:37.054Z</time></trkpt><trkpt lat="45.4153017" lon="11.4973533"><ele>205.0</ele><time>2026-03-22T10:50:42.054Z</time></trkpt><trkpt lat="45.4152617" lon="11.4972733"><ele>205.0</ele><time>2026-03-22T10:50:46.054Z</time></trkpt><trkpt lat="45.4152367" lon="11.497175"><ele>205.0</ele><time>2026-03-22T10:50:49.054Z</time></trkpt><trkpt lat="45.415185" lon="11.4970767"><ele>205.0</ele><time>2026-03-22T10:50:52.054Z</time></trkpt><trkpt lat="45.415115" lon="11.4969967"><ele>205.0</ele><time>2026-03-22T10:50:54.054Z</time></trkpt><trkpt lat="45.4150267" lon="11.4969117"><ele>205.0</ele><time>2026-03-22T10:50:56.053Z</time></trkpt><trkpt lat="45.41492" lon="11.49686"><ele>205.0</ele><time>2026-03-22T10:50:58.054Z</time></trkpt><trkpt lat="45.41483" lon="11.4968033"><ele>205.0</ele><time>2026-03-22T10:51:00.054Z</time></trkpt><trkpt lat="45.4147733" lon="11.4967433"><ele>204.99999999999997</ele><time>2026-03-22T10:51:01.054Z</time></trkpt><trkpt lat="45.4147517" lon="11.4966367"><ele>205.0</ele><time>2026-03-22T10:51:02.054Z</time></trkpt><trkpt lat="45.4147317" lon="11.4965283"><ele>205.0</ele><time>2026-03-22T10:51:03.054Z</time></trkpt><trkpt lat="45.414705" lon="11.4964133"><ele>205.0</ele><time>2026-03-22T10:51:04.053Z</time></trkpt><trkpt lat="45.4146767" lon="11.4962933"><ele>204.99999999999997</ele><time>2026-03-22T10:51:05.054Z</time></trkpt><trkpt lat="45.414655" lon="11.4961833"><ele>205.0</ele><time>2026-03-22T10:51:06.054Z</time></trkpt><trkpt lat="45.4146367" lon="11.4960667"><ele>201.0</ele><time>2026-03-22T10:51:07.054Z</time></trkpt><trkpt lat="45.4146333" lon="11.4959017"><ele>197.0</ele><time>2026-03-22T10:51:08.054Z</time></trkpt><trkpt lat="45.4146233" lon="11.495775"><ele>193.0</ele><time>2026-03-22T10:51:09.054Z</time></trkpt><trkpt lat="45.4146083" lon="11.4956683"><ele>189.0</ele><time>2026-03-22T10:51:10.054Z</time></trkpt><trkpt lat="45.4145817" lon="11.4955617"><ele>185.0</ele><time>2026-03-22T10:51:11.054Z</time></trkpt><trkpt lat="45.4144867" lon="11.4954583"><ele>184.83333333333331</ele><time>2026-03-22T10:51:13.053Z</time></trkpt><trkpt lat="45.4144117" lon="11.49542"><ele>184.66666666666666</ele><time>2026-03-22T10:51:14.053Z</time></trkpt><trkpt lat="45.414335" lon="11.4953867"><ele>184.5</ele><time>2026-03-22T10:51:15.054Z</time></trkpt><trkpt lat="45.4142617" lon="11.4953217"><ele>184.33333333333334</ele><time>2026-03-22T10:51:16.053Z</time></trkpt><trkpt lat="45.4141983" lon="11.49524"><ele>184.16666666666669</ele><time>2026-03-22T10:51:17.054Z</time></trkpt><trkpt lat="45.4141317" lon="11.4951417"><ele>184.0</ele><time>2026-03-22T10:51:18.054Z</time></trkpt><trkpt lat="45.4140583" lon="11.4950367"><ele>184.0</ele><time>2026-03-22T10:51:19.054Z</time></trkpt><trkpt lat="45.4139733" lon="11.4949167"><ele>184.0</ele><time>2026-03-22T10:51:20.053Z</time></trkpt><trkpt lat="45.413895" lon="11.49478"><ele>184.0</ele><time>2026-03-22T10:51:21.054Z</time></trkpt><trkpt lat="45.4138167" lon="11.49464"><ele>184.0</ele><time>2026-03-22T10:51:22.054Z</time></trkpt><trkpt lat="45.41374" lon="11.4945017"><ele>180.0</ele><time>2026-03-22T10:51:23.054Z</time></trkpt><trkpt lat="45.4136583" lon="11.49436"><ele>176.0</ele><time>2026-03-22T10:51:24.054Z</time></trkpt><trkpt lat="45.4135833" lon="11.494215"><ele>172.0</ele><time>2026-03-22T10:51:25.054Z</time></trkpt><trkpt lat="45.413515" lon="11.49406"><ele>168.0</ele><time>2026-03-22T10:51:26.054Z</time></trkpt><trkpt lat="45.4134467" lon="11.4939133"><ele>168.0</ele><time>2026-03-22T10:51:27.054Z</time></trkpt><trkpt lat="45.4133817" lon="11.493775"><ele>168.0</ele><time>2026-03-22T10:51:28.054Z</time></trkpt><trkpt lat="45.413315" lon="11.4936533"><ele>168.0</ele><time>2026-03-22T10:51:29.054Z</time></trkpt><trkpt lat="45.4132467" lon="11.4935383"><ele>168.0</ele><time>2026-03-22T10:51:30.054Z</time></trkpt><trkpt lat="45.4131717" lon="11.4934417"><ele>168.0</ele><time>2026-03-22T10:51:31.054Z</time></trkpt><trkpt lat="45.413085" lon="11.49337"><ele>167.2</ele><time>2026-03-22T10:51:32.054Z</time></trkpt><trkpt lat="45.41299" lon="11.4933233"><ele>166.4</ele><time>2026-03-22T10:51:33.054Z</time></trkpt><trkpt lat="45.4128917" lon="11.493275"><ele>165.6</ele><time>2026-03-22T10:51:34.054Z</time></trkpt><trkpt lat="45.41279" lon="11.49324"><ele>164.79999999999998</ele><time>2026-03-22T10:51:35.054Z</time></trkpt><trkpt lat="45.4127" lon="11.4932333"><ele>164.0</ele><time>2026-03-22T10:51:36.054Z</time></trkpt><trkpt lat="45.412615" lon="11.493255"><ele>163.33333333333331</ele><time>2026-03-22T10:51:37.054Z</time></trkpt><trkpt lat="45.412555" lon="11.4933017"><ele>162.66666666666666</ele><time>2026-03-22T10:51:38.054Z</time></trkpt><trkpt lat="45.4124567" lon="11.493355"><ele>162.0</ele><time>2026-03-22T10:51:40.054Z</time></trkpt><trkpt lat="45.4123783" lon="11.493305"><ele>161.33333333333334</ele><time>2026-03-22T10:51:42.054Z</time></trkpt><trkpt lat="45.412355" lon="11.49316"><ele>160.66666666666669</ele><time>2026-03-22T10:51:44.054Z</time></trkpt><trkpt lat="45.4123617" lon="11.4930567"><ele>160.0</ele><time>2026-03-22T10:51:45.054Z</time></trkpt><trkpt lat="45.412365" lon="11.4929317"><ele>159.75</ele><time>2026-03-22T10:51:46.054Z</time></trkpt><trkpt lat="45.4123733" lon="11.4927883"><ele>159.5</ele><time>2026-03-22T10:51:47.054Z</time></trkpt><trkpt lat="45.4123933" lon="11.492605"><ele>159.25</ele><time>2026-03-22T10:51:48.054Z</time></trkpt><trkpt lat="45.4124233" lon="11.4924283"><ele>159.0</ele><time>2026-03-22T10:51:49.054Z</time></trkpt><trkpt lat="45.4124483" lon="11.4922583"><ele>159.0</ele><time>2026-03-22T10:51:50.054Z</time></trkpt><trkpt lat="45.4124817" lon="11.4921233"><ele>159.0</ele><time>2026-03-22T10:51:51.054Z</time></trkpt><trkpt lat="45.4125333" lon="11.4919717"><ele>159.0</ele><time>2026-03-22T10:51:52.054Z</time></trkpt><trkpt lat="45.4126033" lon="11.4918517"><ele>159.0</ele><time>2026-03-22T10:51:53.054Z</time></trkpt><trkpt lat="45.41269" lon="11.49175"><ele>159.0</ele><time>2026-03-22T10:51:54.053Z</time></trkpt><trkpt lat="45.4127817" lon="11.4916383"><ele>160.0</ele><time>2026-03-22T10:51:55.054Z</time></trkpt><trkpt lat="45.4128733" lon="11.49152"><ele>161.0</ele><time>2026-03-22T10:51:56.054Z</time></trkpt><trkpt lat="45.412965" lon="11.49139"><ele>162.0</ele><time>2026-03-22T10:51:57.053Z</time></trkpt><trkpt lat="45.4130567" lon="11.4912483"><ele>163.0</ele><time>2026-03-22T10:51:58.054Z</time></trkpt><trkpt lat="45.4131417" lon="11.4911033"><ele>160.25</ele><time>2026-03-22T10:51:59.053Z</time></trkpt><trkpt lat="45.4132333" lon="11.490955"><ele>157.5</ele><time>2026-03-22T10:52:00.053Z</time></trkpt><trkpt lat="45.4133233" lon="11.4908233"><ele>154.75</ele><time>2026-03-22T10:52:01.053Z</time></trkpt><trkpt lat="45.4134183" lon="11.49067"><ele>152.0</ele><time>2026-03-22T10:52:02.053Z</time></trkpt><trkpt lat="45.4135167" lon="11.490525"><ele>156.33333333333331</ele><time>2026-03-22T10:52:03.053Z</time></trkpt><trkpt lat="45.413625" lon="11.4903867"><ele>160.66666666666666</ele><time>2026-03-22T10:52:04.053Z</time></trkpt><trkpt lat="45.4137433" lon="11.490245"><ele>165.0</ele><time>2026-03-22T10:52:05.053Z</time></trkpt><trkpt lat="45.4138633" lon="11.490105"><ele>154.66666666666666</ele><time>2026-03-22T10:52:06.053Z</time></trkpt><trkpt lat="45.4139733" lon="11.4899433"><ele>144.33333333333331</ele><time>2026-03-22T10:52:07.053Z</time></trkpt><trkpt lat="45.41409" lon="11.4897967"><ele>134.0</ele><time>2026-03-22T10:52:08.053Z</time></trkpt><trkpt lat="45.414205" lon="11.4896683"><ele>135.0</ele><time>2026-03-22T10:52:09.053Z</time></trkpt><trkpt lat="45.4143267" lon="11.4895683"><ele>136.0</ele><time>2026-03-22T10:52:10.053Z</time></trkpt><trkpt lat="45.4144583" lon="11.4894817"><ele>137.0</ele><time>2026-03-22T10:52:11.053Z</time></trkpt><trkpt lat="45.4145983" lon="11.4893917"><ele>138.0</ele><time>2026-03-22T10:52:12.053Z</time></trkpt><trkpt lat="45.4147417" lon="11.4893167"><ele>138.0</ele><time>2026-03-22T10:52:13.053Z</time></trkpt><trkpt lat="45.41488" lon="11.489265"><ele>138.0</ele><time>2026-03-22T10:52:14.053Z</time></trkpt><trkpt lat="45.4150133" lon="11.4892283"><ele>138.0</ele><time>2026-03-22T10:52:15.053Z</time></trkpt><trkpt lat="45.4151367" lon="11.4891883"><ele>138.0</ele><time>2026-03-22T10:52:16.052Z</time></trkpt><trkpt lat="45.4152583" lon="11.4891383"><ele>138.0</ele><time>2026-03-22T10:52:17.053Z</time></trkpt><trkpt lat="45.4153617" lon="11.48906"><ele>138.0</ele><time>2026-03-22T10:52:18.053Z</time></trkpt><trkpt lat="45.4154467" lon="11.4889333"><ele>138.0</ele><time>2026-03-22T10:52:19.053Z</time></trkpt><trkpt lat="45.41553" lon="11.4887917"><ele>138.0</ele><time>2026-03-22T10:52:20.053Z</time></trkpt><trkpt lat="45.4156083" lon="11.4886383"><ele>136.0</ele><time>2026-03-22T10:52:21.053Z</time></trkpt><trkpt lat="45.4156917" lon="11.4884867"><ele>134.0</ele><time>2026-03-22T10:52:22.053Z</time></trkpt><trkpt lat="45.4157817" lon="11.4883333"><ele>132.0</ele><time>2026-03-22T10:52:23.053Z</time></trkpt><trkpt lat="45.41589" lon="11.4881833"><ele>130.0</ele><time>2026-03-22T10:52:24.053Z</time></trkpt><trkpt lat="45.4159983" lon="11.4880417"><ele>127.66666666666667</ele><time>2026-03-22T10:52:25.052Z</time></trkpt><trkpt lat="45.41612" lon="11.4879033"><ele>125.33333333333334</ele><time>2026-03-22T10:52:26.053Z</time></trkpt><trkpt lat="45.416245" lon="11.4877867"><ele>123.0</ele><time>2026-03-22T10:52:27.053Z</time></trkpt><trkpt lat="45.4163833" lon="11.4876917"><ele>123.0</ele><time>2026-03-22T10:52:28.053Z</time></trkpt><trkpt lat="45.4165267" lon="11.4876267"><ele>123.0</ele><time>2026-03-22T10:52:29.053Z</time></trkpt><trkpt lat="45.4166733" lon="11.48758"><ele>123.0</ele><time>2026-03-22T10:52:30.053Z</time></trkpt><trkpt lat="45.4168167" lon="11.4875517"><ele>123.0</ele><time>2026-03-22T10:52:31.052Z</time></trkpt><trkpt lat="45.4169433" lon="11.48754"><ele>123.0</ele><time>2026-03-22T10:52:32.052Z</time></trkpt><trkpt lat="45.4170533" lon="11.4875483"><ele>123.00000000000001</ele><time>2026-03-22T10:52:33.053Z</time></trkpt><trkpt lat="45.417155" lon="11.48759"><ele>123.00000000000001</ele><time>2026-03-22T10:52:34.053Z</time></trkpt><trkpt lat="45.4172367" lon="11.4876717"><ele>123.0</ele><time>2026-03-22T10:52:35.053Z</time></trkpt><trkpt lat="45.4173233" lon="11.48781"><ele>123.0</ele><time>2026-03-22T10:52:36.053Z</time></trkpt><trkpt lat="45.41742" lon="11.4879367"><ele>115.5</ele><time>2026-03-22T10:52:37.052Z</time></trkpt><trkpt lat="45.4175433" lon="11.48804"><ele>108.0</ele><time>2026-03-22T10:52:38.053Z</time></trkpt><trkpt lat="45.4176733" lon="11.4880917"><ele>100.5</ele><time>2026-03-22T10:52:39.053Z</time></trkpt><trkpt lat="45.4178133" lon="11.48809"><ele>93.0</ele><time>2026-03-22T10:52:40.053Z</time></trkpt><trkpt lat="45.4179533" lon="11.4880617"><ele>92.5</ele><time>2026-03-22T10:52:41.053Z</time></trkpt><trkpt lat="45.4181" lon="11.4880333"><ele>92.0</ele><time>2026-03-22T10:52:42.052Z</time></trkpt><trkpt lat="45.41823" lon="11.48806"><ele>91.5</ele><time>2026-03-22T10:52:43.053Z</time></trkpt><trkpt lat="45.41836" lon="11.4880817"><ele>91.0</ele><time>2026-03-22T10:52:44.053Z</time></trkpt><trkpt lat="45.4184867" lon="11.48806"><ele>91.0</ele><time>2026-03-22T10:52:45.053Z</time></trkpt><trkpt lat="45.4186017" lon="11.4879733"><ele>91.0</ele><time>2026-03-22T10:52:46.053Z</time></trkpt><trkpt lat="45.4186867" lon="11.4878233"><ele>91.0</ele><time>2026-03-22T10:52:47.053Z</time></trkpt><trkpt lat="45.418785" lon="11.487645"><ele>91.0</ele><time>2026-03-22T10:52:48.053Z</time></trkpt><trkpt lat="45.41891" lon="11.4874833"><ele>91.33333333333333</ele><time>2026-03-22T10:52:49.053Z</time></trkpt><trkpt lat="45.4190433" lon="11.4873467"><ele>91.66666666666667</ele><time>2026-03-22T10:52:50.053Z</time></trkpt><trkpt lat="45.41917" lon="11.4871967"><ele>92.0</ele><time>2026-03-22T10:52:51.053Z</time></trkpt><trkpt lat="45.41927" lon="11.4870183"><ele>92.0</ele><time>2026-03-22T10:52:52.053Z</time></trkpt><trkpt lat="45.4193517" lon="11.4868283"><ele>92.0</ele><time>2026-03-22T10:52:53.052Z</time></trkpt><trkpt lat="45.4194133" lon="11.4866067"><ele>92.0</ele><time>2026-03-22T10:52:54.053Z</time></trkpt><trkpt lat="45.41949" lon="11.4863633"><ele>96.0</ele><time>2026-03-22T10:52:55.053Z</time></trkpt><trkpt lat="45.4195917" lon="11.4861317"><ele>100.0</ele><time>2026-03-22T10:52:56.053Z</time></trkpt><trkpt lat="45.4197067" lon="11.4859133"><ele>104.0</ele><time>2026-03-22T10:52:57.053Z</time></trkpt><trkpt lat="45.419815" lon="11.4856967"><ele>93.66666666666666</ele><time>2026-03-22T10:52:58.053Z</time></trkpt><trkpt lat="45.419915" lon="11.48548"><ele>83.33333333333333</ele><time>2026-03-22T10:52:59.053Z</time></trkpt><trkpt lat="45.4200133" lon="11.4852817"><ele>73.0</ele><time>2026-03-22T10:53:00.053Z</time></trkpt><trkpt lat="45.4201083" lon="11.4851033"><ele>73.0</ele><time>2026-03-22T10:53:01.053Z</time></trkpt><trkpt lat="45.4201917" lon="11.4849417"><ele>73.0</ele><time>2026-03-22T10:53:02.053Z</time></trkpt><trkpt lat="45.4202633" lon="11.4847533"><ele>73.0</ele><time>2026-03-22T10:53:03.053Z</time></trkpt><trkpt lat="45.420295" lon="11.4845683"><ele>73.0</ele><time>2026-03-22T10:53:04.053Z</time></trkpt><trkpt lat="45.420325" lon="11.4843533"><ele>74.33333333333333</ele><time>2026-03-22T10:53:05.053Z</time></trkpt><trkpt lat="45.4203517" lon="11.484135"><ele>75.66666666666667</ele><time>2026-03-22T10:53:06.053Z</time></trkpt><trkpt lat="45.4203867" lon="11.4838917"><ele>77.0</ele><time>2026-03-22T10:53:07.053Z</time></trkpt><trkpt lat="45.4204267" lon="11.4836517"><ele>79.0</ele><time>2026-03-22T10:53:08.053Z</time></trkpt><trkpt lat="45.4204633" lon="11.4834217"><ele>81.0</ele><time>2026-03-22T10:53:09.053Z</time></trkpt><trkpt lat="45.4205083" lon="11.4831833"><ele>83.0</ele><time>2026-03-22T10:53:10.053Z</time></trkpt><trkpt lat="45.4205617" lon="11.4829583"><ele>75.66666666666667</ele><time>2026-03-22T10:53:11.053Z</time></trkpt><trkpt lat="45.4206117" lon="11.48273"><ele>68.33333333333333</ele><time>2026-03-22T10:53:12.053Z</time></trkpt><trkpt lat="45.4206667" lon="11.48251"><ele>61.0</ele><time>2026-03-22T10:53:13.053Z</time></trkpt><trkpt lat="45.420735" lon="11.4822983"><ele>61.0</ele><time>2026-03-22T10:53:14.052Z</time></trkpt><trkpt lat="45.4208267" lon="11.4820983"><ele>61.0</ele><time>2026-03-22T10:53:15.053Z</time></trkpt><trkpt lat="45.4209333" lon="11.481925"><ele>61.0</ele><time>2026-03-22T10:53:16.053Z</time></trkpt><trkpt lat="45.421055" lon="11.4817583"><ele>61.0</ele><time>2026-03-22T10:53:17.053Z</time></trkpt><trkpt lat="45.4211733" lon="11.481605"><ele>61.0</ele><time>2026-03-22T10:53:18.053Z</time></trkpt><trkpt lat="45.42128" lon="11.4814333"><ele>61.0</ele><time>2026-03-22T10:53:19.052Z</time></trkpt><trkpt lat="45.4213833" lon="11.4812517"><ele>61.0</ele><time>2026-03-22T10:53:20.053Z</time></trkpt><trkpt lat="45.421485" lon="11.4810583"><ele>61.0</ele><time>2026-03-22T10:53:21.052Z</time></trkpt><trkpt lat="45.42158" lon="11.4808567"><ele>61.0</ele><time>2026-03-22T10:53:22.053Z</time></trkpt><trkpt lat="45.4216917" lon="11.4806683"><ele>61.0</ele><time>2026-03-22T10:53:23.053Z</time></trkpt><trkpt lat="45.4218133" lon="11.4805133"><ele>61.0</ele><time>2026-03-22T10:53:24.053Z</time></trkpt><trkpt lat="45.4219317" lon="11.4803467"><ele>61.0</ele><time>2026-03-22T10:53:25.052Z</time></trkpt><trkpt lat="45.4220617" lon="11.4801917"><ele>59.0</ele><time>2026-03-22T10:53:26.052Z</time></trkpt><trkpt lat="45.42218" lon="11.480045"><ele>57.0</ele><time>2026-03-22T10:53:27.053Z</time></trkpt><trkpt lat="45.422315" lon="11.47989"><ele>55.0</ele><time>2026-03-22T10:53:28.053Z</time></trkpt><trkpt lat="45.4224567" lon="11.479735"><ele>57.666666666666664</ele><time>2026-03-22T10:53:29.053Z</time></trkpt><trkpt lat="45.4225967" lon="11.479555"><ele>60.33333333333333</ele><time>2026-03-22T10:53:30.053Z</time></trkpt><trkpt lat="45.422735" lon="11.4794"><ele>63.0</ele><time>2026-03-22T10:53:31.052Z</time></trkpt><trkpt lat="45.4228583" lon="11.4792433"><ele>60.33333333333333</ele><time>2026-03-22T10:53:32.052Z</time></trkpt><trkpt lat="45.422985" lon="11.47908"><ele>57.666666666666664</ele><time>2026-03-22T10:53:33.053Z</time></trkpt><trkpt lat="45.4231183" lon="11.4789167"><ele>55.0</ele><time>2026-03-22T10:53:34.053Z</time></trkpt><trkpt lat="45.4232367" lon="11.4787483"><ele>55.0</ele><time>2026-03-22T10:53:35.053Z</time></trkpt><trkpt lat="45.4233517" lon="11.4786"><ele>55.0</ele><time>2026-03-22T10:53:36.052Z</time></trkpt><trkpt lat="45.4234683" lon="11.478445"><ele>55.0</ele><time>2026-03-22T10:53:37.053Z</time></trkpt><trkpt lat="45.423585" lon="11.4782833"><ele>55.0</ele><time>2026-03-22T10:53:38.053Z</time></trkpt><trkpt lat="45.4237017" lon="11.4781283"><ele>55.0</ele><time>2026-03-22T10:53:39.052Z</time></trkpt><trkpt lat="45.4238133" lon="11.4779717"><ele>55.0</ele><time>2026-03-22T10:53:40.053Z</time></trkpt><trkpt lat="45.4239217" lon="11.4778167"><ele>54.0</ele><time>2026-03-22T10:53:41.053Z</time></trkpt><trkpt lat="45.4240183" lon="11.4776683"><ele>53.0</ele><time>2026-03-22T10:53:42.053Z</time></trkpt><trkpt lat="45.4240933" lon="11.4775217"><ele>52.0</ele><time>2026-03-22T10:53:43.053Z</time></trkpt><trkpt lat="45.4241433" lon="11.4773617"><ele>51.0</ele><time>2026-03-22T10:53:44.053Z</time></trkpt><trkpt lat="45.4241717" lon="11.4771683"><ele>51.0</ele><time>2026-03-22T10:53:45.053Z</time></trkpt><trkpt lat="45.42419" lon="11.4769583"><ele>51.0</ele><time>2026-03-22T10:53:46.053Z</time></trkpt><trkpt lat="45.424205" lon="11.47675"><ele>51.0</ele><time>2026-03-22T10:53:47.053Z</time></trkpt><trkpt lat="45.4242217" lon="11.4765333"><ele>51.0</ele><time>2026-03-22T10:53:48.053Z</time></trkpt><trkpt lat="45.4242583" lon="11.47633"><ele>48.333333333333336</ele><time>2026-03-22T10:53:49.052Z</time></trkpt><trkpt lat="45.4243117" lon="11.4761233"><ele>45.66666666666667</ele><time>2026-03-22T10:53:50.053Z</time></trkpt><trkpt lat="45.4243983" lon="11.4759167"><ele>43.0</ele><time>2026-03-22T10:53:51.053Z</time></trkpt><trkpt lat="45.4244967" lon="11.4757117"><ele>43.0</ele><time>2026-03-22T10:53:52.053Z</time></trkpt><trkpt lat="45.424585" lon="11.4755117"><ele>43.0</ele><time>2026-03-22T10:53:53.053Z</time></trkpt><trkpt lat="45.42466" lon="11.4753233"><ele>43.0</ele><time>2026-03-22T10:53:54.053Z</time></trkpt><trkpt lat="45.4247117" lon="11.475125"><ele>42.5</ele><time>2026-03-22T10:53:55.053Z</time></trkpt><trkpt lat="45.4247517" lon="11.4749317"><ele>42.0</ele><time>2026-03-22T10:53:56.053Z</time></trkpt><trkpt lat="45.4247767" lon="11.4747433"><ele>41.5</ele><time>2026-03-22T10:53:57.053Z</time></trkpt><trkpt lat="45.42479" lon="11.4745617"><ele>41.0</ele><time>2026-03-22T10:53:58.053Z</time></trkpt><trkpt lat="45.4247983" lon="11.4743983"><ele>41.0</ele><time>2026-03-22T10:53:59.053Z</time></trkpt><trkpt lat="45.4248" lon="11.4742467"><ele>41.0</ele><time>2026-03-22T10:54:00.053Z</time></trkpt><trkpt lat="45.4248" lon="11.4741017"><ele>41.0</ele><time>2026-03-22T10:54:01.053Z</time></trkpt><trkpt lat="45.42481" lon="11.47398"><ele>41.0</ele><time>2026-03-22T10:54:02.053Z</time></trkpt><trkpt lat="45.4248317" lon="11.4738817"><ele>41.0</ele><time>2026-03-22T10:54:03.053Z</time></trkpt><trkpt lat="45.4248917" lon="11.4737733"><ele>41.0</ele><time>2026-03-22T10:54:05.053Z</time></trkpt><trkpt lat="45.42499" lon="11.4737733"><ele>41.0</ele><time>2026-03-22T10:54:08.053Z</time></trkpt><trkpt lat="45.4250533" lon="11.4737933"><ele>41.0</ele><time>2026-03-22T10:54:10.053Z</time></trkpt><trkpt lat="45.42512" lon="11.4737733"><ele>41.0</ele><time>2026-03-22T10:54:13.053Z</time></trkpt><trkpt lat="45.4251331" lon="11.4736417"><ele>41.0</ele><time>2026-03-22T11:43:50.103Z</time></trkpt><trkpt lat="45.4250767" lon="11.4737067"><ele>41.0</ele><time>2026-03-22T11:43:56.066Z</time></trkpt><trkpt lat="45.4251519" lon="11.473762"><ele>41.0</ele><time>2026-03-22T11:47:41.072Z</time></trkpt><trkpt lat="45.4253771" lon="11.473745"><ele>41.0</ele><time>2026-03-22T11:47:43.049Z</time></trkpt><trkpt lat="45.4254746" lon="11.4737593"><ele>41.0</ele><time>2026-03-22T11:47:44.049Z</time></trkpt><trkpt lat="45.4255717" lon="11.4737708"><ele>41.0</ele><time>2026-03-22T11:47:45.049Z</time></trkpt><trkpt lat="45.4256685" lon="11.4737741"><ele>42.4</ele><time>2026-03-22T11:47:46.049Z</time></trkpt><trkpt lat="45.4257661" lon="11.4737562"><ele>43.8</ele><time>2026-03-22T11:47:47.049Z</time></trkpt><trkpt lat="45.4258606" lon="11.4737257"><ele>45.199999999999996</ele><time>2026-03-22T11:47:48.049Z</time></trkpt><trkpt lat="45.4259639" lon="11.4736871"><ele>46.599999999999994</ele><time>2026-03-22T11:47:49.048Z</time></trkpt><trkpt lat="45.4260664" lon="11.4736376"><ele>48.0</ele><time>2026-03-22T11:47:50.049Z</time></trkpt><trkpt lat="45.4261594" lon="11.4735736"><ele>48.0</ele><time>2026-03-22T11:47:51.049Z</time></trkpt><trkpt lat="45.4262446" lon="11.4735019"><ele>48.0</ele><time>2026-03-22T11:47:52.049Z</time></trkpt><trkpt lat="45.4263312" lon="11.4734257"><ele>48.0</ele><time>2026-03-22T11:47:53.049Z</time></trkpt><trkpt lat="45.426415" lon="11.4733484"><ele>48.0</ele><time>2026-03-22T11:47:54.049Z</time></trkpt><trkpt lat="45.4264901" lon="11.473277"><ele>48.0</ele><time>2026-03-22T11:47:55.049Z</time></trkpt><trkpt lat="45.4265538" lon="11.4732087"><ele>47.333333333333336</ele><time>2026-03-22T11:47:56.049Z</time></trkpt><trkpt lat="45.4266092" lon="11.4731518"><ele>46.666666666666664</ele><time>2026-03-22T11:47:57.049Z</time></trkpt><trkpt lat="45.4266957" lon="11.4730635"><ele>46.0</ele><time>2026-03-22T11:47:59.049Z</time></trkpt><trkpt lat="45.4267717" lon="11.473"><ele>45.33333333333333</ele><time>2026-03-22T11:48:01.049Z</time></trkpt><trkpt lat="45.4268433" lon="11.4729967"><ele>44.666666666666664</ele><time>2026-03-22T11:48:03.049Z</time></trkpt><trkpt lat="45.426925" lon="11.47303"><ele>44.0</ele><time>2026-03-22T11:48:05.049Z</time></trkpt><trkpt lat="45.4270183" lon="11.4730983"><ele>44.0</ele><time>2026-03-22T11:48:07.049Z</time></trkpt><trkpt lat="45.4270767" lon="11.4731433"><ele>44.0</ele><time>2026-03-22T11:48:08.049Z</time></trkpt><trkpt lat="45.42714" lon="11.4731933"><ele>44.0</ele><time>2026-03-22T11:48:09.049Z</time></trkpt><trkpt lat="45.4272083" lon="11.4732617"><ele>44.0</ele><time>2026-03-22T11:48:10.049Z</time></trkpt><trkpt lat="45.42729" lon="11.4733383"><ele>44.0</ele><time>2026-03-22T11:48:11.049Z</time></trkpt><trkpt lat="45.4273733" lon="11.4733983"><ele>44.0</ele><time>2026-03-22T11:48:12.049Z</time></trkpt><trkpt lat="45.4274483" lon="11.4734583"><ele>44.0</ele><time>2026-03-22T11:48:13.049Z</time></trkpt><trkpt lat="45.427515" lon="11.47352"><ele>44.0</ele><time>2026-03-22T11:48:14.048Z</time></trkpt><trkpt lat="45.427575" lon="11.4735867"><ele>44.0</ele><time>2026-03-22T11:48:15.049Z</time></trkpt><trkpt lat="45.427625" lon="11.4736717"><ele>44.0</ele><time>2026-03-22T11:48:16.049Z</time></trkpt><trkpt lat="45.42766" lon="11.4737617"><ele>44.0</ele><time>2026-03-22T11:48:17.049Z</time></trkpt><trkpt lat="45.42769" lon="11.4738633"><ele>44.0</ele><time>2026-03-22T11:48:18.049Z</time></trkpt><trkpt lat="45.4277167" lon="11.4739783"><ele>43.800000000000004</ele><time>2026-03-22T11:48:19.049Z</time></trkpt><trkpt lat="45.4277483" lon="11.474115"><ele>43.6</ele><time>2026-03-22T11:48:20.049Z</time></trkpt><trkpt lat="45.427795" lon="11.4742533"><ele>43.4</ele><time>2026-03-22T11:48:21.049Z</time></trkpt><trkpt lat="45.4278617" lon="11.47439"><ele>43.2</ele><time>2026-03-22T11:48:22.049Z</time></trkpt><trkpt lat="45.4279433" lon="11.4745183"><ele>43.0</ele><time>2026-03-22T11:48:23.049Z</time></trkpt><trkpt lat="45.4280383" lon="11.474645"><ele>45.0</ele><time>2026-03-22T11:48:24.049Z</time></trkpt><trkpt lat="45.4281367" lon="11.4747733"><ele>47.0</ele><time>2026-03-22T11:48:25.048Z</time></trkpt><trkpt lat="45.4282333" lon="11.4748933"><ele>49.0</ele><time>2026-03-22T11:48:26.049Z</time></trkpt><trkpt lat="45.42833" lon="11.47501"><ele>51.0</ele><time>2026-03-22T11:48:27.049Z</time></trkpt><trkpt lat="45.4284233" lon="11.4751117"><ele>51.0</ele><time>2026-03-22T11:48:28.049Z</time></trkpt><trkpt lat="45.42852" lon="11.4752083"><ele>51.0</ele><time>2026-03-22T11:48:29.049Z</time></trkpt><trkpt lat="45.4286233" lon="11.475305"><ele>51.0</ele><time>2026-03-22T11:48:30.049Z</time></trkpt><trkpt lat="45.4287367" lon="11.4754067"><ele>51.0</ele><time>2026-03-22T11:48:31.049Z</time></trkpt><trkpt lat="45.4288483" lon="11.4755033"><ele>51.5</ele><time>2026-03-22T11:48:32.049Z</time></trkpt><trkpt lat="45.4289617" lon="11.475605"><ele>52.0</ele><time>2026-03-22T11:48:33.049Z</time></trkpt><trkpt lat="45.4290767" lon="11.4757117"><ele>52.5</ele><time>2026-03-22T11:48:34.049Z</time></trkpt><trkpt lat="45.4291883" lon="11.4758217"><ele>53.0</ele><time>2026-03-22T11:48:35.049Z</time></trkpt><trkpt lat="45.4293033" lon="11.47594"><ele>53.0</ele><time>2026-03-22T11:48:36.049Z</time></trkpt><trkpt lat="45.4294217" lon="11.47606"><ele>53.0</ele><time>2026-03-22T11:48:37.049Z</time></trkpt><trkpt lat="45.4295383" lon="11.4761783"><ele>53.0</ele><time>2026-03-22T11:48:38.049Z</time></trkpt><trkpt lat="45.429655" lon="11.4762983"><ele>53.0</ele><time>2026-03-22T11:48:39.049Z</time></trkpt><trkpt lat="45.42977" lon="11.4764233"><ele>53.66666666666667</ele><time>2026-03-22T11:48:40.048Z</time></trkpt><trkpt lat="45.42989" lon="11.4765517"><ele>54.33333333333333</ele><time>2026-03-22T11:48:41.049Z</time></trkpt><trkpt lat="45.430015" lon="11.4766817"><ele>55.0</ele><time>2026-03-22T11:48:42.049Z</time></trkpt><trkpt lat="45.4301383" lon="11.4768083"><ele>55.0</ele><time>2026-03-22T11:48:43.049Z</time></trkpt><trkpt lat="45.4302667" lon="11.4769333"><ele>55.0</ele><time>2026-03-22T11:48:44.048Z</time></trkpt><trkpt lat="45.4303917" lon="11.4770683"><ele>55.0</ele><time>2026-03-22T11:48:45.049Z</time></trkpt><trkpt lat="45.430515" lon="11.4772033"><ele>55.33333333333333</ele><time>2026-03-22T11:48:46.048Z</time></trkpt><trkpt lat="45.430635" lon="11.4773333"><ele>55.66666666666667</ele><time>2026-03-22T11:48:47.049Z</time></trkpt><trkpt lat="45.4307533" lon="11.4774667"><ele>56.0</ele><time>2026-03-22T11:48:48.049Z</time></trkpt><trkpt lat="45.4308783" lon="11.4775983"><ele>56.0</ele><time>2026-03-22T11:48:49.049Z</time></trkpt><trkpt lat="45.4309967" lon="11.4777383"><ele>56.0</ele><time>2026-03-22T11:48:50.049Z</time></trkpt><trkpt lat="45.43111" lon="11.4778817"><ele>56.0</ele><time>2026-03-22T11:48:51.049Z</time></trkpt><trkpt lat="45.4312317" lon="11.478025"><ele>58.0</ele><time>2026-03-22T11:48:52.049Z</time></trkpt><trkpt lat="45.4313533" lon="11.4781617"><ele>60.0</ele><time>2026-03-22T11:48:53.049Z</time></trkpt><trkpt lat="45.4314817" lon="11.4782883"><ele>62.0</ele><time>2026-03-22T11:48:54.048Z</time></trkpt><trkpt lat="45.4316083" lon="11.4784133"><ele>62.0</ele><time>2026-03-22T11:48:55.049Z</time></trkpt><trkpt lat="45.4317433" lon="11.47854"><ele>62.0</ele><time>2026-03-22T11:48:56.048Z</time></trkpt><trkpt lat="45.431875" lon="11.4786683"><ele>62.0</ele><time>2026-03-22T11:48:57.049Z</time></trkpt><trkpt lat="45.4320033" lon="11.4788"><ele>65.66666666666667</ele><time>2026-03-22T11:48:58.049Z</time></trkpt><trkpt lat="45.4321267" lon="11.4789283"><ele>69.33333333333333</ele><time>2026-03-22T11:48:59.049Z</time></trkpt><trkpt lat="45.43228" lon="11.479075"><ele>73.0</ele><time>2026-03-22T11:49:00.049Z</time></trkpt><trkpt lat="45.4324167" lon="11.4792167"><ele>73.0</ele><time>2026-03-22T11:49:01.049Z</time></trkpt><trkpt lat="45.43255" lon="11.47936"><ele>73.0</ele><time>2026-03-22T11:49:02.049Z</time></trkpt><trkpt lat="45.43272" lon="11.4794633"><ele>73.0</ele><time>2026-03-22T11:49:03.049Z</time></trkpt><trkpt lat="45.4328867" lon="11.4795733"><ele>74.33333333333333</ele><time>2026-03-22T11:49:04.048Z</time></trkpt><trkpt lat="45.433005" lon="11.4797217"><ele>75.66666666666667</ele><time>2026-03-22T11:49:05.049Z</time></trkpt><trkpt lat="45.433105" lon="11.4799017"><ele>77.0</ele><time>2026-03-22T11:49:06.048Z</time></trkpt><trkpt lat="45.4331983" lon="11.4800967"><ele>77.0</ele><time>2026-03-22T11:49:07.049Z</time></trkpt><trkpt lat="45.433295" lon="11.480275"><ele>77.0</ele><time>2026-03-22T11:49:08.049Z</time></trkpt><trkpt lat="45.4334033" lon="11.48044"><ele>77.0</ele><time>2026-03-22T11:49:09.049Z</time></trkpt><trkpt lat="45.4335067" lon="11.48062"><ele>81.33333333333334</ele><time>2026-03-22T11:49:10.049Z</time></trkpt><trkpt lat="45.4336133" lon="11.4808"><ele>85.66666666666667</ele><time>2026-03-22T11:49:11.049Z</time></trkpt><trkpt lat="45.433725" lon="11.4809817"><ele>90.0</ele><time>2026-03-22T11:49:12.048Z</time></trkpt><trkpt lat="45.4338333" lon="11.4811517"><ele>83.5</ele><time>2026-03-22T11:49:13.049Z</time></trkpt><trkpt lat="45.43394" lon="11.4813167"><ele>77.0</ele><time>2026-03-22T11:49:14.049Z</time></trkpt><trkpt lat="45.4340417" lon="11.4814717"><ele>70.5</ele><time>2026-03-22T11:49:15.049Z</time></trkpt><trkpt lat="45.4341283" lon="11.4815933"><ele>64.0</ele><time>2026-03-22T11:49:16.049Z</time></trkpt><trkpt lat="45.43414" lon="11.4817467"><ele>64.0</ele><time>2026-03-22T11:49:17.049Z</time></trkpt><trkpt lat="45.4341617" lon="11.4818983"><ele>64.0</ele><time>2026-03-22T11:49:18.049Z</time></trkpt><trkpt lat="45.4341633" lon="11.4820617"><ele>64.0</ele><time>2026-03-22T11:49:19.049Z</time></trkpt><trkpt lat="45.434145" lon="11.48222"><ele>64.0</ele><time>2026-03-22T11:49:20.049Z</time></trkpt><trkpt lat="45.4341233" lon="11.482395"><ele>63.5</ele><time>2026-03-22T11:49:21.049Z</time></trkpt><trkpt lat="45.434105" lon="11.4825917"><ele>63.0</ele><time>2026-03-22T11:49:22.049Z</time></trkpt><trkpt lat="45.4341" lon="11.4827883"><ele>62.5</ele><time>2026-03-22T11:49:23.049Z</time></trkpt><trkpt lat="45.4341233" lon="11.4829817"><ele>62.0</ele><time>2026-03-22T11:49:24.049Z</time></trkpt><trkpt lat="45.4341867" lon="11.4831683"><ele>62.0</ele><time>2026-03-22T11:49:25.049Z</time></trkpt><trkpt lat="45.4342733" lon="11.4833383"><ele>62.0</ele><time>2026-03-22T11:49:26.049Z</time></trkpt><trkpt lat="45.4343733" lon="11.4835133"><ele>62.0</ele><time>2026-03-22T11:49:27.049Z</time></trkpt><trkpt lat="45.4344833" lon="11.4836883"><ele>61.66666666666667</ele><time>2026-03-22T11:49:28.049Z</time></trkpt><trkpt lat="45.4345917" lon="11.48386"><ele>61.33333333333333</ele><time>2026-03-22T11:49:29.049Z</time></trkpt><trkpt lat="45.4347117" lon="11.4840267"><ele>61.0</ele><time>2026-03-22T11:49:30.049Z</time></trkpt><trkpt lat="45.4348383" lon="11.4841817"><ele>61.0</ele><time>2026-03-22T11:49:31.049Z</time></trkpt><trkpt lat="45.4349683" lon="11.4843267"><ele>61.0</ele><time>2026-03-22T11:49:32.049Z</time></trkpt><trkpt lat="45.4350867" lon="11.484475"><ele>61.0</ele><time>2026-03-22T11:49:33.048Z</time></trkpt><trkpt lat="45.4352017" lon="11.48463"><ele>59.33333333333333</ele><time>2026-03-22T11:49:34.048Z</time></trkpt><trkpt lat="45.435305" lon="11.484795"><ele>57.66666666666667</ele><time>2026-03-22T11:49:35.049Z</time></trkpt><trkpt lat="45.4354" lon="11.484985"><ele>56.0</ele><time>2026-03-22T11:49:36.049Z</time></trkpt><trkpt lat="45.43548" lon="11.4851917"><ele>56.0</ele><time>2026-03-22T11:49:37.049Z</time></trkpt><trkpt lat="45.4355683" lon="11.4853917"><ele>56.0</ele><time>2026-03-22T11:49:38.049Z</time></trkpt><trkpt lat="45.435655" lon="11.4855817"><ele>56.0</ele><time>2026-03-22T11:49:39.049Z</time></trkpt><trkpt lat="45.43574" lon="11.48577"><ele>58.333333333333336</ele><time>2026-03-22T11:49:40.048Z</time></trkpt><trkpt lat="45.4358333" lon="11.4859517"><ele>60.66666666666667</ele><time>2026-03-22T11:49:41.049Z</time></trkpt><trkpt lat="45.4359367" lon="11.4861183"><ele>63.0</ele><time>2026-03-22T11:49:42.048Z</time></trkpt><trkpt lat="45.436055" lon="11.48626"><ele>62.4</ele><time>2026-03-22T11:49:43.049Z</time></trkpt><trkpt lat="45.4361617" lon="11.4863833"><ele>61.8</ele><time>2026-03-22T11:49:44.049Z</time></trkpt><trkpt lat="45.4362467" lon="11.4865"><ele>61.2</ele><time>2026-03-22T11:49:45.049Z</time></trkpt><trkpt lat="45.4363117" lon="11.48659"><ele>60.6</ele><time>2026-03-22T11:49:46.049Z</time></trkpt><trkpt lat="45.4363617" lon="11.486675"><ele>60.0</ele><time>2026-03-22T11:49:47.049Z</time></trkpt><trkpt lat="45.4364133" lon="11.486745"><ele>60.0</ele><time>2026-03-22T11:49:48.049Z</time></trkpt><trkpt lat="45.4364633" lon="11.4868117"><ele>60.0</ele><time>2026-03-22T11:49:49.049Z</time></trkpt><trkpt lat="45.4365183" lon="11.48688"><ele>60.0</ele><time>2026-03-22T11:49:50.049Z</time></trkpt><trkpt lat="45.436575" lon="11.4869667"><ele>60.0</ele><time>2026-03-22T11:49:51.049Z</time></trkpt><trkpt lat="45.4366317" lon="11.4870567"><ele>60.0</ele><time>2026-03-22T11:49:52.048Z</time></trkpt><trkpt lat="45.4366967" lon="11.487145"><ele>60.0</ele><time>2026-03-22T11:49:53.048Z</time></trkpt><trkpt lat="45.4367683" lon="11.4872383"><ele>64.4</ele><time>2026-03-22T11:49:54.049Z</time></trkpt><trkpt lat="45.4368433" lon="11.487325"><ele>68.8</ele><time>2026-03-22T11:49:55.049Z</time></trkpt><trkpt lat="45.4369183" lon="11.48741"><ele>73.19999999999999</ele><time>2026-03-22T11:49:56.049Z</time></trkpt><trkpt lat="45.43699" lon="11.4875083"><ele>77.6</ele><time>2026-03-22T11:49:57.049Z</time></trkpt><trkpt lat="45.4370617" lon="11.4876117"><ele>82.0</ele><time>2026-03-22T11:49:58.049Z</time></trkpt><trkpt lat="45.43712" lon="11.4877383"><ele>79.75</ele><time>2026-03-22T11:49:59.049Z</time></trkpt><trkpt lat="45.437175" lon="11.48787"><ele>77.5</ele><time>2026-03-22T11:50:00.049Z</time></trkpt><trkpt lat="45.4372383" lon="11.488005"><ele>75.25</ele><time>2026-03-22T11:50:01.049Z</time></trkpt><trkpt lat="45.4373117" lon="11.4881317"><ele>73.0</ele><time>2026-03-22T11:50:02.049Z</time></trkpt><trkpt lat="45.4373883" lon="11.488255"><ele>73.0</ele><time>2026-03-22T11:50:03.049Z</time></trkpt><trkpt lat="45.4374733" lon="11.4883683"><ele>73.0</ele><time>2026-03-22T11:50:04.049Z</time></trkpt><trkpt lat="45.4375667" lon="11.4884867"><ele>73.0</ele><time>2026-03-22T11:50:05.049Z</time></trkpt><trkpt lat="45.43766" lon="11.4885983"><ele>73.0</ele><time>2026-03-22T11:50:06.049Z</time></trkpt><trkpt lat="45.4377533" lon="11.4887167"><ele>71.75</ele><time>2026-03-22T11:50:07.049Z</time></trkpt><trkpt lat="45.4378367" lon="11.4888433"><ele>70.5</ele><time>2026-03-22T11:50:08.049Z</time></trkpt><trkpt lat="45.437905" lon="11.4889783"><ele>69.25</ele><time>2026-03-22T11:50:09.049Z</time></trkpt><trkpt lat="45.437955" lon="11.4891267"><ele>68.0</ele><time>2026-03-22T11:50:10.049Z</time></trkpt><trkpt lat="45.4379933" lon="11.4892933"><ele>68.0</ele><time>2026-03-22T11:50:11.049Z</time></trkpt><trkpt lat="45.43803" lon="11.4894833"><ele>68.0</ele><time>2026-03-22T11:50:12.048Z</time></trkpt><trkpt lat="45.4380683" lon="11.4896683"><ele>68.0</ele><time>2026-03-22T11:50:13.049Z</time></trkpt><trkpt lat="45.438105" lon="11.489865"><ele>68.0</ele><time>2026-03-22T11:50:14.049Z</time></trkpt><trkpt lat="45.4381433" lon="11.4900667"><ele>69.25</ele><time>2026-03-22T11:50:15.049Z</time></trkpt><trkpt lat="45.43818" lon="11.4902667"><ele>70.5</ele><time>2026-03-22T11:50:16.049Z</time></trkpt><trkpt lat="45.43822" lon="11.490465"><ele>71.75</ele><time>2026-03-22T11:50:17.049Z</time></trkpt><trkpt lat="45.4382783" lon="11.4906583"><ele>73.0</ele><time>2026-03-22T11:50:18.049Z</time></trkpt><trkpt lat="45.438345" lon="11.4908417"><ele>74.75</ele><time>2026-03-22T11:50:19.048Z</time></trkpt><trkpt lat="45.4384317" lon="11.4910233"><ele>76.5</ele><time>2026-03-22T11:50:20.049Z</time></trkpt><trkpt lat="45.4385" lon="11.4911933"><ele>78.25</ele><time>2026-03-22T11:50:21.049Z</time></trkpt><trkpt lat="45.4385617" lon="11.4913833"><ele>80.0</ele><time>2026-03-22T11:50:22.048Z</time></trkpt><trkpt lat="45.43861" lon="11.491585"><ele>84.75</ele><time>2026-03-22T11:50:23.048Z</time></trkpt><trkpt lat="45.43865" lon="11.4917883"><ele>89.5</ele><time>2026-03-22T11:50:24.048Z</time></trkpt><trkpt lat="45.43868" lon="11.49199"><ele>94.25</ele><time>2026-03-22T11:50:25.049Z</time></trkpt><trkpt lat="45.4387117" lon="11.492195"><ele>99.0</ele><time>2026-03-22T11:50:26.048Z</time></trkpt><trkpt lat="45.4387483" lon="11.4923767"><ele>100.4</ele><time>2026-03-22T11:50:27.049Z</time></trkpt><trkpt lat="45.4387883" lon="11.4925267"><ele>101.80000000000001</ele><time>2026-03-22T11:50:28.048Z</time></trkpt><trkpt lat="45.4388467" lon="11.49264"><ele>103.19999999999999</ele><time>2026-03-22T11:50:29.049Z</time></trkpt><trkpt lat="45.4389067" lon="11.4927467"><ele>104.6</ele><time>2026-03-22T11:50:30.049Z</time></trkpt><trkpt lat="45.43897" lon="11.4928417"><ele>106.0</ele><time>2026-03-22T11:50:31.049Z</time></trkpt><trkpt lat="45.439045" lon="11.4929267"><ele>99.75</ele><time>2026-03-22T11:50:32.049Z</time></trkpt><trkpt lat="45.4391417" lon="11.4930217"><ele>93.5</ele><time>2026-03-22T11:50:33.049Z</time></trkpt><trkpt lat="45.4392467" lon="11.493135"><ele>87.25</ele><time>2026-03-22T11:50:34.049Z</time></trkpt><trkpt lat="45.4393517" lon="11.4932583"><ele>81.0</ele><time>2026-03-22T11:50:35.049Z</time></trkpt><trkpt lat="45.439445" lon="11.49337"><ele>81.0</ele><time>2026-03-22T11:50:36.049Z</time></trkpt><trkpt lat="45.43952" lon="11.4934867"><ele>81.0</ele><time>2026-03-22T11:50:37.049Z</time></trkpt><trkpt lat="45.4395767" lon="11.493615"><ele>81.0</ele><time>2026-03-22T11:50:38.049Z</time></trkpt><trkpt lat="45.4396117" lon="11.49376"><ele>81.0</ele><time>2026-03-22T11:50:39.048Z</time></trkpt><trkpt lat="45.4396283" lon="11.4939033"><ele>81.0</ele><time>2026-03-22T11:50:40.049Z</time></trkpt><trkpt lat="45.439645" lon="11.4940683"><ele>87.0</ele><time>2026-03-22T11:50:41.048Z</time></trkpt><trkpt lat="45.4396733" lon="11.4942383"><ele>93.0</ele><time>2026-03-22T11:50:42.049Z</time></trkpt><trkpt lat="45.4397183" lon="11.49441"><ele>99.0</ele><time>2026-03-22T11:50:43.049Z</time></trkpt><trkpt lat="45.43979" lon="11.494575"><ele>105.0</ele><time>2026-03-22T11:50:44.049Z</time></trkpt><trkpt lat="45.439865" lon="11.49475"><ele>105.5</ele><time>2026-03-22T11:50:45.049Z</time></trkpt><trkpt lat="45.4399383" lon="11.4949367"><ele>106.0</ele><time>2026-03-22T11:50:46.049Z</time></trkpt><trkpt lat="45.439995" lon="11.495115"><ele>106.5</ele><time>2026-03-22T11:50:47.049Z</time></trkpt><trkpt lat="45.4400517" lon="11.495315"><ele>107.0</ele><time>2026-03-22T11:50:48.049Z</time></trkpt><trkpt lat="45.4400833" lon="11.495495"><ele>107.5</ele><time>2026-03-22T11:50:49.049Z</time></trkpt><trkpt lat="45.4400933" lon="11.4956683"><ele>108.0</ele><time>2026-03-22T11:50:50.049Z</time></trkpt><trkpt lat="45.44012" lon="11.4958367"><ele>108.5</ele><time>2026-03-22T11:50:51.048Z</time></trkpt><trkpt lat="45.4401433" lon="11.4960383"><ele>109.0</ele><time>2026-03-22T11:50:52.048Z</time></trkpt><trkpt lat="45.4401617" lon="11.49623"><ele>111.0</ele><time>2026-03-22T11:50:53.049Z</time></trkpt><trkpt lat="45.440175" lon="11.496415"><ele>113.0</ele><time>2026-03-22T11:50:54.049Z</time></trkpt><trkpt lat="45.4401983" lon="11.4966017"><ele>115.0</ele><time>2026-03-22T11:50:55.049Z</time></trkpt><trkpt lat="45.4402283" lon="11.4967933"><ele>117.0</ele><time>2026-03-22T11:50:56.049Z</time></trkpt><trkpt lat="45.44026" lon="11.4969883"><ele>117.5</ele><time>2026-03-22T11:50:57.049Z</time></trkpt><trkpt lat="45.44029" lon="11.4972017"><ele>118.0</ele><time>2026-03-22T11:50:58.049Z</time></trkpt><trkpt lat="45.440315" lon="11.4974017"><ele>118.5</ele><time>2026-03-22T11:50:59.048Z</time></trkpt><trkpt lat="45.44034" lon="11.4975917"><ele>119.0</ele><time>2026-03-22T11:51:00.049Z</time></trkpt><trkpt lat="45.44038" lon="11.4977733"><ele>119.5</ele><time>2026-03-22T11:51:01.048Z</time></trkpt><trkpt lat="45.440435" lon="11.4979383"><ele>120.0</ele><time>2026-03-22T11:51:02.049Z</time></trkpt><trkpt lat="45.4404883" lon="11.4981217"><ele>120.5</ele><time>2026-03-22T11:51:03.049Z</time></trkpt><trkpt lat="45.4405283" lon="11.4982567"><ele>121.0</ele><time>2026-03-22T11:51:04.049Z</time></trkpt><trkpt lat="45.4405767" lon="11.4984167"><ele>122.5</ele><time>2026-03-22T11:51:05.049Z</time></trkpt><trkpt lat="45.4406267" lon="11.4985683"><ele>124.0</ele><time>2026-03-22T11:51:06.049Z</time></trkpt><trkpt lat="45.44068" lon="11.4987267"><ele>125.5</ele><time>2026-03-22T11:51:07.049Z</time></trkpt><trkpt lat="45.44073" lon="11.498885"><ele>127.0</ele><time>2026-03-22T11:51:08.049Z</time></trkpt><trkpt lat="45.440785" lon="11.499035"><ele>127.0</ele><time>2026-03-22T11:51:09.049Z</time></trkpt><trkpt lat="45.4408417" lon="11.4991817"><ele>126.99999999999999</ele><time>2026-03-22T11:51:10.049Z</time></trkpt><trkpt lat="45.4409" lon="11.4993217"><ele>126.99999999999999</ele><time>2026-03-22T11:51:11.049Z</time></trkpt><trkpt lat="45.4409533" lon="11.4994267"><ele>127.0</ele><time>2026-03-22T11:51:12.049Z</time></trkpt><trkpt lat="45.4410167" lon="11.499555"><ele>127.0</ele><time>2026-03-22T11:51:13.049Z</time></trkpt><trkpt lat="45.441095" lon="11.4996667"><ele>126.75</ele><time>2026-03-22T11:51:14.049Z</time></trkpt><trkpt lat="45.4411783" lon="11.49979"><ele>126.5</ele><time>2026-03-22T11:51:15.048Z</time></trkpt><trkpt lat="45.4412617" lon="11.4999083"><ele>126.25</ele><time>2026-03-22T11:51:16.049Z</time></trkpt><trkpt lat="45.44134" lon="11.5000233"><ele>126.0</ele><time>2026-03-22T11:51:17.048Z</time></trkpt><trkpt lat="45.4414233" lon="11.5001383"><ele>126.5</ele><time>2026-03-22T11:51:18.049Z</time></trkpt><trkpt lat="45.441525" lon="11.500255"><ele>127.0</ele><time>2026-03-22T11:51:19.049Z</time></trkpt><trkpt lat="45.4416267" lon="11.50036"><ele>127.5</ele><time>2026-03-22T11:51:20.048Z</time></trkpt><trkpt lat="45.44173" lon="11.5004633"><ele>128.0</ele><time>2026-03-22T11:51:21.049Z</time></trkpt><trkpt lat="45.44183" lon="11.5005767"><ele>128.0</ele><time>2026-03-22T11:51:22.049Z</time></trkpt><trkpt lat="45.4419317" lon="11.500705"><ele>128.0</ele><time>2026-03-22T11:51:23.049Z</time></trkpt><trkpt lat="45.4420417" lon="11.50084"><ele>128.0</ele><time>2026-03-22T11:51:24.049Z</time></trkpt><trkpt lat="45.4421367" lon="11.5009383"><ele>128.0</ele><time>2026-03-22T11:51:25.049Z</time></trkpt><trkpt lat="45.4422383" lon="11.5010183"><ele>130.0</ele><time>2026-03-22T11:51:26.049Z</time></trkpt><trkpt lat="45.4423467" lon="11.5010833"><ele>132.0</ele><time>2026-03-22T11:51:27.049Z</time></trkpt><trkpt lat="45.4424533" lon="11.50114"><ele>134.0</ele><time>2026-03-22T11:51:28.049Z</time></trkpt><trkpt lat="45.44255" lon="11.5011733"><ele>136.0</ele><time>2026-03-22T11:51:29.049Z</time></trkpt><trkpt lat="45.4426317" lon="11.5011917"><ele>138.0</ele><time>2026-03-22T11:51:30.049Z</time></trkpt><trkpt lat="45.44274" lon="11.5011867"><ele>138.0</ele><time>2026-03-22T11:51:32.049Z</time></trkpt><trkpt lat="45.4428033" lon="11.5011483"><ele>138.0</ele><time>2026-03-22T11:51:34.048Z</time></trkpt><trkpt lat="45.4429017" lon="11.5010867"><ele>138.0</ele><time>2026-03-22T11:51:37.049Z</time></trkpt><trkpt lat="45.443005" lon="11.5009867"><ele>138.0</ele><time>2026-03-22T11:51:39.049Z</time></trkpt><trkpt lat="45.44306" lon="11.5008983"><ele>138.0</ele><time>2026-03-22T11:51:40.049Z</time></trkpt><trkpt lat="45.4431217" lon="11.500825"><ele>139.20000000000002</ele><time>2026-03-22T11:51:41.049Z</time></trkpt><trkpt lat="45.4431983" lon="11.5007317"><ele>140.4</ele><time>2026-03-22T11:51:42.049Z</time></trkpt><trkpt lat="45.4432767" lon="11.5006417"><ele>141.60000000000002</ele><time>2026-03-22T11:51:43.049Z</time></trkpt><trkpt lat="45.443365" lon="11.50056"><ele>142.8</ele><time>2026-03-22T11:51:44.049Z</time></trkpt><trkpt lat="45.44346" lon="11.5005117"><ele>144.0</ele><time>2026-03-22T11:51:45.049Z</time></trkpt><trkpt lat="45.443555" lon="11.5004667"><ele>144.0</ele><time>2026-03-22T11:51:46.049Z</time></trkpt><trkpt lat="45.4436783" lon="11.50045"><ele>144.0</ele><time>2026-03-22T11:51:47.049Z</time></trkpt><trkpt lat="45.4437733" lon="11.5004217"><ele>144.0</ele><time>2026-03-22T11:51:48.049Z</time></trkpt><trkpt lat="45.4438633" lon="11.500395"><ele>144.0</ele><time>2026-03-22T11:51:49.049Z</time></trkpt><trkpt lat="45.4439267" lon="11.5003667"><ele>144.0</ele><time>2026-03-22T11:51:50.049Z</time></trkpt><trkpt lat="45.44402" lon="11.50034"><ele>147.2</ele><time>2026-03-22T11:51:52.049Z</time></trkpt><trkpt lat="45.44409" lon="11.5003"><ele>150.4</ele><time>2026-03-22T11:51:56.049Z</time></trkpt><trkpt lat="45.4441317" lon="11.5001283"><ele>153.6</ele><time>2026-03-22T11:51:58.049Z</time></trkpt><trkpt lat="45.444105" lon="11.4999883"><ele>156.8</ele><time>2026-03-22T11:52:00.048Z</time></trkpt><trkpt lat="45.4440083" lon="11.4999683"><ele>160.0</ele><time>2026-03-22T11:52:01.049Z</time></trkpt><trkpt lat="45.4438867" lon="11.4999317"><ele>163.66666666666669</ele><time>2026-03-22T11:52:02.048Z</time></trkpt><trkpt lat="45.4437283" lon="11.4999083"><ele>167.33333333333334</ele><time>2026-03-22T11:52:03.049Z</time></trkpt><trkpt lat="45.4435817" lon="11.499875"><ele>171.0</ele><time>2026-03-22T11:52:04.049Z</time></trkpt><trkpt lat="45.4434167" lon="11.4998617"><ele>171.0</ele><time>2026-03-22T11:52:05.049Z</time></trkpt><trkpt lat="45.4432967" lon="11.49982"><ele>171.0</ele><time>2026-03-22T11:52:06.048Z</time></trkpt><trkpt lat="45.4431717" lon="11.49978"><ele>171.0</ele><time>2026-03-22T11:52:07.049Z</time></trkpt><trkpt lat="45.4430683" lon="11.49973"><ele>171.0</ele><time>2026-03-22T11:52:08.048Z</time></trkpt><trkpt lat="45.442895" lon="11.4997283"><ele>169.8</ele><time>2026-03-22T11:52:09.048Z</time></trkpt><trkpt lat="45.4427667" lon="11.499735"><ele>168.60000000000002</ele><time>2026-03-22T11:52:10.049Z</time></trkpt><trkpt lat="45.4426817" lon="11.4997283"><ele>167.4</ele><time>2026-03-22T11:52:11.049Z</time></trkpt><trkpt lat="45.4426017" lon="11.4997083"><ele>166.2</ele><time>2026-03-22T11:52:12.048Z</time></trkpt><trkpt lat="45.4425317" lon="11.4996483"><ele>165.0</ele><time>2026-03-22T11:52:13.049Z</time></trkpt><trkpt lat="45.44246" lon="11.4995367"><ele>171.8</ele><time>2026-03-22T11:52:14.049Z</time></trkpt><trkpt lat="45.44239" lon="11.4994167"><ele>178.6</ele><time>2026-03-22T11:52:15.049Z</time></trkpt><trkpt lat="45.44233" lon="11.4992767"><ele>185.39999999999998</ele><time>2026-03-22T11:52:16.049Z</time></trkpt><trkpt lat="45.4422767" lon="11.4991517"><ele>192.2</ele><time>2026-03-22T11:52:17.049Z</time></trkpt><trkpt lat="45.4422317" lon="11.4990467"><ele>199.0</ele><time>2026-03-22T11:52:18.049Z</time></trkpt><trkpt lat="45.4421833" lon="11.4989383"><ele>198.99999999999997</ele><time>2026-03-22T11:52:19.049Z</time></trkpt><trkpt lat="45.4421367" lon="11.4988267"><ele>199.0</ele><time>2026-03-22T11:52:20.049Z</time></trkpt><trkpt lat="45.4420967" lon="11.4987383"><ele>199.0</ele><time>2026-03-22T11:52:21.049Z</time></trkpt><trkpt lat="45.4420567" lon="11.4986383"><ele>199.0</ele><time>2026-03-22T11:52:22.049Z</time></trkpt><trkpt lat="45.442015" lon="11.4985333"><ele>198.99999999999997</ele><time>2026-03-22T11:52:23.048Z</time></trkpt><trkpt lat="45.4419817" lon="11.49844"><ele>199.0</ele><time>2026-03-22T11:52:24.049Z</time></trkpt><trkpt lat="45.4419583" lon="11.49834"><ele>197.99999999999997</ele><time>2026-03-22T11:52:25.049Z</time></trkpt><trkpt lat="45.4419467" lon="11.498245"><ele>197.0</ele><time>2026-03-22T11:52:26.049Z</time></trkpt><trkpt lat="45.4419367" lon="11.4981383"><ele>196.0</ele><time>2026-03-22T11:52:27.049Z</time></trkpt><trkpt lat="45.4419167" lon="11.498025"><ele>195.0</ele><time>2026-03-22T11:52:28.049Z</time></trkpt><trkpt lat="45.441895" lon="11.49791"><ele>193.99999999999997</ele><time>2026-03-22T11:52:29.049Z</time></trkpt><trkpt lat="45.4418683" lon="11.49774"><ele>193.0</ele><time>2026-03-22T11:52:31.049Z</time></trkpt><trkpt lat="45.4418567" lon="11.4976467"><ele>196.66666666666666</ele><time>2026-03-22T11:52:32.049Z</time></trkpt><trkpt lat="45.4418483" lon="11.4975567"><ele>200.33333333333331</ele><time>2026-03-22T11:52:33.049Z</time></trkpt><trkpt lat="45.4418433" lon="11.4974567"><ele>204.0</ele><time>2026-03-22T11:52:34.049Z</time></trkpt><trkpt lat="45.4418383" lon="11.4973617"><ele>207.66666666666669</ele><time>2026-03-22T11:52:35.049Z</time></trkpt><trkpt lat="45.4418417" lon="11.4971883"><ele>211.33333333333334</ele><time>2026-03-22T11:52:37.048Z</time></trkpt><trkpt lat="45.4418433" lon="11.4970767"><ele>215.0</ele><time>2026-03-22T11:52:38.049Z</time></trkpt><trkpt lat="45.4418433" lon="11.4969483"><ele>216.00000000000003</ele><time>2026-03-22T11:52:39.049Z</time></trkpt><trkpt lat="45.4418517" lon="11.49681"><ele>217.0</ele><time>2026-03-22T11:52:40.049Z</time></trkpt><trkpt lat="45.44186" lon="11.4966883"><ele>218.0</ele><time>2026-03-22T11:52:41.049Z</time></trkpt><trkpt lat="45.44187" lon="11.4965633"><ele>219.0</ele><time>2026-03-22T11:52:42.049Z</time></trkpt><trkpt lat="45.4418817" lon="11.49643"><ele>220.00000000000003</ele><time>2026-03-22T11:52:43.049Z</time></trkpt><trkpt lat="45.44189" lon="11.4963183"><ele>221.0</ele><time>2026-03-22T11:52:44.049Z</time></trkpt><trkpt lat="45.441895" lon="11.496215"><ele>222.60000000000002</ele><time>2026-03-22T11:52:45.049Z</time></trkpt><trkpt lat="45.4418967" lon="11.496125"><ele>224.20000000000002</ele><time>2026-03-22T11:52:46.049Z</time></trkpt><trkpt lat="45.4419067" lon="11.4959867"><ele>225.79999999999998</ele><time>2026-03-22T11:52:48.049Z</time></trkpt><trkpt lat="45.4418983" lon="11.49589"><ele>227.39999999999998</ele><time>2026-03-22T11:52:51.049Z</time></trkpt><trkpt lat="45.44193" lon="11.495725"><ele>229.0</ele><time>2026-03-22T11:52:57.049Z</time></trkpt><trkpt lat="45.4420033" lon="11.495895"><ele>229.0</ele><time>2026-03-22T11:53:07.048Z</time></trkpt><trkpt lat="45.4420483" lon="11.49604"><ele>229.0</ele><time>2026-03-22T11:53:08.049Z</time></trkpt><trkpt lat="45.4420917" lon="11.4962"><ele>229.0</ele><time>2026-03-22T11:53:09.048Z</time></trkpt><trkpt lat="45.4421433" lon="11.4963717"><ele>229.0</ele><time>2026-03-22T11:53:10.049Z</time></trkpt><trkpt lat="45.442205" lon="11.496565"><ele>240.33333333333331</ele><time>2026-03-22T11:53:11.049Z</time></trkpt><trkpt lat="45.4422683" lon="11.4967833"><ele>251.66666666666669</ele><time>2026-03-22T11:53:12.049Z</time></trkpt><trkpt lat="45.442345" lon="11.4970033"><ele>263.0</ele><time>2026-03-22T11:53:13.049Z</time></trkpt><trkpt lat="45.4424133" lon="11.4971967"><ele>263.0</ele><time>2026-03-22T11:53:14.049Z</time></trkpt><trkpt lat="45.4424933" lon="11.49737"><ele>263.0</ele><time>2026-03-22T11:53:15.049Z</time></trkpt><trkpt lat="45.4425667" lon="11.4974933"><ele>263.0</ele><time>2026-03-22T11:53:16.048Z</time></trkpt><trkpt lat="45.4426717" lon="11.4976867"><ele>263.0</ele><time>2026-03-22T11:53:17.049Z</time></trkpt><trkpt lat="45.4427633" lon="11.4978317"><ele>259.0</ele><time>2026-03-22T11:53:18.048Z</time></trkpt><trkpt lat="45.4428567" lon="11.4979633"><ele>255.0</ele><time>2026-03-22T11:53:19.049Z</time></trkpt><trkpt lat="45.44293" lon="11.4980667"><ele>251.0</ele><time>2026-03-22T11:53:20.049Z</time></trkpt><trkpt lat="45.4430133" lon="11.4981233"><ele>247.0</ele><time>2026-03-22T11:53:21.048Z</time></trkpt><trkpt lat="45.4430967" lon="11.4981367"><ele>243.0</ele><time>2026-03-22T11:53:22.049Z</time></trkpt><trkpt lat="45.4432167" lon="11.4981683"><ele>243.0</ele><time>2026-03-22T11:53:23.049Z</time></trkpt><trkpt lat="45.4433033" lon="11.49812"><ele>243.0</ele><time>2026-03-22T11:53:24.049Z</time></trkpt><trkpt lat="45.4433933" lon="11.4980567"><ele>243.0</ele><time>2026-03-22T11:53:25.049Z</time></trkpt><trkpt lat="45.4434783" lon="11.4979"><ele>243.0</ele><time>2026-03-22T11:53:26.049Z</time></trkpt><trkpt lat="45.4435533" lon="11.497765"><ele>236.0</ele><time>2026-03-22T11:53:27.048Z</time></trkpt><trkpt lat="45.44363" lon="11.4975883"><ele>229.0</ele><time>2026-03-22T11:53:28.049Z</time></trkpt><trkpt lat="45.4420033" lon="11.495895"><ele>229.0</ele><time>2026-03-22T11:53:07.048Z</time></trkpt><trkpt lat="45.4420483" lon="11.49604"><ele>229.0</ele><time>2026-03-22T11:53:08.049Z</time></trkpt><trkpt lat="45.4420917" lon="11.4962"><ele>229.0</ele><time>2026-03-22T11:53:09.048Z</time></trkpt><trkpt lat="45.4421433" lon="11.4963717"><ele>229.0</ele><time>2026-03-22T11:53:10.049Z</time></trkpt><trkpt lat="45.442205" lon="11.496565"><ele>240.33333333333331</ele><time>2026-03-22T11:53:11.049Z</time></trkpt><trkpt lat="45.4422683" lon="11.4967833"><ele>251.66666666666669</ele><time>2026-03-22T11:53:12.049Z</time></trkpt><trkpt lat="45.442345" lon="11.4970033"><ele>263.0</ele><time>2026-03-22T11:53:13.049Z</time></trkpt><trkpt lat="45.4424133" lon="11.4971967"><ele>263.0</ele><time>2026-03-22T11:53:14.049Z</time></trkpt><trkpt lat="45.4424933" lon="11.49737"><ele>263.0</ele><time>2026-03-22T11:53:15.049Z</time></trkpt><trkpt lat="45.4425667" lon="11.4974933"><ele>263.0</ele><time>2026-03-22T11:53:16.048Z</time></trkpt><trkpt lat="45.4426717" lon="11.4976867"><ele>263.0</ele><time>2026-03-22T11:53:17.049Z</time></trkpt><trkpt lat="45.4427633" lon="11.4978317"><ele>259.0</ele><time>2026-03-22T11:53:18.048Z</time></trkpt><trkpt lat="45.4428567" lon="11.4979633"><ele>255.0</ele><time>2026-03-22T11:53:19.049Z</time></trkpt><trkpt lat="45.44293" lon="11.4980667"><ele>251.0</ele><time>2026-03-22T11:53:20.049Z</time></trkpt><trkpt lat="45.4430133" lon="11.4981233"><ele>247.0</ele><time>2026-03-22T11:53:21.048Z</time></trkpt><trkpt lat="45.4430967" lon="11.4981367"><ele>243.0</ele><time>2026-03-22T11:53:22.049Z</time></trkpt><trkpt lat="45.4432167" lon="11.4981683"><ele>243.0</ele><time>2026-03-22T11:53:23.049Z</time></trkpt><trkpt lat="45.4433033" lon="11.49812"><ele>243.0</ele><time>2026-03-22T11:53:24.049Z</time></trkpt><trkpt lat="45.4433933" lon="11.4980567"><ele>243.0</ele><time>2026-03-22T11:53:25.049Z</time></trkpt><trkpt lat="45.4434783" lon="11.4979"><ele>243.0</ele><time>2026-03-22T11:53:26.049Z</time></trkpt><trkpt lat="45.4435533" lon="11.497765"><ele>244.2</ele><time>2026-03-22T11:53:27.048Z</time></trkpt><trkpt lat="45.44363" lon="11.4975883"><ele>245.4</ele><time>2026-03-22T11:53:28.049Z</time></trkpt><trkpt lat="45.44371" lon="11.49747"><ele>246.59999999999997</ele><time>2026-03-22T11:53:29.049Z</time></trkpt><trkpt lat="45.44377" lon="11.497365"><ele>247.79999999999998</ele><time>2026-03-22T11:53:30.049Z</time></trkpt><trkpt lat="45.4438183" lon="11.497275"><ele>249.0</ele><time>2026-03-22T11:53:31.049Z</time></trkpt><trkpt lat="45.4438417" lon="11.497125"><ele>254.75</ele><time>2026-03-22T11:53:40.049Z</time></trkpt><trkpt lat="45.443775" lon="11.4971833"><ele>260.5</ele><time>2026-03-22T11:53:42.049Z</time></trkpt><trkpt lat="45.4436933" lon="11.4972483"><ele>266.25</ele><time>2026-03-22T11:53:43.049Z</time></trkpt><trkpt lat="45.4435433" lon="11.4973383"><ele>272.0</ele><time>2026-03-22T11:53:44.049Z</time></trkpt><trkpt lat="45.4433967" lon="11.49742"><ele>272.0</ele><time>2026-03-22T11:53:45.049Z</time></trkpt><trkpt lat="45.4432717" lon="11.497475"><ele>272.0</ele><time>2026-03-22T11:53:46.049Z</time></trkpt><trkpt lat="45.44318" lon="11.4975067"><ele>272.0</ele><time>2026-03-22T11:53:47.049Z</time></trkpt><trkpt lat="45.443095" lon="11.4975267"><ele>272.0</ele><time>2026-03-22T11:53:48.048Z</time></trkpt><trkpt lat="45.443015" lon="11.4975433"><ele>272.0</ele><time>2026-03-22T11:53:49.049Z</time></trkpt><trkpt lat="45.4429417" lon="11.4975467"><ele>272.0</ele><time>2026-03-22T11:53:51.049Z</time></trkpt><trkpt lat="45.44287" lon="11.4975117"><ele>272.0</ele><time>2026-03-22T11:53:54.049Z</time></trkpt><trkpt lat="45.44288" lon="11.497415"><ele>272.0</ele><time>2026-03-22T11:53:57.049Z</time></trkpt><trkpt lat="45.44319" lon="11.4971917"><ele>289.5</ele><time>2026-03-22T11:53:58.049Z</time></trkpt><trkpt lat="45.4434067" lon="11.4970133"><ele>307.0</ele><time>2026-03-22T11:53:59.049Z</time></trkpt><trkpt lat="45.4436033" lon="11.49686"><ele>298.0</ele><time>2026-03-22T11:54:00.049Z</time></trkpt><trkpt lat="45.4438417" lon="11.49669"><ele>289.0</ele><time>2026-03-22T11:54:01.049Z</time></trkpt><trkpt lat="45.4440783" lon="11.4965333"><ele>289.0</ele><time>2026-03-22T11:54:02.049Z</time></trkpt><trkpt lat="45.44431" lon="11.4963967"><ele>289.0</ele><time>2026-03-22T11:54:03.048Z</time></trkpt><trkpt lat="45.444505" lon="11.4962783"><ele>297.3333333333333</ele><time>2026-03-22T11:54:04.049Z</time></trkpt><trkpt lat="45.4446817" lon="11.49616"><ele>305.6666666666667</ele><time>2026-03-22T11:54:05.049Z</time></trkpt><trkpt lat="45.4448317" lon="11.496095"><ele>314.0</ele><time>2026-03-22T11:54:06.049Z</time></trkpt><trkpt lat="45.444975" lon="11.4960383"><ele>314.0</ele><time>2026-03-22T11:54:07.049Z</time></trkpt><trkpt lat="45.4451167" lon="11.49598"><ele>314.0</ele><time>2026-03-22T11:54:08.049Z</time></trkpt><trkpt lat="45.4452333" lon="11.4959283"><ele>314.0</ele><time>2026-03-22T11:54:09.049Z</time></trkpt><trkpt lat="45.4453317" lon="11.4958883"><ele>314.0</ele><time>2026-03-22T11:54:10.049Z</time></trkpt><trkpt lat="45.4454283" lon="11.4958517"><ele>313.0</ele><time>2026-03-22T11:54:11.047Z</time></trkpt><trkpt lat="45.4455167" lon="11.4958217"><ele>312.0</ele><time>2026-03-22T11:54:12.048Z</time></trkpt><trkpt lat="45.4456" lon="11.4957833"><ele>311.0</ele><time>2026-03-22T11:54:13.048Z</time></trkpt><trkpt lat="45.445675" lon="11.495755"><ele>310.0</ele><time>2026-03-22T11:54:14.048Z</time></trkpt><trkpt lat="45.4457667" lon="11.49576"><ele>309.0</ele><time>2026-03-22T11:54:15.048Z</time></trkpt><trkpt lat="45.4458417" lon="11.4957383"><ele>308.0</ele><time>2026-03-22T11:54:16.048Z</time></trkpt><trkpt lat="45.44591" lon="11.4956933"><ele>308.0</ele><time>2026-03-22T11:54:17.048Z</time></trkpt><trkpt lat="45.4460033" lon="11.4956267"><ele>308.0</ele><time>2026-03-22T11:54:18.048Z</time></trkpt><trkpt lat="45.4461017" lon="11.4955417"><ele>308.0</ele><time>2026-03-22T11:54:19.048Z</time></trkpt><trkpt lat="45.446195" lon="11.4954367"><ele>308.0</ele><time>2026-03-22T11:54:20.048Z</time></trkpt><trkpt lat="45.4462783" lon="11.49534"><ele>308.0</ele><time>2026-03-22T11:54:21.048Z</time></trkpt><trkpt lat="45.446375" lon="11.4952083"><ele>312.25</ele><time>2026-03-22T11:54:22.048Z</time></trkpt><trkpt lat="45.4464617" lon="11.4950733"><ele>316.5</ele><time>2026-03-22T11:54:23.048Z</time></trkpt><trkpt lat="45.446555" lon="11.49491"><ele>320.75</ele><time>2026-03-22T11:54:24.047Z</time></trkpt><trkpt lat="45.446645" lon="11.4947517"><ele>325.0</ele><time>2026-03-22T11:54:25.048Z</time></trkpt><trkpt lat="45.4467333" lon="11.4946083"><ele>329.25</ele><time>2026-03-22T11:54:26.048Z</time></trkpt><trkpt lat="45.4468317" lon="11.4944583"><ele>333.5</ele><time>2026-03-22T11:54:27.048Z</time></trkpt><trkpt lat="45.4469283" lon="11.49433"><ele>337.75</ele><time>2026-03-22T11:54:28.048Z</time></trkpt><trkpt lat="45.4470267" lon="11.4942183"><ele>342.0</ele><time>2026-03-22T11:54:29.048Z</time></trkpt><trkpt lat="45.44712" lon="11.4941083"><ele>343.0</ele><time>2026-03-22T11:54:30.048Z</time></trkpt><trkpt lat="45.4472" lon="11.4939983"><ele>344.0</ele><time>2026-03-22T11:54:31.047Z</time></trkpt><trkpt lat="45.4472817" lon="11.4939067"><ele>345.0</ele><time>2026-03-22T11:54:32.048Z</time></trkpt><trkpt lat="45.4473517" lon="11.4938167"><ele>346.0</ele><time>2026-03-22T11:54:33.048Z</time></trkpt><trkpt lat="45.447415" lon="11.4937267"><ele>347.0</ele><time>2026-03-22T11:54:34.048Z</time></trkpt><trkpt lat="45.4474967" lon="11.4936283"><ele>347.0</ele><time>2026-03-22T11:54:35.048Z</time></trkpt><trkpt lat="45.4475517" lon="11.4935333"><ele>347.0</ele><time>2026-03-22T11:54:36.048Z</time></trkpt><trkpt lat="45.4476083" lon="11.4934183"><ele>347.0</ele><time>2026-03-22T11:54:37.048Z</time></trkpt><trkpt lat="45.4476683" lon="11.493285"><ele>347.0</ele><time>2026-03-22T11:54:38.048Z</time></trkpt><trkpt lat="45.447735" lon="11.493155"><ele>347.0</ele><time>2026-03-22T11:54:39.048Z</time></trkpt><trkpt lat="45.4477883" lon="11.493045"><ele>347.0</ele><time>2026-03-22T11:54:40.047Z</time></trkpt><trkpt lat="45.4478317" lon="11.4929433"><ele>347.0</ele><time>2026-03-22T11:54:41.048Z</time></trkpt><trkpt lat="45.4479033" lon="11.4927283"><ele>347.0</ele><time>2026-03-22T11:54:43.048Z</time></trkpt><trkpt lat="45.4479133" lon="11.4926267"><ele>347.0</ele><time>2026-03-22T11:54:44.048Z</time></trkpt><trkpt lat="45.4478567" lon="11.4926983"><ele>347.0</ele><time>2026-03-22T11:54:49.048Z</time></trkpt><trkpt lat="45.4478" lon="11.4927817"><ele>347.0</ele><time>2026-03-22T11:54:50.048Z</time></trkpt><trkpt lat="45.4477267" lon="11.49285"><ele>347.0</ele><time>2026-03-22T11:54:51.048Z</time></trkpt><trkpt lat="45.4476333" lon="11.4929367"><ele>347.0</ele><time>2026-03-22T11:54:52.048Z</time></trkpt><trkpt lat="45.447545" lon="11.4929817"><ele>347.0</ele><time>2026-03-22T11:54:53.048Z</time></trkpt><trkpt lat="45.4474283" lon="11.4930217"><ele>347.0</ele><time>2026-03-22T11:54:54.048Z</time></trkpt><trkpt lat="45.4472233" lon="11.4931133"><ele>347.0</ele><time>2026-03-22T11:54:55.048Z</time></trkpt><trkpt lat="45.447135" lon="11.4931183"><ele>347.0</ele><time>2026-03-22T11:54:57.048Z</time></trkpt><trkpt lat="45.4470833" lon="11.49305"><ele>347.0</ele><time>2026-03-22T11:55:00.048Z</time></trkpt><trkpt lat="45.44708" lon="11.492945"><ele>347.0</ele><time>2026-03-22T11:55:02.048Z</time></trkpt><trkpt lat="45.44715" lon="11.4927567"><ele>347.0</ele><time>2026-03-22T11:55:04.048Z</time></trkpt><trkpt lat="45.4472217" lon="11.4926233"><ele>351.6666666666667</ele><time>2026-03-22T11:55:05.048Z</time></trkpt><trkpt lat="45.4473083" lon="11.4924617"><ele>356.3333333333333</ele><time>2026-03-22T11:55:06.048Z</time></trkpt><trkpt lat="45.447385" lon="11.4922967"><ele>361.0</ele><time>2026-03-22T11:55:07.047Z</time></trkpt><trkpt lat="45.4474833" lon="11.4920467"><ele>363.75</ele><time>2026-03-22T11:55:08.048Z</time></trkpt><trkpt lat="45.44755" lon="11.49183"><ele>366.5</ele><time>2026-03-22T11:55:09.048Z</time></trkpt><trkpt lat="45.4475883" lon="11.4916967"><ele>369.25</ele><time>2026-03-22T11:55:10.048Z</time></trkpt><trkpt lat="45.4476217" lon="11.4915683"><ele>372.0</ele><time>2026-03-22T11:55:11.048Z</time></trkpt><trkpt lat="45.4476667" lon="11.4914433"><ele>372.0</ele><time>2026-03-22T11:55:12.048Z</time></trkpt><trkpt lat="45.4477167" lon="11.4913317"><ele>372.0</ele><time>2026-03-22T11:55:13.048Z</time></trkpt><trkpt lat="45.447765" lon="11.491245"><ele>372.0</ele><time>2026-03-22T11:55:14.048Z</time></trkpt><trkpt lat="45.44781" lon="11.49116"><ele>372.0</ele><time>2026-03-22T11:55:15.048Z</time></trkpt><trkpt lat="45.447865" lon="11.4910683"><ele>372.0</ele><time>2026-03-22T11:55:16.048Z</time></trkpt><trkpt lat="45.44793" lon="11.49097"><ele>372.0</ele><time>2026-03-22T11:55:17.048Z</time></trkpt><trkpt lat="45.4480133" lon="11.490865"><ele>372.0</ele><time>2026-03-22T11:55:18.047Z</time></trkpt><trkpt lat="45.4481067" lon="11.49074"><ele>372.0</ele><time>2026-03-22T11:55:19.048Z</time></trkpt><trkpt lat="45.4482017" lon="11.4906117"><ele>372.0</ele><time>2026-03-22T11:55:20.048Z</time></trkpt><trkpt lat="45.4482933" lon="11.4904733"><ele>372.0</ele><time>2026-03-22T11:55:21.048Z</time></trkpt><trkpt lat="45.448365" lon="11.4903117"><ele>372.3333333333333</ele><time>2026-03-22T11:55:22.047Z</time></trkpt><trkpt lat="45.4484233" lon="11.4901283"><ele>372.66666666666663</ele><time>2026-03-22T11:55:23.047Z</time></trkpt><trkpt lat="45.4484983" lon="11.4899133"><ele>373.0</ele><time>2026-03-22T11:55:24.048Z</time></trkpt><trkpt lat="45.4485617" lon="11.4897267"><ele>372.75</ele><time>2026-03-22T11:55:25.047Z</time></trkpt><trkpt lat="45.4486417" lon="11.48956"><ele>372.5</ele><time>2026-03-22T11:55:26.048Z</time></trkpt><trkpt lat="45.44873" lon="11.4894133"><ele>372.25</ele><time>2026-03-22T11:55:27.048Z</time></trkpt><trkpt lat="45.4488367" lon="11.4893083"><ele>372.0</ele><time>2026-03-22T11:55:28.047Z</time></trkpt><trkpt lat="45.4489467" lon="11.4892167"><ele>372.0</ele><time>2026-03-22T11:55:29.048Z</time></trkpt><trkpt lat="45.4490567" lon="11.48917"><ele>372.0</ele><time>2026-03-22T11:55:30.048Z</time></trkpt><trkpt lat="45.4491533" lon="11.4891517"><ele>372.0</ele><time>2026-03-22T11:55:31.048Z</time></trkpt><trkpt lat="45.4492417" lon="11.48913"><ele>372.0</ele><time>2026-03-22T11:55:32.047Z</time></trkpt><trkpt lat="45.4493167" lon="11.4891117"><ele>372.0</ele><time>2026-03-22T11:55:34.047Z</time></trkpt><trkpt lat="45.4493817" lon="11.488995"><ele>372.0</ele><time>2026-03-22T11:55:37.048Z</time></trkpt><trkpt lat="45.4494283" lon="11.488925"><ele>372.0</ele><time>2026-03-22T11:55:38.048Z</time></trkpt><trkpt lat="45.44948" lon="11.488835"><ele>372.0</ele><time>2026-03-22T11:55:39.048Z</time></trkpt><trkpt lat="45.4495183" lon="11.4887133"><ele>372.0</ele><time>2026-03-22T11:55:40.048Z</time></trkpt><trkpt lat="45.4495583" lon="11.4885883"><ele>372.0</ele><time>2026-03-22T11:55:41.048Z</time></trkpt><trkpt lat="45.4495867" lon="11.4884717"><ele>372.0</ele><time>2026-03-22T11:55:42.048Z</time></trkpt><trkpt lat="45.449605" lon="11.4883667"><ele>373.6</ele><time>2026-03-22T11:55:43.047Z</time></trkpt><trkpt lat="45.4496283" lon="11.4882733"><ele>375.20000000000005</ele><time>2026-03-22T11:55:44.048Z</time></trkpt><trkpt lat="45.449655" lon="11.4881767"><ele>376.8</ele><time>2026-03-22T11:55:45.048Z</time></trkpt><trkpt lat="45.44972" lon="11.488045"><ele>378.4</ele><time>2026-03-22T11:55:47.048Z</time></trkpt><trkpt lat="45.4498317" lon="11.4879983"><ele>380.0</ele><time>2026-03-22T11:55:49.048Z</time></trkpt><trkpt lat="45.4499333" lon="11.48807"><ele>380.0</ele><time>2026-03-22T11:55:50.048Z</time></trkpt><trkpt lat="45.4500317" lon="11.4881417"><ele>380.0</ele><time>2026-03-22T11:55:51.048Z</time></trkpt><trkpt lat="45.4501483" lon="11.488235"><ele>380.0</ele><time>2026-03-22T11:55:52.048Z</time></trkpt><trkpt lat="45.450295" lon="11.48836"><ele>380.0</ele><time>2026-03-22T11:55:53.048Z</time></trkpt><trkpt lat="45.45044" lon="11.488465"><ele>380.5</ele><time>2026-03-22T11:55:54.048Z</time></trkpt><trkpt lat="45.4505683" lon="11.4885633"><ele>381.0</ele><time>2026-03-22T11:55:55.047Z</time></trkpt><trkpt lat="45.4507033" lon="11.48867"><ele>381.5</ele><time>2026-03-22T11:55:56.048Z</time></trkpt><trkpt lat="45.4508333" lon="11.488775"><ele>382.0</ele><time>2026-03-22T11:55:57.048Z</time></trkpt><trkpt lat="45.4509717" lon="11.4888883"><ele>382.25</ele><time>2026-03-22T11:55:58.048Z</time></trkpt><trkpt lat="45.451085" lon="11.4889883"><ele>382.5</ele><time>2026-03-22T11:55:59.048Z</time></trkpt><trkpt lat="45.451175" lon="11.489085"><ele>382.75</ele><time>2026-03-22T11:56:00.047Z</time></trkpt><trkpt lat="45.4512617" lon="11.4891767"><ele>383.0</ele><time>2026-03-22T11:56:01.048Z</time></trkpt><trkpt lat="45.45135" lon="11.4892667"><ele>384.59999999999997</ele><time>2026-03-22T11:56:02.048Z</time></trkpt><trkpt lat="45.4514333" lon="11.4893533"><ele>386.2</ele><time>2026-03-22T11:56:03.048Z</time></trkpt><trkpt lat="45.4515217" lon="11.4894317"><ele>387.8</ele><time>2026-03-22T11:56:04.048Z</time></trkpt><trkpt lat="45.4516133" lon="11.4895117"><ele>389.4</ele><time>2026-03-22T11:56:05.048Z</time></trkpt><trkpt lat="45.45171" lon="11.4895783"><ele>391.0</ele><time>2026-03-22T11:56:06.048Z</time></trkpt><trkpt lat="45.45181" lon="11.4896317"><ele>391.00000000000006</ele><time>2026-03-22T11:56:07.048Z</time></trkpt><trkpt lat="45.4519" lon="11.48968"><ele>391.0</ele><time>2026-03-22T11:56:08.048Z</time></trkpt><trkpt lat="45.451985" lon="11.489725"><ele>391.0</ele><time>2026-03-22T11:56:09.048Z</time></trkpt><trkpt lat="45.452065" lon="11.4897717"><ele>391.0</ele><time>2026-03-22T11:56:10.048Z</time></trkpt><trkpt lat="45.45214" lon="11.4898183"><ele>391.00000000000006</ele><time>2026-03-22T11:56:11.047Z</time></trkpt><trkpt lat="45.452205" lon="11.4898667"><ele>391.0</ele><time>2026-03-22T11:56:12.048Z</time></trkpt><trkpt lat="45.452315" lon="11.48998"><ele>389.75</ele><time>2026-03-22T11:56:14.048Z</time></trkpt><trkpt lat="45.4523717" lon="11.4900767"><ele>388.5</ele><time>2026-03-22T11:56:15.047Z</time></trkpt><trkpt lat="45.4524233" lon="11.490225"><ele>387.25</ele><time>2026-03-22T11:56:16.048Z</time></trkpt><trkpt lat="45.4524767" lon="11.49039"><ele>386.0</ele><time>2026-03-22T11:56:17.048Z</time></trkpt><trkpt lat="45.4525117" lon="11.4905517"><ele>386.0</ele><time>2026-03-22T11:56:18.048Z</time></trkpt><trkpt lat="45.4525383" lon="11.49071"><ele>386.0</ele><time>2026-03-22T11:56:19.048Z</time></trkpt><trkpt lat="45.4525567" lon="11.490865"><ele>386.0</ele><time>2026-03-22T11:56:20.048Z</time></trkpt><trkpt lat="45.4525717" lon="11.4910133"><ele>386.0</ele><time>2026-03-22T11:56:21.048Z</time></trkpt><trkpt lat="45.45259" lon="11.49116"><ele>386.0</ele><time>2026-03-22T11:56:22.048Z</time></trkpt><trkpt lat="45.4526233" lon="11.491305"><ele>385.8</ele><time>2026-03-22T11:56:23.047Z</time></trkpt><trkpt lat="45.4526767" lon="11.4914333"><ele>385.6</ele><time>2026-03-22T11:56:24.048Z</time></trkpt><trkpt lat="45.452745" lon="11.49154"><ele>385.4</ele><time>2026-03-22T11:56:25.048Z</time></trkpt><trkpt lat="45.4528183" lon="11.4916433"><ele>385.2</ele><time>2026-03-22T11:56:26.048Z</time></trkpt><trkpt lat="45.4528883" lon="11.491765"><ele>385.0</ele><time>2026-03-22T11:56:27.048Z</time></trkpt><trkpt lat="45.4529517" lon="11.491905"><ele>379.5</ele><time>2026-03-22T11:56:28.048Z</time></trkpt><trkpt lat="45.4530133" lon="11.4920667"><ele>374.0</ele><time>2026-03-22T11:56:29.048Z</time></trkpt><trkpt lat="45.4530683" lon="11.4922633"><ele>368.5</ele><time>2026-03-22T11:56:30.048Z</time></trkpt><trkpt lat="45.4531317" lon="11.4924767"><ele>363.0</ele><time>2026-03-22T11:56:31.047Z</time></trkpt><trkpt lat="45.4532083" lon="11.492695"><ele>363.0</ele><time>2026-03-22T11:56:32.048Z</time></trkpt><trkpt lat="45.4533017" lon="11.4929"><ele>363.0</ele><time>2026-03-22T11:56:33.048Z</time></trkpt><trkpt lat="45.45341" lon="11.4931033"><ele>363.0</ele><time>2026-03-22T11:56:34.048Z</time></trkpt><trkpt lat="45.4535033" lon="11.4932933"><ele>363.25</ele><time>2026-03-22T11:56:35.048Z</time></trkpt><trkpt lat="45.453595" lon="11.4934667"><ele>363.5</ele><time>2026-03-22T11:56:36.048Z</time></trkpt><trkpt lat="45.453685" lon="11.4936167"><ele>363.75</ele><time>2026-03-22T11:56:37.048Z</time></trkpt><trkpt lat="45.453775" lon="11.4937483"><ele>364.0</ele><time>2026-03-22T11:56:38.048Z</time></trkpt><trkpt lat="45.4538683" lon="11.49386"><ele>365.2</ele><time>2026-03-22T11:56:39.048Z</time></trkpt><trkpt lat="45.4539617" lon="11.4939333"><ele>366.4</ele><time>2026-03-22T11:56:40.048Z</time></trkpt><trkpt lat="45.45405" lon="11.4939967"><ele>367.6</ele><time>2026-03-22T11:56:41.048Z</time></trkpt><trkpt lat="45.45413" lon="11.49404"><ele>368.8</ele><time>2026-03-22T11:56:42.048Z</time></trkpt><trkpt lat="45.4542067" lon="11.4940683"><ele>370.0</ele><time>2026-03-22T11:56:43.048Z</time></trkpt><trkpt lat="45.4543217" lon="11.49409"><ele>370.0</ele><time>2026-03-22T11:56:45.047Z</time></trkpt><trkpt lat="45.4543817" lon="11.494025"><ele>370.0</ele><time>2026-03-22T11:56:47.048Z</time></trkpt><trkpt lat="45.45441" lon="11.4938883"><ele>370.0</ele><time>2026-03-22T11:56:49.048Z</time></trkpt><trkpt lat="45.4543967" lon="11.4937583"><ele>370.0</ele><time>2026-03-22T11:56:50.048Z</time></trkpt><trkpt lat="45.4543833" lon="11.49363"><ele>370.0</ele><time>2026-03-22T11:56:51.048Z</time></trkpt><trkpt lat="45.4543817" lon="11.4934933"><ele>367.75</ele><time>2026-03-22T11:56:52.047Z</time></trkpt><trkpt lat="45.4544133" lon="11.4933517"><ele>365.5</ele><time>2026-03-22T11:56:53.048Z</time></trkpt><trkpt lat="45.4544667" lon="11.4932167"><ele>363.25</ele><time>2026-03-22T11:56:54.048Z</time></trkpt><trkpt lat="45.45455" lon="11.493085"><ele>361.0</ele><time>2026-03-22T11:56:55.048Z</time></trkpt><trkpt lat="45.4546567" lon="11.4929717"><ele>361.25</ele><time>2026-03-22T11:56:56.048Z</time></trkpt><trkpt lat="45.4547583" lon="11.49287"><ele>361.5</ele><time>2026-03-22T11:56:57.048Z</time></trkpt><trkpt lat="45.454865" lon="11.4927583"><ele>361.75</ele><time>2026-03-22T11:56:58.048Z</time></trkpt><trkpt lat="45.45496" lon="11.4926333"><ele>362.0</ele><time>2026-03-22T11:56:59.048Z</time></trkpt><trkpt lat="45.4550333" lon="11.4924933"><ele>362.0</ele><time>2026-03-22T11:57:00.048Z</time></trkpt><trkpt lat="45.4551017" lon="11.4923567"><ele>362.0</ele><time>2026-03-22T11:57:01.047Z</time></trkpt><trkpt lat="45.4551783" lon="11.4922333"><ele>362.0</ele><time>2026-03-22T11:57:02.047Z</time></trkpt><trkpt lat="45.4552633" lon="11.492135"><ele>362.0</ele><time>2026-03-22T11:57:03.048Z</time></trkpt><trkpt lat="45.4553433" lon="11.4920483"><ele>362.0</ele><time>2026-03-22T11:57:04.047Z</time></trkpt><trkpt lat="45.45542" lon="11.4919883"><ele>359.5</ele><time>2026-03-22T11:57:05.048Z</time></trkpt><trkpt lat="45.4554983" lon="11.4919233"><ele>357.0</ele><time>2026-03-22T11:57:06.048Z</time></trkpt><trkpt lat="45.45558" lon="11.4918683"><ele>354.5</ele><time>2026-03-22T11:57:07.047Z</time></trkpt><trkpt lat="45.4556567" lon="11.491835"><ele>352.0</ele><time>2026-03-22T11:57:08.048Z</time></trkpt><trkpt lat="45.4557517" lon="11.49178"><ele>349.5</ele><time>2026-03-22T11:57:10.048Z</time></trkpt><trkpt lat="45.4558067" lon="11.4917267"><ele>347.0</ele><time>2026-03-22T11:57:11.048Z</time></trkpt><trkpt lat="45.455865" lon="11.4916617"><ele>347.0</ele><time>2026-03-22T11:57:12.047Z</time></trkpt><trkpt lat="45.4559267" lon="11.4915933"><ele>347.0</ele><time>2026-03-22T11:57:13.048Z</time></trkpt><trkpt lat="45.4559767" lon="11.4915067"><ele>347.0</ele><time>2026-03-22T11:57:14.048Z</time></trkpt><trkpt lat="45.45603" lon="11.4914217"><ele>347.0</ele><time>2026-03-22T11:57:15.047Z</time></trkpt><trkpt lat="45.4560717" lon="11.4913333"><ele>347.0</ele><time>2026-03-22T11:57:16.048Z</time></trkpt><trkpt lat="45.456115" lon="11.4912483"><ele>347.0</ele><time>2026-03-22T11:57:17.048Z</time></trkpt><trkpt lat="45.4561717" lon="11.4911783"><ele>346.6</ele><time>2026-03-22T11:57:18.048Z</time></trkpt><trkpt lat="45.4562417" lon="11.4911133"><ele>346.20000000000005</ele><time>2026-03-22T11:57:19.047Z</time></trkpt><trkpt lat="45.4563467" lon="11.4910333"><ele>345.8</ele><time>2026-03-22T11:57:20.047Z</time></trkpt><trkpt lat="45.4564317" lon="11.4909367"><ele>345.4</ele><time>2026-03-22T11:57:21.048Z</time></trkpt><trkpt lat="45.4564967" lon="11.4908267"><ele>345.0</ele><time>2026-03-22T11:57:22.048Z</time></trkpt><trkpt lat="45.4565567" lon="11.4907383"><ele>345.0</ele><time>2026-03-22T11:57:23.047Z</time></trkpt><trkpt lat="45.4566183" lon="11.4906633"><ele>345.0</ele><time>2026-03-22T11:57:24.047Z</time></trkpt><trkpt lat="45.4566833" lon="11.4905867"><ele>345.0</ele><time>2026-03-22T11:57:25.048Z</time></trkpt><trkpt lat="45.45675" lon="11.49052"><ele>345.0</ele><time>2026-03-22T11:57:26.048Z</time></trkpt><trkpt lat="45.4568567" lon="11.4904367"><ele>345.0</ele><time>2026-03-22T11:57:28.048Z</time></trkpt><trkpt lat="45.45694" lon="11.4903783"><ele>345.0</ele><time>2026-03-22T11:57:32.048Z</time></trkpt><trkpt lat="45.4570233" lon="11.4903733"><ele>345.0</ele><time>2026-03-22T11:57:35.048Z</time></trkpt><trkpt lat="45.4571567" lon="11.4904867"><ele>345.0</ele><time>2026-03-22T11:57:47.047Z</time></trkpt><trkpt lat="45.457125" lon="11.4905717"><ele>345.0</ele><time>2026-03-22T11:57:49.048Z</time></trkpt><trkpt lat="45.4571183" lon="11.490695"><ele>345.0</ele><time>2026-03-22T11:57:50.048Z</time></trkpt><trkpt lat="45.457115" lon="11.490845"><ele>345.0</ele><time>2026-03-22T11:57:51.048Z</time></trkpt><trkpt lat="45.457065" lon="11.490955"><ele>345.0</ele><time>2026-03-22T11:57:53.048Z</time></trkpt><trkpt lat="45.457035" lon="11.49106"><ele>345.0</ele><time>2026-03-22T11:57:55.048Z</time></trkpt><trkpt lat="45.4570133" lon="11.4912333"><ele>345.0</ele><time>2026-03-22T11:57:57.048Z</time></trkpt><trkpt lat="45.4569833" lon="11.49136"><ele>345.0</ele><time>2026-03-22T11:57:58.048Z</time></trkpt><trkpt lat="45.4570367" lon="11.4914667"><ele>344.5</ele><time>2026-03-22T11:58:01.047Z</time></trkpt><trkpt lat="45.4570933" lon="11.4915633"><ele>344.0</ele><time>2026-03-22T11:58:03.048Z</time></trkpt><trkpt lat="45.4571883" lon="11.49168"><ele>343.5</ele><time>2026-03-22T11:58:05.048Z</time></trkpt><trkpt lat="45.45733" lon="11.4918617"><ele>343.0</ele><time>2026-03-22T11:58:12.048Z</time></trkpt><trkpt lat="45.4573833" lon="11.4919317"><ele>341.5</ele><time>2026-03-22T11:58:14.048Z</time></trkpt><trkpt lat="45.4574567" lon="11.4920567"><ele>340.0</ele><time>2026-03-22T11:58:16.048Z</time></trkpt><trkpt lat="45.457505" lon="11.492125"><ele>338.5</ele><time>2026-03-22T11:58:17.048Z</time></trkpt><trkpt lat="45.457545" lon="11.4922"><ele>337.0</ele><time>2026-03-22T11:58:18.048Z</time></trkpt><trkpt lat="45.45759" lon="11.4922733"><ele>335.5</ele><time>2026-03-22T11:58:19.048Z</time></trkpt><trkpt lat="45.457635" lon="11.49236"><ele>334.0</ele><time>2026-03-22T11:58:20.048Z</time></trkpt><trkpt lat="45.4577" lon="11.4924717"><ele>334.0</ele><time>2026-03-22T11:58:22.048Z</time></trkpt><trkpt lat="45.4577333" lon="11.4925517"><ele>334.0</ele><time>2026-03-22T11:58:23.048Z</time></trkpt><trkpt lat="45.4577817" lon="11.4926583"><ele>334.0</ele><time>2026-03-22T11:58:25.048Z</time></trkpt><trkpt lat="45.4578133" lon="11.4927667"><ele>334.0</ele><time>2026-03-22T11:58:27.048Z</time></trkpt><trkpt lat="45.4578583" lon="11.49283"><ele>334.0</ele><time>2026-03-22T11:58:29.048Z</time></trkpt><trkpt lat="45.45792" lon="11.4928683"><ele>334.0</ele><time>2026-03-22T11:58:31.048Z</time></trkpt><trkpt lat="45.4580033" lon="11.4929317"><ele>333.5</ele><time>2026-03-22T11:58:33.048Z</time></trkpt><trkpt lat="45.458105" lon="11.49299"><ele>333.0</ele><time>2026-03-22T11:58:35.048Z</time></trkpt><trkpt lat="45.458175" lon="11.4930017"><ele>332.5</ele><time>2026-03-22T11:58:37.048Z</time></trkpt><trkpt lat="45.45825" lon="11.4929117"><ele>332.0</ele><time>2026-03-22T11:58:39.048Z</time></trkpt><trkpt lat="45.4582867" lon="11.4928183"><ele>331.5</ele><time>2026-03-22T11:58:40.048Z</time></trkpt><trkpt lat="45.4583117" lon="11.492735"><ele>331.0</ele><time>2026-03-22T11:58:41.047Z</time></trkpt><trkpt lat="45.4583483" lon="11.49263"><ele>333.0</ele><time>2026-03-22T11:58:43.047Z</time></trkpt><trkpt lat="45.4584083" lon="11.4924833"><ele>335.0</ele><time>2026-03-22T11:58:45.048Z</time></trkpt><trkpt lat="45.458425" lon="11.4923783"><ele>337.0</ele><time>2026-03-22T11:58:49.047Z</time></trkpt><trkpt lat="45.4584433" lon="11.4922517"><ele>339.0</ele><time>2026-03-22T11:58:50.048Z</time></trkpt><trkpt lat="45.4584917" lon="11.4920683"><ele>341.0</ele><time>2026-03-22T11:59:01.047Z</time></trkpt><trkpt lat="45.4584983" lon="11.4919533"><ele>346.25</ele><time>2026-03-22T12:01:09.048Z</time></trkpt><trkpt lat="45.45858" lon="11.4919333"><ele>351.5</ele><time>2026-03-22T12:01:15.048Z</time></trkpt><trkpt lat="45.4586917" lon="11.49191"><ele>356.75</ele><time>2026-03-22T12:01:19.048Z</time></trkpt><trkpt lat="45.4588383" lon="11.4920233"><ele>362.0</ele><time>2026-03-22T12:01:20.047Z</time></trkpt><trkpt lat="45.4589467" lon="11.4920583"><ele>362.0</ele><time>2026-03-22T12:01:22.048Z</time></trkpt><trkpt lat="45.459025" lon="11.4920417"><ele>362.0</ele><time>2026-03-22T12:01:24.048Z</time></trkpt><trkpt lat="45.4591167" lon="11.4920183"><ele>362.0</ele><time>2026-03-22T12:01:26.048Z</time></trkpt><trkpt lat="45.45926" lon="11.49196"><ele>362.0</ele><time>2026-03-22T12:01:28.048Z</time></trkpt><trkpt lat="45.4593633" lon="11.4919383"><ele>362.0</ele><time>2026-03-22T12:01:29.048Z</time></trkpt><trkpt lat="45.4594833" lon="11.4919483"><ele>362.0</ele><time>2026-03-22T12:01:30.048Z</time></trkpt><trkpt lat="45.45955" lon="11.4919583"><ele>362.0</ele><time>2026-03-22T12:01:32.048Z</time></trkpt><trkpt lat="45.4596367" lon="11.4920383"><ele>362.0</ele><time>2026-03-22T12:01:36.048Z</time></trkpt><trkpt lat="45.4596933" lon="11.4921"><ele>362.0</ele><time>2026-03-22T12:01:37.048Z</time></trkpt><trkpt lat="45.4597983" lon="11.4921567"><ele>362.0</ele><time>2026-03-22T12:01:38.048Z</time></trkpt><trkpt lat="45.45988" lon="11.4922217"><ele>362.0</ele><time>2026-03-22T12:01:39.048Z</time></trkpt><trkpt lat="45.459935" lon="11.49227"><ele>361.0</ele><time>2026-03-22T12:01:40.048Z</time></trkpt><trkpt lat="45.4600233" lon="11.4923617"><ele>360.0</ele><time>2026-03-22T12:01:41.048Z</time></trkpt><trkpt lat="45.4601" lon="11.4924333"><ele>359.0</ele><time>2026-03-22T12:01:43.048Z</time></trkpt><trkpt lat="45.4601667" lon="11.492475"><ele>358.0</ele><time>2026-03-22T12:01:44.048Z</time></trkpt><trkpt lat="45.4602983" lon="11.492565"><ele>357.0</ele><time>2026-03-22T12:01:46.048Z</time></trkpt><trkpt lat="45.46048" lon="11.49272"><ele>357.0</ele><time>2026-03-22T12:01:47.048Z</time></trkpt><trkpt lat="45.4605483" lon="11.4926317"><ele>357.0</ele><time>2026-03-22T12:01:48.048Z</time></trkpt><trkpt lat="45.4605833" lon="11.492545"><ele>357.0</ele><time>2026-03-22T12:01:50.048Z</time></trkpt><trkpt lat="45.46062" lon="11.4924383"><ele>357.0</ele><time>2026-03-22T12:01:52.048Z</time></trkpt><trkpt lat="45.460685" lon="11.49245"><ele>357.0</ele><time>2026-03-22T12:01:56.048Z</time></trkpt><trkpt lat="45.4607517" lon="11.492545"><ele>357.0</ele><time>2026-03-22T12:01:59.047Z</time></trkpt><trkpt lat="45.4609" lon="11.49271"><ele>357.0</ele><time>2026-03-22T12:02:02.048Z</time></trkpt><trkpt lat="45.4609667" lon="11.4927617"><ele>357.0</ele><time>2026-03-22T12:02:03.047Z</time></trkpt><trkpt lat="45.4610417" lon="11.4928133"><ele>357.0</ele><time>2026-03-22T12:02:04.048Z</time></trkpt><trkpt lat="45.4611417" lon="11.4928733"><ele>357.0</ele><time>2026-03-22T12:02:05.048Z</time></trkpt><trkpt lat="45.461255" lon="11.492945"><ele>357.0</ele><time>2026-03-22T12:02:06.048Z</time></trkpt><trkpt lat="45.4615183" lon="11.4930883"><ele>352.25</ele><time>2026-03-22T12:02:07.048Z</time></trkpt><trkpt lat="45.4617133" lon="11.49318"><ele>347.5</ele><time>2026-03-22T12:02:08.048Z</time></trkpt><trkpt lat="45.46184" lon="11.4932017"><ele>342.75</ele><time>2026-03-22T12:02:09.048Z</time></trkpt><trkpt lat="45.4619517" lon="11.4932233"><ele>338.0</ele><time>2026-03-22T12:02:10.047Z</time></trkpt><trkpt lat="45.46204" lon="11.4932417"><ele>338.0</ele><time>2026-03-22T12:02:11.047Z</time></trkpt><trkpt lat="45.4621067" lon="11.4932733"><ele>338.0</ele><time>2026-03-22T12:02:12.048Z</time></trkpt><trkpt lat="45.462195" lon="11.4933217"><ele>338.0</ele><time>2026-03-22T12:02:14.048Z</time></trkpt><trkpt lat="45.4622633" lon="11.49335"><ele>338.0</ele><time>2026-03-22T12:02:17.048Z</time></trkpt><trkpt lat="45.4623733" lon="11.4933867"><ele>338.0</ele><time>2026-03-22T12:02:33.048Z</time></trkpt><trkpt lat="45.462475" lon="11.4933783"><ele>337.4</ele><time>2026-03-22T12:03:04.048Z</time></trkpt><trkpt lat="45.4625417" lon="11.49339"><ele>336.79999999999995</ele><time>2026-03-22T12:03:06.048Z</time></trkpt><trkpt lat="45.4626267" lon="11.4933933"><ele>336.2</ele><time>2026-03-22T12:03:09.048Z</time></trkpt><trkpt lat="45.4626933" lon="11.4933883"><ele>335.6</ele><time>2026-03-22T12:03:11.048Z</time></trkpt><trkpt lat="45.4628383" lon="11.4933667"><ele>335.0</ele><time>2026-03-22T12:03:13.048Z</time></trkpt><trkpt lat="45.46296" lon="11.4933583"><ele>334.5</ele><time>2026-03-22T12:03:14.047Z</time></trkpt><trkpt lat="45.4630667" lon="11.49334"><ele>334.0</ele><time>2026-03-22T12:03:15.048Z</time></trkpt><trkpt lat="45.46319" lon="11.4933383"><ele>333.5</ele><time>2026-03-22T12:03:16.048Z</time></trkpt><trkpt lat="45.463335" lon="11.4933683"><ele>333.0</ele><time>2026-03-22T12:03:17.048Z</time></trkpt><trkpt lat="45.46344" lon="11.4933767"><ele>333.0</ele><time>2026-03-22T12:03:18.048Z</time></trkpt><trkpt lat="45.4635233" lon="11.4933617"><ele>333.0</ele><time>2026-03-22T12:03:19.047Z</time></trkpt><trkpt lat="45.4635917" lon="11.493335"><ele>333.0</ele><time>2026-03-22T12:03:20.048Z</time></trkpt><trkpt lat="45.4636533" lon="11.4932883"><ele>333.0</ele><time>2026-03-22T12:03:21.048Z</time></trkpt><trkpt lat="45.46371" lon="11.49324"><ele>333.0</ele><time>2026-03-22T12:03:22.048Z</time></trkpt><trkpt lat="45.4637917" lon="11.49316"><ele>333.0</ele><time>2026-03-22T12:03:24.048Z</time></trkpt><trkpt lat="45.4638517" lon="11.4931233"><ele>332.79999999999995</ele><time>2026-03-22T12:03:25.047Z</time></trkpt><trkpt lat="45.46391" lon="11.493055"><ele>332.6</ele><time>2026-03-22T12:03:27.048Z</time></trkpt><trkpt lat="45.4638733" lon="11.4931317"><ele>332.4</ele><time>2026-03-22T12:03:28.048Z</time></trkpt><trkpt lat="45.4639567" lon="11.4931533"><ele>332.20000000000005</ele><time>2026-03-22T12:03:30.048Z</time></trkpt><trkpt lat="45.4640433" lon="11.4933567"><ele>332.0</ele><time>2026-03-22T12:03:31.048Z</time></trkpt><trkpt lat="45.4641233" lon="11.4934417"><ele>332.0</ele><time>2026-03-22T12:03:32.048Z</time></trkpt><trkpt lat="45.4642183" lon="11.4935267"><ele>332.0</ele><time>2026-03-22T12:03:33.047Z</time></trkpt><trkpt lat="45.4642967" lon="11.4936017"><ele>332.0</ele><time>2026-03-22T12:03:34.048Z</time></trkpt><trkpt lat="45.4643617" lon="11.4936633"><ele>332.0</ele><time>2026-03-22T12:03:35.048Z</time></trkpt><trkpt lat="45.4644367" lon="11.4937417"><ele>332.0</ele><time>2026-03-22T12:03:36.048Z</time></trkpt><trkpt lat="45.4644967" lon="11.4938033"><ele>331.0</ele><time>2026-03-22T12:03:37.048Z</time></trkpt><trkpt lat="45.4645417" lon="11.4938767"><ele>330.0</ele><time>2026-03-22T12:03:38.048Z</time></trkpt><trkpt lat="45.4645933" lon="11.49395"><ele>329.0</ele><time>2026-03-22T12:03:39.047Z</time></trkpt><trkpt lat="45.46469" lon="11.4940583"><ele>328.0</ele><time>2026-03-22T12:03:40.048Z</time></trkpt><trkpt lat="45.464775" lon="11.4941683"><ele>327.0</ele><time>2026-03-22T12:03:41.048Z</time></trkpt><trkpt lat="45.4648417" lon="11.494255"><ele>327.0</ele><time>2026-03-22T12:03:42.048Z</time></trkpt><trkpt lat="45.4649833" lon="11.4943933"><ele>327.0</ele><time>2026-03-22T12:03:43.048Z</time></trkpt><trkpt lat="45.4650267" lon="11.494465"><ele>327.0</ele><time>2026-03-22T12:03:44.047Z</time></trkpt><trkpt lat="45.46508" lon="11.4945367"><ele>327.0</ele><time>2026-03-22T12:03:45.048Z</time></trkpt><trkpt lat="45.4651683" lon="11.4946283"><ele>327.0</ele><time>2026-03-22T12:03:46.048Z</time></trkpt><trkpt lat="45.46524" lon="11.4946717"><ele>323.8</ele><time>2026-03-22T12:03:47.048Z</time></trkpt><trkpt lat="45.4653717" lon="11.494715"><ele>320.6</ele><time>2026-03-22T12:03:49.048Z</time></trkpt><trkpt lat="45.465455" lon="11.4947417"><ele>317.40000000000003</ele><time>2026-03-22T12:03:50.048Z</time></trkpt><trkpt lat="45.4655333" lon="11.4947533"><ele>314.20000000000005</ele><time>2026-03-22T12:03:51.048Z</time></trkpt><trkpt lat="45.4656333" lon="11.4947717"><ele>311.0</ele><time>2026-03-22T12:03:52.048Z</time></trkpt><trkpt lat="45.465765" lon="11.4948367"><ele>310.5</ele><time>2026-03-22T12:03:53.048Z</time></trkpt><trkpt lat="45.46588" lon="11.4948883"><ele>310.0</ele><time>2026-03-22T12:03:54.048Z</time></trkpt><trkpt lat="45.466" lon="11.49491"><ele>309.5</ele><time>2026-03-22T12:03:55.048Z</time></trkpt><trkpt lat="45.46613" lon="11.4948783"><ele>309.0</ele><time>2026-03-22T12:03:56.048Z</time></trkpt><trkpt lat="45.466255" lon="11.494815"><ele>306.0</ele><time>2026-03-22T12:03:57.048Z</time></trkpt><trkpt lat="45.4664167" lon="11.494755"><ele>303.0</ele><time>2026-03-22T12:03:58.048Z</time></trkpt><trkpt lat="45.466555" lon="11.4946783"><ele>300.0</ele><time>2026-03-22T12:03:59.048Z</time></trkpt><trkpt lat="45.4667" lon="11.49462"><ele>301.5</ele><time>2026-03-22T12:04:00.048Z</time></trkpt><trkpt lat="45.4668317" lon="11.4945667"><ele>303.0</ele><time>2026-03-22T12:04:01.048Z</time></trkpt><trkpt lat="45.4669433" lon="11.4945067"><ele>304.5</ele><time>2026-03-22T12:04:02.048Z</time></trkpt><trkpt lat="45.4670617" lon="11.4944517"><ele>306.0</ele><time>2026-03-22T12:04:03.048Z</time></trkpt><trkpt lat="45.4671867" lon="11.4944067"><ele>306.0</ele><time>2026-03-22T12:04:04.048Z</time></trkpt><trkpt lat="45.4673317" lon="11.4943267"><ele>306.0</ele><time>2026-03-22T12:04:05.048Z</time></trkpt><trkpt lat="45.4674683" lon="11.4942433"><ele>306.0</ele><time>2026-03-22T12:04:06.048Z</time></trkpt><trkpt lat="45.4676383" lon="11.4941717"><ele>306.0</ele><time>2026-03-22T12:04:07.048Z</time></trkpt><trkpt lat="45.467775" lon="11.494105"><ele>306.0</ele><time>2026-03-22T12:04:08.048Z</time></trkpt><trkpt lat="45.467895" lon="11.494055"><ele>306.0</ele><time>2026-03-22T12:04:09.048Z</time></trkpt><trkpt lat="45.468005" lon="11.4940067"><ele>306.0</ele><time>2026-03-22T12:04:10.048Z</time></trkpt><trkpt lat="45.46809" lon="11.4939567"><ele>304.6666666666667</ele><time>2026-03-22T12:04:11.048Z</time></trkpt><trkpt lat="45.4681633" lon="11.4939083"><ele>303.3333333333333</ele><time>2026-03-22T12:04:12.048Z</time></trkpt><trkpt lat="45.4682483" lon="11.4938083"><ele>302.0</ele><time>2026-03-22T12:04:14.048Z</time></trkpt><trkpt lat="45.468285" lon="11.493735"><ele>300.66666666666663</ele><time>2026-03-22T12:04:15.048Z</time></trkpt><trkpt lat="45.46836" lon="11.4936133"><ele>299.3333333333333</ele><time>2026-03-22T12:04:17.048Z</time></trkpt><trkpt lat="45.46842" lon="11.4935533"><ele>298.0</ele><time>2026-03-22T12:04:18.048Z</time></trkpt><trkpt lat="45.46852" lon="11.4935233"><ele>298.0</ele><time>2026-03-22T12:04:19.048Z</time></trkpt><trkpt lat="45.46864" lon="11.4935083"><ele>298.0</ele><time>2026-03-22T12:04:20.048Z</time></trkpt><trkpt lat="45.4687467" lon="11.4934983"><ele>298.0</ele><time>2026-03-22T12:04:21.048Z</time></trkpt><trkpt lat="45.4688383" lon="11.4934883"><ele>298.0</ele><time>2026-03-22T12:04:22.048Z</time></trkpt><trkpt lat="45.4689217" lon="11.4934767"><ele>298.0</ele><time>2026-03-22T12:04:23.048Z</time></trkpt><trkpt lat="45.468995" lon="11.49347"><ele>298.5</ele><time>2026-03-22T12:04:24.048Z</time></trkpt><trkpt lat="45.46906" lon="11.4934733"><ele>299.0</ele><time>2026-03-22T12:04:25.048Z</time></trkpt><trkpt lat="45.4691317" lon="11.4934617"><ele>299.5</ele><time>2026-03-22T12:04:26.048Z</time></trkpt><trkpt lat="45.4692183" lon="11.4934433"><ele>300.0</ele><time>2026-03-22T12:04:27.048Z</time></trkpt><trkpt lat="45.4692867" lon="11.493455"><ele>300.5</ele><time>2026-03-22T12:04:28.048Z</time></trkpt><trkpt lat="45.4693683" lon="11.4934933"><ele>301.0</ele><time>2026-03-22T12:04:30.048Z</time></trkpt><trkpt lat="45.4694367" lon="11.4935233"><ele>301.0</ele><time>2026-03-22T12:04:32.048Z</time></trkpt><trkpt lat="45.4694933" lon="11.4935883"><ele>301.0</ele><time>2026-03-22T12:04:34.048Z</time></trkpt><trkpt lat="45.4695567" lon="11.4936867"><ele>301.0</ele><time>2026-03-22T12:04:36.048Z</time></trkpt><trkpt lat="45.4695983" lon="11.4938167"><ele>301.0</ele><time>2026-03-22T12:04:38.048Z</time></trkpt><trkpt lat="45.469585" lon="11.4939083"><ele>301.0</ele><time>2026-03-22T12:04:40.047Z</time></trkpt><trkpt lat="45.4694917" lon="11.4939783"><ele>301.0</ele><time>2026-03-22T12:04:43.048Z</time></trkpt><trkpt lat="45.46943" lon="11.4939967"><ele>299.16666666666663</ele><time>2026-03-22T12:04:45.047Z</time></trkpt><trkpt lat="45.4693917" lon="11.4940967"><ele>297.3333333333333</ele><time>2026-03-22T12:04:48.047Z</time></trkpt><trkpt lat="45.4693933" lon="11.4942117"><ele>295.5</ele><time>2026-03-22T12:04:49.048Z</time></trkpt><trkpt lat="45.4694033" lon="11.4943933"><ele>293.6666666666667</ele><time>2026-03-22T12:04:51.048Z</time></trkpt><trkpt lat="45.4694233" lon="11.4945017"><ele>291.83333333333337</ele><time>2026-03-22T12:04:52.047Z</time></trkpt><trkpt lat="45.46946" lon="11.4946017"><ele>290.0</ele><time>2026-03-22T12:04:53.048Z</time></trkpt><trkpt lat="45.46952" lon="11.4947333"><ele>290.0</ele><time>2026-03-22T12:04:54.048Z</time></trkpt><trkpt lat="45.4695867" lon="11.4948367"><ele>290.0</ele><time>2026-03-22T12:04:55.048Z</time></trkpt><trkpt lat="45.469665" lon="11.4949217"><ele>290.0</ele><time>2026-03-22T12:04:56.048Z</time></trkpt><trkpt lat="45.469745" lon="11.4950033"><ele>290.0</ele><time>2026-03-22T12:04:57.047Z</time></trkpt><trkpt lat="45.4698633" lon="11.495225"><ele>290.0</ele><time>2026-03-22T12:04:58.048Z</time></trkpt><trkpt lat="45.46995" lon="11.49532"><ele>290.0</ele><time>2026-03-22T12:04:59.048Z</time></trkpt><trkpt lat="45.4700633" lon="11.49544"><ele>290.0</ele><time>2026-03-22T12:05:00.048Z</time></trkpt><trkpt lat="45.470155" lon="11.4955067"><ele>290.0</ele><time>2026-03-22T12:05:01.048Z</time></trkpt><trkpt lat="45.4702567" lon="11.4955733"><ele>287.6666666666667</ele><time>2026-03-22T12:05:02.048Z</time></trkpt><trkpt lat="45.4703433" lon="11.4956367"><ele>285.33333333333337</ele><time>2026-03-22T12:05:03.048Z</time></trkpt><trkpt lat="45.4704183" lon="11.4956967"><ele>283.0</ele><time>2026-03-22T12:05:04.048Z</time></trkpt><trkpt lat="45.470485" lon="11.4957567"><ele>280.6666666666667</ele><time>2026-03-22T12:05:05.048Z</time></trkpt><trkpt lat="45.470565" lon="11.495805"><ele>278.3333333333333</ele><time>2026-03-22T12:05:06.048Z</time></trkpt><trkpt lat="45.470645" lon="11.4958367"><ele>276.0</ele><time>2026-03-22T12:05:07.048Z</time></trkpt><trkpt lat="45.4707617" lon="11.4958133"><ele>276.0</ele><time>2026-03-22T12:05:09.048Z</time></trkpt><trkpt lat="45.4707817" lon="11.495695"><ele>276.0</ele><time>2026-03-22T12:05:10.048Z</time></trkpt><trkpt lat="45.4707917" lon="11.4955733"><ele>276.0</ele><time>2026-03-22T12:05:11.048Z</time></trkpt><trkpt lat="45.4708083" lon="11.4954533"><ele>276.0</ele><time>2026-03-22T12:05:12.048Z</time></trkpt><trkpt lat="45.4708267" lon="11.4953367"><ele>276.0</ele><time>2026-03-22T12:05:13.048Z</time></trkpt><trkpt lat="45.4708683" lon="11.4952417"><ele>276.0</ele><time>2026-03-22T12:05:14.048Z</time></trkpt><trkpt lat="45.470915" lon="11.4951517"><ele>275.40000000000003</ele><time>2026-03-22T12:05:15.048Z</time></trkpt><trkpt lat="45.4709617" lon="11.49504"><ele>274.8</ele><time>2026-03-22T12:05:16.048Z</time></trkpt><trkpt lat="45.4710167" lon="11.4949467"><ele>274.20000000000005</ele><time>2026-03-22T12:05:17.048Z</time></trkpt><trkpt lat="45.47108" lon="11.49485"><ele>273.6</ele><time>2026-03-22T12:05:18.047Z</time></trkpt><trkpt lat="45.4711683" lon="11.4947533"><ele>273.0</ele><time>2026-03-22T12:05:19.048Z</time></trkpt><trkpt lat="45.4712833" lon="11.49467"><ele>273.0</ele><time>2026-03-22T12:05:20.047Z</time></trkpt><trkpt lat="45.4714333" lon="11.4945933"><ele>273.0</ele><time>2026-03-22T12:05:21.048Z</time></trkpt><trkpt lat="45.4715667" lon="11.494535"><ele>273.0</ele><time>2026-03-22T12:05:22.047Z</time></trkpt><trkpt lat="45.4717" lon="11.4944883"><ele>273.0</ele><time>2026-03-22T12:05:23.048Z</time></trkpt><trkpt lat="45.47183" lon="11.49445"><ele>272.0</ele><time>2026-03-22T12:05:24.047Z</time></trkpt><trkpt lat="45.4719533" lon="11.4944117"><ele>271.0</ele><time>2026-03-22T12:05:25.047Z</time></trkpt><trkpt lat="45.47209" lon="11.49436"><ele>270.0</ele><time>2026-03-22T12:05:26.047Z</time></trkpt><trkpt lat="45.4722217" lon="11.4943067"><ele>269.0</ele><time>2026-03-22T12:05:27.048Z</time></trkpt><trkpt lat="45.4723517" lon="11.49426"><ele>269.0</ele><time>2026-03-22T12:05:28.048Z</time></trkpt><trkpt lat="45.4724917" lon="11.4942333"><ele>269.0</ele><time>2026-03-22T12:05:29.047Z</time></trkpt><trkpt lat="45.4726183" lon="11.494215"><ele>269.0</ele><time>2026-03-22T12:05:30.048Z</time></trkpt><trkpt lat="45.472745" lon="11.4941967"><ele>269.0</ele><time>2026-03-22T12:05:31.048Z</time></trkpt><trkpt lat="45.4728617" lon="11.4941767"><ele>268.8</ele><time>2026-03-22T12:05:32.047Z</time></trkpt><trkpt lat="45.4729667" lon="11.4941667"><ele>268.59999999999997</ele><time>2026-03-22T12:05:33.048Z</time></trkpt><trkpt lat="45.473065" lon="11.4941733"><ele>268.4</ele><time>2026-03-22T12:05:34.048Z</time></trkpt><trkpt lat="45.47316" lon="11.4941883"><ele>268.2</ele><time>2026-03-22T12:05:35.048Z</time></trkpt><trkpt lat="45.4732467" lon="11.4942183"><ele>268.0</ele><time>2026-03-22T12:05:36.048Z</time></trkpt><trkpt lat="45.47332" lon="11.49426"><ele>268.0</ele><time>2026-03-22T12:05:37.048Z</time></trkpt><trkpt lat="45.4733867" lon="11.4943233"><ele>268.0</ele><time>2026-03-22T12:05:39.047Z</time></trkpt><trkpt lat="45.4734433" lon="11.49428"><ele>268.0</ele><time>2026-03-22T12:05:59.048Z</time></trkpt><trkpt lat="45.4735233" lon="11.4941683"><ele>268.0</ele><time>2026-03-22T12:06:01.048Z</time></trkpt><trkpt lat="45.4735717" lon="11.49407"><ele>268.0</ele><time>2026-03-22T12:06:02.048Z</time></trkpt><trkpt lat="45.47363" lon="11.4939283"><ele>268.0</ele><time>2026-03-22T12:06:03.048Z</time></trkpt><trkpt lat="45.473695" lon="11.4937833"><ele>268.0</ele><time>2026-03-22T12:06:04.048Z</time></trkpt><trkpt lat="45.473755" lon="11.4936533"><ele>268.0</ele><time>2026-03-22T12:06:05.048Z</time></trkpt><trkpt lat="45.4738133" lon="11.493535"><ele>268.0</ele><time>2026-03-22T12:06:06.048Z</time></trkpt><trkpt lat="45.4738717" lon="11.49342"><ele>268.0</ele><time>2026-03-22T12:06:07.047Z</time></trkpt><trkpt lat="45.4739317" lon="11.4933083"><ele>268.8</ele><time>2026-03-22T12:06:08.048Z</time></trkpt><trkpt lat="45.473985" lon="11.4932217"><ele>269.6</ele><time>2026-03-22T12:06:09.048Z</time></trkpt><trkpt lat="45.4740417" lon="11.4931133"><ele>270.4</ele><time>2026-03-22T12:06:11.048Z</time></trkpt><trkpt lat="45.4740367" lon="11.4929883"><ele>271.2</ele><time>2026-03-22T12:06:13.048Z</time></trkpt><trkpt lat="45.47401" lon="11.4929033"><ele>272.0</ele><time>2026-03-22T12:06:14.048Z</time></trkpt><trkpt lat="45.4739567" lon="11.4926933"><ele>272.0</ele><time>2026-03-22T12:06:15.048Z</time></trkpt><trkpt lat="45.4739067" lon="11.4925083"><ele>272.0</ele><time>2026-03-22T12:06:16.047Z</time></trkpt><trkpt lat="45.4738717" lon="11.49233"><ele>272.0</ele><time>2026-03-22T12:06:17.048Z</time></trkpt><trkpt lat="45.4738517" lon="11.492175"><ele>272.0</ele><time>2026-03-22T12:06:18.048Z</time></trkpt><trkpt lat="45.4738033" lon="11.4920317"><ele>273.6</ele><time>2026-03-22T12:06:19.048Z</time></trkpt><trkpt lat="45.473725" lon="11.4919217"><ele>275.2</ele><time>2026-03-22T12:06:21.048Z</time></trkpt><trkpt lat="45.4737" lon="11.49183"><ele>276.8</ele><time>2026-03-22T12:06:23.048Z</time></trkpt><trkpt lat="45.47371" lon="11.4917383"><ele>278.4</ele><time>2026-03-22T12:06:24.048Z</time></trkpt><trkpt lat="45.4736883" lon="11.4915133"><ele>280.0</ele><time>2026-03-22T12:06:26.048Z</time></trkpt><trkpt lat="45.473655" lon="11.4913717"><ele>281.16666666666663</ele><time>2026-03-22T12:06:27.048Z</time></trkpt><trkpt lat="45.4736283" lon="11.4912517"><ele>282.3333333333333</ele><time>2026-03-22T12:06:28.048Z</time></trkpt><trkpt lat="45.47362" lon="11.4911467"><ele>283.5</ele><time>2026-03-22T12:06:29.048Z</time></trkpt><trkpt lat="45.4736267" lon="11.4910383"><ele>284.6666666666667</ele><time>2026-03-22T12:06:30.048Z</time></trkpt><trkpt lat="45.4736467" lon="11.49094"><ele>285.83333333333337</ele><time>2026-03-22T12:06:31.048Z</time></trkpt><trkpt lat="45.4736933" lon="11.4908733"><ele>287.0</ele><time>2026-03-22T12:06:32.047Z</time></trkpt><trkpt lat="45.4737633" lon="11.4908267"><ele>285.6</ele><time>2026-03-22T12:06:33.047Z</time></trkpt><trkpt lat="45.4738667" lon="11.4907967"><ele>284.2</ele><time>2026-03-22T12:06:34.048Z</time></trkpt><trkpt lat="45.473955" lon="11.4907733"><ele>282.8</ele><time>2026-03-22T12:06:35.048Z</time></trkpt><trkpt lat="45.4740317" lon="11.49075"><ele>281.4</ele><time>2026-03-22T12:06:36.047Z</time></trkpt><trkpt lat="45.4741" lon="11.4907317"><ele>280.0</ele><time>2026-03-22T12:06:37.048Z</time></trkpt><trkpt lat="45.47421" lon="11.4907367"><ele>280.0</ele><time>2026-03-22T12:06:39.048Z</time></trkpt><trkpt lat="45.4742717" lon="11.4908683"><ele>280.0</ele><time>2026-03-22T12:06:41.048Z</time></trkpt><trkpt lat="45.47431" lon="11.4909667"><ele>280.0</ele><time>2026-03-22T12:06:42.048Z</time></trkpt><trkpt lat="45.4743717" lon="11.4910917"><ele>280.0</ele><time>2026-03-22T12:06:43.048Z</time></trkpt><trkpt lat="45.4745167" lon="11.491135"><ele>280.0</ele><time>2026-03-22T12:06:45.048Z</time></trkpt><trkpt lat="45.474625" lon="11.4911133"><ele>280.25</ele><time>2026-03-22T12:06:46.048Z</time></trkpt><trkpt lat="45.474775" lon="11.4910617"><ele>280.5</ele><time>2026-03-22T12:06:47.048Z</time></trkpt><trkpt lat="45.47492" lon="11.491015"><ele>280.75</ele><time>2026-03-22T12:06:48.048Z</time></trkpt><trkpt lat="45.4750483" lon="11.4909717"><ele>281.0</ele><time>2026-03-22T12:06:49.048Z</time></trkpt><trkpt lat="45.4751517" lon="11.49093"><ele>281.0</ele><time>2026-03-22T12:06:50.048Z</time></trkpt><trkpt lat="45.4752367" lon="11.4908833"><ele>281.0</ele><time>2026-03-22T12:06:51.048Z</time></trkpt><trkpt lat="45.475315" lon="11.490825"><ele>281.0</ele><time>2026-03-22T12:06:52.048Z</time></trkpt><trkpt lat="45.4754067" lon="11.49075"><ele>281.0</ele><time>2026-03-22T12:06:53.048Z</time></trkpt><trkpt lat="45.475515" lon="11.490655"><ele>281.0</ele><time>2026-03-22T12:06:54.048Z</time></trkpt><trkpt lat="45.47561" lon="11.4905267"><ele>280.25</ele><time>2026-03-22T12:06:55.048Z</time></trkpt><trkpt lat="45.475685" lon="11.4903933"><ele>279.5</ele><time>2026-03-22T12:06:56.047Z</time></trkpt><trkpt lat="45.4757583" lon="11.49028"><ele>278.75</ele><time>2026-03-22T12:06:57.048Z</time></trkpt><trkpt lat="45.4758433" lon="11.4901817"><ele>278.0</ele><time>2026-03-22T12:06:58.048Z</time></trkpt><trkpt lat="45.475945" lon="11.49011"><ele>278.0</ele><time>2026-03-22T12:06:59.048Z</time></trkpt><trkpt lat="45.476055" lon="11.4900583"><ele>278.0</ele><time>2026-03-22T12:07:00.047Z</time></trkpt><trkpt lat="45.4761683" lon="11.49001"><ele>278.0</ele><time>2026-03-22T12:07:01.048Z</time></trkpt><trkpt lat="45.476275" lon="11.489945"><ele>278.0</ele><time>2026-03-22T12:07:02.048Z</time></trkpt><trkpt lat="45.4763817" lon="11.4898583"><ele>277.5</ele><time>2026-03-22T12:07:03.048Z</time></trkpt><trkpt lat="45.4764883" lon="11.4897633"><ele>277.0</ele><time>2026-03-22T12:07:04.048Z</time></trkpt><trkpt lat="45.4766083" lon="11.4896633"><ele>276.5</ele><time>2026-03-22T12:07:05.048Z</time></trkpt><trkpt lat="45.4767283" lon="11.489565"><ele>276.0</ele><time>2026-03-22T12:07:06.048Z</time></trkpt><trkpt lat="45.4768533" lon="11.48946"><ele>272.75</ele><time>2026-03-22T12:07:07.048Z</time></trkpt><trkpt lat="45.4769733" lon="11.489355"><ele>269.5</ele><time>2026-03-22T12:07:08.047Z</time></trkpt><trkpt lat="45.477075" lon="11.48925"><ele>266.25</ele><time>2026-03-22T12:07:09.048Z</time></trkpt><trkpt lat="45.4771733" lon="11.48915"><ele>263.0</ele><time>2026-03-22T12:07:10.048Z</time></trkpt><trkpt lat="45.4772617" lon="11.48906"><ele>261.8</ele><time>2026-03-22T12:07:11.048Z</time></trkpt><trkpt lat="45.4773417" lon="11.488975"><ele>260.6</ele><time>2026-03-22T12:07:12.048Z</time></trkpt><trkpt lat="45.4774117" lon="11.488895"><ele>259.4</ele><time>2026-03-22T12:07:13.048Z</time></trkpt><trkpt lat="45.4774833" lon="11.4888217"><ele>258.2</ele><time>2026-03-22T12:07:14.048Z</time></trkpt><trkpt lat="45.4775583" lon="11.4887567"><ele>257.0</ele><time>2026-03-22T12:07:15.047Z</time></trkpt><trkpt lat="45.4776333" lon="11.4886917"><ele>256.33333333333337</ele><time>2026-03-22T12:07:16.048Z</time></trkpt><trkpt lat="45.4776983" lon="11.488625"><ele>255.66666666666669</ele><time>2026-03-22T12:07:17.048Z</time></trkpt><trkpt lat="45.477755" lon="11.4885467"><ele>255.0</ele><time>2026-03-22T12:07:18.048Z</time></trkpt><trkpt lat="45.4778" lon="11.4884617"><ele>254.33333333333331</ele><time>2026-03-22T12:07:19.048Z</time></trkpt><trkpt lat="45.4778317" lon="11.488375"><ele>253.66666666666666</ele><time>2026-03-22T12:07:20.048Z</time></trkpt><trkpt lat="45.4778517" lon="11.4882833"><ele>253.0</ele><time>2026-03-22T12:07:21.048Z</time></trkpt><trkpt lat="45.477875" lon="11.488135"><ele>253.00000000000003</ele><time>2026-03-22T12:07:23.048Z</time></trkpt><trkpt lat="45.47787" lon="11.4880233"><ele>253.0</ele><time>2026-03-22T12:07:26.048Z</time></trkpt><trkpt lat="45.4778317" lon="11.4879233"><ele>253.00000000000003</ele><time>2026-03-22T12:07:29.048Z</time></trkpt><trkpt lat="45.47777" lon="11.4878617"><ele>253.00000000000003</ele><time>2026-03-22T12:07:46.048Z</time></trkpt><trkpt lat="45.47771" lon="11.4878267"><ele>253.0</ele><time>2026-03-22T12:07:50.048Z</time></trkpt><trkpt lat="45.47765" lon="11.4877683"><ele>253.00000000000003</ele><time>2026-03-22T12:07:56.047Z</time></trkpt><trkpt lat="45.4776017" lon="11.48771"><ele>253.00000000000003</ele><time>2026-03-22T12:08:18.048Z</time></trkpt><trkpt lat="45.4775433" lon="11.4876133"><ele>251.4</ele><time>2026-03-22T12:08:19.048Z</time></trkpt><trkpt lat="45.477605" lon="11.4874533"><ele>249.8</ele><time>2026-03-22T12:10:00.048Z</time></trkpt><trkpt lat="45.4777017" lon="11.48748"><ele>248.2</ele><time>2026-03-22T12:10:08.048Z</time></trkpt><trkpt lat="45.477775" lon="11.4875083"><ele>246.6</ele><time>2026-03-22T12:10:12.048Z</time></trkpt><trkpt lat="45.4778517" lon="11.4875033"><ele>245.0</ele><time>2026-03-22T12:10:16.048Z</time></trkpt><trkpt lat="45.477935" lon="11.487455"><ele>246.4</ele><time>2026-03-22T12:10:18.048Z</time></trkpt><trkpt lat="45.478015" lon="11.4874133"><ele>247.8</ele><time>2026-03-22T12:10:21.048Z</time></trkpt><trkpt lat="45.47808" lon="11.48732"><ele>249.2</ele><time>2026-03-22T12:10:24.048Z</time></trkpt><trkpt lat="45.4781317" lon="11.48723"><ele>250.6</ele><time>2026-03-22T12:10:26.048Z</time></trkpt><trkpt lat="45.4781883" lon="11.4871083"><ele>252.0</ele><time>2026-03-22T12:10:27.048Z</time></trkpt><trkpt lat="45.47822" lon="11.48699"><ele>252.0</ele><time>2026-03-22T12:10:29.048Z</time></trkpt><trkpt lat="45.47825" lon="11.4868367"><ele>252.0</ele><time>2026-03-22T12:10:31.047Z</time></trkpt><trkpt lat="45.4782783" lon="11.4867033"><ele>252.0</ele><time>2026-03-22T12:10:33.048Z</time></trkpt><trkpt lat="45.4783" lon="11.4866117"><ele>252.0</ele><time>2026-03-22T12:10:34.048Z</time></trkpt><trkpt lat="45.4783167" lon="11.4865117"><ele>252.0</ele><time>2026-03-22T12:10:35.048Z</time></trkpt><trkpt lat="45.4783567" lon="11.4862533"><ele>251.42857142857144</ele><time>2026-03-22T12:10:36.048Z</time></trkpt><trkpt lat="45.4783767" lon="11.4861383"><ele>250.85714285714286</ele><time>2026-03-22T12:10:38.048Z</time></trkpt><trkpt lat="45.4784067" lon="11.486025"><ele>250.28571428571428</ele><time>2026-03-22T12:10:39.047Z</time></trkpt><trkpt lat="45.478415" lon="11.4859317"><ele>249.71428571428572</ele><time>2026-03-22T12:10:41.048Z</time></trkpt><trkpt lat="45.4784217" lon="11.48584"><ele>249.14285714285717</ele><time>2026-03-22T12:10:43.047Z</time></trkpt><trkpt lat="45.478435" lon="11.4857417"><ele>248.57142857142858</ele><time>2026-03-22T12:10:45.048Z</time></trkpt><trkpt lat="45.4784417" lon="11.485645"><ele>248.0</ele><time>2026-03-22T12:10:48.048Z</time></trkpt><trkpt lat="45.47846" lon="11.4855583"><ele>248.00000000000003</ele><time>2026-03-22T12:10:50.048Z</time></trkpt><trkpt lat="45.4784933" lon="11.4854367"><ele>248.0</ele><time>2026-03-22T12:10:53.048Z</time></trkpt><trkpt lat="45.47851" lon="11.4853467"><ele>248.0</ele><time>2026-03-22T12:10:55.048Z</time></trkpt><trkpt lat="45.4785433" lon="11.4852617"><ele>248.0</ele><time>2026-03-22T12:10:57.048Z</time></trkpt><trkpt lat="45.47857" lon="11.4851667"><ele>248.00000000000003</ele><time>2026-03-22T12:10:59.048Z</time></trkpt><trkpt lat="45.4785883" lon="11.485055"><ele>248.0</ele><time>2026-03-22T12:11:01.048Z</time></trkpt><trkpt lat="45.4786617" lon="11.4849317"><ele>247.60000000000002</ele><time>2026-03-22T12:11:03.048Z</time></trkpt><trkpt lat="45.4787133" lon="11.4848567"><ele>247.20000000000002</ele><time>2026-03-22T12:11:05.048Z</time></trkpt><trkpt lat="45.4788583" lon="11.4847583"><ele>246.8</ele><time>2026-03-22T12:11:07.048Z</time></trkpt><trkpt lat="45.478925" lon="11.48473"><ele>246.4</ele><time>2026-03-22T12:11:09.048Z</time></trkpt><trkpt lat="45.478985" lon="11.4846683"><ele>246.0</ele><time>2026-03-22T12:11:11.048Z</time></trkpt><trkpt lat="45.4790533" lon="11.48458"><ele>245.16666666666666</ele><time>2026-03-22T12:11:13.048Z</time></trkpt><trkpt lat="45.4791117" lon="11.4845383"><ele>244.33333333333331</ele><time>2026-03-22T12:11:14.048Z</time></trkpt><trkpt lat="45.4791733" lon="11.484495"><ele>243.5</ele><time>2026-03-22T12:11:15.048Z</time></trkpt><trkpt lat="45.4792417" lon="11.4844633"><ele>242.66666666666666</ele><time>2026-03-22T12:11:16.047Z</time></trkpt><trkpt lat="45.4793133" lon="11.48445"><ele>241.83333333333331</ele><time>2026-03-22T12:11:17.048Z</time></trkpt><trkpt lat="45.4794317" lon="11.4844167"><ele>241.0</ele><time>2026-03-22T12:11:19.048Z</time></trkpt><trkpt lat="45.4795467" lon="11.4843817"><ele>238.5</ele><time>2026-03-22T12:11:21.048Z</time></trkpt><trkpt lat="45.4796717" lon="11.4843083"><ele>236.0</ele><time>2026-03-22T12:11:23.048Z</time></trkpt><trkpt lat="45.4797933" lon="11.484355"><ele>233.5</ele><time>2026-03-22T12:11:24.048Z</time></trkpt><trkpt lat="45.4799017" lon="11.4844083"><ele>231.0</ele><time>2026-03-22T12:11:25.048Z</time></trkpt><trkpt lat="45.479985" lon="11.4844517"><ele>231.0</ele><time>2026-03-22T12:11:26.048Z</time></trkpt><trkpt lat="45.4800733" lon="11.4844967"><ele>231.0</ele><time>2026-03-22T12:11:27.048Z</time></trkpt><trkpt lat="45.480215" lon="11.4845217"><ele>231.0</ele><time>2026-03-22T12:11:28.047Z</time></trkpt><trkpt lat="45.4803367" lon="11.4845467"><ele>231.0</ele><time>2026-03-22T12:11:29.048Z</time></trkpt><trkpt lat="45.4804367" lon="11.484595"><ele>231.0</ele><time>2026-03-22T12:11:30.048Z</time></trkpt><trkpt lat="45.48055" lon="11.4846417"><ele>231.0</ele><time>2026-03-22T12:11:31.047Z</time></trkpt><trkpt lat="45.4806817" lon="11.4846867"><ele>231.0</ele><time>2026-03-22T12:11:32.048Z</time></trkpt><trkpt lat="45.4807817" lon="11.484735"><ele>231.0</ele><time>2026-03-22T12:11:33.048Z</time></trkpt><trkpt lat="45.4808833" lon="11.4848017"><ele>231.0</ele><time>2026-03-22T12:11:34.048Z</time></trkpt><trkpt lat="45.4810017" lon="11.484875"><ele>231.0</ele><time>2026-03-22T12:11:35.048Z</time></trkpt><trkpt lat="45.4811" lon="11.4849433"><ele>231.0</ele><time>2026-03-22T12:11:36.048Z</time></trkpt><trkpt lat="45.4811883" lon="11.4850067"><ele>231.0</ele><time>2026-03-22T12:11:37.048Z</time></trkpt><trkpt lat="45.4813133" lon="11.4851217"><ele>228.25</ele><time>2026-03-22T12:11:38.048Z</time></trkpt><trkpt lat="45.4813917" lon="11.4852083"><ele>225.5</ele><time>2026-03-22T12:11:39.048Z</time></trkpt><trkpt lat="45.4815033" lon="11.4853183"><ele>222.75</ele><time>2026-03-22T12:11:40.048Z</time></trkpt><trkpt lat="45.4816233" lon="11.485385"><ele>220.0</ele><time>2026-03-22T12:11:41.048Z</time></trkpt><trkpt lat="45.4817267" lon="11.4854433"><ele>216.25</ele><time>2026-03-22T12:11:42.048Z</time></trkpt><trkpt lat="45.48183" lon="11.4854717"><ele>212.5</ele><time>2026-03-22T12:11:43.047Z</time></trkpt><trkpt lat="45.48194" lon="11.4855017"><ele>208.75</ele><time>2026-03-22T12:11:44.047Z</time></trkpt><trkpt lat="45.4820767" lon="11.4855067"><ele>205.0</ele><time>2026-03-22T12:11:45.048Z</time></trkpt><trkpt lat="45.4821917" lon="11.4855367"><ele>200.16666666666666</ele><time>2026-03-22T12:11:46.047Z</time></trkpt><trkpt lat="45.4823" lon="11.48557"><ele>195.33333333333331</ele><time>2026-03-22T12:11:47.048Z</time></trkpt><trkpt lat="45.4824067" lon="11.4855867"><ele>190.5</ele><time>2026-03-22T12:11:48.048Z</time></trkpt><trkpt lat="45.4824917" lon="11.4856017"><ele>185.66666666666666</ele><time>2026-03-22T12:11:49.048Z</time></trkpt><trkpt lat="45.4825683" lon="11.4856"><ele>180.83333333333331</ele><time>2026-03-22T12:11:50.048Z</time></trkpt><trkpt lat="45.4826367" lon="11.48559"><ele>176.0</ele><time>2026-03-22T12:11:51.047Z</time></trkpt><trkpt lat="45.4827183" lon="11.48557"><ele>176.0</ele><time>2026-03-22T12:11:52.048Z</time></trkpt><trkpt lat="45.4827917" lon="11.48554"><ele>176.0</ele><time>2026-03-22T12:11:53.048Z</time></trkpt><trkpt lat="45.4828683" lon="11.48549"><ele>176.0</ele><time>2026-03-22T12:11:54.048Z</time></trkpt><trkpt lat="45.4829367" lon="11.48541"><ele>176.0</ele><time>2026-03-22T12:11:55.048Z</time></trkpt><trkpt lat="45.483015" lon="11.4852967"><ele>176.0</ele><time>2026-03-22T12:11:56.048Z</time></trkpt><trkpt lat="45.48309" lon="11.4851533"><ele>176.20000000000002</ele><time>2026-03-22T12:11:57.048Z</time></trkpt><trkpt lat="45.483165" lon="11.4850133"><ele>176.4</ele><time>2026-03-22T12:11:58.048Z</time></trkpt><trkpt lat="45.48323" lon="11.4848767"><ele>176.6</ele><time>2026-03-22T12:11:59.048Z</time></trkpt><trkpt lat="45.48327" lon="11.4847433"><ele>176.8</ele><time>2026-03-22T12:12:00.048Z</time></trkpt><trkpt lat="45.4833033" lon="11.4846367"><ele>177.0</ele><time>2026-03-22T12:12:01.048Z</time></trkpt><trkpt lat="45.4833667" lon="11.48449"><ele>177.39999999999998</ele><time>2026-03-22T12:12:03.048Z</time></trkpt><trkpt lat="45.4833967" lon="11.4843533"><ele>177.79999999999998</ele><time>2026-03-22T12:12:04.048Z</time></trkpt><trkpt lat="45.4834183" lon="11.4842217"><ele>178.2</ele><time>2026-03-22T12:12:05.047Z</time></trkpt><trkpt lat="45.4834283" lon="11.48405"><ele>178.6</ele><time>2026-03-22T12:12:06.048Z</time></trkpt><trkpt lat="45.48344" lon="11.4838933"><ele>179.0</ele><time>2026-03-22T12:12:07.048Z</time></trkpt><trkpt lat="45.4834633" lon="11.4837433"><ele>179.0</ele><time>2026-03-22T12:12:08.048Z</time></trkpt><trkpt lat="45.483495" lon="11.48356"><ele>179.0</ele><time>2026-03-22T12:12:09.048Z</time></trkpt><trkpt lat="45.4835317" lon="11.483395"><ele>179.0</ele><time>2026-03-22T12:12:10.048Z</time></trkpt><trkpt lat="45.4835783" lon="11.483245"><ele>179.0</ele><time>2026-03-22T12:12:11.046Z</time></trkpt><trkpt lat="45.4836333" lon="11.4830867"><ele>179.5</ele><time>2026-03-22T12:12:12.047Z</time></trkpt><trkpt lat="45.4836983" lon="11.4829217"><ele>180.0</ele><time>2026-03-22T12:12:13.047Z</time></trkpt><trkpt lat="45.483775" lon="11.4827467"><ele>180.5</ele><time>2026-03-22T12:12:14.047Z</time></trkpt><trkpt lat="45.4838417" lon="11.4825517"><ele>181.0</ele><time>2026-03-22T12:12:15.047Z</time></trkpt><trkpt lat="45.4839117" lon="11.4823867"><ele>178.0</ele><time>2026-03-22T12:12:16.047Z</time></trkpt><trkpt lat="45.4839817" lon="11.482255"><ele>175.0</ele><time>2026-03-22T12:12:17.046Z</time></trkpt><trkpt lat="45.484045" lon="11.4821317"><ele>172.0</ele><time>2026-03-22T12:12:18.047Z</time></trkpt><trkpt lat="45.4841" lon="11.4820117"><ele>169.0</ele><time>2026-03-22T12:12:19.047Z</time></trkpt><trkpt lat="45.4841483" lon="11.4818833"><ele>166.0</ele><time>2026-03-22T12:12:20.047Z</time></trkpt><trkpt lat="45.4842017" lon="11.4817817"><ele>166.0</ele><time>2026-03-22T12:12:21.047Z</time></trkpt><trkpt lat="45.4842617" lon="11.481705"><ele>166.0</ele><time>2026-03-22T12:12:22.046Z</time></trkpt><trkpt lat="45.484325" lon="11.4816367"><ele>166.0</ele><time>2026-03-22T12:12:23.047Z</time></trkpt><trkpt lat="45.4843867" lon="11.4815733"><ele>166.0</ele><time>2026-03-22T12:12:24.047Z</time></trkpt><trkpt lat="45.4844467" lon="11.4815133"><ele>166.0</ele><time>2026-03-22T12:12:25.047Z</time></trkpt><trkpt lat="45.484515" lon="11.4814633"><ele>166.0</ele><time>2026-03-22T12:12:26.047Z</time></trkpt><trkpt lat="45.4846017" lon="11.4814167"><ele>166.5</ele><time>2026-03-22T12:12:27.047Z</time></trkpt><trkpt lat="45.4846967" lon="11.4813733"><ele>167.0</ele><time>2026-03-22T12:12:28.046Z</time></trkpt><trkpt lat="45.48478" lon="11.481335"><ele>167.5</ele><time>2026-03-22T12:12:29.047Z</time></trkpt><trkpt lat="45.4848683" lon="11.4812917"><ele>168.0</ele><time>2026-03-22T12:12:30.047Z</time></trkpt><trkpt lat="45.4849517" lon="11.4812517"><ele>168.5</ele><time>2026-03-22T12:12:31.047Z</time></trkpt><trkpt lat="45.4850267" lon="11.48122"><ele>169.0</ele><time>2026-03-22T12:12:32.047Z</time></trkpt><trkpt lat="45.48509" lon="11.4811933"><ele>169.0</ele><time>2026-03-22T12:12:33.046Z</time></trkpt><trkpt lat="45.485185" lon="11.4811483"><ele>169.0</ele><time>2026-03-22T12:12:35.047Z</time></trkpt><trkpt lat="45.4852417" lon="11.481105"><ele>169.0</ele><time>2026-03-22T12:12:38.046Z</time></trkpt><trkpt lat="45.4852717" lon="11.481015"><ele>169.0</ele><time>2026-03-22T12:13:27.047Z</time></trkpt><trkpt lat="45.4853833" lon="11.48118"><ele>169.0</ele><time>2026-03-22T12:13:37.047Z</time></trkpt><trkpt lat="45.4853083" lon="11.4811983"><ele>169.0</ele><time>2026-03-22T12:13:40.047Z</time></trkpt><trkpt lat="45.485215" lon="11.481185"><ele>169.0</ele><time>2026-03-22T12:13:42.047Z</time></trkpt><trkpt lat="45.4851" lon="11.4812317"><ele>169.0</ele><time>2026-03-22T12:13:43.047Z</time></trkpt><trkpt lat="45.4849833" lon="11.4812617"><ele>169.0</ele><time>2026-03-22T12:13:44.047Z</time></trkpt><trkpt lat="45.4848633" lon="11.481305"><ele>168.39999999999998</ele><time>2026-03-22T12:13:45.047Z</time></trkpt><trkpt lat="45.4847483" lon="11.4813833"><ele>167.8</ele><time>2026-03-22T12:13:46.047Z</time></trkpt><trkpt lat="45.484665" lon="11.4814333"><ele>167.2</ele><time>2026-03-22T12:13:47.047Z</time></trkpt><trkpt lat="45.48457" lon="11.48148"><ele>166.60000000000002</ele><time>2026-03-22T12:13:48.047Z</time></trkpt><trkpt lat="45.484495" lon="11.481515"><ele>166.0</ele><time>2026-03-22T12:13:49.047Z</time></trkpt><trkpt lat="45.484425" lon="11.481535"><ele>166.0</ele><time>2026-03-22T12:13:50.047Z</time></trkpt><trkpt lat="45.48435" lon="11.48153"><ele>166.0</ele><time>2026-03-22T12:13:51.047Z</time></trkpt><trkpt lat="45.4842883" lon="11.4814883"><ele>166.0</ele><time>2026-03-22T12:13:52.046Z</time></trkpt><trkpt lat="45.4842017" lon="11.4814183"><ele>166.0</ele><time>2026-03-22T12:13:54.047Z</time></trkpt><trkpt lat="45.4841683" lon="11.481335"><ele>166.0</ele><time>2026-03-22T12:13:57.047Z</time></trkpt><trkpt lat="45.4841083" lon="11.481215"><ele>166.0</ele><time>2026-03-22T12:14:00.047Z</time></trkpt><trkpt lat="45.4840617" lon="11.4811467"><ele>167.4</ele><time>2026-03-22T12:14:02.047Z</time></trkpt><trkpt lat="45.4839933" lon="11.4810017"><ele>168.8</ele><time>2026-03-22T12:14:04.046Z</time></trkpt><trkpt lat="45.4839633" lon="11.4809217"><ele>170.20000000000002</ele><time>2026-03-22T12:14:05.047Z</time></trkpt><trkpt lat="45.483915" lon="11.48079"><ele>171.60000000000002</ele><time>2026-03-22T12:14:06.047Z</time></trkpt><trkpt lat="45.4838967" lon="11.4806317"><ele>173.0</ele><time>2026-03-22T12:14:08.047Z</time></trkpt><trkpt lat="45.4839217" lon="11.48049"><ele>177.0</ele><time>2026-03-22T12:14:10.047Z</time></trkpt><trkpt lat="45.4839533" lon="11.4803817"><ele>181.0</ele><time>2026-03-22T12:14:12.047Z</time></trkpt><trkpt lat="45.4839967" lon="11.48028"><ele>185.0</ele><time>2026-03-22T12:14:15.047Z</time></trkpt><trkpt lat="45.4840167" lon="11.4801183"><ele>189.0</ele><time>2026-03-22T12:14:17.047Z</time></trkpt><trkpt lat="45.4840417" lon="11.4799583"><ele>193.0</ele><time>2026-03-22T12:14:19.047Z</time></trkpt><trkpt lat="45.4840567" lon="11.4798583"><ele>193.0</ele><time>2026-03-22T12:14:21.047Z</time></trkpt><trkpt lat="45.4840633" lon="11.4797217"><ele>193.0</ele><time>2026-03-22T12:14:23.047Z</time></trkpt><trkpt lat="45.4840583" lon="11.479585"><ele>193.0</ele><time>2026-03-22T12:14:25.046Z</time></trkpt><trkpt lat="45.4840633" lon="11.4794183"><ele>193.0</ele><time>2026-03-22T12:14:27.047Z</time></trkpt><trkpt lat="45.48416" lon="11.4792383"><ele>196.5</ele><time>2026-03-22T12:14:29.046Z</time></trkpt><trkpt lat="45.484275" lon="11.47918"><ele>200.0</ele><time>2026-03-22T12:14:30.047Z</time></trkpt><trkpt lat="45.4843633" lon="11.4791217"><ele>203.5</ele><time>2026-03-22T12:14:31.047Z</time></trkpt><trkpt lat="45.484435" lon="11.4790833"><ele>207.0</ele><time>2026-03-22T12:14:32.047Z</time></trkpt><trkpt lat="45.4845967" lon="11.4790533"><ele>207.0</ele><time>2026-03-22T12:14:33.047Z</time></trkpt><trkpt lat="45.4846667" lon="11.4790417"><ele>207.0</ele><time>2026-03-22T12:14:34.047Z</time></trkpt><trkpt lat="45.4848783" lon="11.479165"><ele>207.0</ele><time>2026-03-22T12:14:35.047Z</time></trkpt><trkpt lat="45.4849933" lon="11.479245"><ele>207.0</ele><time>2026-03-22T12:14:36.047Z</time></trkpt><trkpt lat="45.4850583" lon="11.4793067"><ele>207.0</ele><time>2026-03-22T12:14:38.047Z</time></trkpt><trkpt lat="45.48511" lon="11.47925"><ele>207.0</ele><time>2026-03-22T12:14:40.047Z</time></trkpt><trkpt lat="45.4851367" lon="11.4791517"><ele>207.0</ele><time>2026-03-22T12:14:44.046Z</time></trkpt><trkpt lat="45.485175" lon="11.4790717"><ele>207.0</ele><time>2026-03-22T12:14:47.047Z</time></trkpt><trkpt lat="45.4852233" lon="11.4789833"><ele>207.0</ele><time>2026-03-22T12:14:51.047Z</time></trkpt><trkpt lat="45.4852617" lon="11.4788717"><ele>207.0</ele><time>2026-03-22T12:14:54.047Z</time></trkpt><trkpt lat="45.4853517" lon="11.4788267"><ele>211.5</ele><time>2026-03-22T12:14:57.047Z</time></trkpt><trkpt lat="45.4853967" lon="11.4787283"><ele>216.0</ele><time>2026-03-22T12:15:04.047Z</time></trkpt><trkpt lat="45.485485" lon="11.4787167"><ele>220.5</ele><time>2026-03-22T12:15:06.047Z</time></trkpt><trkpt lat="45.4855683" lon="11.47871"><ele>225.0</ele><time>2026-03-22T12:15:08.047Z</time></trkpt><trkpt lat="45.48566" lon="11.478705"><ele>229.5</ele><time>2026-03-22T12:15:11.047Z</time></trkpt><trkpt lat="45.4857367" lon="11.4786717"><ele>234.0</ele><time>2026-03-22T12:15:14.046Z</time></trkpt><trkpt lat="45.485805" lon="11.47863"><ele>234.0</ele><time>2026-03-22T12:15:16.047Z</time></trkpt><trkpt lat="45.48587" lon="11.478685"><ele>234.0</ele><time>2026-03-22T12:15:18.047Z</time></trkpt><trkpt lat="45.4860067" lon="11.4787167"><ele>234.0</ele><time>2026-03-22T12:15:20.047Z</time></trkpt><trkpt lat="45.4860783" lon="11.4787483"><ele>234.0</ele><time>2026-03-22T12:15:21.046Z</time></trkpt><trkpt lat="45.4861533" lon="11.47879"><ele>234.0</ele><time>2026-03-22T12:15:22.047Z</time></trkpt><trkpt lat="45.4862183" lon="11.478795"><ele>234.0</ele><time>2026-03-22T12:15:23.047Z</time></trkpt><trkpt lat="45.4863133" lon="11.4788183"><ele>231.75</ele><time>2026-03-22T12:15:24.047Z</time></trkpt><trkpt lat="45.486395" lon="11.4788333"><ele>229.5</ele><time>2026-03-22T12:15:25.047Z</time></trkpt><trkpt lat="45.486505" lon="11.47886"><ele>227.25</ele><time>2026-03-22T12:15:26.047Z</time></trkpt><trkpt lat="45.4866733" lon="11.4788983"><ele>225.0</ele><time>2026-03-22T12:15:28.046Z</time></trkpt><trkpt lat="45.4868533" lon="11.4788567"><ele>225.0</ele><time>2026-03-22T12:15:30.047Z</time></trkpt><trkpt lat="45.4869317" lon="11.4788433"><ele>225.0</ele><time>2026-03-22T12:15:32.047Z</time></trkpt><trkpt lat="45.48701" lon="11.4788267"><ele>225.0</ele><time>2026-03-22T12:15:34.047Z</time></trkpt><trkpt lat="45.4870917" lon="11.4788017"><ele>225.0</ele><time>2026-03-22T12:15:36.047Z</time></trkpt><trkpt lat="45.4871683" lon="11.478775"><ele>225.0</ele><time>2026-03-22T12:15:38.047Z</time></trkpt><trkpt lat="45.487255" lon="11.4787417"><ele>225.0</ele><time>2026-03-22T12:15:41.047Z</time></trkpt><trkpt lat="45.4873233" lon="11.4787333"><ele>228.2</ele><time>2026-03-22T12:15:43.047Z</time></trkpt><trkpt lat="45.487405" lon="11.4787367"><ele>231.4</ele><time>2026-03-22T12:15:46.046Z</time></trkpt><trkpt lat="45.487495" lon="11.4787183"><ele>234.60000000000002</ele><time>2026-03-22T12:15:48.047Z</time></trkpt><trkpt lat="45.4876067" lon="11.4787083"><ele>237.8</ele><time>2026-03-22T12:15:50.047Z</time></trkpt><trkpt lat="45.487695" lon="11.4787033"><ele>241.0</ele><time>2026-03-22T12:15:52.047Z</time></trkpt><trkpt lat="45.4877717" lon="11.4787017"><ele>241.0</ele><time>2026-03-22T12:15:54.047Z</time></trkpt><trkpt lat="45.487845" lon="11.47869"><ele>241.00000000000003</ele><time>2026-03-22T12:15:57.047Z</time></trkpt><trkpt lat="45.4879133" lon="11.4786267"><ele>241.0</ele><time>2026-03-22T12:16:01.047Z</time></trkpt><trkpt lat="45.4879667" lon="11.4785533"><ele>241.0</ele><time>2026-03-22T12:16:04.046Z</time></trkpt><trkpt lat="45.4880183" lon="11.4784767"><ele>241.00000000000003</ele><time>2026-03-22T12:16:07.047Z</time></trkpt><trkpt lat="45.4880433" lon="11.4783733"><ele>241.0</ele><time>2026-03-22T12:16:10.047Z</time></trkpt><trkpt lat="45.4880633" lon="11.4782867"><ele>241.0</ele><time>2026-03-22T12:16:15.047Z</time></trkpt><trkpt lat="45.4880933" lon="11.47819"><ele>238.99999999999997</ele><time>2026-03-22T12:16:19.047Z</time></trkpt><trkpt lat="45.4881183" lon="11.4780883"><ele>237.0</ele><time>2026-03-22T12:16:21.047Z</time></trkpt><trkpt lat="45.4881517" lon="11.477995"><ele>235.0</ele><time>2026-03-22T12:16:23.046Z</time></trkpt><trkpt lat="45.4881917" lon="11.4778683"><ele>233.0</ele><time>2026-03-22T12:16:25.047Z</time></trkpt><trkpt lat="45.4882217" lon="11.4777483"><ele>230.99999999999997</ele><time>2026-03-22T12:16:27.047Z</time></trkpt><trkpt lat="45.4882117" lon="11.4776483"><ele>229.0</ele><time>2026-03-22T12:16:31.046Z</time></trkpt><trkpt lat="45.4882183" lon="11.4775583"><ele>228.99999999999997</ele><time>2026-03-22T12:16:39.047Z</time></trkpt><trkpt lat="45.4882683" lon="11.4774817"><ele>229.0</ele><time>2026-03-22T12:16:44.047Z</time></trkpt><trkpt lat="45.4883317" lon="11.47742"><ele>229.0</ele><time>2026-03-22T12:16:47.047Z</time></trkpt><trkpt lat="45.4884083" lon="11.47741"><ele>229.0</ele><time>2026-03-22T12:16:50.046Z</time></trkpt><trkpt lat="45.488465" lon="11.4773633"><ele>228.99999999999997</ele><time>2026-03-22T12:16:53.047Z</time></trkpt><trkpt lat="45.4884967" lon="11.4772667"><ele>229.0</ele><time>2026-03-22T12:16:55.047Z</time></trkpt><trkpt lat="45.48854" lon="11.47715"><ele>228.2</ele><time>2026-03-22T12:16:58.047Z</time></trkpt><trkpt lat="45.4885817" lon="11.4770233"><ele>227.39999999999998</ele><time>2026-03-22T12:17:01.047Z</time></trkpt><trkpt lat="45.4886533" lon="11.47694"><ele>226.6</ele><time>2026-03-22T12:17:03.047Z</time></trkpt><trkpt lat="45.4887117" lon="11.47684"><ele>225.8</ele><time>2026-03-22T12:17:04.047Z</time></trkpt><trkpt lat="45.488775" lon="11.476815"><ele>225.0</ele><time>2026-03-22T12:17:06.046Z</time></trkpt><trkpt lat="45.4889783" lon="11.4767417"><ele>225.0</ele><time>2026-03-22T12:17:07.047Z</time></trkpt><trkpt lat="45.4892733" lon="11.4767017"><ele>225.0</ele><time>2026-03-22T12:17:08.047Z</time></trkpt><trkpt lat="45.489365" lon="11.4768117"><ele>225.0</ele><time>2026-03-22T12:17:10.047Z</time></trkpt><trkpt lat="45.4894183" lon="11.47687"><ele>225.0</ele><time>2026-03-22T12:17:11.047Z</time></trkpt><trkpt lat="45.4894733" lon="11.476915"><ele>225.0</ele><time>2026-03-22T12:17:12.047Z</time></trkpt><trkpt lat="45.4895317" lon="11.4769683"><ele>225.0</ele><time>2026-03-22T12:17:13.046Z</time></trkpt><trkpt lat="45.4896033" lon="11.4770317"><ele>225.0</ele><time>2026-03-22T12:17:14.047Z</time></trkpt><trkpt lat="45.48968" lon="11.4771017"><ele>225.0</ele><time>2026-03-22T12:17:15.047Z</time></trkpt><trkpt lat="45.4897567" lon="11.4771617"><ele>225.0</ele><time>2026-03-22T12:17:16.047Z</time></trkpt><trkpt lat="45.4898367" lon="11.4771883"><ele>224.66666666666666</ele><time>2026-03-22T12:17:18.047Z</time></trkpt><trkpt lat="45.4899367" lon="11.4772017"><ele>224.33333333333331</ele><time>2026-03-22T12:17:20.047Z</time></trkpt><trkpt lat="45.49001" lon="11.4772233"><ele>224.0</ele><time>2026-03-22T12:17:21.047Z</time></trkpt><trkpt lat="45.490075" lon="11.47721"><ele>223.66666666666666</ele><time>2026-03-22T12:17:23.046Z</time></trkpt><trkpt lat="45.4901517" lon="11.4771867"><ele>223.33333333333331</ele><time>2026-03-22T12:17:25.047Z</time></trkpt><trkpt lat="45.4902233" lon="11.4771167"><ele>223.0</ele><time>2026-03-22T12:17:27.047Z</time></trkpt><trkpt lat="45.490305" lon="11.4770167"><ele>223.0</ele><time>2026-03-22T12:17:29.046Z</time></trkpt><trkpt lat="45.4903567" lon="11.4769517"><ele>223.0</ele><time>2026-03-22T12:17:30.046Z</time></trkpt><trkpt lat="45.4904183" lon="11.476905"><ele>223.0</ele><time>2026-03-22T12:17:31.047Z</time></trkpt><trkpt lat="45.4904967" lon="11.47683"><ele>223.0</ele><time>2026-03-22T12:17:32.047Z</time></trkpt><trkpt lat="45.4905933" lon="11.4767417"><ele>223.0</ele><time>2026-03-22T12:17:33.047Z</time></trkpt><trkpt lat="45.4906967" lon="11.4766683"><ele>219.5</ele><time>2026-03-22T12:17:34.047Z</time></trkpt><trkpt lat="45.4908117" lon="11.4765933"><ele>216.0</ele><time>2026-03-22T12:17:35.047Z</time></trkpt><trkpt lat="45.4909183" lon="11.4765233"><ele>212.5</ele><time>2026-03-22T12:17:36.047Z</time></trkpt><trkpt lat="45.49103" lon="11.476465"><ele>209.0</ele><time>2026-03-22T12:17:37.047Z</time></trkpt><trkpt lat="45.4911133" lon="11.47643"><ele>209.0</ele><time>2026-03-22T12:17:38.047Z</time></trkpt><trkpt lat="45.4912567" lon="11.4762417"><ele>209.0</ele><time>2026-03-22T12:17:39.047Z</time></trkpt><trkpt lat="45.4913967" lon="11.4761367"><ele>209.0</ele><time>2026-03-22T12:17:40.046Z</time></trkpt><trkpt lat="45.4915417" lon="11.4760267"><ele>208.6</ele><time>2026-03-22T12:17:41.047Z</time></trkpt><trkpt lat="45.4916267" lon="11.4759617"><ele>208.2</ele><time>2026-03-22T12:17:42.047Z</time></trkpt><trkpt lat="45.4916233" lon="11.476055"><ele>207.79999999999998</ele><time>2026-03-22T12:17:46.047Z</time></trkpt><trkpt lat="45.4916717" lon="11.476175"><ele>207.39999999999998</ele><time>2026-03-22T12:17:47.047Z</time></trkpt><trkpt lat="45.4917183" lon="11.4763083"><ele>207.0</ele><time>2026-03-22T12:17:48.047Z</time></trkpt><trkpt lat="45.4917783" lon="11.4764633"><ele>206.2</ele><time>2026-03-22T12:17:49.047Z</time></trkpt><trkpt lat="45.4918367" lon="11.4765817"><ele>205.39999999999998</ele><time>2026-03-22T12:17:50.047Z</time></trkpt><trkpt lat="45.4918983" lon="11.4766867"><ele>204.60000000000002</ele><time>2026-03-22T12:17:51.047Z</time></trkpt><trkpt lat="45.4919633" lon="11.4767833"><ele>203.8</ele><time>2026-03-22T12:17:52.047Z</time></trkpt><trkpt lat="45.4920233" lon="11.4769017"><ele>203.0</ele><time>2026-03-22T12:17:53.047Z</time></trkpt><trkpt lat="45.4920983" lon="11.4770267"><ele>203.75</ele><time>2026-03-22T12:17:54.047Z</time></trkpt><trkpt lat="45.4921817" lon="11.4771467"><ele>204.5</ele><time>2026-03-22T12:17:55.046Z</time></trkpt><trkpt lat="45.4923083" lon="11.4772817"><ele>205.25</ele><time>2026-03-22T12:17:56.047Z</time></trkpt><trkpt lat="45.49239" lon="11.4773933"><ele>206.0</ele><time>2026-03-22T12:17:57.046Z</time></trkpt><trkpt lat="45.4924883" lon="11.4775383"><ele>206.0</ele><time>2026-03-22T12:17:58.047Z</time></trkpt><trkpt lat="45.4925617" lon="11.4776483"><ele>206.0</ele><time>2026-03-22T12:17:59.047Z</time></trkpt><trkpt lat="45.4926167" lon="11.4777517"><ele>206.0</ele><time>2026-03-22T12:18:00.047Z</time></trkpt><trkpt lat="45.4926683" lon="11.4778767"><ele>206.0</ele><time>2026-03-22T12:18:02.046Z</time></trkpt><trkpt lat="45.49272" lon="11.478055"><ele>206.0</ele><time>2026-03-22T12:18:04.047Z</time></trkpt><trkpt lat="45.4927483" lon="11.4781633"><ele>206.0</ele><time>2026-03-22T12:18:05.047Z</time></trkpt><trkpt lat="45.4927867" lon="11.4783033"><ele>206.0</ele><time>2026-03-22T12:18:06.047Z</time></trkpt><trkpt lat="45.4928217" lon="11.4784433"><ele>206.0</ele><time>2026-03-22T12:18:07.047Z</time></trkpt><trkpt lat="45.4928517" lon="11.47856"><ele>206.0</ele><time>2026-03-22T12:18:08.047Z</time></trkpt><trkpt lat="45.4928833" lon="11.4786383"><ele>206.0</ele><time>2026-03-22T12:18:09.047Z</time></trkpt><trkpt lat="45.492955" lon="11.47872"><ele>205.0</ele><time>2026-03-22T12:18:11.047Z</time></trkpt><trkpt lat="45.4930483" lon="11.47888"><ele>204.0</ele><time>2026-03-22T12:18:13.047Z</time></trkpt><trkpt lat="45.4931" lon="11.4789483"><ele>203.0</ele><time>2026-03-22T12:18:14.047Z</time></trkpt><trkpt lat="45.4931483" lon="11.4790417"><ele>202.0</ele><time>2026-03-22T12:18:15.047Z</time></trkpt><trkpt lat="45.4932167" lon="11.47915"><ele>201.0</ele><time>2026-03-22T12:18:16.047Z</time></trkpt><trkpt lat="45.4932717" lon="11.4792167"><ele>201.0</ele><time>2026-03-22T12:18:17.047Z</time></trkpt><trkpt lat="45.49333" lon="11.4792683"><ele>201.0</ele><time>2026-03-22T12:18:18.046Z</time></trkpt><trkpt lat="45.493405" lon="11.4793133"><ele>201.0</ele><time>2026-03-22T12:18:19.047Z</time></trkpt><trkpt lat="45.493485" lon="11.4793633"><ele>201.0</ele><time>2026-03-22T12:18:20.047Z</time></trkpt><trkpt lat="45.4935767" lon="11.479415"><ele>201.0</ele><time>2026-03-22T12:18:21.047Z</time></trkpt><trkpt lat="45.4936567" lon="11.4794433"><ele>201.0</ele><time>2026-03-22T12:18:22.047Z</time></trkpt><trkpt lat="45.4937517" lon="11.4794767"><ele>199.75</ele><time>2026-03-22T12:18:23.047Z</time></trkpt><trkpt lat="45.4938733" lon="11.4794917"><ele>198.5</ele><time>2026-03-22T12:18:24.047Z</time></trkpt><trkpt lat="45.4940083" lon="11.47947"><ele>197.25</ele><time>2026-03-22T12:18:25.047Z</time></trkpt><trkpt lat="45.49412" lon="11.4794617"><ele>196.0</ele><time>2026-03-22T12:18:26.047Z</time></trkpt><trkpt lat="45.4942683" lon="11.47941"><ele>196.0</ele><time>2026-03-22T12:18:27.047Z</time></trkpt><trkpt lat="45.494385" lon="11.4793567"><ele>196.0</ele><time>2026-03-22T12:18:28.047Z</time></trkpt><trkpt lat="45.4945" lon="11.4793167"><ele>196.0</ele><time>2026-03-22T12:18:29.047Z</time></trkpt><trkpt lat="45.4946133" lon="11.4792583"><ele>196.0</ele><time>2026-03-22T12:18:30.046Z</time></trkpt><trkpt lat="45.4947067" lon="11.4792"><ele>195.0</ele><time>2026-03-22T12:18:31.047Z</time></trkpt><trkpt lat="45.4947933" lon="11.4791283"><ele>194.0</ele><time>2026-03-22T12:18:32.047Z</time></trkpt><trkpt lat="45.4948833" lon="11.4790467"><ele>193.0</ele><time>2026-03-22T12:18:33.047Z</time></trkpt><trkpt lat="45.4949717" lon="11.4789767"><ele>192.0</ele><time>2026-03-22T12:18:34.047Z</time></trkpt><trkpt lat="45.495055" lon="11.4789183"><ele>191.0</ele><time>2026-03-22T12:18:35.047Z</time></trkpt><trkpt lat="45.4951317" lon="11.4788683"><ele>191.0</ele><time>2026-03-22T12:18:36.047Z</time></trkpt><trkpt lat="45.4952" lon="11.4788183"><ele>191.0</ele><time>2026-03-22T12:18:37.047Z</time></trkpt><trkpt lat="45.49527" lon="11.4787867"><ele>191.0</ele><time>2026-03-22T12:18:38.047Z</time></trkpt><trkpt lat="45.49534" lon="11.4787733"><ele>191.0</ele><time>2026-03-22T12:18:39.047Z</time></trkpt><trkpt lat="45.4954233" lon="11.4787767"><ele>191.0</ele><time>2026-03-22T12:18:40.047Z</time></trkpt><trkpt lat="45.4955117" lon="11.4787933"><ele>191.0</ele><time>2026-03-22T12:18:41.046Z</time></trkpt><trkpt lat="45.495605" lon="11.47881"><ele>189.4</ele><time>2026-03-22T12:18:42.047Z</time></trkpt><trkpt lat="45.495695" lon="11.47885"><ele>187.8</ele><time>2026-03-22T12:18:43.047Z</time></trkpt><trkpt lat="45.4957933" lon="11.4789083"><ele>186.20000000000002</ele><time>2026-03-22T12:18:44.047Z</time></trkpt><trkpt lat="45.4958917" lon="11.4789767"><ele>184.60000000000002</ele><time>2026-03-22T12:18:45.047Z</time></trkpt><trkpt lat="45.4960033" lon="11.4790467"><ele>183.0</ele><time>2026-03-22T12:18:46.047Z</time></trkpt><trkpt lat="45.4961183" lon="11.47912"><ele>183.0</ele><time>2026-03-22T12:18:47.047Z</time></trkpt><trkpt lat="45.4962317" lon="11.4791817"><ele>183.0</ele><time>2026-03-22T12:18:48.046Z</time></trkpt><trkpt lat="45.4963417" lon="11.4792567"><ele>183.0</ele><time>2026-03-22T12:18:49.047Z</time></trkpt><trkpt lat="45.49645" lon="11.4793333"><ele>183.0</ele><time>2026-03-22T12:18:50.047Z</time></trkpt><trkpt lat="45.496555" lon="11.4794067"><ele>182.66666666666666</ele><time>2026-03-22T12:18:51.047Z</time></trkpt><trkpt lat="45.4966467" lon="11.47947"><ele>182.33333333333334</ele><time>2026-03-22T12:18:52.047Z</time></trkpt><trkpt lat="45.4967117" lon="11.4795517"><ele>182.0</ele><time>2026-03-22T12:18:53.047Z</time></trkpt><trkpt lat="45.4967683" lon="11.4796367"><ele>181.66666666666669</ele><time>2026-03-22T12:18:54.047Z</time></trkpt><trkpt lat="45.49682" lon="11.4797033"><ele>181.33333333333334</ele><time>2026-03-22T12:18:55.047Z</time></trkpt><trkpt lat="45.49687" lon="11.4797767"><ele>181.0</ele><time>2026-03-22T12:18:56.047Z</time></trkpt><trkpt lat="45.4969083" lon="11.4798733"><ele>181.0</ele><time>2026-03-22T12:18:58.047Z</time></trkpt><trkpt lat="45.49696" lon="11.47998"><ele>181.0</ele><time>2026-03-22T12:19:00.047Z</time></trkpt><trkpt lat="45.4969683" lon="11.4800867"><ele>181.0</ele><time>2026-03-22T12:19:04.047Z</time></trkpt><trkpt lat="45.4969433" lon="11.4801967"><ele>181.0</ele><time>2026-03-22T12:19:06.047Z</time></trkpt><trkpt lat="45.496955" lon="11.4803517"><ele>181.0</ele><time>2026-03-22T12:19:08.047Z</time></trkpt><trkpt lat="45.4969617" lon="11.480445"><ele>181.0</ele><time>2026-03-22T12:19:09.047Z</time></trkpt><trkpt lat="45.4969617" lon="11.4805583"><ele>180.75</ele><time>2026-03-22T12:19:10.047Z</time></trkpt><trkpt lat="45.4969683" lon="11.4807483"><ele>180.5</ele><time>2026-03-22T12:19:11.047Z</time></trkpt><trkpt lat="45.49696" lon="11.48091"><ele>180.25</ele><time>2026-03-22T12:19:12.047Z</time></trkpt><trkpt lat="45.4969883" lon="11.4810683"><ele>180.0</ele><time>2026-03-22T12:19:13.047Z</time></trkpt><trkpt lat="45.4970117" lon="11.4812367"><ele>178.6</ele><time>2026-03-22T12:19:14.047Z</time></trkpt><trkpt lat="45.4970117" lon="11.481365"><ele>177.2</ele><time>2026-03-22T12:19:15.047Z</time></trkpt><trkpt lat="45.4970133" lon="11.481525"><ele>175.8</ele><time>2026-03-22T12:19:16.047Z</time></trkpt><trkpt lat="45.4970017" lon="11.4816833"><ele>174.4</ele><time>2026-03-22T12:19:17.046Z</time></trkpt><trkpt lat="45.49697" lon="11.481815"><ele>173.0</ele><time>2026-03-22T12:19:18.047Z</time></trkpt><trkpt lat="45.4969417" lon="11.4819417"><ele>173.0</ele><time>2026-03-22T12:19:19.047Z</time></trkpt><trkpt lat="45.4969117" lon="11.4820767"><ele>173.0</ele><time>2026-03-22T12:19:20.047Z</time></trkpt><trkpt lat="45.4968783" lon="11.4822483"><ele>173.0</ele><time>2026-03-22T12:19:21.047Z</time></trkpt><trkpt lat="45.4968767" lon="11.482485"><ele>173.0</ele><time>2026-03-22T12:19:22.047Z</time></trkpt><trkpt lat="45.4968433" lon="11.4826617"><ele>172.25</ele><time>2026-03-22T12:19:23.046Z</time></trkpt><trkpt lat="45.496805" lon="11.4828467"><ele>171.5</ele><time>2026-03-22T12:19:24.047Z</time></trkpt><trkpt lat="45.4967617" lon="11.4830183"><ele>170.75</ele><time>2026-03-22T12:19:25.046Z</time></trkpt><trkpt lat="45.4967117" lon="11.4831867"><ele>170.0</ele><time>2026-03-22T12:19:26.047Z</time></trkpt><trkpt lat="45.49666" lon="11.483345"><ele>169.25</ele><time>2026-03-22T12:19:27.046Z</time></trkpt><trkpt lat="45.4965967" lon="11.4835033"><ele>168.5</ele><time>2026-03-22T12:19:28.047Z</time></trkpt><trkpt lat="45.4965283" lon="11.48366"><ele>167.75</ele><time>2026-03-22T12:19:29.047Z</time></trkpt><trkpt lat="45.4964433" lon="11.4838017"><ele>167.0</ele><time>2026-03-22T12:19:30.047Z</time></trkpt><trkpt lat="45.4963583" lon="11.4839233"><ele>165.6</ele><time>2026-03-22T12:19:31.046Z</time></trkpt><trkpt lat="45.4962717" lon="11.4840417"><ele>164.2</ele><time>2026-03-22T12:19:32.047Z</time></trkpt><trkpt lat="45.496195" lon="11.4841517"><ele>162.8</ele><time>2026-03-22T12:19:33.047Z</time></trkpt><trkpt lat="45.4961183" lon="11.484265"><ele>161.4</ele><time>2026-03-22T12:19:34.047Z</time></trkpt><trkpt lat="45.4960417" lon="11.4843633"><ele>160.0</ele><time>2026-03-22T12:19:35.046Z</time></trkpt><trkpt lat="45.4959783" lon="11.4844583"><ele>160.0</ele><time>2026-03-22T12:19:36.047Z</time></trkpt><trkpt lat="45.4959183" lon="11.48454"><ele>160.0</ele><time>2026-03-22T12:19:37.047Z</time></trkpt><trkpt lat="45.49587" lon="11.4846033"><ele>160.0</ele><time>2026-03-22T12:19:38.047Z</time></trkpt><trkpt lat="45.4957983" lon="11.4846717"><ele>160.0</ele><time>2026-03-22T12:19:40.047Z</time></trkpt><trkpt lat="45.4957483" lon="11.48475"><ele>160.0</ele><time>2026-03-22T12:19:45.047Z</time></trkpt><trkpt lat="45.495715" lon="11.4848733"><ele>160.0</ele><time>2026-03-22T12:19:47.047Z</time></trkpt><trkpt lat="45.4956767" lon="11.4849717"><ele>159.8</ele><time>2026-03-22T12:19:48.047Z</time></trkpt><trkpt lat="45.4956367" lon="11.4850867"><ele>159.6</ele><time>2026-03-22T12:19:49.047Z</time></trkpt><trkpt lat="45.4956017" lon="11.4852133"><ele>159.4</ele><time>2026-03-22T12:19:50.047Z</time></trkpt><trkpt lat="45.4955817" lon="11.485355"><ele>159.2</ele><time>2026-03-22T12:19:51.046Z</time></trkpt><trkpt lat="45.4955733" lon="11.48548"><ele>159.0</ele><time>2026-03-22T12:19:52.047Z</time></trkpt><trkpt lat="45.4955833" lon="11.485595"><ele>158.6</ele><time>2026-03-22T12:19:53.046Z</time></trkpt><trkpt lat="45.4956133" lon="11.4857283"><ele>158.2</ele><time>2026-03-22T12:19:54.047Z</time></trkpt><trkpt lat="45.4956517" lon="11.4858683"><ele>157.79999999999998</ele><time>2026-03-22T12:19:55.047Z</time></trkpt><trkpt lat="45.495695" lon="11.486015"><ele>157.4</ele><time>2026-03-22T12:19:56.047Z</time></trkpt><trkpt lat="45.4957383" lon="11.4861567"><ele>157.0</ele><time>2026-03-22T12:19:57.047Z</time></trkpt><trkpt lat="45.495785" lon="11.4862883"><ele>157.0</ele><time>2026-03-22T12:19:58.047Z</time></trkpt><trkpt lat="45.4958317" lon="11.4864183"><ele>157.0</ele><time>2026-03-22T12:19:59.047Z</time></trkpt><trkpt lat="45.49588" lon="11.4865517"><ele>157.0</ele><time>2026-03-22T12:20:00.047Z</time></trkpt><trkpt lat="45.495925" lon="11.48669"><ele>157.0</ele><time>2026-03-22T12:20:01.046Z</time></trkpt><trkpt lat="45.495965" lon="11.4868333"><ele>157.0</ele><time>2026-03-22T12:20:02.047Z</time></trkpt><trkpt lat="45.4960033" lon="11.4869683"><ele>156.6</ele><time>2026-03-22T12:20:03.047Z</time></trkpt><trkpt lat="45.4960333" lon="11.4871"><ele>156.2</ele><time>2026-03-22T12:20:04.047Z</time></trkpt><trkpt lat="45.4960583" lon="11.4872267"><ele>155.8</ele><time>2026-03-22T12:20:05.047Z</time></trkpt><trkpt lat="45.4960833" lon="11.4873483"><ele>155.4</ele><time>2026-03-22T12:20:06.047Z</time></trkpt><trkpt lat="45.49611" lon="11.4874783"><ele>155.0</ele><time>2026-03-22T12:20:07.047Z</time></trkpt><trkpt lat="45.4961317" lon="11.4876067"><ele>155.0</ele><time>2026-03-22T12:20:08.047Z</time></trkpt><trkpt lat="45.4961567" lon="11.4877267"><ele>155.0</ele><time>2026-03-22T12:20:09.047Z</time></trkpt><trkpt lat="45.4961867" lon="11.4878517"><ele>155.0</ele><time>2026-03-22T12:20:10.046Z</time></trkpt><trkpt lat="45.4962133" lon="11.48798"><ele>155.0</ele><time>2026-03-22T12:20:11.047Z</time></trkpt><trkpt lat="45.4962383" lon="11.4881133"><ele>155.0</ele><time>2026-03-22T12:20:12.047Z</time></trkpt><trkpt lat="45.4962617" lon="11.4882567"><ele>154.4</ele><time>2026-03-22T12:20:13.047Z</time></trkpt><trkpt lat="45.49629" lon="11.4884017"><ele>153.8</ele><time>2026-03-22T12:20:14.047Z</time></trkpt><trkpt lat="45.49632" lon="11.4885433"><ele>153.2</ele><time>2026-03-22T12:20:15.047Z</time></trkpt><trkpt lat="45.4963467" lon="11.4886833"><ele>152.6</ele><time>2026-03-22T12:20:16.047Z</time></trkpt><trkpt lat="45.4963783" lon="11.4888033"><ele>152.0</ele><time>2026-03-22T12:20:17.047Z</time></trkpt><trkpt lat="45.4964083" lon="11.4889283"><ele>150.79999999999998</ele><time>2026-03-22T12:20:18.047Z</time></trkpt><trkpt lat="45.4964433" lon="11.48905"><ele>149.6</ele><time>2026-03-22T12:20:19.046Z</time></trkpt><trkpt lat="45.4965033" lon="11.4891783"><ele>148.39999999999998</ele><time>2026-03-22T12:20:20.046Z</time></trkpt><trkpt lat="45.4965783" lon="11.4892867"><ele>147.2</ele><time>2026-03-22T12:20:21.047Z</time></trkpt><trkpt lat="45.49668" lon="11.4893767"><ele>146.0</ele><time>2026-03-22T12:20:22.047Z</time></trkpt><trkpt lat="45.4967917" lon="11.4894317"><ele>146.0</ele><time>2026-03-22T12:20:23.046Z</time></trkpt><trkpt lat="45.496905" lon="11.4894567"><ele>146.0</ele><time>2026-03-22T12:20:24.047Z</time></trkpt><trkpt lat="45.49701" lon="11.4894567"><ele>146.0</ele><time>2026-03-22T12:20:25.047Z</time></trkpt><trkpt lat="45.497115" lon="11.4894467"><ele>146.0</ele><time>2026-03-22T12:20:26.047Z</time></trkpt><trkpt lat="45.4972183" lon="11.4894333"><ele>146.0</ele><time>2026-03-22T12:20:27.046Z</time></trkpt><trkpt lat="45.4973283" lon="11.48941"><ele>146.25</ele><time>2026-03-22T12:20:28.047Z</time></trkpt><trkpt lat="45.4974417" lon="11.48938"><ele>146.5</ele><time>2026-03-22T12:20:29.047Z</time></trkpt><trkpt lat="45.4975667" lon="11.4893467"><ele>146.75</ele><time>2026-03-22T12:20:30.046Z</time></trkpt><trkpt lat="45.4977033" lon="11.48932"><ele>147.0</ele><time>2026-03-22T12:20:31.047Z</time></trkpt><trkpt lat="45.4978267" lon="11.4892883"><ele>144.0</ele><time>2026-03-22T12:20:32.047Z</time></trkpt><trkpt lat="45.4979617" lon="11.4892733"><ele>141.0</ele><time>2026-03-22T12:20:33.047Z</time></trkpt><trkpt lat="45.4980833" lon="11.489245"><ele>138.0</ele><time>2026-03-22T12:20:34.047Z</time></trkpt><trkpt lat="45.4982" lon="11.48923"><ele>135.0</ele><time>2026-03-22T12:20:35.047Z</time></trkpt><trkpt lat="45.49831" lon="11.489215"><ele>135.0</ele><time>2026-03-22T12:20:36.047Z</time></trkpt><trkpt lat="45.4984283" lon="11.48919"><ele>135.0</ele><time>2026-03-22T12:20:37.047Z</time></trkpt><trkpt lat="45.4985417" lon="11.4891683"><ele>135.0</ele><time>2026-03-22T12:20:38.047Z</time></trkpt><trkpt lat="45.4986633" lon="11.4891433"><ele>135.0</ele><time>2026-03-22T12:20:39.047Z</time></trkpt><trkpt lat="45.498795" lon="11.48914"><ele>133.25</ele><time>2026-03-22T12:20:40.047Z</time></trkpt><trkpt lat="45.498915" lon="11.4891633"><ele>131.5</ele><time>2026-03-22T12:20:41.047Z</time></trkpt><trkpt lat="45.4990467" lon="11.489195"><ele>129.75</ele><time>2026-03-22T12:20:42.047Z</time></trkpt><trkpt lat="45.499175" lon="11.4892667"><ele>128.0</ele><time>2026-03-22T12:20:43.047Z</time></trkpt><trkpt lat="45.4993067" lon="11.4893467"><ele>128.0</ele><time>2026-03-22T12:20:44.046Z</time></trkpt><trkpt lat="45.4994367" lon="11.4894167"><ele>128.0</ele><time>2026-03-22T12:20:45.047Z</time></trkpt><trkpt lat="45.499575" lon="11.4894883"><ele>128.0</ele><time>2026-03-22T12:20:46.046Z</time></trkpt><trkpt lat="45.499725" lon="11.4895317"><ele>128.0</ele><time>2026-03-22T12:20:47.047Z</time></trkpt><trkpt lat="45.49987" lon="11.489555"><ele>127.75</ele><time>2026-03-22T12:20:48.047Z</time></trkpt><trkpt lat="45.5000167" lon="11.48958"><ele>127.5</ele><time>2026-03-22T12:20:49.047Z</time></trkpt><trkpt lat="45.5001567" lon="11.489615"><ele>127.25</ele><time>2026-03-22T12:20:50.047Z</time></trkpt><trkpt lat="45.5002833" lon="11.489655"><ele>127.0</ele><time>2026-03-22T12:20:51.046Z</time></trkpt><trkpt lat="45.5004217" lon="11.4897333"><ele>127.0</ele><time>2026-03-22T12:20:52.046Z</time></trkpt><trkpt lat="45.500565" lon="11.4898217"><ele>127.0</ele><time>2026-03-22T12:20:53.047Z</time></trkpt><trkpt lat="45.500695" lon="11.489935"><ele>127.0</ele><time>2026-03-22T12:20:54.047Z</time></trkpt><trkpt lat="45.5008133" lon="11.4900633"><ele>127.0</ele><time>2026-03-22T12:20:55.047Z</time></trkpt><trkpt lat="45.50091" lon="11.490195"><ele>126.99999999999999</ele><time>2026-03-22T12:20:56.047Z</time></trkpt><trkpt lat="45.50098" lon="11.49033"><ele>126.99999999999999</ele><time>2026-03-22T12:20:57.046Z</time></trkpt><trkpt lat="45.5010133" lon="11.4904567"><ele>127.0</ele><time>2026-03-22T12:20:58.047Z</time></trkpt><trkpt lat="45.5010317" lon="11.49058"><ele>127.0</ele><time>2026-03-22T12:20:59.047Z</time></trkpt><trkpt lat="45.5010483" lon="11.4907117"><ele>127.0</ele><time>2026-03-22T12:21:00.047Z</time></trkpt><trkpt lat="45.50107" lon="11.4908533"><ele>127.0</ele><time>2026-03-22T12:21:01.047Z</time></trkpt><trkpt lat="45.5011183" lon="11.491"><ele>127.0</ele><time>2026-03-22T12:21:02.046Z</time></trkpt><trkpt lat="45.5011833" lon="11.49114"><ele>127.0</ele><time>2026-03-22T12:21:03.047Z</time></trkpt><trkpt lat="45.501265" lon="11.49128"><ele>129.25</ele><time>2026-03-22T12:21:04.047Z</time></trkpt><trkpt lat="45.501355" lon="11.4914183"><ele>131.5</ele><time>2026-03-22T12:21:05.047Z</time></trkpt><trkpt lat="45.5014583" lon="11.4915517"><ele>133.75</ele><time>2026-03-22T12:21:06.047Z</time></trkpt><trkpt lat="45.5015617" lon="11.4916683"><ele>136.0</ele><time>2026-03-22T12:21:07.047Z</time></trkpt><trkpt lat="45.5016733" lon="11.491745"><ele>136.0</ele><time>2026-03-22T12:21:08.046Z</time></trkpt><trkpt lat="45.5017933" lon="11.4917833"><ele>136.0</ele><time>2026-03-22T12:21:09.047Z</time></trkpt><trkpt lat="45.5019283" lon="11.4918167"><ele>136.0</ele><time>2026-03-22T12:21:10.047Z</time></trkpt><trkpt lat="45.5020667" lon="11.4918317"><ele>136.0</ele><time>2026-03-22T12:21:11.047Z</time></trkpt><trkpt lat="45.5021817" lon="11.49181"><ele>137.66666666666669</ele><time>2026-03-22T12:21:12.047Z</time></trkpt><trkpt lat="45.5022833" lon="11.4917783"><ele>139.33333333333334</ele><time>2026-03-22T12:21:13.047Z</time></trkpt><trkpt lat="45.5023533" lon="11.491755"><ele>141.0</ele><time>2026-03-22T12:21:14.047Z</time></trkpt><trkpt lat="45.5024233" lon="11.491735"><ele>142.66666666666666</ele><time>2026-03-22T12:21:16.047Z</time></trkpt><trkpt lat="45.5024717" lon="11.4918433"><ele>144.33333333333331</ele><time>2026-03-22T12:21:19.047Z</time></trkpt><trkpt lat="45.502485" lon="11.4919483"><ele>146.0</ele><time>2026-03-22T12:21:20.047Z</time></trkpt><trkpt lat="45.5024867" lon="11.49208"><ele>144.0</ele><time>2026-03-22T12:21:21.046Z</time></trkpt><trkpt lat="45.5024783" lon="11.4922133"><ele>142.0</ele><time>2026-03-22T12:21:22.047Z</time></trkpt><trkpt lat="45.502485" lon="11.4923417"><ele>140.0</ele><time>2026-03-22T12:21:23.047Z</time></trkpt><trkpt lat="45.5025117" lon="11.4924717"><ele>138.0</ele><time>2026-03-22T12:21:24.046Z</time></trkpt><trkpt lat="45.50259" lon="11.49273"><ele>138.0</ele><time>2026-03-22T12:21:25.047Z</time></trkpt><trkpt lat="45.5026567" lon="11.4929183"><ele>138.0</ele><time>2026-03-22T12:21:26.047Z</time></trkpt><trkpt lat="45.502745" lon="11.4930467"><ele>138.0</ele><time>2026-03-22T12:21:27.047Z</time></trkpt><trkpt lat="45.50284" lon="11.493135"><ele>138.0</ele><time>2026-03-22T12:21:28.047Z</time></trkpt><trkpt lat="45.50297" lon="11.4931717"><ele>138.75</ele><time>2026-03-22T12:21:29.047Z</time></trkpt><trkpt lat="45.503105" lon="11.4932017"><ele>139.5</ele><time>2026-03-22T12:21:30.047Z</time></trkpt><trkpt lat="45.5032467" lon="11.49323"><ele>140.25</ele><time>2026-03-22T12:21:31.046Z</time></trkpt><trkpt lat="45.5033967" lon="11.4932633"><ele>141.0</ele><time>2026-03-22T12:21:32.046Z</time></trkpt><trkpt lat="45.5035533" lon="11.4933133"><ele>141.0</ele><time>2026-03-22T12:21:33.046Z</time></trkpt><trkpt lat="45.5037167" lon="11.4933733"><ele>141.0</ele><time>2026-03-22T12:21:34.047Z</time></trkpt><trkpt lat="45.503865" lon="11.4934183"><ele>141.0</ele><time>2026-03-22T12:21:35.047Z</time></trkpt><trkpt lat="45.50399" lon="11.4934533"><ele>141.0</ele><time>2026-03-22T12:21:36.047Z</time></trkpt><trkpt lat="45.50411" lon="11.49349"><ele>142.25</ele><time>2026-03-22T12:21:37.047Z</time></trkpt><trkpt lat="45.5042167" lon="11.4935483"><ele>143.5</ele><time>2026-03-22T12:21:38.047Z</time></trkpt><trkpt lat="45.5043017" lon="11.4936333"><ele>144.75</ele><time>2026-03-22T12:21:39.047Z</time></trkpt><trkpt lat="45.5043783" lon="11.4937883"><ele>146.0</ele><time>2026-03-22T12:21:40.047Z</time></trkpt><trkpt lat="45.504475" lon="11.4939583"><ele>143.25</ele><time>2026-03-22T12:21:41.047Z</time></trkpt><trkpt lat="45.50457" lon="11.4940933"><ele>140.5</ele><time>2026-03-22T12:21:42.047Z</time></trkpt><trkpt lat="45.5046667" lon="11.4942367"><ele>137.75</ele><time>2026-03-22T12:21:43.047Z</time></trkpt><trkpt lat="45.504765" lon="11.4943767"><ele>135.0</ele><time>2026-03-22T12:21:44.047Z</time></trkpt><trkpt lat="45.504865" lon="11.4945067"><ele>134.25</ele><time>2026-03-22T12:21:45.047Z</time></trkpt><trkpt lat="45.5049633" lon="11.4946567"><ele>133.5</ele><time>2026-03-22T12:21:46.047Z</time></trkpt><trkpt lat="45.5050583" lon="11.494815"><ele>132.75</ele><time>2026-03-22T12:21:47.047Z</time></trkpt><trkpt lat="45.505145" lon="11.4949833"><ele>132.0</ele><time>2026-03-22T12:21:48.047Z</time></trkpt><trkpt lat="45.5052117" lon="11.4951517"><ele>132.0</ele><time>2026-03-22T12:21:49.047Z</time></trkpt><trkpt lat="45.505265" lon="11.4953167"><ele>132.0</ele><time>2026-03-22T12:21:50.047Z</time></trkpt><trkpt lat="45.5053067" lon="11.49549"><ele>132.0</ele><time>2026-03-22T12:21:51.046Z</time></trkpt><trkpt lat="45.5053483" lon="11.49568"><ele>132.0</ele><time>2026-03-22T12:21:52.047Z</time></trkpt><trkpt lat="45.50538" lon="11.495865"><ele>131.75</ele><time>2026-03-22T12:21:53.047Z</time></trkpt><trkpt lat="45.5054017" lon="11.49606"><ele>131.5</ele><time>2026-03-22T12:21:54.047Z</time></trkpt><trkpt lat="45.505415" lon="11.49625"><ele>131.25</ele><time>2026-03-22T12:21:55.047Z</time></trkpt><trkpt lat="45.5054067" lon="11.496435"><ele>131.0</ele><time>2026-03-22T12:21:56.047Z</time></trkpt><trkpt lat="45.5053717" lon="11.4966017"><ele>131.0</ele><time>2026-03-22T12:21:57.047Z</time></trkpt><trkpt lat="45.5053017" lon="11.4967567"><ele>131.0</ele><time>2026-03-22T12:21:58.047Z</time></trkpt><trkpt lat="45.505225" lon="11.496895"><ele>131.0</ele><time>2026-03-22T12:21:59.047Z</time></trkpt><trkpt lat="45.50513" lon="11.4970217"><ele>131.0</ele><time>2026-03-22T12:22:00.047Z</time></trkpt><trkpt lat="45.505025" lon="11.4971283"><ele>131.0</ele><time>2026-03-22T12:22:01.047Z</time></trkpt><trkpt lat="45.5048983" lon="11.4972033"><ele>131.0</ele><time>2026-03-22T12:22:02.046Z</time></trkpt><trkpt lat="45.5047583" lon="11.49726"><ele>131.0</ele><time>2026-03-22T12:22:03.047Z</time></trkpt><trkpt lat="45.5046367" lon="11.497285"><ele>131.0</ele><time>2026-03-22T12:22:04.047Z</time></trkpt><trkpt lat="45.504515" lon="11.49732"><ele>131.0</ele><time>2026-03-22T12:22:05.047Z</time></trkpt><trkpt lat="45.5043917" lon="11.497345"><ele>131.0</ele><time>2026-03-22T12:22:06.047Z</time></trkpt><trkpt lat="45.504275" lon="11.497385"><ele>131.0</ele><time>2026-03-22T12:22:07.046Z</time></trkpt><trkpt lat="45.504165" lon="11.497435"><ele>131.0</ele><time>2026-03-22T12:22:08.047Z</time></trkpt><trkpt lat="45.5040717" lon="11.4974917"><ele>131.0</ele><time>2026-03-22T12:22:09.047Z</time></trkpt><trkpt lat="45.5039867" lon="11.4975717"><ele>131.0</ele><time>2026-03-22T12:22:10.047Z</time></trkpt><trkpt lat="45.503925" lon="11.4976783"><ele>131.0</ele><time>2026-03-22T12:22:11.047Z</time></trkpt><trkpt lat="45.5038767" lon="11.4978067"><ele>131.0</ele><time>2026-03-22T12:22:12.047Z</time></trkpt><trkpt lat="45.5038633" lon="11.4979433"><ele>131.0</ele><time>2026-03-22T12:22:13.047Z</time></trkpt><trkpt lat="45.5038633" lon="11.4980867"><ele>131.5</ele><time>2026-03-22T12:22:14.047Z</time></trkpt><trkpt lat="45.5038867" lon="11.4982367"><ele>132.0</ele><time>2026-03-22T12:22:15.047Z</time></trkpt><trkpt lat="45.5039483" lon="11.4983683"><ele>132.5</ele><time>2026-03-22T12:22:16.047Z</time></trkpt><trkpt lat="45.5040433" lon="11.4984883"><ele>133.0</ele><time>2026-03-22T12:22:17.046Z</time></trkpt><trkpt lat="45.5041333" lon="11.498615"><ele>133.0</ele><time>2026-03-22T12:22:18.047Z</time></trkpt><trkpt lat="45.504215" lon="11.4987383"><ele>133.0</ele><time>2026-03-22T12:22:19.047Z</time></trkpt><trkpt lat="45.50429" lon="11.4988617"><ele>133.0</ele><time>2026-03-22T12:22:20.046Z</time></trkpt><trkpt lat="45.50435" lon="11.498985"><ele>133.0</ele><time>2026-03-22T12:22:21.047Z</time></trkpt><trkpt lat="45.5043867" lon="11.4991117"><ele>133.0</ele><time>2026-03-22T12:22:22.047Z</time></trkpt><trkpt lat="45.5043917" lon="11.4992317"><ele>131.20000000000002</ele><time>2026-03-22T12:22:23.047Z</time></trkpt><trkpt lat="45.5043867" lon="11.4993567"><ele>129.4</ele><time>2026-03-22T12:22:24.047Z</time></trkpt><trkpt lat="45.5043517" lon="11.4994617"><ele>127.60000000000001</ele><time>2026-03-22T12:22:25.047Z</time></trkpt><trkpt lat="45.504285" lon="11.4995417"><ele>125.80000000000001</ele><time>2026-03-22T12:22:26.047Z</time></trkpt><trkpt lat="45.5041633" lon="11.4996417"><ele>124.0</ele><time>2026-03-22T12:22:27.046Z</time></trkpt><trkpt lat="45.50404" lon="11.49974"><ele>122.0</ele><time>2026-03-22T12:22:28.047Z</time></trkpt><trkpt lat="45.5039267" lon="11.4998267"><ele>120.0</ele><time>2026-03-22T12:22:29.047Z</time></trkpt><trkpt lat="45.503825" lon="11.4999117"><ele>118.0</ele><time>2026-03-22T12:22:30.047Z</time></trkpt><trkpt lat="45.5037283" lon="11.4999983"><ele>116.0</ele><time>2026-03-22T12:22:31.047Z</time></trkpt><trkpt lat="45.5036367" lon="11.5000933"><ele>114.16666666666666</ele><time>2026-03-22T12:22:32.047Z</time></trkpt><trkpt lat="45.5035633" lon="11.5001983"><ele>112.33333333333333</ele><time>2026-03-22T12:22:33.047Z</time></trkpt><trkpt lat="45.5035117" lon="11.500315"><ele>110.5</ele><time>2026-03-22T12:22:34.047Z</time></trkpt><trkpt lat="45.5034783" lon="11.5004333"><ele>108.66666666666666</ele><time>2026-03-22T12:22:35.047Z</time></trkpt><trkpt lat="45.5034617" lon="11.5005617"><ele>106.83333333333333</ele><time>2026-03-22T12:22:36.047Z</time></trkpt><trkpt lat="45.5034483" lon="11.5006517"><ele>105.0</ele><time>2026-03-22T12:22:37.047Z</time></trkpt><trkpt lat="45.5034333" lon="11.5007933"><ele>104.0</ele><time>2026-03-22T12:22:38.047Z</time></trkpt><trkpt lat="45.5034767" lon="11.5009383"><ele>103.0</ele><time>2026-03-22T12:22:39.047Z</time></trkpt><trkpt lat="45.5035733" lon="11.5010617"><ele>102.0</ele><time>2026-03-22T12:22:40.047Z</time></trkpt><trkpt lat="45.5036967" lon="11.501165"><ele>101.0</ele><time>2026-03-22T12:22:41.047Z</time></trkpt><trkpt lat="45.50383" lon="11.501255"><ele>99.0</ele><time>2026-03-22T12:22:42.047Z</time></trkpt><trkpt lat="45.5039633" lon="11.5013267"><ele>97.0</ele><time>2026-03-22T12:22:43.047Z</time></trkpt><trkpt lat="45.5041017" lon="11.5013967"><ele>95.0</ele><time>2026-03-22T12:22:44.047Z</time></trkpt><trkpt lat="45.504215" lon="11.5014583"><ele>93.0</ele><time>2026-03-22T12:22:45.047Z</time></trkpt><trkpt lat="45.504305" lon="11.5015283"><ele>93.0</ele><time>2026-03-22T12:22:46.047Z</time></trkpt><trkpt lat="45.5043617" lon="11.5016133"><ele>93.0</ele><time>2026-03-22T12:22:47.047Z</time></trkpt><trkpt lat="45.5043967" lon="11.5017083"><ele>93.0</ele><time>2026-03-22T12:22:48.047Z</time></trkpt><trkpt lat="45.504405" lon="11.5018133"><ele>93.0</ele><time>2026-03-22T12:22:49.047Z</time></trkpt><trkpt lat="45.5043917" lon="11.5019233"><ele>93.0</ele><time>2026-03-22T12:22:50.047Z</time></trkpt><trkpt lat="45.5043617" lon="11.5020383"><ele>93.0</ele><time>2026-03-22T12:22:51.047Z</time></trkpt><trkpt lat="45.5043183" lon="11.5021283"><ele>92.4</ele><time>2026-03-22T12:22:52.046Z</time></trkpt><trkpt lat="45.50428" lon="11.5022133"><ele>91.80000000000001</ele><time>2026-03-22T12:22:53.047Z</time></trkpt><trkpt lat="45.5042133" lon="11.502295"><ele>91.2</ele><time>2026-03-22T12:22:54.047Z</time></trkpt><trkpt lat="45.5041217" lon="11.50241"><ele>90.6</ele><time>2026-03-22T12:22:55.047Z</time></trkpt><trkpt lat="45.5040467" lon="11.5025333"><ele>90.0</ele><time>2026-03-22T12:22:56.047Z</time></trkpt><trkpt lat="45.50395" lon="11.5026817"><ele>90.0</ele><time>2026-03-22T12:22:57.047Z</time></trkpt><trkpt lat="45.5038567" lon="11.5028383"><ele>90.0</ele><time>2026-03-22T12:22:58.047Z</time></trkpt><trkpt lat="45.5037733" lon="11.5030033"><ele>90.0</ele><time>2026-03-22T12:22:59.047Z</time></trkpt><trkpt lat="45.5036833" lon="11.50319"><ele>90.0</ele><time>2026-03-22T12:23:00.047Z</time></trkpt><trkpt lat="45.5036" lon="11.5033633"><ele>83.33333333333333</ele><time>2026-03-22T12:23:01.047Z</time></trkpt><trkpt lat="45.5034783" lon="11.5035333"><ele>76.66666666666666</ele><time>2026-03-22T12:23:02.046Z</time></trkpt><trkpt lat="45.5033667" lon="11.5036917"><ele>70.0</ele><time>2026-03-22T12:23:03.047Z</time></trkpt><trkpt lat="45.5032467" lon="11.5038417"><ele>70.0</ele><time>2026-03-22T12:23:04.046Z</time></trkpt><trkpt lat="45.5031333" lon="11.50399"><ele>70.0</ele><time>2026-03-22T12:23:05.047Z</time></trkpt><trkpt lat="45.50304" lon="11.5041083"><ele>70.0</ele><time>2026-03-22T12:23:06.047Z</time></trkpt><trkpt lat="45.5029617" lon="11.504215"><ele>70.0</ele><time>2026-03-22T12:23:07.046Z</time></trkpt><trkpt lat="45.5028983" lon="11.504325"><ele>67.66666666666666</ele><time>2026-03-22T12:23:08.047Z</time></trkpt><trkpt lat="45.502855" lon="11.5044433"><ele>65.33333333333333</ele><time>2026-03-22T12:23:09.047Z</time></trkpt><trkpt lat="45.5028233" lon="11.5045633"><ele>63.0</ele><time>2026-03-22T12:23:10.047Z</time></trkpt><trkpt lat="45.5027983" lon="11.5046867"><ele>60.66666666666667</ele><time>2026-03-22T12:23:11.047Z</time></trkpt><trkpt lat="45.502815" lon="11.504795"><ele>58.333333333333336</ele><time>2026-03-22T12:23:12.047Z</time></trkpt><trkpt lat="45.502865" lon="11.504905"><ele>56.0</ele><time>2026-03-22T12:23:13.047Z</time></trkpt><trkpt lat="45.5029633" lon="11.5049883"><ele>56.0</ele><time>2026-03-22T12:23:14.047Z</time></trkpt><trkpt lat="45.5031417" lon="11.5050417"><ele>56.0</ele><time>2026-03-22T12:23:15.047Z</time></trkpt><trkpt lat="45.503285" lon="11.5050883"><ele>56.0</ele><time>2026-03-22T12:23:16.047Z</time></trkpt><trkpt lat="45.5034133" lon="11.5051517"><ele>56.0</ele><time>2026-03-22T12:23:17.047Z</time></trkpt><trkpt lat="45.50354" lon="11.5052117"><ele>56.0</ele><time>2026-03-22T12:23:18.047Z</time></trkpt><trkpt lat="45.50367" lon="11.50528"><ele>56.0</ele><time>2026-03-22T12:23:19.047Z</time></trkpt><trkpt lat="45.5037967" lon="11.5053433"><ele>56.0</ele><time>2026-03-22T12:23:20.047Z</time></trkpt><trkpt lat="45.5039217" lon="11.5054"><ele>51.25</ele><time>2026-03-22T12:23:21.047Z</time></trkpt><trkpt lat="45.5040567" lon="11.5054783"><ele>46.5</ele><time>2026-03-22T12:23:22.047Z</time></trkpt><trkpt lat="45.50419" lon="11.50554"><ele>41.75</ele><time>2026-03-22T12:23:23.047Z</time></trkpt><trkpt lat="45.5043233" lon="11.5056033"><ele>37.0</ele><time>2026-03-22T12:23:24.047Z</time></trkpt><trkpt lat="45.504465" lon="11.5056767"><ele>38.25</ele><time>2026-03-22T12:23:25.046Z</time></trkpt><trkpt lat="45.5046" lon="11.505725"><ele>39.5</ele><time>2026-03-22T12:23:26.047Z</time></trkpt><trkpt lat="45.5047433" lon="11.50575"><ele>40.75</ele><time>2026-03-22T12:23:27.046Z</time></trkpt><trkpt lat="45.5048983" lon="11.5057867"><ele>42.0</ele><time>2026-03-22T12:23:28.047Z</time></trkpt><trkpt lat="45.5050383" lon="11.50578"><ele>42.0</ele><time>2026-03-22T12:23:29.047Z</time></trkpt><trkpt lat="45.5051783" lon="11.505775"><ele>42.0</ele><time>2026-03-22T12:23:30.047Z</time></trkpt><trkpt lat="45.50532" lon="11.5057617"><ele>42.0</ele><time>2026-03-22T12:23:31.047Z</time></trkpt><trkpt lat="45.5054583" lon="11.505755"><ele>42.0</ele><time>2026-03-22T12:23:32.047Z</time></trkpt><trkpt lat="45.5056067" lon="11.505755"><ele>43.0</ele><time>2026-03-22T12:23:33.047Z</time></trkpt><trkpt lat="45.5057467" lon="11.5057717"><ele>44.0</ele><time>2026-03-22T12:23:34.047Z</time></trkpt><trkpt lat="45.5058933" lon="11.5057783"><ele>45.0</ele><time>2026-03-22T12:23:35.047Z</time></trkpt><trkpt lat="45.506045" lon="11.5057733"><ele>46.0</ele><time>2026-03-22T12:23:36.047Z</time></trkpt><trkpt lat="45.5061917" lon="11.5057683"><ele>45.66666666666667</ele><time>2026-03-22T12:23:37.047Z</time></trkpt><trkpt lat="45.5063433" lon="11.5057533"><ele>45.333333333333336</ele><time>2026-03-22T12:23:38.046Z</time></trkpt><trkpt lat="45.5064917" lon="11.5057483"><ele>45.0</ele><time>2026-03-22T12:23:39.046Z</time></trkpt><trkpt lat="45.5066467" lon="11.505745"><ele>45.0</ele><time>2026-03-22T12:23:40.047Z</time></trkpt><trkpt lat="45.5068033" lon="11.5057433"><ele>45.0</ele><time>2026-03-22T12:23:41.047Z</time></trkpt><trkpt lat="45.5069633" lon="11.5057467"><ele>45.0</ele><time>2026-03-22T12:23:42.047Z</time></trkpt><trkpt lat="45.5071133" lon="11.5057483"><ele>45.5</ele><time>2026-03-22T12:23:43.047Z</time></trkpt><trkpt lat="45.5072617" lon="11.5057633"><ele>46.0</ele><time>2026-03-22T12:23:44.047Z</time></trkpt><trkpt lat="45.5074" lon="11.5057983"><ele>46.5</ele><time>2026-03-22T12:23:45.047Z</time></trkpt><trkpt lat="45.5075517" lon="11.5058367"><ele>47.0</ele><time>2026-03-22T12:23:46.047Z</time></trkpt><trkpt lat="45.5077117" lon="11.5058917"><ele>47.0</ele><time>2026-03-22T12:23:47.047Z</time></trkpt><trkpt lat="45.507865" lon="11.5059333"><ele>47.0</ele><time>2026-03-22T12:23:48.047Z</time></trkpt><trkpt lat="45.508" lon="11.5060183"><ele>47.0</ele><time>2026-03-22T12:23:49.047Z</time></trkpt><trkpt lat="45.508145" lon="11.5060683"><ele>49.5</ele><time>2026-03-22T12:23:50.047Z</time></trkpt><trkpt lat="45.5082883" lon="11.5061117"><ele>52.0</ele><time>2026-03-22T12:23:51.046Z</time></trkpt><trkpt lat="45.508435" lon="11.5061683"><ele>54.5</ele><time>2026-03-22T12:23:52.047Z</time></trkpt><trkpt lat="45.5085567" lon="11.5062283"><ele>57.0</ele><time>2026-03-22T12:23:53.047Z</time></trkpt><trkpt lat="45.5086783" lon="11.5062567"><ele>53.333333333333336</ele><time>2026-03-22T12:23:54.047Z</time></trkpt><trkpt lat="45.5087867" lon="11.50627"><ele>49.666666666666664</ele><time>2026-03-22T12:23:55.047Z</time></trkpt><trkpt lat="45.508885" lon="11.5063"><ele>46.0</ele><time>2026-03-22T12:23:56.047Z</time></trkpt><trkpt lat="45.5089617" lon="11.5063267"><ele>42.33333333333333</ele><time>2026-03-22T12:23:57.047Z</time></trkpt><trkpt lat="45.5090167" lon="11.5063733"><ele>38.666666666666664</ele><time>2026-03-22T12:23:58.047Z</time></trkpt><trkpt lat="45.5090983" lon="11.5063683"><ele>35.0</ele><time>2026-03-22T12:24:07.047Z</time></trkpt><trkpt lat="45.5092117" lon="11.50635"><ele>35.0</ele><time>2026-03-22T12:24:09.046Z</time></trkpt><trkpt lat="45.5092783" lon="11.5063433"><ele>35.0</ele><time>2026-03-22T12:24:10.046Z</time></trkpt><trkpt lat="45.509345" lon="11.5063367"><ele>35.0</ele><time>2026-03-22T12:24:11.047Z</time></trkpt><trkpt lat="45.5094133" lon="11.5063283"><ele>35.0</ele><time>2026-03-22T12:24:12.047Z</time></trkpt><trkpt lat="45.5094917" lon="11.5063333"><ele>35.0</ele><time>2026-03-22T12:24:13.047Z</time></trkpt><trkpt lat="45.5095667" lon="11.5063417"><ele>35.0</ele><time>2026-03-22T12:24:14.046Z</time></trkpt><trkpt lat="45.5096517" lon="11.50637"><ele>35.0</ele><time>2026-03-22T12:24:15.047Z</time></trkpt><trkpt lat="45.5097433" lon="11.506405"><ele>35.2</ele><time>2026-03-22T12:24:16.047Z</time></trkpt><trkpt lat="45.509845" lon="11.50645"><ele>35.4</ele><time>2026-03-22T12:24:17.046Z</time></trkpt><trkpt lat="45.509935" lon="11.5064983"><ele>35.6</ele><time>2026-03-22T12:24:18.047Z</time></trkpt><trkpt lat="45.5100217" lon="11.5065433"><ele>35.8</ele><time>2026-03-22T12:24:19.047Z</time></trkpt><trkpt lat="45.510115" lon="11.50659"><ele>36.0</ele><time>2026-03-22T12:24:20.047Z</time></trkpt><trkpt lat="45.5102033" lon="11.5066283"><ele>36.0</ele><time>2026-03-22T12:24:21.047Z</time></trkpt><trkpt lat="45.5102867" lon="11.5066683"><ele>36.0</ele><time>2026-03-22T12:24:22.047Z</time></trkpt><trkpt lat="45.5103783" lon="11.5067267"><ele>36.0</ele><time>2026-03-22T12:24:23.047Z</time></trkpt><trkpt lat="45.5104833" lon="11.5068033"><ele>36.0</ele><time>2026-03-22T12:24:24.046Z</time></trkpt><trkpt lat="45.510555" lon="11.506865"><ele>36.0</ele><time>2026-03-22T12:24:25.047Z</time></trkpt><trkpt lat="45.510605" lon="11.5069283"><ele>35.666666666666664</ele><time>2026-03-22T12:24:26.046Z</time></trkpt><trkpt lat="45.5106467" lon="11.5070017"><ele>35.333333333333336</ele><time>2026-03-22T12:24:27.047Z</time></trkpt><trkpt lat="45.5107267" lon="11.5071"><ele>35.0</ele><time>2026-03-22T12:24:29.047Z</time></trkpt><trkpt lat="45.51083" lon="11.5071617"><ele>34.66666666666667</ele><time>2026-03-22T12:24:31.047Z</time></trkpt><trkpt lat="45.5109117" lon="11.5072117"><ele>34.333333333333336</ele><time>2026-03-22T12:24:33.047Z</time></trkpt><trkpt lat="45.5109567" lon="11.5072767"><ele>34.0</ele><time>2026-03-22T12:24:38.047Z</time></trkpt><trkpt lat="45.511045" lon="11.5073133"><ele>33.0</ele><time>2026-03-22T12:25:46.046Z</time></trkpt></trkseg></trk></gpx>